<?xml version='1.0' encoding='UTF-8'?><gpx version="1.1" creator="JPX - https://github.com/jenetics/jpx" xmlns="http://www.topografix.com/GPX/1/1"><trk><trkseg><trkpt lat="43.4221713" lon="11.1811518"><ele>170.0</ele><time>2026-04-17T14:31:22.288Z</time></trkpt><trkpt lat="43.4222482" lon="11.1811718"><ele>170.0</ele><time>2026-04-17T14:31:28.302Z</time></trkpt><trkpt lat="43.4222664" lon="11.1812661"><ele>170.0</ele><time>2026-04-17T14:31:32.306Z</time></trkpt><trkpt lat="43.4222813" lon="11.1813821"><ele>170.0</ele><time>2026-04-17T14:31:35.315Z</time></trkpt><trkpt lat="43.4222887" lon="11.1814729"><ele>170.0</ele><time>2026-04-17T14:31:37.289Z</time></trkpt><trkpt lat="43.4223167" lon="11.1815832"><ele>170.0</ele><time>2026-04-17T14:31:40.298Z</time></trkpt><trkpt lat="43.422276" lon="11.1816817"><ele>170.0</ele><time>2026-04-17T14:31:43.285Z</time></trkpt><trkpt lat="43.4222309" lon="11.1817528"><ele>170.0</ele><time>2026-04-17T14:31:45.292Z</time></trkpt><trkpt lat="43.4221705" lon="11.1818424"><ele>170.0</ele><time>2026-04-17T14:31:48.292Z</time></trkpt><trkpt lat="43.422123" lon="11.1819442"><ele>170.0</ele><time>2026-04-17T14:31:51.294Z</time></trkpt><trkpt lat="43.4220777" lon="11.1820148"><ele>170.0</ele><time>2026-04-17T14:31:54.294Z</time></trkpt><trkpt lat="43.4220698" lon="11.1821301"><ele>170.0</ele><time>2026-04-17T14:31:57.29Z</time></trkpt><trkpt lat="43.4220769" lon="11.1822418"><ele>170.5</ele><time>2026-04-17T14:31:59.295Z</time></trkpt><trkpt lat="43.4221077" lon="11.1823546"><ele>171.0</ele><time>2026-04-17T14:32:01.284Z</time></trkpt><trkpt lat="43.4221385" lon="11.1824592"><ele>171.5</ele><time>2026-04-17T14:32:03.296Z</time></trkpt><trkpt lat="43.4221767" lon="11.1825569"><ele>172.0</ele><time>2026-04-17T14:32:05.287Z</time></trkpt><trkpt lat="43.4222018" lon="11.1826559"><ele>172.5</ele><time>2026-04-17T14:32:07.294Z</time></trkpt><trkpt lat="43.4221407" lon="11.1827573"><ele>173.0</ele><time>2026-04-17T14:32:09.291Z</time></trkpt><trkpt lat="43.4220687" lon="11.1828122"><ele>173.33333333333331</ele><time>2026-04-17T14:32:11.295Z</time></trkpt><trkpt lat="43.4219984" lon="11.182865"><ele>173.66666666666666</ele><time>2026-04-17T14:32:13.302Z</time></trkpt><trkpt lat="43.421936" lon="11.1829276"><ele>174.0</ele><time>2026-04-17T14:32:15.288Z</time></trkpt><trkpt lat="43.4218725" lon="11.1829905"><ele>174.33333333333334</ele><time>2026-04-17T14:32:17.303Z</time></trkpt><trkpt lat="43.421805" lon="11.1830451"><ele>174.66666666666669</ele><time>2026-04-17T14:32:19.289Z</time></trkpt><trkpt lat="43.4217382" lon="11.1830956"><ele>175.0</ele><time>2026-04-17T14:32:21.302Z</time></trkpt><trkpt lat="43.4216771" lon="11.183153"><ele>175.0</ele><time>2026-04-17T14:32:23.298Z</time></trkpt><trkpt lat="43.4216235" lon="11.1832129"><ele>175.0</ele><time>2026-04-17T14:32:25.287Z</time></trkpt><trkpt lat="43.4215595" lon="11.1832631"><ele>175.0</ele><time>2026-04-17T14:32:27.291Z</time></trkpt><trkpt lat="43.4214948" lon="11.183315"><ele>175.0</ele><time>2026-04-17T14:32:29.298Z</time></trkpt><trkpt lat="43.4214363" lon="11.1833643"><ele>175.0</ele><time>2026-04-17T14:32:31.312Z</time></trkpt><trkpt lat="43.4213766" lon="11.1834158"><ele>175.0</ele><time>2026-04-17T14:32:33.283Z</time></trkpt><trkpt lat="43.4213138" lon="11.1834749"><ele>175.0</ele><time>2026-04-17T14:32:35.284Z</time></trkpt><trkpt lat="43.4212537" lon="11.1835325"><ele>175.16666666666669</ele><time>2026-04-17T14:32:37.292Z</time></trkpt><trkpt lat="43.4211914" lon="11.1835856"><ele>175.33333333333334</ele><time>2026-04-17T14:32:39.304Z</time></trkpt><trkpt lat="43.4211346" lon="11.1836427"><ele>175.5</ele><time>2026-04-17T14:32:41.308Z</time></trkpt><trkpt lat="43.4210773" lon="11.1837447"><ele>175.66666666666666</ele><time>2026-04-17T14:32:44.286Z</time></trkpt><trkpt lat="43.421029" lon="11.1838224"><ele>175.83333333333331</ele><time>2026-04-17T14:32:46.294Z</time></trkpt><trkpt lat="43.4209802" lon="11.183903"><ele>176.0</ele><time>2026-04-17T14:32:48.295Z</time></trkpt><trkpt lat="43.4209072" lon="11.1840385"><ele>176.20000000000002</ele><time>2026-04-17T14:32:51.282Z</time></trkpt><trkpt lat="43.420838" lon="11.1841218"><ele>176.4</ele><time>2026-04-17T14:32:53.279Z</time></trkpt><trkpt lat="43.4207847" lon="11.1842227"><ele>176.6</ele><time>2026-04-17T14:32:55.283Z</time></trkpt><trkpt lat="43.420728" lon="11.1843179"><ele>176.8</ele><time>2026-04-17T14:32:57.28Z</time></trkpt><trkpt lat="43.4206707" lon="11.1844123"><ele>177.0</ele><time>2026-04-17T14:32:59.299Z</time></trkpt><trkpt lat="43.4206166" lon="11.1845165"><ele>177.0</ele><time>2026-04-17T14:33:01.285Z</time></trkpt><trkpt lat="43.4205665" lon="11.184636"><ele>177.0</ele><time>2026-04-17T14:33:03.288Z</time></trkpt><trkpt lat="43.4205144" lon="11.1847355"><ele>177.0</ele><time>2026-04-17T14:33:05.317Z</time></trkpt><trkpt lat="43.4204643" lon="11.1848345"><ele>177.0</ele><time>2026-04-17T14:33:07.291Z</time></trkpt><trkpt lat="43.4204189" lon="11.1849365"><ele>177.0</ele><time>2026-04-17T14:33:09.308Z</time></trkpt><trkpt lat="43.4203661" lon="11.1850309"><ele>176.8</ele><time>2026-04-17T14:33:11.309Z</time></trkpt><trkpt lat="43.4203158" lon="11.1851308"><ele>176.6</ele><time>2026-04-17T14:33:13.37Z</time></trkpt><trkpt lat="43.4202512" lon="11.1852333"><ele>176.4</ele><time>2026-04-17T14:33:15.31Z</time></trkpt><trkpt lat="43.4202034" lon="11.1853273"><ele>176.20000000000002</ele><time>2026-04-17T14:33:17.313Z</time></trkpt><trkpt lat="43.4201519" lon="11.1854443"><ele>176.0</ele><time>2026-04-17T14:33:19.31Z</time></trkpt><trkpt lat="43.420098" lon="11.1855458"><ele>176.0</ele><time>2026-04-17T14:33:21.305Z</time></trkpt><trkpt lat="43.420047" lon="11.1856453"><ele>176.0</ele><time>2026-04-17T14:33:23.314Z</time></trkpt><trkpt lat="43.4199695" lon="11.1857665"><ele>176.0</ele><time>2026-04-17T14:33:26.3Z</time></trkpt><trkpt lat="43.4199272" lon="11.1858736"><ele>176.0</ele><time>2026-04-17T14:33:28.318Z</time></trkpt><trkpt lat="43.419876" lon="11.1859767"><ele>176.0</ele><time>2026-04-17T14:33:30.299Z</time></trkpt><trkpt lat="43.4198196" lon="11.1860738"><ele>176.0</ele><time>2026-04-17T14:33:32.3Z</time></trkpt><trkpt lat="43.4197774" lon="11.186166"><ele>176.0</ele><time>2026-04-17T14:33:34.379Z</time></trkpt><trkpt lat="43.4197274" lon="11.1862608"><ele>176.0</ele><time>2026-04-17T14:33:36.304Z</time></trkpt><trkpt lat="43.419664" lon="11.1863694"><ele>176.0</ele><time>2026-04-17T14:33:38.286Z</time></trkpt><trkpt lat="43.4195562" lon="11.1865445"><ele>176.0</ele><time>2026-04-17T14:33:41.294Z</time></trkpt><trkpt lat="43.4194735" lon="11.186671"><ele>175.71428571428572</ele><time>2026-04-17T14:33:43.378Z</time></trkpt><trkpt lat="43.4194302" lon="11.1867393"><ele>175.42857142857142</ele><time>2026-04-17T14:33:44.387Z</time></trkpt><trkpt lat="43.4193847" lon="11.18681"><ele>175.14285714285714</ele><time>2026-04-17T14:33:45.292Z</time></trkpt><trkpt lat="43.4193348" lon="11.1868931"><ele>174.85714285714286</ele><time>2026-04-17T14:33:46.302Z</time></trkpt><trkpt lat="43.4192869" lon="11.1869712"><ele>174.57142857142858</ele><time>2026-04-17T14:33:47.307Z</time></trkpt><trkpt lat="43.4192418" lon="11.1870608"><ele>174.28571428571428</ele><time>2026-04-17T14:33:48.383Z</time></trkpt><trkpt lat="43.4191985" lon="11.1871499"><ele>174.0</ele><time>2026-04-17T14:33:49.384Z</time></trkpt><trkpt lat="43.419156" lon="11.1872302"><ele>174.0</ele><time>2026-04-17T14:33:50.294Z</time></trkpt><trkpt lat="43.4191139" lon="11.187307"><ele>174.0</ele><time>2026-04-17T14:33:51.279Z</time></trkpt><trkpt lat="43.419071" lon="11.1873797"><ele>174.0</ele><time>2026-04-17T14:33:52.303Z</time></trkpt><trkpt lat="43.4190311" lon="11.1874481"><ele>174.0</ele><time>2026-04-17T14:33:53.41Z</time></trkpt><trkpt lat="43.4189589" lon="11.1875766"><ele>174.0</ele><time>2026-04-17T14:33:55.29Z</time></trkpt><trkpt lat="43.4189394" lon="11.1876632"><ele>174.0</ele><time>2026-04-17T14:33:56.306Z</time></trkpt><trkpt lat="43.418927" lon="11.1877611"><ele>173.66666666666666</ele><time>2026-04-17T14:33:57.305Z</time></trkpt><trkpt lat="43.4189056" lon="11.1878612"><ele>173.33333333333334</ele><time>2026-04-17T14:33:58.312Z</time></trkpt><trkpt lat="43.4188716" lon="11.1879465"><ele>173.0</ele><time>2026-04-17T14:33:59.307Z</time></trkpt><trkpt lat="43.4188314" lon="11.1880189"><ele>172.66666666666669</ele><time>2026-04-17T14:34:00.3Z</time></trkpt><trkpt lat="43.4187875" lon="11.1880887"><ele>172.33333333333334</ele><time>2026-04-17T14:34:01.298Z</time></trkpt><trkpt lat="43.4187471" lon="11.1881572"><ele>172.0</ele><time>2026-04-17T14:34:02.304Z</time></trkpt><trkpt lat="43.4186603" lon="11.1882853"><ele>171.39999999999998</ele><time>2026-04-17T14:34:04.373Z</time></trkpt><trkpt lat="43.4186131" lon="11.1883482"><ele>170.79999999999998</ele><time>2026-04-17T14:34:05.284Z</time></trkpt><trkpt lat="43.4185737" lon="11.1884192"><ele>170.2</ele><time>2026-04-17T14:34:06.306Z</time></trkpt><trkpt lat="43.4184984" lon="11.1885397"><ele>169.6</ele><time>2026-04-17T14:34:08.289Z</time></trkpt><trkpt lat="43.4184348" lon="11.1886606"><ele>169.0</ele><time>2026-04-17T14:34:10.286Z</time></trkpt><trkpt lat="43.4183935" lon="11.1887952"><ele>169.0</ele><time>2026-04-17T14:34:12.379Z</time></trkpt><trkpt lat="43.4183811" lon="11.1889466"><ele>169.0</ele><time>2026-04-17T14:34:14.298Z</time></trkpt><trkpt lat="43.4183429" lon="11.189088"><ele>169.0</ele><time>2026-04-17T14:34:16.307Z</time></trkpt><trkpt lat="43.4182841" lon="11.1892027"><ele>169.0</ele><time>2026-04-17T14:34:18.386Z</time></trkpt><trkpt lat="43.4181939" lon="11.1892999"><ele>169.0</ele><time>2026-04-17T14:34:20.296Z</time></trkpt><trkpt lat="43.4181257" lon="11.1893973"><ele>169.2</ele><time>2026-04-17T14:34:22.309Z</time></trkpt><trkpt lat="43.4180638" lon="11.1895019"><ele>169.39999999999998</ele><time>2026-04-17T14:34:24.381Z</time></trkpt><trkpt lat="43.4180149" lon="11.1896148"><ele>169.6</ele><time>2026-04-17T14:34:26.306Z</time></trkpt><trkpt lat="43.4179925" lon="11.1897469"><ele>169.8</ele><time>2026-04-17T14:34:28.368Z</time></trkpt><trkpt lat="43.4179468" lon="11.1898599"><ele>170.0</ele><time>2026-04-17T14:34:29.307Z</time></trkpt><trkpt lat="43.4179298" lon="11.1900197"><ele>170.66666666666666</ele><time>2026-04-17T14:34:32.273Z</time></trkpt><trkpt lat="43.4178827" lon="11.1901505"><ele>171.33333333333331</ele><time>2026-04-17T14:34:34.297Z</time></trkpt><trkpt lat="43.4178473" lon="11.1902539"><ele>172.0</ele><time>2026-04-17T14:34:36.295Z</time></trkpt><trkpt lat="43.4178011" lon="11.1903693"><ele>172.66666666666666</ele><time>2026-04-17T14:34:38.375Z</time></trkpt><trkpt lat="43.4177629" lon="11.1904678"><ele>173.33333333333334</ele><time>2026-04-17T14:34:40.287Z</time></trkpt><trkpt lat="43.4177287" lon="11.190561"><ele>174.0</ele><time>2026-04-17T14:34:42.294Z</time></trkpt><trkpt lat="43.4176904" lon="11.1906539"><ele>174.33333333333334</ele><time>2026-04-17T14:34:44.31Z</time></trkpt><trkpt lat="43.4176508" lon="11.1907569"><ele>174.66666666666666</ele><time>2026-04-17T14:34:46.28Z</time></trkpt><trkpt lat="43.4176193" lon="11.1908691"><ele>175.0</ele><time>2026-04-17T14:34:48.373Z</time></trkpt><trkpt lat="43.4175769" lon="11.1909699"><ele>175.33333333333331</ele><time>2026-04-17T14:34:50.3Z</time></trkpt><trkpt lat="43.4175303" lon="11.191083"><ele>175.66666666666666</ele><time>2026-04-17T14:34:52.305Z</time></trkpt><trkpt lat="43.4174898" lon="11.1911964"><ele>176.0</ele><time>2026-04-17T14:34:54.279Z</time></trkpt><trkpt lat="43.4174416" lon="11.1913179"><ele>176.0</ele><time>2026-04-17T14:34:56.296Z</time></trkpt><trkpt lat="43.4173873" lon="11.191448"><ele>176.0</ele><time>2026-04-17T14:34:58.361Z</time></trkpt><trkpt lat="43.4173295" lon="11.1915995"><ele>176.0</ele><time>2026-04-17T14:35:00.301Z</time></trkpt><trkpt lat="43.4172937" lon="11.191678"><ele>176.0</ele><time>2026-04-17T14:35:01.302Z</time></trkpt><trkpt lat="43.4172587" lon="11.1917617"><ele>176.0</ele><time>2026-04-17T14:35:02.38Z</time></trkpt><trkpt lat="43.4172173" lon="11.1918428"><ele>176.0</ele><time>2026-04-17T14:35:03.363Z</time></trkpt><trkpt lat="43.4171789" lon="11.1919299"><ele>175.5</ele><time>2026-04-17T14:35:04.371Z</time></trkpt><trkpt lat="43.4171472" lon="11.1920157"><ele>175.0</ele><time>2026-04-17T14:35:05.301Z</time></trkpt><trkpt lat="43.4171149" lon="11.1921125"><ele>174.5</ele><time>2026-04-17T14:35:06.3Z</time></trkpt><trkpt lat="43.4170842" lon="11.1922173"><ele>174.0</ele><time>2026-04-17T14:35:07.302Z</time></trkpt><trkpt lat="43.4170509" lon="11.1923145"><ele>173.5</ele><time>2026-04-17T14:35:08.371Z</time></trkpt><trkpt lat="43.4170234" lon="11.1924214"><ele>173.0</ele><time>2026-04-17T14:35:09.307Z</time></trkpt><trkpt lat="43.4170025" lon="11.1925266"><ele>172.66666666666666</ele><time>2026-04-17T14:35:10.307Z</time></trkpt><trkpt lat="43.4169876" lon="11.1926358"><ele>172.33333333333331</ele><time>2026-04-17T14:35:11.299Z</time></trkpt><trkpt lat="43.4169798" lon="11.1927492"><ele>172.0</ele><time>2026-04-17T14:35:12.37Z</time></trkpt><trkpt lat="43.4169749" lon="11.1928636"><ele>171.66666666666666</ele><time>2026-04-17T14:35:13.378Z</time></trkpt><trkpt lat="43.4169704" lon="11.1929719"><ele>171.33333333333334</ele><time>2026-04-17T14:35:14.296Z</time></trkpt><trkpt lat="43.4169649" lon="11.1930783"><ele>171.0</ele><time>2026-04-17T14:35:15.3Z</time></trkpt><trkpt lat="43.4169543" lon="11.1931831"><ele>170.57142857142856</ele><time>2026-04-17T14:35:16.305Z</time></trkpt><trkpt lat="43.4169391" lon="11.1932828"><ele>170.14285714285714</ele><time>2026-04-17T14:35:17.275Z</time></trkpt><trkpt lat="43.4169143" lon="11.1933706"><ele>169.71428571428572</ele><time>2026-04-17T14:35:18.299Z</time></trkpt><trkpt lat="43.4168815" lon="11.1934541"><ele>169.28571428571428</ele><time>2026-04-17T14:35:19.298Z</time></trkpt><trkpt lat="43.4168384" lon="11.1935211"><ele>168.85714285714286</ele><time>2026-04-17T14:35:20.297Z</time></trkpt><trkpt lat="43.4167931" lon="11.1935818"><ele>168.42857142857142</ele><time>2026-04-17T14:35:21.286Z</time></trkpt><trkpt lat="43.4167479" lon="11.1936445"><ele>168.0</ele><time>2026-04-17T14:35:22.288Z</time></trkpt><trkpt lat="43.4166641" lon="11.1937653"><ele>168.0</ele><time>2026-04-17T14:35:24.375Z</time></trkpt><trkpt lat="43.416626" lon="11.1938386"><ele>168.0</ele><time>2026-04-17T14:35:25.291Z</time></trkpt><trkpt lat="43.4165507" lon="11.1939652"><ele>168.0</ele><time>2026-04-17T14:35:27.289Z</time></trkpt><trkpt lat="43.4165096" lon="11.1941006"><ele>168.0</ele><time>2026-04-17T14:35:29.302Z</time></trkpt><trkpt lat="43.4164863" lon="11.1942502"><ele>168.0</ele><time>2026-04-17T14:35:31.295Z</time></trkpt><trkpt lat="43.4164442" lon="11.1943532"><ele>167.83333333333334</ele><time>2026-04-17T14:35:33.389Z</time></trkpt><trkpt lat="43.4164051" lon="11.1944484"><ele>167.66666666666666</ele><time>2026-04-17T14:35:35.308Z</time></trkpt><trkpt lat="43.4164396" lon="11.1945991"><ele>167.5</ele><time>2026-04-17T14:35:37.3Z</time></trkpt><trkpt lat="43.4164668" lon="11.1946778"><ele>167.33333333333331</ele><time>2026-04-17T14:35:38.286Z</time></trkpt><trkpt lat="43.4164962" lon="11.1947546"><ele>167.16666666666666</ele><time>2026-04-17T14:35:39.363Z</time></trkpt><trkpt lat="43.4165305" lon="11.1948326"><ele>167.0</ele><time>2026-04-17T14:35:40.297Z</time></trkpt><trkpt lat="43.4166027" lon="11.1949715"><ele>167.66666666666666</ele><time>2026-04-17T14:35:43.376Z</time></trkpt><trkpt lat="43.416625" lon="11.1950611"><ele>168.33333333333331</ele><time>2026-04-17T14:35:44.389Z</time></trkpt><trkpt lat="43.4166577" lon="11.1951657"><ele>169.0</ele><time>2026-04-17T14:35:45.303Z</time></trkpt><trkpt lat="43.416679" lon="11.1952531"><ele>169.66666666666666</ele><time>2026-04-17T14:35:46.299Z</time></trkpt><trkpt lat="43.4167093" lon="11.1953697"><ele>170.33333333333334</ele><time>2026-04-17T14:35:48.374Z</time></trkpt><trkpt lat="43.4167052" lon="11.1954717"><ele>171.0</ele><time>2026-04-17T14:35:50.289Z</time></trkpt><trkpt lat="43.4166893" lon="11.19557"><ele>171.5</ele><time>2026-04-17T14:35:52.297Z</time></trkpt><trkpt lat="43.4166799" lon="11.1956759"><ele>172.0</ele><time>2026-04-17T14:35:54.385Z</time></trkpt><trkpt lat="43.4166597" lon="11.1957997"><ele>172.5</ele><time>2026-04-17T14:35:56.308Z</time></trkpt><trkpt lat="43.416632" lon="11.1959177"><ele>173.0</ele><time>2026-04-17T14:35:59.292Z</time></trkpt><trkpt lat="43.4166058" lon="11.1960131"><ele>173.5</ele><time>2026-04-17T14:36:01.291Z</time></trkpt><trkpt lat="43.4165798" lon="11.1961094"><ele>174.0</ele><time>2026-04-17T14:36:03.282Z</time></trkpt><trkpt lat="43.4165504" lon="11.1962136"><ele>174.0</ele><time>2026-04-17T14:36:05.302Z</time></trkpt><trkpt lat="43.4165218" lon="11.1963095"><ele>174.0</ele><time>2026-04-17T14:36:07.402Z</time></trkpt><trkpt lat="43.4164911" lon="11.1964091"><ele>174.0</ele><time>2026-04-17T14:36:09.31Z</time></trkpt><trkpt lat="43.4164642" lon="11.1965196"><ele>174.0</ele><time>2026-04-17T14:36:11.311Z</time></trkpt><trkpt lat="43.4164362" lon="11.196625"><ele>174.0</ele><time>2026-04-17T14:36:13.368Z</time></trkpt><trkpt lat="43.4164072" lon="11.1967279"><ele>174.0</ele><time>2026-04-17T14:36:15.29Z</time></trkpt><trkpt lat="43.4163745" lon="11.1968308"><ele>174.33333333333334</ele><time>2026-04-17T14:36:17.301Z</time></trkpt><trkpt lat="43.4163316" lon="11.1969258"><ele>174.66666666666666</ele><time>2026-04-17T14:36:19.299Z</time></trkpt><trkpt lat="43.4162795" lon="11.1970068"><ele>175.0</ele><time>2026-04-17T14:36:21.301Z</time></trkpt><trkpt lat="43.4162246" lon="11.1970841"><ele>175.33333333333331</ele><time>2026-04-17T14:36:23.304Z</time></trkpt><trkpt lat="43.4161608" lon="11.1971506"><ele>175.66666666666666</ele><time>2026-04-17T14:36:25.31Z</time></trkpt><trkpt lat="43.4161041" lon="11.1972133"><ele>176.0</ele><time>2026-04-17T14:36:27.307Z</time></trkpt><trkpt lat="43.4160593" lon="11.1972825"><ele>176.33333333333331</ele><time>2026-04-17T14:36:29.31Z</time></trkpt><trkpt lat="43.4160016" lon="11.1973473"><ele>176.66666666666666</ele><time>2026-04-17T14:36:31.298Z</time></trkpt><trkpt lat="43.4159419" lon="11.197462"><ele>177.0</ele><time>2026-04-17T14:36:33.383Z</time></trkpt><trkpt lat="43.4158906" lon="11.1975383"><ele>177.33333333333334</ele><time>2026-04-17T14:36:35.304Z</time></trkpt><trkpt lat="43.4158623" lon="11.1976517"><ele>177.66666666666669</ele><time>2026-04-17T14:36:37.303Z</time></trkpt><trkpt lat="43.4158202" lon="11.1977522"><ele>178.0</ele><time>2026-04-17T14:36:39.347Z</time></trkpt><trkpt lat="43.4157814" lon="11.1978553"><ele>178.0</ele><time>2026-04-17T14:36:41.298Z</time></trkpt><trkpt lat="43.4157359" lon="11.1979531"><ele>178.0</ele><time>2026-04-17T14:36:43.301Z</time></trkpt><trkpt lat="43.4156896" lon="11.1980516"><ele>178.0</ele><time>2026-04-17T14:36:45.31Z</time></trkpt><trkpt lat="43.4156465" lon="11.1981547"><ele>178.0</ele><time>2026-04-17T14:36:47.315Z</time></trkpt><trkpt lat="43.4155973" lon="11.1982508"><ele>178.0</ele><time>2026-04-17T14:36:49.364Z</time></trkpt><trkpt lat="43.4155542" lon="11.1983489"><ele>178.0</ele><time>2026-04-17T14:36:51.28Z</time></trkpt><trkpt lat="43.4155135" lon="11.1984544"><ele>178.83333333333334</ele><time>2026-04-17T14:36:53.311Z</time></trkpt><trkpt lat="43.4154704" lon="11.1985509"><ele>179.66666666666669</ele><time>2026-04-17T14:36:55.304Z</time></trkpt><trkpt lat="43.4154238" lon="11.1986568"><ele>180.5</ele><time>2026-04-17T14:36:57.357Z</time></trkpt><trkpt lat="43.4153868" lon="11.1987624"><ele>181.33333333333334</ele><time>2026-04-17T14:36:59.308Z</time></trkpt><trkpt lat="43.415344" lon="11.198861"><ele>182.16666666666666</ele><time>2026-04-17T14:37:01.304Z</time></trkpt><trkpt lat="43.415302" lon="11.1989566"><ele>183.0</ele><time>2026-04-17T14:37:03.308Z</time></trkpt><trkpt lat="43.4152728" lon="11.1990615"><ele>183.0</ele><time>2026-04-17T14:37:05.301Z</time></trkpt><trkpt lat="43.4152528" lon="11.1991618"><ele>183.0</ele><time>2026-04-17T14:37:07.3Z</time></trkpt><trkpt lat="43.415234" lon="11.1992681"><ele>183.0</ele><time>2026-04-17T14:37:09.378Z</time></trkpt><trkpt lat="43.4152254" lon="11.1993734"><ele>183.0</ele><time>2026-04-17T14:37:11.298Z</time></trkpt><trkpt lat="43.4152114" lon="11.1994764"><ele>183.0</ele><time>2026-04-17T14:37:13.379Z</time></trkpt><trkpt lat="43.4151596" lon="11.1995737"><ele>183.0</ele><time>2026-04-17T14:37:15.305Z</time></trkpt><trkpt lat="43.4151519" lon="11.1996883"><ele>183.0</ele><time>2026-04-17T14:37:17.303Z</time></trkpt><trkpt lat="43.4151439" lon="11.1998137"><ele>183.0</ele><time>2026-04-17T14:37:19.374Z</time></trkpt><trkpt lat="43.4151229" lon="11.1999291"><ele>183.0</ele><time>2026-04-17T14:37:21.305Z</time></trkpt><trkpt lat="43.4151015" lon="11.2000496"><ele>183.0</ele><time>2026-04-17T14:37:23.29Z</time></trkpt><trkpt lat="43.4150785" lon="11.2001703"><ele>183.0</ele><time>2026-04-17T14:37:25.284Z</time></trkpt><trkpt lat="43.415029" lon="11.2002656"><ele>183.0</ele><time>2026-04-17T14:37:27.295Z</time></trkpt><trkpt lat="43.4150031" lon="11.2003716"><ele>182.83333333333334</ele><time>2026-04-17T14:37:29.298Z</time></trkpt><trkpt lat="43.4149757" lon="11.2004715"><ele>182.66666666666666</ele><time>2026-04-17T14:37:31.299Z</time></trkpt><trkpt lat="43.414938" lon="11.2005867"><ele>182.5</ele><time>2026-04-17T14:37:33.289Z</time></trkpt><trkpt lat="43.4148945" lon="11.2006934"><ele>182.33333333333331</ele><time>2026-04-17T14:37:35.304Z</time></trkpt><trkpt lat="43.4148465" lon="11.2008029"><ele>182.16666666666666</ele><time>2026-04-17T14:37:37.361Z</time></trkpt><trkpt lat="43.4148002" lon="11.2009138"><ele>182.0</ele><time>2026-04-17T14:37:39.297Z</time></trkpt><trkpt lat="43.4147474" lon="11.2010265"><ele>182.0</ele><time>2026-04-17T14:37:41.303Z</time></trkpt><trkpt lat="43.4146961" lon="11.2011319"><ele>182.0</ele><time>2026-04-17T14:37:43.389Z</time></trkpt><trkpt lat="43.4146379" lon="11.2012273"><ele>182.0</ele><time>2026-04-17T14:37:45.382Z</time></trkpt><trkpt lat="43.4145825" lon="11.2013047"><ele>182.0</ele><time>2026-04-17T14:37:46.317Z</time></trkpt><trkpt lat="43.4145377" lon="11.2014328"><ele>182.0</ele><time>2026-04-17T14:37:49.296Z</time></trkpt><trkpt lat="43.4144999" lon="11.2015112"><ele>182.0</ele><time>2026-04-17T14:37:51.283Z</time></trkpt><trkpt lat="43.4144397" lon="11.2016032"><ele>182.39999999999998</ele><time>2026-04-17T14:37:53.373Z</time></trkpt><trkpt lat="43.4143765" lon="11.2017146"><ele>182.79999999999998</ele><time>2026-04-17T14:37:55.303Z</time></trkpt><trkpt lat="43.4143196" lon="11.2018194"><ele>183.2</ele><time>2026-04-17T14:37:57.304Z</time></trkpt><trkpt lat="43.4142671" lon="11.2018897"><ele>183.6</ele><time>2026-04-17T14:37:59.306Z</time></trkpt><trkpt lat="43.4141765" lon="11.2020184"><ele>184.0</ele><time>2026-04-17T14:38:03.376Z</time></trkpt><trkpt lat="43.4141194" lon="11.2021476"><ele>184.0</ele><time>2026-04-17T14:38:05.303Z</time></trkpt><trkpt lat="43.4140511" lon="11.2022403"><ele>184.0</ele><time>2026-04-17T14:38:07.292Z</time></trkpt><trkpt lat="43.4139772" lon="11.2023252"><ele>184.0</ele><time>2026-04-17T14:38:09.371Z</time></trkpt><trkpt lat="43.4139169" lon="11.2023918"><ele>184.0</ele><time>2026-04-17T14:38:11.287Z</time></trkpt><trkpt lat="43.4138536" lon="11.2024617"><ele>184.0</ele><time>2026-04-17T14:38:13.296Z</time></trkpt><trkpt lat="43.4137928" lon="11.2025331"><ele>184.0</ele><time>2026-04-17T14:38:15.273Z</time></trkpt><trkpt lat="43.4137318" lon="11.2026033"><ele>185.0</ele><time>2026-04-17T14:38:17.288Z</time></trkpt><trkpt lat="43.413669" lon="11.2026744"><ele>186.0</ele><time>2026-04-17T14:38:19.302Z</time></trkpt><trkpt lat="43.4136109" lon="11.2027523"><ele>187.0</ele><time>2026-04-17T14:38:21.277Z</time></trkpt><trkpt lat="43.413553" lon="11.2028311"><ele>188.0</ele><time>2026-04-17T14:38:23.286Z</time></trkpt><trkpt lat="43.4134873" lon="11.2028988"><ele>189.0</ele><time>2026-04-17T14:38:25.291Z</time></trkpt><trkpt lat="43.4134193" lon="11.2029749"><ele>190.0</ele><time>2026-04-17T14:38:27.29Z</time></trkpt><trkpt lat="43.4133567" lon="11.2030489"><ele>190.0</ele><time>2026-04-17T14:38:29.299Z</time></trkpt><trkpt lat="43.4133012" lon="11.2031254"><ele>190.0</ele><time>2026-04-17T14:38:31.302Z</time></trkpt><trkpt lat="43.4132452" lon="11.2032062"><ele>190.0</ele><time>2026-04-17T14:38:33.303Z</time></trkpt><trkpt lat="43.4131867" lon="11.2032868"><ele>190.0</ele><time>2026-04-17T14:38:35.295Z</time></trkpt><trkpt lat="43.4131355" lon="11.2033706"><ele>190.0</ele><time>2026-04-17T14:38:37.294Z</time></trkpt><trkpt lat="43.413079" lon="11.2034522"><ele>190.0</ele><time>2026-04-17T14:38:39.279Z</time></trkpt><trkpt lat="43.4130228" lon="11.20354"><ele>189.66666666666669</ele><time>2026-04-17T14:38:41.279Z</time></trkpt><trkpt lat="43.4129847" lon="11.203642"><ele>189.33333333333334</ele><time>2026-04-17T14:38:43.288Z</time></trkpt><trkpt lat="43.412974" lon="11.2037519"><ele>189.0</ele><time>2026-04-17T14:38:45.304Z</time></trkpt><trkpt lat="43.4129819" lon="11.2038589"><ele>188.66666666666666</ele><time>2026-04-17T14:38:47.274Z</time></trkpt><trkpt lat="43.4130278" lon="11.203964"><ele>188.33333333333331</ele><time>2026-04-17T14:38:49.293Z</time></trkpt><trkpt lat="43.4130957" lon="11.2040778"><ele>188.0</ele><time>2026-04-17T14:38:51.299Z</time></trkpt><trkpt lat="43.4131647" lon="11.2041999"><ele>187.8</ele><time>2026-04-17T14:38:53.291Z</time></trkpt><trkpt lat="43.4132524" lon="11.204392"><ele>187.60000000000002</ele><time>2026-04-17T14:38:56.303Z</time></trkpt><trkpt lat="43.4133051" lon="11.2045435"><ele>187.39999999999998</ele><time>2026-04-17T14:38:58.288Z</time></trkpt><trkpt lat="43.4133313" lon="11.204623"><ele>187.2</ele><time>2026-04-17T14:38:59.304Z</time></trkpt><trkpt lat="43.4133607" lon="11.2047023"><ele>187.0</ele><time>2026-04-17T14:39:00.306Z</time></trkpt><trkpt lat="43.4133918" lon="11.2047784"><ele>187.0</ele><time>2026-04-17T14:39:01.282Z</time></trkpt><trkpt lat="43.4134231" lon="11.2048543"><ele>187.0</ele><time>2026-04-17T14:39:02.311Z</time></trkpt><trkpt lat="43.4134741" lon="11.2050007"><ele>187.0</ele><time>2026-04-17T14:39:04.373Z</time></trkpt><trkpt lat="43.4135016" lon="11.205081"><ele>187.0</ele><time>2026-04-17T14:39:05.307Z</time></trkpt><trkpt lat="43.4135362" lon="11.2051607"><ele>187.0</ele><time>2026-04-17T14:39:06.281Z</time></trkpt><trkpt lat="43.413569" lon="11.2052348"><ele>187.0</ele><time>2026-04-17T14:39:07.302Z</time></trkpt><trkpt lat="43.4135998" lon="11.2053111"><ele>187.0</ele><time>2026-04-17T14:39:08.283Z</time></trkpt><trkpt lat="43.4136584" lon="11.2054409"><ele>187.0</ele><time>2026-04-17T14:39:10.298Z</time></trkpt><trkpt lat="43.4137202" lon="11.2055713"><ele>187.0</ele><time>2026-04-17T14:39:12.377Z</time></trkpt><trkpt lat="43.4137501" lon="11.2056581"><ele>187.0</ele><time>2026-04-17T14:39:13.383Z</time></trkpt><trkpt lat="43.4138072" lon="11.2058161"><ele>187.0</ele><time>2026-04-17T14:39:15.387Z</time></trkpt><trkpt lat="43.4138622" lon="11.20596"><ele>187.0</ele><time>2026-04-17T14:39:17.311Z</time></trkpt><trkpt lat="43.4139148" lon="11.2061022"><ele>186.75</ele><time>2026-04-17T14:39:19.353Z</time></trkpt><trkpt lat="43.4139692" lon="11.2062484"><ele>186.5</ele><time>2026-04-17T14:39:21.294Z</time></trkpt><trkpt lat="43.4140227" lon="11.2063885"><ele>186.25</ele><time>2026-04-17T14:39:23.294Z</time></trkpt><trkpt lat="43.4140795" lon="11.2065228"><ele>186.0</ele><time>2026-04-17T14:39:25.299Z</time></trkpt><trkpt lat="43.4141361" lon="11.2066608"><ele>186.0</ele><time>2026-04-17T14:39:27.31Z</time></trkpt><trkpt lat="43.4141898" lon="11.2067997"><ele>186.0</ele><time>2026-04-17T14:39:29.305Z</time></trkpt><trkpt lat="43.4142415" lon="11.2069358"><ele>186.0</ele><time>2026-04-17T14:39:31.309Z</time></trkpt><trkpt lat="43.4142981" lon="11.2070729"><ele>186.0</ele><time>2026-04-17T14:39:33.385Z</time></trkpt><trkpt lat="43.4143535" lon="11.2072048"><ele>186.0</ele><time>2026-04-17T14:39:35.307Z</time></trkpt><trkpt lat="43.4144035" lon="11.2073374"><ele>186.0</ele><time>2026-04-17T14:39:37.315Z</time></trkpt><trkpt lat="43.4144521" lon="11.2074629"><ele>186.0</ele><time>2026-04-17T14:39:39.305Z</time></trkpt><trkpt lat="43.4144987" lon="11.2075837"><ele>186.0</ele><time>2026-04-17T14:39:41.301Z</time></trkpt><trkpt lat="43.4145443" lon="11.207703"><ele>186.0</ele><time>2026-04-17T14:39:43.289Z</time></trkpt><trkpt lat="43.4145876" lon="11.2078178"><ele>186.0</ele><time>2026-04-17T14:39:45.304Z</time></trkpt><trkpt lat="43.41463" lon="11.2079272"><ele>186.0</ele><time>2026-04-17T14:39:47.309Z</time></trkpt><trkpt lat="43.414664" lon="11.2080277"><ele>186.0</ele><time>2026-04-17T14:39:49.376Z</time></trkpt><trkpt lat="43.414714" lon="11.2081154"><ele>186.0</ele><time>2026-04-17T14:39:51.313Z</time></trkpt><trkpt lat="43.4147636" lon="11.2082336"><ele>186.0</ele><time>2026-04-17T14:39:53.285Z</time></trkpt><trkpt lat="43.4148053" lon="11.2083519"><ele>186.0</ele><time>2026-04-17T14:39:55.312Z</time></trkpt><trkpt lat="43.4148475" lon="11.2084509"><ele>185.8</ele><time>2026-04-17T14:39:57.383Z</time></trkpt><trkpt lat="43.4148927" lon="11.208569"><ele>185.60000000000002</ele><time>2026-04-17T14:39:59.304Z</time></trkpt><trkpt lat="43.414925" lon="11.2086946"><ele>185.4</ele><time>2026-04-17T14:40:01.29Z</time></trkpt><trkpt lat="43.4149736" lon="11.2087975"><ele>185.2</ele><time>2026-04-17T14:40:03.386Z</time></trkpt><trkpt lat="43.4150122" lon="11.2089045"><ele>185.0</ele><time>2026-04-17T14:40:05.304Z</time></trkpt><trkpt lat="43.4150633" lon="11.2090217"><ele>184.8</ele><time>2026-04-17T14:40:07.292Z</time></trkpt><trkpt lat="43.4151092" lon="11.2091357"><ele>184.6</ele><time>2026-04-17T14:40:09.387Z</time></trkpt><trkpt lat="43.4151404" lon="11.2092591"><ele>184.39999999999998</ele><time>2026-04-17T14:40:11.314Z</time></trkpt><trkpt lat="43.4151836" lon="11.2093539"><ele>184.2</ele><time>2026-04-17T14:40:13.309Z</time></trkpt><trkpt lat="43.4152456" lon="11.2094756"><ele>184.0</ele><time>2026-04-17T14:40:15.309Z</time></trkpt><trkpt lat="43.4153115" lon="11.2096194"><ele>184.0</ele><time>2026-04-17T14:40:17.299Z</time></trkpt><trkpt lat="43.4153408" lon="11.2096979"><ele>184.0</ele><time>2026-04-17T14:40:18.384Z</time></trkpt><trkpt lat="43.4153942" lon="11.2098465"><ele>184.0</ele><time>2026-04-17T14:40:20.311Z</time></trkpt><trkpt lat="43.4154293" lon="11.2099309"><ele>184.0</ele><time>2026-04-17T14:40:21.311Z</time></trkpt><trkpt lat="43.4154654" lon="11.210013"><ele>184.0</ele><time>2026-04-17T14:40:22.312Z</time></trkpt><trkpt lat="43.4155017" lon="11.2100957"><ele>184.0</ele><time>2026-04-17T14:40:23.312Z</time></trkpt><trkpt lat="43.4155355" lon="11.2101833"><ele>184.0</ele><time>2026-04-17T14:40:24.31Z</time></trkpt><trkpt lat="43.415571" lon="11.2102743"><ele>184.0</ele><time>2026-04-17T14:40:25.297Z</time></trkpt><trkpt lat="43.4156089" lon="11.2103676"><ele>184.0</ele><time>2026-04-17T14:40:26.288Z</time></trkpt><trkpt lat="43.4156474" lon="11.2104652"><ele>184.0</ele><time>2026-04-17T14:40:27.365Z</time></trkpt><trkpt lat="43.415686" lon="11.2105602"><ele>184.0</ele><time>2026-04-17T14:40:28.315Z</time></trkpt><trkpt lat="43.4157262" lon="11.2106596"><ele>184.0</ele><time>2026-04-17T14:40:29.308Z</time></trkpt><trkpt lat="43.4157669" lon="11.2107604"><ele>184.16666666666669</ele><time>2026-04-17T14:40:30.32Z</time></trkpt><trkpt lat="43.4158076" lon="11.2108621"><ele>184.33333333333334</ele><time>2026-04-17T14:40:31.304Z</time></trkpt><trkpt lat="43.4158498" lon="11.2109671"><ele>184.5</ele><time>2026-04-17T14:40:32.311Z</time></trkpt><trkpt lat="43.4158922" lon="11.2110711"><ele>184.66666666666666</ele><time>2026-04-17T14:40:33.288Z</time></trkpt><trkpt lat="43.4159343" lon="11.2111747"><ele>184.83333333333331</ele><time>2026-04-17T14:40:34.302Z</time></trkpt><trkpt lat="43.4159761" lon="11.2112806"><ele>185.0</ele><time>2026-04-17T14:40:35.303Z</time></trkpt><trkpt lat="43.4160152" lon="11.211387"><ele>185.0</ele><time>2026-04-17T14:40:36.309Z</time></trkpt><trkpt lat="43.4160563" lon="11.2114945"><ele>185.0</ele><time>2026-04-17T14:40:37.308Z</time></trkpt><trkpt lat="43.4160967" lon="11.2116027"><ele>185.0</ele><time>2026-04-17T14:40:38.305Z</time></trkpt><trkpt lat="43.4161393" lon="11.2116987"><ele>185.0</ele><time>2026-04-17T14:40:39.289Z</time></trkpt><trkpt lat="43.4161869" lon="11.211797"><ele>185.0</ele><time>2026-04-17T14:40:40.32Z</time></trkpt><trkpt lat="43.4162332" lon="11.2119118"><ele>185.0</ele><time>2026-04-17T14:40:41.302Z</time></trkpt><trkpt lat="43.4162811" lon="11.2120375"><ele>183.75</ele><time>2026-04-17T14:40:42.373Z</time></trkpt><trkpt lat="43.4163263" lon="11.2121588"><ele>182.5</ele><time>2026-04-17T14:40:43.386Z</time></trkpt><trkpt lat="43.4163634" lon="11.2122658"><ele>181.25</ele><time>2026-04-17T14:40:44.304Z</time></trkpt><trkpt lat="43.4164063" lon="11.2123694"><ele>180.0</ele><time>2026-04-17T14:40:45.389Z</time></trkpt><trkpt lat="43.4164968" lon="11.212583"><ele>180.0</ele><time>2026-04-17T14:40:47.312Z</time></trkpt><trkpt lat="43.4165406" lon="11.2127013"><ele>180.0</ele><time>2026-04-17T14:40:48.373Z</time></trkpt><trkpt lat="43.4165865" lon="11.2128161"><ele>180.0</ele><time>2026-04-17T14:40:49.372Z</time></trkpt><trkpt lat="43.4166281" lon="11.212926"><ele>180.0</ele><time>2026-04-17T14:40:50.312Z</time></trkpt><trkpt lat="43.4166742" lon="11.2130315"><ele>180.0</ele><time>2026-04-17T14:40:51.304Z</time></trkpt><trkpt lat="43.4167188" lon="11.2131296"><ele>179.83333333333334</ele><time>2026-04-17T14:40:52.309Z</time></trkpt><trkpt lat="43.4167595" lon="11.2132269"><ele>179.66666666666666</ele><time>2026-04-17T14:40:53.285Z</time></trkpt><trkpt lat="43.4168037" lon="11.2133276"><ele>179.5</ele><time>2026-04-17T14:40:54.381Z</time></trkpt><trkpt lat="43.4168346" lon="11.2134255"><ele>179.33333333333331</ele><time>2026-04-17T14:40:55.35Z</time></trkpt><trkpt lat="43.4168678" lon="11.213521"><ele>179.16666666666666</ele><time>2026-04-17T14:40:56.313Z</time></trkpt><trkpt lat="43.4169042" lon="11.2136134"><ele>179.0</ele><time>2026-04-17T14:40:57.296Z</time></trkpt><trkpt lat="43.4169414" lon="11.2137058"><ele>179.0</ele><time>2026-04-17T14:40:58.305Z</time></trkpt><trkpt lat="43.4169763" lon="11.2137909"><ele>179.0</ele><time>2026-04-17T14:40:59.307Z</time></trkpt><trkpt lat="43.4170137" lon="11.2138741"><ele>179.0</ele><time>2026-04-17T14:41:00.38Z</time></trkpt><trkpt lat="43.4170725" lon="11.2140285"><ele>179.0</ele><time>2026-04-17T14:41:02.28Z</time></trkpt><trkpt lat="43.417137" lon="11.2141749"><ele>179.0</ele><time>2026-04-17T14:41:04.306Z</time></trkpt><trkpt lat="43.4171708" lon="11.2142495"><ele>178.6</ele><time>2026-04-17T14:41:05.302Z</time></trkpt><trkpt lat="43.4172014" lon="11.2143274"><ele>178.2</ele><time>2026-04-17T14:41:06.305Z</time></trkpt><trkpt lat="43.4172299" lon="11.2144059"><ele>177.79999999999998</ele><time>2026-04-17T14:41:07.298Z</time></trkpt><trkpt lat="43.4172952" lon="11.2145535"><ele>177.39999999999998</ele><time>2026-04-17T14:41:09.384Z</time></trkpt><trkpt lat="43.4173449" lon="11.2146919"><ele>177.0</ele><time>2026-04-17T14:41:11.314Z</time></trkpt><trkpt lat="43.4174216" lon="11.2148477"><ele>177.0</ele><time>2026-04-17T14:41:13.303Z</time></trkpt><trkpt lat="43.4174571" lon="11.2149354"><ele>177.0</ele><time>2026-04-17T14:41:14.296Z</time></trkpt><trkpt lat="43.4174939" lon="11.2150163"><ele>177.0</ele><time>2026-04-17T14:41:15.32Z</time></trkpt><trkpt lat="43.4175259" lon="11.2150961"><ele>177.0</ele><time>2026-04-17T14:41:16.306Z</time></trkpt><trkpt lat="43.4175592" lon="11.2151798"><ele>177.0</ele><time>2026-04-17T14:41:17.287Z</time></trkpt><trkpt lat="43.4175938" lon="11.215264"><ele>177.0</ele><time>2026-04-17T14:41:18.373Z</time></trkpt><trkpt lat="43.4176256" lon="11.2153438"><ele>177.0</ele><time>2026-04-17T14:41:19.311Z</time></trkpt><trkpt lat="43.4176585" lon="11.2154244"><ele>177.0</ele><time>2026-04-17T14:41:20.306Z</time></trkpt><trkpt lat="43.4176889" lon="11.2155056"><ele>177.0</ele><time>2026-04-17T14:41:21.311Z</time></trkpt><trkpt lat="43.4177178" lon="11.2155859"><ele>177.0</ele><time>2026-04-17T14:41:22.389Z</time></trkpt><trkpt lat="43.4177612" lon="11.2157326"><ele>177.0</ele><time>2026-04-17T14:41:24.376Z</time></trkpt><trkpt lat="43.4178065" lon="11.2158783"><ele>177.0</ele><time>2026-04-17T14:41:26.307Z</time></trkpt><trkpt lat="43.4178731" lon="11.216009"><ele>177.39999999999998</ele><time>2026-04-17T14:41:28.375Z</time></trkpt><trkpt lat="43.4179334" lon="11.2161124"><ele>177.79999999999998</ele><time>2026-04-17T14:41:30.315Z</time></trkpt><trkpt lat="43.4179959" lon="11.2162372"><ele>178.2</ele><time>2026-04-17T14:41:32.305Z</time></trkpt><trkpt lat="43.4180408" lon="11.2163593"><ele>178.6</ele><time>2026-04-17T14:41:34.383Z</time></trkpt><trkpt lat="43.4180831" lon="11.2164729"><ele>179.0</ele><time>2026-04-17T14:41:36.301Z</time></trkpt><trkpt lat="43.4181242" lon="11.216597"><ele>180.0</ele><time>2026-04-17T14:41:38.385Z</time></trkpt><trkpt lat="43.4181675" lon="11.2167335"><ele>181.0</ele><time>2026-04-17T14:41:40.291Z</time></trkpt><trkpt lat="43.4182109" lon="11.2168471"><ele>182.0</ele><time>2026-04-17T14:41:42.306Z</time></trkpt><trkpt lat="43.4182603" lon="11.2169487"><ele>183.0</ele><time>2026-04-17T14:41:44.3Z</time></trkpt><trkpt lat="43.4183021" lon="11.2170447"><ele>184.0</ele><time>2026-04-17T14:41:46.31Z</time></trkpt><trkpt lat="43.4183227" lon="11.2171423"><ele>185.0</ele><time>2026-04-17T14:41:48.29Z</time></trkpt><trkpt lat="43.4183441" lon="11.2172515"><ele>185.5</ele><time>2026-04-17T14:41:50.319Z</time></trkpt><trkpt lat="43.4183942" lon="11.2173552"><ele>186.0</ele><time>2026-04-17T14:41:52.316Z</time></trkpt><trkpt lat="43.4184283" lon="11.2174598"><ele>186.5</ele><time>2026-04-17T14:41:54.375Z</time></trkpt><trkpt lat="43.4184476" lon="11.2175648"><ele>187.0</ele><time>2026-04-17T14:41:56.305Z</time></trkpt><trkpt lat="43.4185002" lon="11.2176692"><ele>187.5</ele><time>2026-04-17T14:41:58.312Z</time></trkpt><trkpt lat="43.4185363" lon="11.2177722"><ele>188.0</ele><time>2026-04-17T14:42:00.305Z</time></trkpt><trkpt lat="43.4185847" lon="11.217878"><ele>188.0</ele><time>2026-04-17T14:42:02.314Z</time></trkpt><trkpt lat="43.4186723" lon="11.2180944"><ele>188.0</ele><time>2026-04-17T14:42:06.295Z</time></trkpt><trkpt lat="43.4186791" lon="11.2182146"><ele>188.0</ele><time>2026-04-17T14:42:08.394Z</time></trkpt><trkpt lat="43.4187235" lon="11.2183149"><ele>188.0</ele><time>2026-04-17T14:42:10.294Z</time></trkpt><trkpt lat="43.4187841" lon="11.2183938"><ele>188.0</ele><time>2026-04-17T14:42:12.366Z</time></trkpt><trkpt lat="43.4188553" lon="11.218488"><ele>188.5</ele><time>2026-04-17T14:42:15.373Z</time></trkpt><trkpt lat="43.4189042" lon="11.2185664"><ele>189.0</ele><time>2026-04-17T14:42:18.293Z</time></trkpt><trkpt lat="43.4189375" lon="11.2186562"><ele>189.5</ele><time>2026-04-17T14:42:21.291Z</time></trkpt><trkpt lat="43.4189887" lon="11.2187666"><ele>190.0</ele><time>2026-04-17T14:42:24.369Z</time></trkpt><trkpt lat="43.4190389" lon="11.2188298"><ele>190.5</ele><time>2026-04-17T14:42:26.307Z</time></trkpt><trkpt lat="43.4190827" lon="11.2189002"><ele>191.0</ele><time>2026-04-17T14:42:28.366Z</time></trkpt><trkpt lat="43.4191282" lon="11.2189938"><ele>191.33333333333331</ele><time>2026-04-17T14:42:30.286Z</time></trkpt><trkpt lat="43.4191767" lon="11.2190764"><ele>191.66666666666666</ele><time>2026-04-17T14:42:32.296Z</time></trkpt><trkpt lat="43.4192203" lon="11.2191485"><ele>192.0</ele><time>2026-04-17T14:42:34.294Z</time></trkpt><trkpt lat="43.4192651" lon="11.2192272"><ele>192.33333333333331</ele><time>2026-04-17T14:42:36.295Z</time></trkpt><trkpt lat="43.4192974" lon="11.2193076"><ele>192.66666666666666</ele><time>2026-04-17T14:42:38.295Z</time></trkpt><trkpt lat="43.4193342" lon="11.2193967"><ele>193.0</ele><time>2026-04-17T14:42:40.295Z</time></trkpt><trkpt lat="43.4193958" lon="11.2194976"><ele>192.99999999999997</ele><time>2026-04-17T14:42:43.384Z</time></trkpt><trkpt lat="43.4194498" lon="11.2195958"><ele>193.0</ele><time>2026-04-17T14:42:46.291Z</time></trkpt><trkpt lat="43.4195183" lon="11.2196796"><ele>193.0</ele><time>2026-04-17T14:42:48.374Z</time></trkpt><trkpt lat="43.4195572" lon="11.2197674"><ele>193.0</ele><time>2026-04-17T14:42:50.3Z</time></trkpt><trkpt lat="43.4195361" lon="11.219879"><ele>192.99999999999997</ele><time>2026-04-17T14:42:53.301Z</time></trkpt><trkpt lat="43.4195463" lon="11.2199772"><ele>193.0</ele><time>2026-04-17T14:42:56.308Z</time></trkpt><trkpt lat="43.4195875" lon="11.2200872"><ele>193.14285714285717</ele><time>2026-04-17T14:42:59.294Z</time></trkpt><trkpt lat="43.4196354" lon="11.2201654"><ele>193.28571428571428</ele><time>2026-04-17T14:43:01.306Z</time></trkpt><trkpt lat="43.4196374" lon="11.2202541"><ele>193.42857142857144</ele><time>2026-04-17T14:43:03.377Z</time></trkpt><trkpt lat="43.4196371" lon="11.2203742"><ele>193.57142857142858</ele><time>2026-04-17T14:43:06.298Z</time></trkpt><trkpt lat="43.41964" lon="11.2204673"><ele>193.71428571428572</ele><time>2026-04-17T14:43:08.295Z</time></trkpt><trkpt lat="43.4196461" lon="11.2205567"><ele>193.85714285714286</ele><time>2026-04-17T14:43:10.297Z</time></trkpt><trkpt lat="43.4196532" lon="11.2206466"><ele>194.0</ele><time>2026-04-17T14:43:12.395Z</time></trkpt><trkpt lat="43.4196743" lon="11.2207771"><ele>194.66666666666669</ele><time>2026-04-17T14:43:15.381Z</time></trkpt><trkpt lat="43.419676" lon="11.2208856"><ele>195.33333333333334</ele><time>2026-04-17T14:43:18.316Z</time></trkpt><trkpt lat="43.4196996" lon="11.2210184"><ele>196.0</ele><time>2026-04-17T14:43:21.304Z</time></trkpt><trkpt lat="43.4197175" lon="11.2211064"><ele>196.66666666666669</ele><time>2026-04-17T14:43:23.28Z</time></trkpt><trkpt lat="43.4197363" lon="11.2211937"><ele>197.33333333333334</ele><time>2026-04-17T14:43:25.307Z</time></trkpt><trkpt lat="43.4197569" lon="11.2212878"><ele>198.0</ele><time>2026-04-17T14:43:27.314Z</time></trkpt><trkpt lat="43.4197717" lon="11.2213831"><ele>198.33333333333334</ele><time>2026-04-17T14:43:29.303Z</time></trkpt><trkpt lat="43.4197893" lon="11.221516"><ele>198.66666666666669</ele><time>2026-04-17T14:43:32.308Z</time></trkpt><trkpt lat="43.4198292" lon="11.2216408"><ele>199.0</ele><time>2026-04-17T14:43:35.304Z</time></trkpt><trkpt lat="43.4198623" lon="11.2217401"><ele>199.33333333333334</ele><time>2026-04-17T14:43:37.306Z</time></trkpt><trkpt lat="43.4199076" lon="11.2218428"><ele>199.66666666666669</ele><time>2026-04-17T14:43:40.303Z</time></trkpt><trkpt lat="43.4199524" lon="11.221916"><ele>200.0</ele><time>2026-04-17T14:43:42.374Z</time></trkpt><trkpt lat="43.4199966" lon="11.2220071"><ele>200.00000000000003</ele><time>2026-04-17T14:43:44.315Z</time></trkpt><trkpt lat="43.4200337" lon="11.2220895"><ele>200.0</ele><time>2026-04-17T14:43:46.309Z</time></trkpt><trkpt lat="43.4200874" lon="11.2221536"><ele>200.0</ele><time>2026-04-17T14:43:48.387Z</time></trkpt><trkpt lat="43.4201352" lon="11.2222365"><ele>200.0</ele><time>2026-04-17T14:43:50.308Z</time></trkpt><trkpt lat="43.4201872" lon="11.2223073"><ele>200.0</ele><time>2026-04-17T14:43:52.383Z</time></trkpt><trkpt lat="43.4202424" lon="11.2223605"><ele>200.00000000000003</ele><time>2026-04-17T14:43:54.312Z</time></trkpt><trkpt lat="43.4203137" lon="11.2224326"><ele>200.0</ele><time>2026-04-17T14:43:56.307Z</time></trkpt><trkpt lat="43.420362" lon="11.22251"><ele>200.00000000000003</ele><time>2026-04-17T14:43:58.304Z</time></trkpt><trkpt lat="43.4204201" lon="11.2225915"><ele>200.0</ele><time>2026-04-17T14:44:00.306Z</time></trkpt><trkpt lat="43.4204784" lon="11.2226706"><ele>200.0</ele><time>2026-04-17T14:44:02.309Z</time></trkpt><trkpt lat="43.4205333" lon="11.2227499"><ele>200.0</ele><time>2026-04-17T14:44:04.37Z</time></trkpt><trkpt lat="43.4205892" lon="11.2228061"><ele>200.00000000000003</ele><time>2026-04-17T14:44:06.312Z</time></trkpt><trkpt lat="43.4206647" lon="11.2228849"><ele>200.0</ele><time>2026-04-17T14:44:08.305Z</time></trkpt><trkpt lat="43.420746" lon="11.2229921"><ele>200.00000000000003</ele><time>2026-04-17T14:44:10.423Z</time></trkpt><trkpt lat="43.4208104" lon="11.2230819"><ele>200.0</ele><time>2026-04-17T14:44:12.314Z</time></trkpt><trkpt lat="43.4208711" lon="11.2231579"><ele>200.0</ele><time>2026-04-17T14:44:14.31Z</time></trkpt><trkpt lat="43.4209392" lon="11.2232463"><ele>200.0</ele><time>2026-04-17T14:44:16.301Z</time></trkpt><trkpt lat="43.4209817" lon="11.2233347"><ele>200.00000000000003</ele><time>2026-04-17T14:44:18.381Z</time></trkpt><trkpt lat="43.421053" lon="11.2234241"><ele>200.0</ele><time>2026-04-17T14:44:20.316Z</time></trkpt><trkpt lat="43.4211038" lon="11.2235391"><ele>200.0</ele><time>2026-04-17T14:44:22.302Z</time></trkpt><trkpt lat="43.4211456" lon="11.2236678"><ele>200.0</ele><time>2026-04-17T14:44:24.371Z</time></trkpt><trkpt lat="43.4211823" lon="11.2237641"><ele>200.0</ele><time>2026-04-17T14:44:26.31Z</time></trkpt><trkpt lat="43.4212293" lon="11.2238875"><ele>200.0</ele><time>2026-04-17T14:44:28.287Z</time></trkpt><trkpt lat="43.4212758" lon="11.2240251"><ele>200.0</ele><time>2026-04-17T14:44:30.309Z</time></trkpt><trkpt lat="43.4213185" lon="11.2241602"><ele>200.0</ele><time>2026-04-17T14:44:32.298Z</time></trkpt><trkpt lat="43.4213606" lon="11.2242983"><ele>200.0</ele><time>2026-04-17T14:44:34.302Z</time></trkpt><trkpt lat="43.4213953" lon="11.2244357"><ele>200.0</ele><time>2026-04-17T14:44:36.304Z</time></trkpt><trkpt lat="43.4214352" lon="11.2245757"><ele>200.0</ele><time>2026-04-17T14:44:38.285Z</time></trkpt><trkpt lat="43.4214723" lon="11.224727"><ele>200.0</ele><time>2026-04-17T14:44:40.312Z</time></trkpt><trkpt lat="43.4215021" lon="11.2248834"><ele>199.75</ele><time>2026-04-17T14:44:42.384Z</time></trkpt><trkpt lat="43.4215365" lon="11.225033"><ele>199.5</ele><time>2026-04-17T14:44:44.302Z</time></trkpt><trkpt lat="43.4215715" lon="11.2251891"><ele>199.25</ele><time>2026-04-17T14:44:46.29Z</time></trkpt><trkpt lat="43.4216215" lon="11.225331"><ele>199.0</ele><time>2026-04-17T14:44:48.386Z</time></trkpt><trkpt lat="43.4216537" lon="11.2254844"><ele>199.0</ele><time>2026-04-17T14:44:50.305Z</time></trkpt><trkpt lat="43.4216961" lon="11.2256447"><ele>199.0</ele><time>2026-04-17T14:44:52.317Z</time></trkpt><trkpt lat="43.4217306" lon="11.22581"><ele>199.0</ele><time>2026-04-17T14:44:54.384Z</time></trkpt><trkpt lat="43.421759" lon="11.2259532"><ele>199.0</ele><time>2026-04-17T14:44:56.297Z</time></trkpt><trkpt lat="43.4217799" lon="11.2260429"><ele>199.0</ele><time>2026-04-17T14:44:57.298Z</time></trkpt><trkpt lat="43.4218236" lon="11.2261867"><ele>198.83333333333331</ele><time>2026-04-17T14:44:59.306Z</time></trkpt><trkpt lat="43.4218655" lon="11.2263326"><ele>198.66666666666666</ele><time>2026-04-17T14:45:01.293Z</time></trkpt><trkpt lat="43.4218926" lon="11.2264205"><ele>198.5</ele><time>2026-04-17T14:45:02.304Z</time></trkpt><trkpt lat="43.4219133" lon="11.2265107"><ele>198.33333333333331</ele><time>2026-04-17T14:45:03.297Z</time></trkpt><trkpt lat="43.421938" lon="11.2266025"><ele>198.16666666666666</ele><time>2026-04-17T14:45:04.3Z</time></trkpt><trkpt lat="43.4219601" lon="11.2266859"><ele>198.0</ele><time>2026-04-17T14:45:05.302Z</time></trkpt><trkpt lat="43.4219939" lon="11.2268557"><ele>197.66666666666666</ele><time>2026-04-17T14:45:07.382Z</time></trkpt><trkpt lat="43.4220048" lon="11.2269448"><ele>197.33333333333331</ele><time>2026-04-17T14:45:08.304Z</time></trkpt><trkpt lat="43.4220217" lon="11.2270333"><ele>197.0</ele><time>2026-04-17T14:45:09.381Z</time></trkpt><trkpt lat="43.4220656" lon="11.2271995"><ele>196.66666666666666</ele><time>2026-04-17T14:45:11.313Z</time></trkpt><trkpt lat="43.4220904" lon="11.2272871"><ele>196.33333333333331</ele><time>2026-04-17T14:45:12.302Z</time></trkpt><trkpt lat="43.4221134" lon="11.2273775"><ele>196.0</ele><time>2026-04-17T14:45:13.308Z</time></trkpt><trkpt lat="43.4221341" lon="11.2274629"><ele>196.42857142857142</ele><time>2026-04-17T14:45:14.31Z</time></trkpt><trkpt lat="43.4221537" lon="11.22755"><ele>196.85714285714286</ele><time>2026-04-17T14:45:15.309Z</time></trkpt><trkpt lat="43.4221737" lon="11.2276371"><ele>197.28571428571428</ele><time>2026-04-17T14:45:16.314Z</time></trkpt><trkpt lat="43.4221995" lon="11.2277273"><ele>197.71428571428572</ele><time>2026-04-17T14:45:17.309Z</time></trkpt><trkpt lat="43.4222265" lon="11.2278204"><ele>198.14285714285714</ele><time>2026-04-17T14:45:18.385Z</time></trkpt><trkpt lat="43.4222549" lon="11.2279082"><ele>198.57142857142856</ele><time>2026-04-17T14:45:19.38Z</time></trkpt><trkpt lat="43.4222787" lon="11.2279908"><ele>199.0</ele><time>2026-04-17T14:45:20.303Z</time></trkpt><trkpt lat="43.422305" lon="11.22808"><ele>198.83333333333331</ele><time>2026-04-17T14:45:21.302Z</time></trkpt><trkpt lat="43.4223337" lon="11.2281727"><ele>198.66666666666666</ele><time>2026-04-17T14:45:22.307Z</time></trkpt><trkpt lat="43.4223617" lon="11.2282557"><ele>198.5</ele><time>2026-04-17T14:45:23.288Z</time></trkpt><trkpt lat="43.4223883" lon="11.2283363"><ele>198.33333333333331</ele><time>2026-04-17T14:45:24.382Z</time></trkpt><trkpt lat="43.4224415" lon="11.2284892"><ele>198.16666666666666</ele><time>2026-04-17T14:45:26.312Z</time></trkpt><trkpt lat="43.4224706" lon="11.2285852"><ele>198.0</ele><time>2026-04-17T14:45:27.306Z</time></trkpt><trkpt lat="43.4225028" lon="11.2286789"><ele>198.0</ele><time>2026-04-17T14:45:28.374Z</time></trkpt><trkpt lat="43.4225315" lon="11.2287652"><ele>198.0</ele><time>2026-04-17T14:45:29.291Z</time></trkpt><trkpt lat="43.4225635" lon="11.2288612"><ele>198.0</ele><time>2026-04-17T14:45:30.386Z</time></trkpt><trkpt lat="43.4225958" lon="11.2289514"><ele>198.0</ele><time>2026-04-17T14:45:31.292Z</time></trkpt><trkpt lat="43.4226241" lon="11.2290442"><ele>198.0</ele><time>2026-04-17T14:45:32.305Z</time></trkpt><trkpt lat="43.4226525" lon="11.2291291"><ele>198.0</ele><time>2026-04-17T14:45:33.386Z</time></trkpt><trkpt lat="43.4226828" lon="11.2292196"><ele>198.0</ele><time>2026-04-17T14:45:34.388Z</time></trkpt><trkpt lat="43.4227128" lon="11.2293114"><ele>197.71428571428572</ele><time>2026-04-17T14:45:35.311Z</time></trkpt><trkpt lat="43.422743" lon="11.2294054"><ele>197.42857142857142</ele><time>2026-04-17T14:45:36.315Z</time></trkpt><trkpt lat="43.4227742" lon="11.2294947"><ele>197.14285714285714</ele><time>2026-04-17T14:45:37.301Z</time></trkpt><trkpt lat="43.422804" lon="11.2295792"><ele>196.85714285714286</ele><time>2026-04-17T14:45:38.297Z</time></trkpt><trkpt lat="43.4228329" lon="11.2296662"><ele>196.57142857142856</ele><time>2026-04-17T14:45:39.303Z</time></trkpt><trkpt lat="43.4228628" lon="11.2297542"><ele>196.28571428571428</ele><time>2026-04-17T14:45:40.305Z</time></trkpt><trkpt lat="43.422894" lon="11.2298408"><ele>196.0</ele><time>2026-04-17T14:45:41.301Z</time></trkpt><trkpt lat="43.4229224" lon="11.2299309"><ele>196.14285714285714</ele><time>2026-04-17T14:45:42.306Z</time></trkpt><trkpt lat="43.4229496" lon="11.2300191"><ele>196.28571428571428</ele><time>2026-04-17T14:45:43.301Z</time></trkpt><trkpt lat="43.4229774" lon="11.2301069"><ele>196.42857142857144</ele><time>2026-04-17T14:45:44.305Z</time></trkpt><trkpt lat="43.4230072" lon="11.2301932"><ele>196.57142857142856</ele><time>2026-04-17T14:45:45.309Z</time></trkpt><trkpt lat="43.4230387" lon="11.2302814"><ele>196.71428571428572</ele><time>2026-04-17T14:45:46.303Z</time></trkpt><trkpt lat="43.4230676" lon="11.2303693"><ele>196.85714285714286</ele><time>2026-04-17T14:45:47.309Z</time></trkpt><trkpt lat="43.4230939" lon="11.2304606"><ele>197.0</ele><time>2026-04-17T14:45:48.307Z</time></trkpt><trkpt lat="43.42312" lon="11.2305536"><ele>196.85714285714286</ele><time>2026-04-17T14:45:49.377Z</time></trkpt><trkpt lat="43.4231391" lon="11.2306418"><ele>196.71428571428572</ele><time>2026-04-17T14:45:50.301Z</time></trkpt><trkpt lat="43.4231507" lon="11.2307289"><ele>196.57142857142856</ele><time>2026-04-17T14:45:51.316Z</time></trkpt><trkpt lat="43.4231763" lon="11.2308101"><ele>196.42857142857144</ele><time>2026-04-17T14:45:52.309Z</time></trkpt><trkpt lat="43.4232095" lon="11.2308974"><ele>196.28571428571428</ele><time>2026-04-17T14:45:53.31Z</time></trkpt><trkpt lat="43.4232469" lon="11.2309813"><ele>196.14285714285714</ele><time>2026-04-17T14:45:54.308Z</time></trkpt><trkpt lat="43.423281" lon="11.2310614"><ele>196.0</ele><time>2026-04-17T14:45:55.307Z</time></trkpt><trkpt lat="43.4233116" lon="11.2311441"><ele>196.0</ele><time>2026-04-17T14:45:56.309Z</time></trkpt><trkpt lat="43.4233403" lon="11.2312252"><ele>196.0</ele><time>2026-04-17T14:45:57.311Z</time></trkpt><trkpt lat="43.4233672" lon="11.2313104"><ele>196.0</ele><time>2026-04-17T14:45:58.307Z</time></trkpt><trkpt lat="43.4233996" lon="11.2313987"><ele>196.0</ele><time>2026-04-17T14:45:59.296Z</time></trkpt><trkpt lat="43.4234279" lon="11.2314843"><ele>196.0</ele><time>2026-04-17T14:46:00.298Z</time></trkpt><trkpt lat="43.4234555" lon="11.2315689"><ele>196.0</ele><time>2026-04-17T14:46:01.312Z</time></trkpt><trkpt lat="43.4234814" lon="11.2316523"><ele>196.0</ele><time>2026-04-17T14:46:02.311Z</time></trkpt><trkpt lat="43.4235047" lon="11.2317399"><ele>195.83333333333331</ele><time>2026-04-17T14:46:03.392Z</time></trkpt><trkpt lat="43.4235513" lon="11.231901"><ele>195.66666666666666</ele><time>2026-04-17T14:46:05.309Z</time></trkpt><trkpt lat="43.4235783" lon="11.2319802"><ele>195.5</ele><time>2026-04-17T14:46:06.306Z</time></trkpt><trkpt lat="43.4236059" lon="11.2320644"><ele>195.33333333333331</ele><time>2026-04-17T14:46:07.314Z</time></trkpt><trkpt lat="43.4236394" lon="11.2321481"><ele>195.16666666666666</ele><time>2026-04-17T14:46:08.287Z</time></trkpt><trkpt lat="43.4236661" lon="11.2322319"><ele>195.0</ele><time>2026-04-17T14:46:09.381Z</time></trkpt><trkpt lat="43.4237126" lon="11.2323901"><ele>195.4</ele><time>2026-04-17T14:46:11.299Z</time></trkpt><trkpt lat="43.4237379" lon="11.2324734"><ele>195.8</ele><time>2026-04-17T14:46:12.301Z</time></trkpt><trkpt lat="43.4237758" lon="11.2326044"><ele>196.2</ele><time>2026-04-17T14:46:14.334Z</time></trkpt><trkpt lat="43.4237994" lon="11.2326934"><ele>196.6</ele><time>2026-04-17T14:46:15.284Z</time></trkpt><trkpt lat="43.4238515" lon="11.2328469"><ele>197.0</ele><time>2026-04-17T14:46:17.309Z</time></trkpt><trkpt lat="43.4239016" lon="11.232993"><ele>197.2</ele><time>2026-04-17T14:46:19.278Z</time></trkpt><trkpt lat="43.423959" lon="11.2331228"><ele>197.39999999999998</ele><time>2026-04-17T14:46:21.293Z</time></trkpt><trkpt lat="43.424015" lon="11.2332632"><ele>197.60000000000002</ele><time>2026-04-17T14:46:23.283Z</time></trkpt><trkpt lat="43.4240647" lon="11.2334157"><ele>197.8</ele><time>2026-04-17T14:46:25.283Z</time></trkpt><trkpt lat="43.4240919" lon="11.233498"><ele>198.0</ele><time>2026-04-17T14:46:26.302Z</time></trkpt><trkpt lat="43.4241188" lon="11.2335799"><ele>198.0</ele><time>2026-04-17T14:46:27.29Z</time></trkpt><trkpt lat="43.424173" lon="11.2337301"><ele>198.0</ele><time>2026-04-17T14:46:29.3Z</time></trkpt><trkpt lat="43.424218" lon="11.2338714"><ele>198.0</ele><time>2026-04-17T14:46:31.277Z</time></trkpt><trkpt lat="43.4242713" lon="11.2340068"><ele>198.0</ele><time>2026-04-17T14:46:33.305Z</time></trkpt><trkpt lat="43.4243187" lon="11.2341337"><ele>198.0</ele><time>2026-04-17T14:46:35.313Z</time></trkpt><trkpt lat="43.4243685" lon="11.2342569"><ele>198.0</ele><time>2026-04-17T14:46:37.315Z</time></trkpt><trkpt lat="43.4244159" lon="11.2343796"><ele>198.0</ele><time>2026-04-17T14:46:39.312Z</time></trkpt><trkpt lat="43.424461" lon="11.2345013"><ele>198.0</ele><time>2026-04-17T14:46:41.31Z</time></trkpt><trkpt lat="43.4245047" lon="11.2346314"><ele>198.0</ele><time>2026-04-17T14:46:43.313Z</time></trkpt><trkpt lat="43.4246024" lon="11.234829"><ele>197.8</ele><time>2026-04-17T14:46:47.306Z</time></trkpt><trkpt lat="43.4245897" lon="11.2350519"><ele>197.60000000000002</ele><time>2026-04-17T14:46:49.376Z</time></trkpt><trkpt lat="43.424608" lon="11.2351511"><ele>197.39999999999998</ele><time>2026-04-17T14:46:51.304Z</time></trkpt><trkpt lat="43.4245991" lon="11.2352824"><ele>197.2</ele><time>2026-04-17T14:46:53.39Z</time></trkpt><trkpt lat="43.4246052" lon="11.235438"><ele>197.0</ele><time>2026-04-17T14:46:55.307Z</time></trkpt><trkpt lat="43.4246016" lon="11.2355498"><ele>197.39999999999998</ele><time>2026-04-17T14:46:57.31Z</time></trkpt><trkpt lat="43.4245791" lon="11.2356827"><ele>197.79999999999998</ele><time>2026-04-17T14:46:59.306Z</time></trkpt><trkpt lat="43.4245495" lon="11.2358193"><ele>198.2</ele><time>2026-04-17T14:47:01.31Z</time></trkpt><trkpt lat="43.4245173" lon="11.2359472"><ele>198.6</ele><time>2026-04-17T14:47:03.307Z</time></trkpt><trkpt lat="43.4244603" lon="11.236064"><ele>199.0</ele><time>2026-04-17T14:47:05.305Z</time></trkpt><trkpt lat="43.4244001" lon="11.236188"><ele>199.0</ele><time>2026-04-17T14:47:07.308Z</time></trkpt><trkpt lat="43.4243438" lon="11.2363189"><ele>199.0</ele><time>2026-04-17T14:47:09.371Z</time></trkpt><trkpt lat="43.4242941" lon="11.2364385"><ele>199.0</ele><time>2026-04-17T14:47:11.304Z</time></trkpt><trkpt lat="43.4242417" lon="11.2365396"><ele>199.0</ele><time>2026-04-17T14:47:13.389Z</time></trkpt><trkpt lat="43.4241867" lon="11.2366487"><ele>199.0</ele><time>2026-04-17T14:47:15.389Z</time></trkpt><trkpt lat="43.4241438" lon="11.236754"><ele>199.2</ele><time>2026-04-17T14:47:17.299Z</time></trkpt><trkpt lat="43.4241055" lon="11.2368918"><ele>199.39999999999998</ele><time>2026-04-17T14:47:19.39Z</time></trkpt><trkpt lat="43.4240727" lon="11.2370336"><ele>199.6</ele><time>2026-04-17T14:47:21.309Z</time></trkpt><trkpt lat="43.4240428" lon="11.2371609"><ele>199.8</ele><time>2026-04-17T14:47:23.288Z</time></trkpt><trkpt lat="43.4240154" lon="11.2372719"><ele>200.0</ele><time>2026-04-17T14:47:25.292Z</time></trkpt><trkpt lat="43.4239813" lon="11.2373891"><ele>200.16666666666669</ele><time>2026-04-17T14:47:27.323Z</time></trkpt><trkpt lat="43.4239764" lon="11.2375061"><ele>200.33333333333334</ele><time>2026-04-17T14:47:29.3Z</time></trkpt><trkpt lat="43.4239634" lon="11.2376012"><ele>200.5</ele><time>2026-04-17T14:47:31.296Z</time></trkpt><trkpt lat="43.4239465" lon="11.2377053"><ele>200.66666666666669</ele><time>2026-04-17T14:47:33.302Z</time></trkpt><trkpt lat="43.4239615" lon="11.2378573"><ele>200.83333333333334</ele><time>2026-04-17T14:47:35.306Z</time></trkpt><trkpt lat="43.4239675" lon="11.237978"><ele>201.0</ele><time>2026-04-17T14:47:37.38Z</time></trkpt><trkpt lat="43.4239758" lon="11.2380902"><ele>201.20000000000002</ele><time>2026-04-17T14:47:39.388Z</time></trkpt><trkpt lat="43.4240208" lon="11.2382857"><ele>201.4</ele><time>2026-04-17T14:47:43.299Z</time></trkpt><trkpt lat="43.4240395" lon="11.2384256"><ele>201.6</ele><time>2026-04-17T14:47:46.304Z</time></trkpt><trkpt lat="43.4240625" lon="11.238507"><ele>201.8</ele><time>2026-04-17T14:47:48.297Z</time></trkpt><trkpt lat="43.4240868" lon="11.2385971"><ele>202.0</ele><time>2026-04-17T14:47:50.312Z</time></trkpt><trkpt lat="43.4240985" lon="11.2386854"><ele>201.99999999999997</ele><time>2026-04-17T14:47:52.329Z</time></trkpt><trkpt lat="43.4241359" lon="11.2388021"><ele>202.0</ele><time>2026-04-17T14:47:55.315Z</time></trkpt><trkpt lat="43.4241681" lon="11.2388911"><ele>202.0</ele><time>2026-04-17T14:47:58.319Z</time></trkpt><trkpt lat="43.4242168" lon="11.2389703"><ele>202.0</ele><time>2026-04-17T14:48:01.292Z</time></trkpt><trkpt lat="43.4242524" lon="11.2390457"><ele>201.99999999999997</ele><time>2026-04-17T14:48:03.397Z</time></trkpt><trkpt lat="43.4243004" lon="11.2391407"><ele>202.0</ele><time>2026-04-17T14:48:06.293Z</time></trkpt><trkpt lat="43.4243468" lon="11.2392256"><ele>202.83333333333331</ele><time>2026-04-17T14:48:09.376Z</time></trkpt><trkpt lat="43.4244019" lon="11.2392987"><ele>203.66666666666666</ele><time>2026-04-17T14:48:12.307Z</time></trkpt><trkpt lat="43.4244806" lon="11.239369"><ele>204.5</ele><time>2026-04-17T14:48:15.379Z</time></trkpt><trkpt lat="43.4245437" lon="11.2394471"><ele>205.33333333333331</ele><time>2026-04-17T14:48:17.304Z</time></trkpt><trkpt lat="43.4245679" lon="11.2395285"><ele>206.16666666666666</ele><time>2026-04-17T14:48:19.313Z</time></trkpt><trkpt lat="43.4246116" lon="11.2396045"><ele>207.0</ele><time>2026-04-17T14:48:22.317Z</time></trkpt><trkpt lat="43.4246552" lon="11.2396799"><ele>207.0</ele><time>2026-04-17T14:48:25.313Z</time></trkpt><trkpt lat="43.424697" lon="11.2397638"><ele>207.0</ele><time>2026-04-17T14:48:28.38Z</time></trkpt><trkpt lat="43.4247388" lon="11.2398448"><ele>207.0</ele><time>2026-04-17T14:48:31.328Z</time></trkpt><trkpt lat="43.4247917" lon="11.2399139"><ele>207.0</ele><time>2026-04-17T14:48:34.312Z</time></trkpt><trkpt lat="43.4248252" lon="11.2399998"><ele>207.0</ele><time>2026-04-17T14:48:37.313Z</time></trkpt><trkpt lat="43.4248831" lon="11.2400809"><ele>207.0</ele><time>2026-04-17T14:48:40.298Z</time></trkpt><trkpt lat="43.4249394" lon="11.2401695"><ele>207.66666666666666</ele><time>2026-04-17T14:48:43.387Z</time></trkpt><trkpt lat="43.4249987" lon="11.2402711"><ele>208.33333333333331</ele><time>2026-04-17T14:48:47.319Z</time></trkpt><trkpt lat="43.4250317" lon="11.2403714"><ele>209.0</ele><time>2026-04-17T14:48:50.316Z</time></trkpt><trkpt lat="43.425066" lon="11.2404636"><ele>209.66666666666666</ele><time>2026-04-17T14:48:53.302Z</time></trkpt><trkpt lat="43.4251407" lon="11.2405224"><ele>210.33333333333331</ele><time>2026-04-17T14:48:56.312Z</time></trkpt><trkpt lat="43.4252126" lon="11.2405712"><ele>211.0</ele><time>2026-04-17T14:48:59.32Z</time></trkpt><trkpt lat="43.4252784" lon="11.2406369"><ele>211.85714285714286</ele><time>2026-04-17T14:49:02.316Z</time></trkpt><trkpt lat="43.42534" lon="11.2406882"><ele>212.71428571428572</ele><time>2026-04-17T14:49:05.304Z</time></trkpt><trkpt lat="43.4253992" lon="11.2407341"><ele>213.57142857142856</ele><time>2026-04-17T14:49:08.306Z</time></trkpt><trkpt lat="43.4254681" lon="11.240769"><ele>214.42857142857144</ele><time>2026-04-17T14:49:11.306Z</time></trkpt><trkpt lat="43.4255389" lon="11.240811"><ele>215.28571428571428</ele><time>2026-04-17T14:49:14.319Z</time></trkpt><trkpt lat="43.4256014" lon="11.2408518"><ele>216.14285714285714</ele><time>2026-04-17T14:49:17.305Z</time></trkpt><trkpt lat="43.4256672" lon="11.240876"><ele>217.0</ele><time>2026-04-17T14:49:21.315Z</time></trkpt><trkpt lat="43.4257392" lon="11.2408724"><ele>217.49999999999997</ele><time>2026-04-17T14:49:24.383Z</time></trkpt><trkpt lat="43.4257964" lon="11.2409178"><ele>218.0</ele><time>2026-04-17T14:49:27.304Z</time></trkpt><trkpt lat="43.4258629" lon="11.2409234"><ele>218.5</ele><time>2026-04-17T14:49:32.31Z</time></trkpt><trkpt lat="43.4259427" lon="11.2409139"><ele>219.0</ele><time>2026-04-17T14:49:37.312Z</time></trkpt><trkpt lat="43.4260322" lon="11.24094"><ele>219.49999999999997</ele><time>2026-04-17T14:49:40.303Z</time></trkpt><trkpt lat="43.426095" lon="11.2409593"><ele>220.0</ele><time>2026-04-17T14:49:42.313Z</time></trkpt><trkpt lat="43.4261774" lon="11.240959"><ele>219.99999999999997</ele><time>2026-04-17T14:49:45.392Z</time></trkpt><trkpt lat="43.4262501" lon="11.2410306"><ele>220.0</ele><time>2026-04-17T14:49:47.291Z</time></trkpt><trkpt lat="43.4263189" lon="11.2410373"><ele>220.0</ele><time>2026-04-17T14:49:50.303Z</time></trkpt><trkpt lat="43.426397" lon="11.2410366"><ele>220.0</ele><time>2026-04-17T14:49:53.314Z</time></trkpt><trkpt lat="43.4264776" lon="11.2410373"><ele>219.99999999999997</ele><time>2026-04-17T14:49:56.362Z</time></trkpt><trkpt lat="43.4265717" lon="11.2410421"><ele>220.0</ele><time>2026-04-17T14:49:59.308Z</time></trkpt><trkpt lat="43.4266592" lon="11.2410374"><ele>220.66666666666666</ele><time>2026-04-17T14:50:02.311Z</time></trkpt><trkpt lat="43.426755" lon="11.2410617"><ele>221.33333333333331</ele><time>2026-04-17T14:50:05.318Z</time></trkpt><trkpt lat="43.4268383" lon="11.2410895"><ele>222.0</ele><time>2026-04-17T14:50:08.381Z</time></trkpt><trkpt lat="43.4269004" lon="11.2411249"><ele>222.66666666666669</ele><time>2026-04-17T14:50:11.322Z</time></trkpt><trkpt lat="43.4269933" lon="11.2411599"><ele>223.33333333333334</ele><time>2026-04-17T14:50:14.382Z</time></trkpt><trkpt lat="43.4270572" lon="11.2411884"><ele>224.0</ele><time>2026-04-17T14:50:16.317Z</time></trkpt><trkpt lat="43.4271163" lon="11.2412281"><ele>224.50000000000003</ele><time>2026-04-17T14:50:18.39Z</time></trkpt><trkpt lat="43.4271827" lon="11.2413008"><ele>225.0</ele><time>2026-04-17T14:50:20.307Z</time></trkpt><trkpt lat="43.4272473" lon="11.2413659"><ele>225.5</ele><time>2026-04-17T14:50:22.305Z</time></trkpt><trkpt lat="43.4273171" lon="11.2414277"><ele>226.0</ele><time>2026-04-17T14:50:26.307Z</time></trkpt><trkpt lat="43.4273756" lon="11.2414651"><ele>226.50000000000003</ele><time>2026-04-17T14:50:28.284Z</time></trkpt><trkpt lat="43.427436" lon="11.2415292"><ele>227.0</ele><time>2026-04-17T14:50:30.32Z</time></trkpt><trkpt lat="43.427482" lon="11.2415897"><ele>228.00000000000003</ele><time>2026-04-17T14:50:32.308Z</time></trkpt><trkpt lat="43.4275399" lon="11.2416718"><ele>229.0</ele><time>2026-04-17T14:50:35.297Z</time></trkpt><trkpt lat="43.4275962" lon="11.2417705"><ele>230.0</ele><time>2026-04-17T14:50:38.314Z</time></trkpt><trkpt lat="43.427645" lon="11.2418413"><ele>231.0</ele><time>2026-04-17T14:50:40.317Z</time></trkpt><trkpt lat="43.4277058" lon="11.241903"><ele>232.00000000000003</ele><time>2026-04-17T14:50:42.322Z</time></trkpt><trkpt lat="43.4277626" lon="11.2419686"><ele>233.0</ele><time>2026-04-17T14:50:44.321Z</time></trkpt><trkpt lat="43.4278361" lon="11.2420537"><ele>233.00000000000003</ele><time>2026-04-17T14:50:47.324Z</time></trkpt><trkpt lat="43.427883" lon="11.2421253"><ele>233.0</ele><time>2026-04-17T14:50:49.373Z</time></trkpt><trkpt lat="43.4279333" lon="11.242199"><ele>233.0</ele><time>2026-04-17T14:50:51.318Z</time></trkpt><trkpt lat="43.4279987" lon="11.2423019"><ele>233.0</ele><time>2026-04-17T14:50:54.386Z</time></trkpt><trkpt lat="43.4280482" lon="11.2423696"><ele>233.00000000000003</ele><time>2026-04-17T14:50:56.324Z</time></trkpt><trkpt lat="43.428104" lon="11.2424396"><ele>233.0</ele><time>2026-04-17T14:50:58.386Z</time></trkpt><trkpt lat="43.4281596" lon="11.2425135"><ele>232.4</ele><time>2026-04-17T14:51:00.376Z</time></trkpt><trkpt lat="43.4282095" lon="11.2425934"><ele>231.8</ele><time>2026-04-17T14:51:02.317Z</time></trkpt><trkpt lat="43.4282652" lon="11.2426573"><ele>231.2</ele><time>2026-04-17T14:51:04.387Z</time></trkpt><trkpt lat="43.4283108" lon="11.2427534"><ele>230.6</ele><time>2026-04-17T14:51:06.316Z</time></trkpt><trkpt lat="43.4283534" lon="11.2428546"><ele>230.0</ele><time>2026-04-17T14:51:08.292Z</time></trkpt><trkpt lat="43.4284749" lon="11.2430307"><ele>230.00000000000003</ele><time>2026-04-17T14:51:11.322Z</time></trkpt><trkpt lat="43.4284926" lon="11.2431167"><ele>230.0</ele><time>2026-04-17T14:51:13.386Z</time></trkpt><trkpt lat="43.4285044" lon="11.2432431"><ele>230.0</ele><time>2026-04-17T14:51:15.305Z</time></trkpt><trkpt lat="43.4285069" lon="11.2433548"><ele>230.0</ele><time>2026-04-17T14:51:17.313Z</time></trkpt><trkpt lat="43.4284948" lon="11.2434622"><ele>230.00000000000003</ele><time>2026-04-17T14:51:19.308Z</time></trkpt><trkpt lat="43.4284828" lon="11.2435788"><ele>230.0</ele><time>2026-04-17T14:51:21.317Z</time></trkpt><trkpt lat="43.4284864" lon="11.2436986"><ele>229.8</ele><time>2026-04-17T14:51:23.285Z</time></trkpt><trkpt lat="43.4284675" lon="11.243823"><ele>229.6</ele><time>2026-04-17T14:51:25.298Z</time></trkpt><trkpt lat="43.4284529" lon="11.2439465"><ele>229.39999999999998</ele><time>2026-04-17T14:51:27.317Z</time></trkpt><trkpt lat="43.4284334" lon="11.2440684"><ele>229.2</ele><time>2026-04-17T14:51:29.29Z</time></trkpt><trkpt lat="43.4284109" lon="11.2442256"><ele>229.0</ele><time>2026-04-17T14:51:31.315Z</time></trkpt><trkpt lat="43.4283722" lon="11.2443562"><ele>229.0</ele><time>2026-04-17T14:51:33.299Z</time></trkpt><trkpt lat="43.4283496" lon="11.2444755"><ele>228.99999999999997</ele><time>2026-04-17T14:51:35.293Z</time></trkpt><trkpt lat="43.4283179" lon="11.2446379"><ele>228.99999999999997</ele><time>2026-04-17T14:51:37.307Z</time></trkpt><trkpt lat="43.4283038" lon="11.2447875"><ele>229.0</ele><time>2026-04-17T14:51:39.376Z</time></trkpt><trkpt lat="43.4282675" lon="11.2449203"><ele>229.0</ele><time>2026-04-17T14:51:41.312Z</time></trkpt><trkpt lat="43.4282534" lon="11.245058"><ele>229.0</ele><time>2026-04-17T14:51:43.308Z</time></trkpt><trkpt lat="43.4282328" lon="11.245209"><ele>229.0</ele><time>2026-04-17T14:51:45.372Z</time></trkpt><trkpt lat="43.4282076" lon="11.2453538"><ele>229.0</ele><time>2026-04-17T14:51:47.306Z</time></trkpt><trkpt lat="43.4282175" lon="11.2455188"><ele>229.0</ele><time>2026-04-17T14:51:49.383Z</time></trkpt><trkpt lat="43.4282301" lon="11.245682"><ele>229.0</ele><time>2026-04-17T14:51:51.294Z</time></trkpt><trkpt lat="43.4282436" lon="11.2458273"><ele>228.99999999999997</ele><time>2026-04-17T14:51:53.308Z</time></trkpt><trkpt lat="43.4282642" lon="11.2459673"><ele>228.99999999999997</ele><time>2026-04-17T14:51:55.289Z</time></trkpt><trkpt lat="43.4282923" lon="11.246105"><ele>229.0</ele><time>2026-04-17T14:51:57.309Z</time></trkpt><trkpt lat="43.4283331" lon="11.2462416"><ele>229.0</ele><time>2026-04-17T14:51:59.292Z</time></trkpt><trkpt lat="43.4283855" lon="11.2463705"><ele>228.25</ele><time>2026-04-17T14:52:01.28Z</time></trkpt><trkpt lat="43.4284463" lon="11.2465046"><ele>227.5</ele><time>2026-04-17T14:52:03.307Z</time></trkpt><trkpt lat="43.428516" lon="11.2466359"><ele>226.75</ele><time>2026-04-17T14:52:05.289Z</time></trkpt><trkpt lat="43.4285888" lon="11.2467614"><ele>226.0</ele><time>2026-04-17T14:52:07.298Z</time></trkpt><trkpt lat="43.428668" lon="11.2468777"><ele>226.0</ele><time>2026-04-17T14:52:09.306Z</time></trkpt><trkpt lat="43.428755" lon="11.2469922"><ele>226.0</ele><time>2026-04-17T14:52:11.315Z</time></trkpt><trkpt lat="43.4288342" lon="11.2471094"><ele>226.0</ele><time>2026-04-17T14:52:13.285Z</time></trkpt><trkpt lat="43.4289114" lon="11.2472385"><ele>226.0</ele><time>2026-04-17T14:52:15.378Z</time></trkpt><trkpt lat="43.4289738" lon="11.2473677"><ele>227.4</ele><time>2026-04-17T14:52:17.305Z</time></trkpt><trkpt lat="43.4290267" lon="11.2474847"><ele>228.8</ele><time>2026-04-17T14:52:19.378Z</time></trkpt><trkpt lat="43.4290737" lon="11.2476178"><ele>230.20000000000002</ele><time>2026-04-17T14:52:21.307Z</time></trkpt><trkpt lat="43.429086" lon="11.2477035"><ele>231.60000000000002</ele><time>2026-04-17T14:52:22.302Z</time></trkpt><trkpt lat="43.4291002" lon="11.2477902"><ele>233.0</ele><time>2026-04-17T14:52:23.286Z</time></trkpt><trkpt lat="43.4291355" lon="11.2479412"><ele>233.00000000000003</ele><time>2026-04-17T14:52:25.37Z</time></trkpt><trkpt lat="43.4291615" lon="11.248095"><ele>233.0</ele><time>2026-04-17T14:52:27.301Z</time></trkpt><trkpt lat="43.4291838" lon="11.2481774"><ele>233.0</ele><time>2026-04-17T14:52:28.311Z</time></trkpt><trkpt lat="43.4292092" lon="11.248257"><ele>233.0</ele><time>2026-04-17T14:52:29.302Z</time></trkpt><trkpt lat="43.4292301" lon="11.2483424"><ele>233.00000000000003</ele><time>2026-04-17T14:52:30.375Z</time></trkpt><trkpt lat="43.4292569" lon="11.248504"><ele>233.0</ele><time>2026-04-17T14:52:32.301Z</time></trkpt><trkpt lat="43.4292871" lon="11.248668"><ele>231.4</ele><time>2026-04-17T14:52:34.385Z</time></trkpt><trkpt lat="43.429263" lon="11.2487908"><ele>229.8</ele><time>2026-04-17T14:52:36.298Z</time></trkpt><trkpt lat="43.4292985" lon="11.2489774"><ele>228.2</ele><time>2026-04-17T14:52:38.31Z</time></trkpt><trkpt lat="43.429317" lon="11.2490616"><ele>226.6</ele><time>2026-04-17T14:52:39.307Z</time></trkpt><trkpt lat="43.4293415" lon="11.2492188"><ele>225.0</ele><time>2026-04-17T14:52:41.298Z</time></trkpt><trkpt lat="43.4293491" lon="11.2493847"><ele>225.0</ele><time>2026-04-17T14:52:43.383Z</time></trkpt><trkpt lat="43.429328" lon="11.2495308"><ele>225.0</ele><time>2026-04-17T14:52:45.383Z</time></trkpt><trkpt lat="43.4293135" lon="11.2496532"><ele>225.0</ele><time>2026-04-17T14:52:47.305Z</time></trkpt><trkpt lat="43.4293138" lon="11.2498"><ele>225.0</ele><time>2026-04-17T14:52:49.309Z</time></trkpt><trkpt lat="43.4293153" lon="11.2499354"><ele>225.0</ele><time>2026-04-17T14:52:51.299Z</time></trkpt><trkpt lat="43.4293137" lon="11.2500546"><ele>225.16666666666666</ele><time>2026-04-17T14:52:53.283Z</time></trkpt><trkpt lat="43.4293062" lon="11.2501687"><ele>225.33333333333331</ele><time>2026-04-17T14:52:55.38Z</time></trkpt><trkpt lat="43.4293052" lon="11.2502732"><ele>225.5</ele><time>2026-04-17T14:52:57.308Z</time></trkpt><trkpt lat="43.4293158" lon="11.2503893"><ele>225.66666666666666</ele><time>2026-04-17T14:52:59.288Z</time></trkpt><trkpt lat="43.4293349" lon="11.250505"><ele>225.83333333333331</ele><time>2026-04-17T14:53:01.314Z</time></trkpt><trkpt lat="43.429358" lon="11.2506214"><ele>226.0</ele><time>2026-04-17T14:53:03.311Z</time></trkpt><trkpt lat="43.4293789" lon="11.2507212"><ele>225.99999999999997</ele><time>2026-04-17T14:53:05.311Z</time></trkpt><trkpt lat="43.429401" lon="11.2508222"><ele>226.0</ele><time>2026-04-17T14:53:07.306Z</time></trkpt><trkpt lat="43.4294264" lon="11.2509327"><ele>226.0</ele><time>2026-04-17T14:53:09.304Z</time></trkpt><trkpt lat="43.429455" lon="11.2510394"><ele>226.0</ele><time>2026-04-17T14:53:11.309Z</time></trkpt><trkpt lat="43.4294824" lon="11.2511445"><ele>225.99999999999997</ele><time>2026-04-17T14:53:13.313Z</time></trkpt><trkpt lat="43.4295117" lon="11.2512521"><ele>226.0</ele><time>2026-04-17T14:53:15.297Z</time></trkpt><trkpt lat="43.4295412" lon="11.2513533"><ele>225.99999999999997</ele><time>2026-04-17T14:53:17.298Z</time></trkpt><trkpt lat="43.4295706" lon="11.251451"><ele>226.0</ele><time>2026-04-17T14:53:19.284Z</time></trkpt><trkpt lat="43.4295985" lon="11.2515433"><ele>226.0</ele><time>2026-04-17T14:53:21.288Z</time></trkpt><trkpt lat="43.4296257" lon="11.2516286"><ele>226.0</ele><time>2026-04-17T14:53:23.311Z</time></trkpt><trkpt lat="43.4296703" lon="11.2517302"><ele>225.99999999999997</ele><time>2026-04-17T14:53:26.305Z</time></trkpt><trkpt lat="43.4297172" lon="11.2518302"><ele>226.0</ele><time>2026-04-17T14:53:29.314Z</time></trkpt><trkpt lat="43.4297659" lon="11.2519246"><ele>227.0</ele><time>2026-04-17T14:53:32.308Z</time></trkpt><trkpt lat="43.4298186" lon="11.2519901"><ele>228.0</ele><time>2026-04-17T14:53:35.315Z</time></trkpt><trkpt lat="43.4298768" lon="11.2520589"><ele>229.0</ele><time>2026-04-17T14:53:38.289Z</time></trkpt><trkpt lat="43.4299399" lon="11.2521128"><ele>230.0</ele><time>2026-04-17T14:53:41.303Z</time></trkpt><trkpt lat="43.4299948" lon="11.2521647"><ele>231.0</ele><time>2026-04-17T14:53:43.315Z</time></trkpt><trkpt lat="43.4300504" lon="11.2522372"><ele>232.0</ele><time>2026-04-17T14:53:46.303Z</time></trkpt><trkpt lat="43.4301106" lon="11.2522904"><ele>233.0</ele><time>2026-04-17T14:53:49.383Z</time></trkpt><trkpt lat="43.430182" lon="11.2523419"><ele>233.00000000000003</ele><time>2026-04-17T14:53:53.305Z</time></trkpt><trkpt lat="43.4302564" lon="11.2523897"><ele>233.0</ele><time>2026-04-17T14:53:56.305Z</time></trkpt><trkpt lat="43.4303254" lon="11.2524434"><ele>233.0</ele><time>2026-04-17T14:53:59.298Z</time></trkpt><trkpt lat="43.4303836" lon="11.2524952"><ele>233.0</ele><time>2026-04-17T14:54:02.314Z</time></trkpt><trkpt lat="43.4304513" lon="11.2525336"><ele>233.00000000000003</ele><time>2026-04-17T14:54:05.308Z</time></trkpt><trkpt lat="43.4305233" lon="11.2525841"><ele>233.0</ele><time>2026-04-17T14:54:08.286Z</time></trkpt><trkpt lat="43.4305914" lon="11.2526338"><ele>234.60000000000002</ele><time>2026-04-17T14:54:11.307Z</time></trkpt><trkpt lat="43.4306619" lon="11.2526773"><ele>236.20000000000002</ele><time>2026-04-17T14:54:14.314Z</time></trkpt><trkpt lat="43.4307336" lon="11.2526988"><ele>237.8</ele><time>2026-04-17T14:54:17.299Z</time></trkpt><trkpt lat="43.4307917" lon="11.2527346"><ele>239.4</ele><time>2026-04-17T14:54:19.384Z</time></trkpt><trkpt lat="43.4308556" lon="11.2527905"><ele>241.0</ele><time>2026-04-17T14:54:22.295Z</time></trkpt><trkpt lat="43.4310121" lon="11.2528543"><ele>240.99999999999997</ele><time>2026-04-17T14:54:28.302Z</time></trkpt><trkpt lat="43.4310683" lon="11.2529367"><ele>241.0</ele><time>2026-04-17T14:54:31.309Z</time></trkpt><trkpt lat="43.4311391" lon="11.2529837"><ele>241.0</ele><time>2026-04-17T14:54:34.299Z</time></trkpt><trkpt lat="43.431207" lon="11.2530318"><ele>241.0</ele><time>2026-04-17T14:54:37.3Z</time></trkpt><trkpt lat="43.4312693" lon="11.2530797"><ele>240.99999999999997</ele><time>2026-04-17T14:54:40.309Z</time></trkpt><trkpt lat="43.4313378" lon="11.2531268"><ele>241.0</ele><time>2026-04-17T14:54:43.297Z</time></trkpt><trkpt lat="43.4314077" lon="11.253169"><ele>241.49999999999997</ele><time>2026-04-17T14:54:46.292Z</time></trkpt><trkpt lat="43.4314709" lon="11.2532111"><ele>242.0</ele><time>2026-04-17T14:54:49.309Z</time></trkpt><trkpt lat="43.4315415" lon="11.2532571"><ele>242.5</ele><time>2026-04-17T14:54:52.292Z</time></trkpt><trkpt lat="43.4316103" lon="11.2533077"><ele>243.0</ele><time>2026-04-17T14:54:55.302Z</time></trkpt><trkpt lat="43.4316763" lon="11.2533542"><ele>243.49999999999997</ele><time>2026-04-17T14:54:58.312Z</time></trkpt><trkpt lat="43.4317462" lon="11.2533964"><ele>244.0</ele><time>2026-04-17T14:55:01.3Z</time></trkpt><trkpt lat="43.431817" lon="11.2534469"><ele>243.99999999999997</ele><time>2026-04-17T14:55:04.308Z</time></trkpt><trkpt lat="43.4318801" lon="11.2535051"><ele>244.0</ele><time>2026-04-17T14:55:07.32Z</time></trkpt><trkpt lat="43.4319466" lon="11.2535486"><ele>244.0</ele><time>2026-04-17T14:55:10.309Z</time></trkpt><trkpt lat="43.4320094" lon="11.2536082"><ele>244.0</ele><time>2026-04-17T14:55:13.3Z</time></trkpt><trkpt lat="43.4320691" lon="11.2536796"><ele>243.99999999999997</ele><time>2026-04-17T14:55:16.308Z</time></trkpt><trkpt lat="43.4321296" lon="11.2537517"><ele>244.0</ele><time>2026-04-17T14:55:19.313Z</time></trkpt><trkpt lat="43.4321887" lon="11.253836"><ele>244.66666666666666</ele><time>2026-04-17T14:55:22.306Z</time></trkpt><trkpt lat="43.432244" lon="11.2539149"><ele>245.33333333333331</ele><time>2026-04-17T14:55:25.31Z</time></trkpt><trkpt lat="43.4322939" lon="11.254002"><ele>246.0</ele><time>2026-04-17T14:55:28.318Z</time></trkpt><trkpt lat="43.4323362" lon="11.254093"><ele>246.66666666666669</ele><time>2026-04-17T14:55:31.308Z</time></trkpt><trkpt lat="43.4323797" lon="11.2541791"><ele>247.33333333333334</ele><time>2026-04-17T14:55:34.308Z</time></trkpt><trkpt lat="43.4324204" lon="11.2542711"><ele>248.0</ele><time>2026-04-17T14:55:37.314Z</time></trkpt><trkpt lat="43.4324583" lon="11.2543506"><ele>248.0</ele><time>2026-04-17T14:55:40.308Z</time></trkpt><trkpt lat="43.4325105" lon="11.2544001"><ele>248.00000000000003</ele><time>2026-04-17T14:55:43.317Z</time></trkpt><trkpt lat="43.4325882" lon="11.254427"><ele>248.0</ele><time>2026-04-17T14:55:47.311Z</time></trkpt><trkpt lat="43.4326551" lon="11.2544173"><ele>248.0</ele><time>2026-04-17T14:55:51.3Z</time></trkpt><trkpt lat="43.4327167" lon="11.2543812"><ele>248.00000000000003</ele><time>2026-04-17T14:55:55.317Z</time></trkpt><trkpt lat="43.432774" lon="11.2543434"><ele>248.0</ele><time>2026-04-17T14:55:59.311Z</time></trkpt><trkpt lat="43.4328327" lon="11.2543079"><ele>248.0</ele><time>2026-04-17T14:56:03.303Z</time></trkpt><trkpt lat="43.4328849" lon="11.254239"><ele>248.0</ele><time>2026-04-17T14:56:10.308Z</time></trkpt><trkpt lat="43.4329491" lon="11.2542261"><ele>248.00000000000003</ele><time>2026-04-17T14:56:14.294Z</time></trkpt><trkpt lat="43.4330174" lon="11.2542514"><ele>248.0</ele><time>2026-04-17T14:56:18.375Z</time></trkpt><trkpt lat="43.4330835" lon="11.254242"><ele>248.0</ele><time>2026-04-17T14:56:21.307Z</time></trkpt><trkpt lat="43.4331483" lon="11.2542248"><ele>248.00000000000003</ele><time>2026-04-17T14:56:26.312Z</time></trkpt><trkpt lat="43.4332246" lon="11.2542596"><ele>248.0</ele><time>2026-04-17T14:56:34.378Z</time></trkpt><trkpt lat="43.433294" lon="11.2542504"><ele>248.0</ele><time>2026-04-17T14:56:39.316Z</time></trkpt><trkpt lat="43.4333552" lon="11.2542743"><ele>249.66666666666669</ele><time>2026-04-17T14:56:43.3Z</time></trkpt><trkpt lat="43.4334286" lon="11.2542949"><ele>251.33333333333334</ele><time>2026-04-17T14:56:50.286Z</time></trkpt><trkpt lat="43.4335201" lon="11.2543577"><ele>253.0</ele><time>2026-04-17T14:56:55.379Z</time></trkpt><trkpt lat="43.4336098" lon="11.2543874"><ele>254.66666666666669</ele><time>2026-04-17T14:56:57.318Z</time></trkpt><trkpt lat="43.4336715" lon="11.2543556"><ele>256.3333333333333</ele><time>2026-04-17T14:57:01.292Z</time></trkpt><trkpt lat="43.4337439" lon="11.2543793"><ele>258.0</ele><time>2026-04-17T14:57:14.303Z</time></trkpt><trkpt lat="43.4338233" lon="11.254398"><ele>260.0</ele><time>2026-04-17T14:57:20.311Z</time></trkpt><trkpt lat="43.4338878" lon="11.2544021"><ele>262.0</ele><time>2026-04-17T14:57:26.311Z</time></trkpt><trkpt lat="43.4339514" lon="11.2544056"><ele>264.0</ele><time>2026-04-17T14:57:30.305Z</time></trkpt><trkpt lat="43.4341764" lon="11.2543989"><ele>266.0</ele><time>2026-04-17T14:57:37.304Z</time></trkpt><trkpt lat="43.4342577" lon="11.2543938"><ele>268.0</ele><time>2026-04-17T14:57:41.293Z</time></trkpt><trkpt lat="43.4343321" lon="11.254388"><ele>268.0</ele><time>2026-04-17T14:57:47.275Z</time></trkpt><trkpt lat="43.4343873" lon="11.2544647"><ele>268.0</ele><time>2026-04-17T14:57:55.305Z</time></trkpt><trkpt lat="43.4344593" lon="11.2544605"><ele>268.0</ele><time>2026-04-17T14:58:02.303Z</time></trkpt><trkpt lat="43.4345335" lon="11.2544589"><ele>268.0</ele><time>2026-04-17T14:58:09.357Z</time></trkpt><trkpt lat="43.4346109" lon="11.254478"><ele>268.0</ele><time>2026-04-17T14:58:24.373Z</time></trkpt><trkpt lat="43.4346869" lon="11.2544877"><ele>268.0</ele><time>2026-04-17T14:58:29.389Z</time></trkpt><trkpt lat="43.4347523" lon="11.2545012"><ele>268.0</ele><time>2026-04-17T14:58:33.314Z</time></trkpt><trkpt lat="43.4348308" lon="11.2545046"><ele>269.42857142857144</ele><time>2026-04-17T14:58:40.312Z</time></trkpt><trkpt lat="43.4349007" lon="11.2545168"><ele>270.85714285714283</ele><time>2026-04-17T14:58:43.283Z</time></trkpt><trkpt lat="43.4349691" lon="11.2545347"><ele>272.2857142857143</ele><time>2026-04-17T14:58:48.286Z</time></trkpt><trkpt lat="43.4350366" lon="11.2545403"><ele>273.7142857142857</ele><time>2026-04-17T14:58:52.306Z</time></trkpt><trkpt lat="43.4351018" lon="11.2545662"><ele>275.14285714285717</ele><time>2026-04-17T14:58:56.287Z</time></trkpt><trkpt lat="43.4351663" lon="11.254569"><ele>276.57142857142856</ele><time>2026-04-17T14:59:00.301Z</time></trkpt><trkpt lat="43.4352266" lon="11.2546117"><ele>278.0</ele><time>2026-04-17T14:59:07.293Z</time></trkpt><trkpt lat="43.4352924" lon="11.2546231"><ele>278.0</ele><time>2026-04-17T14:59:10.383Z</time></trkpt><trkpt lat="43.4353598" lon="11.2545993"><ele>278.0</ele><time>2026-04-17T14:59:12.31Z</time></trkpt><trkpt lat="43.4354236" lon="11.25462"><ele>278.0</ele><time>2026-04-17T14:59:21.322Z</time></trkpt><trkpt lat="43.435495" lon="11.2545998"><ele>278.0</ele><time>2026-04-17T14:59:25.306Z</time></trkpt><trkpt lat="43.4355682" lon="11.2545874"><ele>278.0</ele><time>2026-04-17T14:59:27.309Z</time></trkpt><trkpt lat="43.4356323" lon="11.2546006"><ele>278.0</ele><time>2026-04-17T14:59:32.301Z</time></trkpt><trkpt lat="43.4356998" lon="11.2546191"><ele>278.0</ele><time>2026-04-17T14:59:49.382Z</time></trkpt><trkpt lat="43.4357695" lon="11.2546344"><ele>279.33333333333337</ele><time>2026-04-17T14:59:55.378Z</time></trkpt><trkpt lat="43.4357845" lon="11.2547227"><ele>280.6666666666667</ele><time>2026-04-17T14:59:59.377Z</time></trkpt><trkpt lat="43.4358553" lon="11.2546972"><ele>282.0</ele><time>2026-04-17T15:00:04.381Z</time></trkpt><trkpt lat="43.435929" lon="11.2547336"><ele>283.3333333333333</ele><time>2026-04-17T15:00:07.31Z</time></trkpt><trkpt lat="43.4360218" lon="11.2547181"><ele>284.66666666666663</ele><time>2026-04-17T15:00:10.38Z</time></trkpt><trkpt lat="43.4361001" lon="11.2547105"><ele>286.0</ele><time>2026-04-17T15:00:13.305Z</time></trkpt><trkpt lat="43.4361731" lon="11.2547075"><ele>285.99999999999994</ele><time>2026-04-17T15:00:18.383Z</time></trkpt><trkpt lat="43.4362404" lon="11.2547147"><ele>286.0</ele><time>2026-04-17T15:00:24.303Z</time></trkpt><trkpt lat="43.436281" lon="11.2547839"><ele>286.0</ele><time>2026-04-17T15:00:28.29Z</time></trkpt><trkpt lat="43.4363438" lon="11.2547702"><ele>286.0</ele><time>2026-04-17T15:00:32.301Z</time></trkpt><trkpt lat="43.4364138" lon="11.2547739"><ele>286.0</ele><time>2026-04-17T15:00:36.313Z</time></trkpt><trkpt lat="43.4364771" lon="11.254765"><ele>285.99999999999994</ele><time>2026-04-17T15:00:41.297Z</time></trkpt><trkpt lat="43.4365552" lon="11.2547282"><ele>286.0</ele><time>2026-04-17T15:00:45.384Z</time></trkpt><trkpt lat="43.4366179" lon="11.2546881"><ele>287.66666666666663</ele><time>2026-04-17T15:00:49.312Z</time></trkpt><trkpt lat="43.4366793" lon="11.2546409"><ele>289.3333333333333</ele><time>2026-04-17T15:00:53.384Z</time></trkpt><trkpt lat="43.4367065" lon="11.2545584"><ele>291.0</ele><time>2026-04-17T15:00:55.346Z</time></trkpt><trkpt lat="43.436755" lon="11.2544417"><ele>292.6666666666667</ele><time>2026-04-17T15:00:57.325Z</time></trkpt><trkpt lat="43.4368277" lon="11.2543558"><ele>294.33333333333337</ele><time>2026-04-17T15:00:59.313Z</time></trkpt><trkpt lat="43.436897" lon="11.2543178"><ele>296.0</ele><time>2026-04-17T15:01:01.298Z</time></trkpt><trkpt lat="43.4369603" lon="11.2543024"><ele>296.0</ele><time>2026-04-17T15:01:03.314Z</time></trkpt><trkpt lat="43.437055" lon="11.254284"><ele>296.0</ele><time>2026-04-17T15:01:06.296Z</time></trkpt><trkpt lat="43.4371259" lon="11.2542595"><ele>296.0</ele><time>2026-04-17T15:01:08.296Z</time></trkpt><trkpt lat="43.4372045" lon="11.2542315"><ele>296.0</ele><time>2026-04-17T15:01:10.295Z</time></trkpt><trkpt lat="43.4372804" lon="11.2541985"><ele>296.0</ele><time>2026-04-17T15:01:12.304Z</time></trkpt><trkpt lat="43.4373531" lon="11.254174"><ele>296.0</ele><time>2026-04-17T15:01:14.284Z</time></trkpt><trkpt lat="43.4374261" lon="11.2541524"><ele>295.33333333333337</ele><time>2026-04-17T15:01:16.31Z</time></trkpt><trkpt lat="43.4374983" lon="11.2541219"><ele>294.6666666666667</ele><time>2026-04-17T15:01:18.298Z</time></trkpt><trkpt lat="43.4375703" lon="11.2540925"><ele>294.0</ele><time>2026-04-17T15:01:20.31Z</time></trkpt><trkpt lat="43.4376505" lon="11.2540441"><ele>293.3333333333333</ele><time>2026-04-17T15:01:22.299Z</time></trkpt><trkpt lat="43.4377233" lon="11.253974"><ele>292.66666666666663</ele><time>2026-04-17T15:01:24.307Z</time></trkpt><trkpt lat="43.4377882" lon="11.2538753"><ele>292.0</ele><time>2026-04-17T15:01:26.299Z</time></trkpt><trkpt lat="43.4378565" lon="11.2537647"><ele>292.0</ele><time>2026-04-17T15:01:28.306Z</time></trkpt><trkpt lat="43.437922" lon="11.2536233"><ele>292.0</ele><time>2026-04-17T15:01:30.302Z</time></trkpt><trkpt lat="43.4379534" lon="11.2535469"><ele>292.0</ele><time>2026-04-17T15:01:31.307Z</time></trkpt><trkpt lat="43.4379852" lon="11.2534675"><ele>292.0</ele><time>2026-04-17T15:01:32.299Z</time></trkpt><trkpt lat="43.4380187" lon="11.2533919"><ele>292.0</ele><time>2026-04-17T15:01:33.304Z</time></trkpt><trkpt lat="43.4380519" lon="11.2533132"><ele>292.0</ele><time>2026-04-17T15:01:34.285Z</time></trkpt><trkpt lat="43.4380869" lon="11.2532319"><ele>292.4</ele><time>2026-04-17T15:01:35.306Z</time></trkpt><trkpt lat="43.438119" lon="11.2531545"><ele>292.79999999999995</ele><time>2026-04-17T15:01:36.308Z</time></trkpt><trkpt lat="43.4381697" lon="11.2530038"><ele>293.2</ele><time>2026-04-17T15:01:38.316Z</time></trkpt><trkpt lat="43.4382108" lon="11.2528577"><ele>293.59999999999997</ele><time>2026-04-17T15:01:40.302Z</time></trkpt><trkpt lat="43.4382626" lon="11.2527378"><ele>294.0</ele><time>2026-04-17T15:01:42.286Z</time></trkpt><trkpt lat="43.4383043" lon="11.2526115"><ele>294.0</ele><time>2026-04-17T15:01:44.287Z</time></trkpt><trkpt lat="43.4383409" lon="11.2524701"><ele>294.0</ele><time>2026-04-17T15:01:46.324Z</time></trkpt><trkpt lat="43.4383934" lon="11.252339"><ele>294.0</ele><time>2026-04-17T15:01:48.3Z</time></trkpt><trkpt lat="43.4384573" lon="11.2522228"><ele>294.0</ele><time>2026-04-17T15:01:50.303Z</time></trkpt><trkpt lat="43.4385151" lon="11.2521146"><ele>294.0</ele><time>2026-04-17T15:01:52.309Z</time></trkpt><trkpt lat="43.4385577" lon="11.2520044"><ele>293.2</ele><time>2026-04-17T15:01:54.318Z</time></trkpt><trkpt lat="43.4385759" lon="11.2518865"><ele>292.4</ele><time>2026-04-17T15:01:56.285Z</time></trkpt><trkpt lat="43.4385932" lon="11.2517623"><ele>291.6</ele><time>2026-04-17T15:01:58.302Z</time></trkpt><trkpt lat="43.4386137" lon="11.2516384"><ele>290.8</ele><time>2026-04-17T15:02:00.299Z</time></trkpt><trkpt lat="43.438629" lon="11.2515185"><ele>290.0</ele><time>2026-04-17T15:02:02.302Z</time></trkpt><trkpt lat="43.4386534" lon="11.2513983"><ele>289.83333333333337</ele><time>2026-04-17T15:02:04.3Z</time></trkpt><trkpt lat="43.4386721" lon="11.2512793"><ele>289.6666666666667</ele><time>2026-04-17T15:02:06.308Z</time></trkpt><trkpt lat="43.4386997" lon="11.2511679"><ele>289.5</ele><time>2026-04-17T15:02:08.308Z</time></trkpt><trkpt lat="43.4387235" lon="11.2510543"><ele>289.3333333333333</ele><time>2026-04-17T15:02:10.304Z</time></trkpt><trkpt lat="43.4387298" lon="11.2509343"><ele>289.16666666666663</ele><time>2026-04-17T15:02:12.319Z</time></trkpt><trkpt lat="43.4387234" lon="11.2508069"><ele>289.0</ele><time>2026-04-17T15:02:14.308Z</time></trkpt><trkpt lat="43.4387101" lon="11.2506758"><ele>289.16666666666663</ele><time>2026-04-17T15:02:16.303Z</time></trkpt><trkpt lat="43.4387063" lon="11.2505523"><ele>289.3333333333333</ele><time>2026-04-17T15:02:18.31Z</time></trkpt><trkpt lat="43.4386957" lon="11.2504352"><ele>289.5</ele><time>2026-04-17T15:02:20.312Z</time></trkpt><trkpt lat="43.4386846" lon="11.2503125"><ele>289.6666666666667</ele><time>2026-04-17T15:02:22.302Z</time></trkpt><trkpt lat="43.4386783" lon="11.2501829"><ele>289.83333333333337</ele><time>2026-04-17T15:02:24.305Z</time></trkpt><trkpt lat="43.4386691" lon="11.2500631"><ele>290.0</ele><time>2026-04-17T15:02:26.301Z</time></trkpt><trkpt lat="43.4386606" lon="11.2499494"><ele>290.0</ele><time>2026-04-17T15:02:28.312Z</time></trkpt><trkpt lat="43.4386512" lon="11.2498365"><ele>290.0</ele><time>2026-04-17T15:02:30.309Z</time></trkpt><trkpt lat="43.4386434" lon="11.2497291"><ele>290.0</ele><time>2026-04-17T15:02:32.307Z</time></trkpt><trkpt lat="43.4386343" lon="11.2496219"><ele>290.0</ele><time>2026-04-17T15:02:34.299Z</time></trkpt><trkpt lat="43.4386247" lon="11.2495129"><ele>290.0</ele><time>2026-04-17T15:02:36.303Z</time></trkpt><trkpt lat="43.4386182" lon="11.2494138"><ele>290.0</ele><time>2026-04-17T15:02:38.312Z</time></trkpt><trkpt lat="43.4386136" lon="11.249309"><ele>290.0</ele><time>2026-04-17T15:02:40.311Z</time></trkpt><trkpt lat="43.4386075" lon="11.2491991"><ele>290.0</ele><time>2026-04-17T15:02:42.307Z</time></trkpt><trkpt lat="43.4386051" lon="11.2491014"><ele>290.0</ele><time>2026-04-17T15:02:44.31Z</time></trkpt><trkpt lat="43.4386005" lon="11.2490052"><ele>290.0</ele><time>2026-04-17T15:02:46.302Z</time></trkpt><trkpt lat="43.438584" lon="11.2488978"><ele>290.0</ele><time>2026-04-17T15:02:48.316Z</time></trkpt><trkpt lat="43.4385691" lon="11.2487851"><ele>290.0</ele><time>2026-04-17T15:02:50.31Z</time></trkpt><trkpt lat="43.4385607" lon="11.248671"><ele>290.0</ele><time>2026-04-17T15:02:52.302Z</time></trkpt><trkpt lat="43.4385577" lon="11.2485372"><ele>290.0</ele><time>2026-04-17T15:02:54.303Z</time></trkpt><trkpt lat="43.4385628" lon="11.2483877"><ele>290.0</ele><time>2026-04-17T15:02:56.313Z</time></trkpt><trkpt lat="43.4385658" lon="11.2482207"><ele>290.0</ele><time>2026-04-17T15:02:58.31Z</time></trkpt><trkpt lat="43.4385646" lon="11.2481303"><ele>290.0</ele><time>2026-04-17T15:02:59.303Z</time></trkpt><trkpt lat="43.438563" lon="11.2480351"><ele>290.0</ele><time>2026-04-17T15:03:00.309Z</time></trkpt><trkpt lat="43.4385628" lon="11.2479411"><ele>290.0</ele><time>2026-04-17T15:03:01.302Z</time></trkpt><trkpt lat="43.4385536" lon="11.2478487"><ele>290.0</ele><time>2026-04-17T15:03:02.298Z</time></trkpt><trkpt lat="43.4385419" lon="11.2477549"><ele>290.0</ele><time>2026-04-17T15:03:03.308Z</time></trkpt><trkpt lat="43.4385353" lon="11.247658"><ele>290.0</ele><time>2026-04-17T15:03:04.304Z</time></trkpt><trkpt lat="43.4385279" lon="11.2475626"><ele>290.0</ele><time>2026-04-17T15:03:05.308Z</time></trkpt><trkpt lat="43.4385175" lon="11.2474678"><ele>290.0</ele><time>2026-04-17T15:03:06.31Z</time></trkpt><trkpt lat="43.4385105" lon="11.24738"><ele>290.4</ele><time>2026-04-17T15:03:07.305Z</time></trkpt><trkpt lat="43.4385042" lon="11.2472184"><ele>290.8</ele><time>2026-04-17T15:03:09.313Z</time></trkpt><trkpt lat="43.4384971" lon="11.2470694"><ele>291.2</ele><time>2026-04-17T15:03:11.302Z</time></trkpt><trkpt lat="43.4384911" lon="11.2469238"><ele>291.6</ele><time>2026-04-17T15:03:13.317Z</time></trkpt><trkpt lat="43.438483" lon="11.2468004"><ele>292.0</ele><time>2026-04-17T15:03:15.309Z</time></trkpt><trkpt lat="43.4384813" lon="11.2466939"><ele>292.0</ele><time>2026-04-17T15:03:17.307Z</time></trkpt><trkpt lat="43.4384655" lon="11.2465954"><ele>292.0</ele><time>2026-04-17T15:03:19.306Z</time></trkpt><trkpt lat="43.4384423" lon="11.2464989"><ele>292.0</ele><time>2026-04-17T15:03:21.307Z</time></trkpt><trkpt lat="43.4384073" lon="11.2463986"><ele>292.0</ele><time>2026-04-17T15:03:23.308Z</time></trkpt><trkpt lat="43.4383503" lon="11.2462863"><ele>292.0</ele><time>2026-04-17T15:03:25.318Z</time></trkpt><trkpt lat="43.4382822" lon="11.2461827"><ele>292.0</ele><time>2026-04-17T15:03:27.306Z</time></trkpt><trkpt lat="43.4382054" lon="11.2460803"><ele>291.6</ele><time>2026-04-17T15:03:29.305Z</time></trkpt><trkpt lat="43.4381301" lon="11.2459712"><ele>291.2</ele><time>2026-04-17T15:03:31.305Z</time></trkpt><trkpt lat="43.4380632" lon="11.2458598"><ele>290.8</ele><time>2026-04-17T15:03:33.307Z</time></trkpt><trkpt lat="43.4380004" lon="11.2457638"><ele>290.4</ele><time>2026-04-17T15:03:35.317Z</time></trkpt><trkpt lat="43.4379393" lon="11.2456801"><ele>290.0</ele><time>2026-04-17T15:03:37.3Z</time></trkpt><trkpt lat="43.4378884" lon="11.2455932"><ele>290.0</ele><time>2026-04-17T15:03:39.311Z</time></trkpt><trkpt lat="43.4378327" lon="11.245494"><ele>290.0</ele><time>2026-04-17T15:03:41.317Z</time></trkpt><trkpt lat="43.4377744" lon="11.2453865"><ele>290.0</ele><time>2026-04-17T15:03:43.387Z</time></trkpt><trkpt lat="43.4376945" lon="11.2452843"><ele>290.0</ele><time>2026-04-17T15:03:45.31Z</time></trkpt><trkpt lat="43.4376056" lon="11.245157"><ele>290.0</ele><time>2026-04-17T15:03:47.315Z</time></trkpt><trkpt lat="43.4375596" lon="11.2450862"><ele>290.0</ele><time>2026-04-17T15:03:48.378Z</time></trkpt><trkpt lat="43.4374991" lon="11.2450075"><ele>290.0</ele><time>2026-04-17T15:03:49.295Z</time></trkpt><trkpt lat="43.4373969" lon="11.2447961"><ele>290.0</ele><time>2026-04-17T15:03:52.299Z</time></trkpt><trkpt lat="43.4373592" lon="11.244725"><ele>290.0</ele><time>2026-04-17T15:03:53.308Z</time></trkpt><trkpt lat="43.4372998" lon="11.2446486"><ele>290.0</ele><time>2026-04-17T15:03:54.291Z</time></trkpt><trkpt lat="43.4372335" lon="11.2445746"><ele>289.2857142857143</ele><time>2026-04-17T15:03:55.307Z</time></trkpt><trkpt lat="43.4371741" lon="11.2445143"><ele>288.5714285714286</ele><time>2026-04-17T15:03:56.306Z</time></trkpt><trkpt lat="43.4371226" lon="11.2444386"><ele>287.8571428571429</ele><time>2026-04-17T15:03:57.304Z</time></trkpt><trkpt lat="43.4370749" lon="11.2443627"><ele>287.14285714285717</ele><time>2026-04-17T15:03:58.364Z</time></trkpt><trkpt lat="43.4370291" lon="11.2442891"><ele>286.42857142857144</ele><time>2026-04-17T15:03:59.304Z</time></trkpt><trkpt lat="43.4369836" lon="11.2442148"><ele>285.7142857142857</ele><time>2026-04-17T15:04:00.372Z</time></trkpt><trkpt lat="43.4369374" lon="11.2441475"><ele>285.0</ele><time>2026-04-17T15:04:01.321Z</time></trkpt><trkpt lat="43.4368934" lon="11.2440773"><ele>285.0</ele><time>2026-04-17T15:04:02.3Z</time></trkpt><trkpt lat="43.4368497" lon="11.2440082"><ele>285.0</ele><time>2026-04-17T15:04:03.302Z</time></trkpt><trkpt lat="43.4368049" lon="11.2439411"><ele>285.0</ele><time>2026-04-17T15:04:04.307Z</time></trkpt><trkpt lat="43.436763" lon="11.2438698"><ele>285.0</ele><time>2026-04-17T15:04:05.312Z</time></trkpt><trkpt lat="43.4367244" lon="11.2437973"><ele>285.0</ele><time>2026-04-17T15:04:06.308Z</time></trkpt><trkpt lat="43.4366809" lon="11.2437233"><ele>285.0</ele><time>2026-04-17T15:04:07.302Z</time></trkpt><trkpt lat="43.4366353" lon="11.2436538"><ele>285.0</ele><time>2026-04-17T15:04:08.307Z</time></trkpt><trkpt lat="43.4365882" lon="11.2435836"><ele>284.8</ele><time>2026-04-17T15:04:09.373Z</time></trkpt><trkpt lat="43.4364955" lon="11.2434539"><ele>284.6</ele><time>2026-04-17T15:04:11.307Z</time></trkpt><trkpt lat="43.4364541" lon="11.2433683"><ele>284.4</ele><time>2026-04-17T15:04:12.319Z</time></trkpt><trkpt lat="43.4364168" lon="11.2432914"><ele>284.2</ele><time>2026-04-17T15:04:13.308Z</time></trkpt><trkpt lat="43.4363338" lon="11.2431686"><ele>284.0</ele><time>2026-04-17T15:04:15.384Z</time></trkpt><trkpt lat="43.4362557" lon="11.2430408"><ele>284.8</ele><time>2026-04-17T15:04:17.306Z</time></trkpt><trkpt lat="43.4361921" lon="11.2429218"><ele>285.59999999999997</ele><time>2026-04-17T15:04:19.389Z</time></trkpt><trkpt lat="43.4361308" lon="11.2428119"><ele>286.4</ele><time>2026-04-17T15:04:21.305Z</time></trkpt><trkpt lat="43.436069" lon="11.2427132"><ele>287.2</ele><time>2026-04-17T15:04:23.287Z</time></trkpt><trkpt lat="43.4360028" lon="11.2426105"><ele>288.0</ele><time>2026-04-17T15:04:25.38Z</time></trkpt><trkpt lat="43.4359401" lon="11.242529"><ele>288.00000000000006</ele><time>2026-04-17T15:04:27.31Z</time></trkpt><trkpt lat="43.4358886" lon="11.2424548"><ele>288.0</ele><time>2026-04-17T15:04:30.38Z</time></trkpt><trkpt lat="43.4358319" lon="11.2423786"><ele>288.0</ele><time>2026-04-17T15:04:34.35Z</time></trkpt><trkpt lat="43.4357836" lon="11.242322"><ele>288.0</ele><time>2026-04-17T15:04:37.303Z</time></trkpt><trkpt lat="43.4357309" lon="11.2422525"><ele>288.0</ele><time>2026-04-17T15:04:40.314Z</time></trkpt><trkpt lat="43.435677" lon="11.2421791"><ele>288.00000000000006</ele><time>2026-04-17T15:04:44.301Z</time></trkpt><trkpt lat="43.4356524" lon="11.2420925"><ele>288.0</ele><time>2026-04-17T15:04:47.304Z</time></trkpt><trkpt lat="43.4356247" lon="11.2420081"><ele>288.1666666666667</ele><time>2026-04-17T15:04:50.301Z</time></trkpt><trkpt lat="43.4355812" lon="11.2419277"><ele>288.3333333333333</ele><time>2026-04-17T15:04:55.377Z</time></trkpt><trkpt lat="43.435526" lon="11.2418771"><ele>288.5</ele><time>2026-04-17T15:04:59.317Z</time></trkpt><trkpt lat="43.4354782" lon="11.2417989"><ele>288.66666666666663</ele><time>2026-04-17T15:05:03.371Z</time></trkpt><trkpt lat="43.4354428" lon="11.2416124"><ele>288.8333333333333</ele><time>2026-04-17T15:05:10.375Z</time></trkpt><trkpt lat="43.4353961" lon="11.2415512"><ele>289.0</ele><time>2026-04-17T15:05:13.37Z</time></trkpt><trkpt lat="43.4353987" lon="11.2414347"><ele>289.0</ele><time>2026-04-17T15:05:17.302Z</time></trkpt><trkpt lat="43.4353971" lon="11.2413308"><ele>289.0</ele><time>2026-04-17T15:05:20.38Z</time></trkpt><trkpt lat="43.4354041" lon="11.2412348"><ele>289.0</ele><time>2026-04-17T15:05:22.293Z</time></trkpt><trkpt lat="43.4354037" lon="11.2411391"><ele>289.0</ele><time>2026-04-17T15:05:24.374Z</time></trkpt><trkpt lat="43.4353952" lon="11.2410171"><ele>289.0</ele><time>2026-04-17T15:05:26.287Z</time></trkpt><trkpt lat="43.4353999" lon="11.2408703"><ele>289.0</ele><time>2026-04-17T15:05:28.309Z</time></trkpt><trkpt lat="43.4354031" lon="11.2407411"><ele>289.0</ele><time>2026-04-17T15:05:30.373Z</time></trkpt><trkpt lat="43.4354199" lon="11.2406267"><ele>289.0</ele><time>2026-04-17T15:05:32.305Z</time></trkpt><trkpt lat="43.4354114" lon="11.240498"><ele>289.0</ele><time>2026-04-17T15:05:34.294Z</time></trkpt><trkpt lat="43.4354218" lon="11.2403543"><ele>289.0</ele><time>2026-04-17T15:05:36.3Z</time></trkpt><trkpt lat="43.4354497" lon="11.2402122"><ele>289.0</ele><time>2026-04-17T15:05:38.299Z</time></trkpt><trkpt lat="43.4354836" lon="11.2400711"><ele>289.0</ele><time>2026-04-17T15:05:40.385Z</time></trkpt><trkpt lat="43.4354946" lon="11.2399445"><ele>289.0</ele><time>2026-04-17T15:05:42.299Z</time></trkpt><trkpt lat="43.4355739" lon="11.2398426"><ele>289.0</ele><time>2026-04-17T15:05:44.308Z</time></trkpt><trkpt lat="43.435651" lon="11.2397268"><ele>289.0</ele><time>2026-04-17T15:05:46.302Z</time></trkpt><trkpt lat="43.4357322" lon="11.2396138"><ele>289.0</ele><time>2026-04-17T15:05:48.306Z</time></trkpt><trkpt lat="43.4358007" lon="11.2394898"><ele>288.59999999999997</ele><time>2026-04-17T15:05:50.382Z</time></trkpt><trkpt lat="43.4358691" lon="11.239367"><ele>288.2</ele><time>2026-04-17T15:05:52.308Z</time></trkpt><trkpt lat="43.4359344" lon="11.2392417"><ele>287.79999999999995</ele><time>2026-04-17T15:05:54.374Z</time></trkpt><trkpt lat="43.435967" lon="11.239161"><ele>287.4</ele><time>2026-04-17T15:05:55.387Z</time></trkpt><trkpt lat="43.4360012" lon="11.2390836"><ele>287.0</ele><time>2026-04-17T15:05:56.297Z</time></trkpt><trkpt lat="43.4360691" lon="11.2389955"><ele>286.83333333333337</ele><time>2026-04-17T15:05:58.311Z</time></trkpt><trkpt lat="43.4361359" lon="11.2389182"><ele>286.6666666666667</ele><time>2026-04-17T15:06:00.387Z</time></trkpt><trkpt lat="43.4361988" lon="11.2388354"><ele>286.5</ele><time>2026-04-17T15:06:02.321Z</time></trkpt><trkpt lat="43.436255" lon="11.2387487"><ele>286.3333333333333</ele><time>2026-04-17T15:06:04.37Z</time></trkpt><trkpt lat="43.4362974" lon="11.2386589"><ele>286.16666666666663</ele><time>2026-04-17T15:06:06.29Z</time></trkpt><trkpt lat="43.4363395" lon="11.2385742"><ele>286.0</ele><time>2026-04-17T15:06:08.303Z</time></trkpt><trkpt lat="43.4363676" lon="11.23848"><ele>286.99999999999994</ele><time>2026-04-17T15:06:10.296Z</time></trkpt><trkpt lat="43.4363936" lon="11.2383967"><ele>288.0</ele><time>2026-04-17T15:06:12.297Z</time></trkpt><trkpt lat="43.4364375" lon="11.2382916"><ele>289.0</ele><time>2026-04-17T15:06:15.293Z</time></trkpt><trkpt lat="43.4364791" lon="11.2381779"><ele>290.0</ele><time>2026-04-17T15:06:18.38Z</time></trkpt><trkpt lat="43.436515" lon="11.2381014"><ele>291.0</ele><time>2026-04-17T15:06:20.3Z</time></trkpt><trkpt lat="43.4365525" lon="11.2380237"><ele>291.99999999999994</ele><time>2026-04-17T15:06:22.308Z</time></trkpt><trkpt lat="43.436585" lon="11.2379433"><ele>293.0</ele><time>2026-04-17T15:06:24.374Z</time></trkpt><trkpt lat="43.4366332" lon="11.2378294"><ele>293.5</ele><time>2026-04-17T15:06:27.318Z</time></trkpt><trkpt lat="43.4366661" lon="11.2377435"><ele>294.0</ele><time>2026-04-17T15:06:29.305Z</time></trkpt><trkpt lat="43.4367054" lon="11.2376595"><ele>294.5</ele><time>2026-04-17T15:06:31.305Z</time></trkpt><trkpt lat="43.4367589" lon="11.2375421"><ele>295.0</ele><time>2026-04-17T15:06:33.377Z</time></trkpt><trkpt lat="43.436844" lon="11.2374578"><ele>295.5</ele><time>2026-04-17T15:06:35.293Z</time></trkpt><trkpt lat="43.4369132" lon="11.2373602"><ele>296.0</ele><time>2026-04-17T15:06:37.309Z</time></trkpt><trkpt lat="43.4370136" lon="11.2372877"><ele>296.2</ele><time>2026-04-17T15:06:39.301Z</time></trkpt><trkpt lat="43.4371296" lon="11.2372272"><ele>296.40000000000003</ele><time>2026-04-17T15:06:41.325Z</time></trkpt><trkpt lat="43.4372503" lon="11.2371867"><ele>296.6</ele><time>2026-04-17T15:06:43.382Z</time></trkpt><trkpt lat="43.4373224" lon="11.2371595"><ele>296.8</ele><time>2026-04-17T15:06:44.304Z</time></trkpt><trkpt lat="43.4373878" lon="11.2371244"><ele>297.0</ele><time>2026-04-17T15:06:45.374Z</time></trkpt><trkpt lat="43.4374464" lon="11.2370695"><ele>297.0</ele><time>2026-04-17T15:06:46.289Z</time></trkpt><trkpt lat="43.4375186" lon="11.2370231"><ele>297.0</ele><time>2026-04-17T15:06:47.306Z</time></trkpt><trkpt lat="43.4375856" lon="11.2369992"><ele>297.0</ele><time>2026-04-17T15:06:48.301Z</time></trkpt><trkpt lat="43.4376496" lon="11.236969"><ele>297.0</ele><time>2026-04-17T15:06:49.38Z</time></trkpt><trkpt lat="43.4377108" lon="11.2369358"><ele>297.0</ele><time>2026-04-17T15:06:50.374Z</time></trkpt><trkpt lat="43.437828" lon="11.2368469"><ele>297.0</ele><time>2026-04-17T15:06:52.306Z</time></trkpt><trkpt lat="43.4378908" lon="11.2368059"><ele>296.8</ele><time>2026-04-17T15:06:53.307Z</time></trkpt><trkpt lat="43.4379847" lon="11.2367168"><ele>296.6</ele><time>2026-04-17T15:06:55.387Z</time></trkpt><trkpt lat="43.4380649" lon="11.236637"><ele>296.40000000000003</ele><time>2026-04-17T15:06:57.314Z</time></trkpt><trkpt lat="43.438141" lon="11.2365414"><ele>296.2</ele><time>2026-04-17T15:06:59.305Z</time></trkpt><trkpt lat="43.438211" lon="11.2364521"><ele>296.0</ele><time>2026-04-17T15:07:01.307Z</time></trkpt><trkpt lat="43.4382753" lon="11.2363543"><ele>296.0</ele><time>2026-04-17T15:07:03.317Z</time></trkpt><trkpt lat="43.4383302" lon="11.2362689"><ele>296.0</ele><time>2026-04-17T15:07:05.314Z</time></trkpt><trkpt lat="43.4383868" lon="11.2361765"><ele>296.0</ele><time>2026-04-17T15:07:07.321Z</time></trkpt><trkpt lat="43.4384496" lon="11.2360874"><ele>296.0</ele><time>2026-04-17T15:07:09.31Z</time></trkpt><trkpt lat="43.4385128" lon="11.2359976"><ele>296.0</ele><time>2026-04-17T15:07:11.299Z</time></trkpt><trkpt lat="43.4385689" lon="11.2359031"><ele>296.0</ele><time>2026-04-17T15:07:13.308Z</time></trkpt><trkpt lat="43.4386274" lon="11.2358079"><ele>296.0</ele><time>2026-04-17T15:07:15.38Z</time></trkpt><trkpt lat="43.4386979" lon="11.2357249"><ele>296.0</ele><time>2026-04-17T15:07:17.308Z</time></trkpt><trkpt lat="43.4387511" lon="11.2356182"><ele>296.0</ele><time>2026-04-17T15:07:19.389Z</time></trkpt><trkpt lat="43.4388117" lon="11.2355219"><ele>296.0</ele><time>2026-04-17T15:07:21.314Z</time></trkpt><trkpt lat="43.4388821" lon="11.2354149"><ele>296.0</ele><time>2026-04-17T15:07:23.278Z</time></trkpt><trkpt lat="43.438956" lon="11.2353101"><ele>294.40000000000003</ele><time>2026-04-17T15:07:25.385Z</time></trkpt><trkpt lat="43.4390239" lon="11.2351974"><ele>292.8</ele><time>2026-04-17T15:07:27.293Z</time></trkpt><trkpt lat="43.4390964" lon="11.2351156"><ele>291.20000000000005</ele><time>2026-04-17T15:07:29.297Z</time></trkpt><trkpt lat="43.439179" lon="11.2350405"><ele>289.6</ele><time>2026-04-17T15:07:31.307Z</time></trkpt><trkpt lat="43.439263" lon="11.23494"><ele>288.0</ele><time>2026-04-17T15:07:33.306Z</time></trkpt><trkpt lat="43.4393453" lon="11.2348352"><ele>287.0</ele><time>2026-04-17T15:07:35.301Z</time></trkpt><trkpt lat="43.4394429" lon="11.2347194"><ele>286.0</ele><time>2026-04-17T15:07:37.306Z</time></trkpt><trkpt lat="43.4395004" lon="11.2346585"><ele>285.0</ele><time>2026-04-17T15:07:38.31Z</time></trkpt><trkpt lat="43.4395602" lon="11.2345937"><ele>284.0</ele><time>2026-04-17T15:07:39.308Z</time></trkpt><trkpt lat="43.4396207" lon="11.2345267"><ele>283.0</ele><time>2026-04-17T15:07:40.304Z</time></trkpt><trkpt lat="43.4396847" lon="11.2344673"><ele>282.0</ele><time>2026-04-17T15:07:41.304Z</time></trkpt><trkpt lat="43.4397526" lon="11.2344109"><ele>282.0</ele><time>2026-04-17T15:07:42.308Z</time></trkpt><trkpt lat="43.4398196" lon="11.2343518"><ele>282.0</ele><time>2026-04-17T15:07:43.313Z</time></trkpt><trkpt lat="43.4398822" lon="11.2342834"><ele>282.0</ele><time>2026-04-17T15:07:44.297Z</time></trkpt><trkpt lat="43.4399402" lon="11.2342105"><ele>282.0</ele><time>2026-04-17T15:07:45.306Z</time></trkpt><trkpt lat="43.4399892" lon="11.2341261"><ele>282.0</ele><time>2026-04-17T15:07:46.311Z</time></trkpt><trkpt lat="43.4400298" lon="11.2340366"><ele>282.0</ele><time>2026-04-17T15:07:47.3Z</time></trkpt><trkpt lat="43.4400709" lon="11.2339486"><ele>280.8333333333333</ele><time>2026-04-17T15:07:48.316Z</time></trkpt><trkpt lat="43.4401086" lon="11.233866"><ele>279.6666666666667</ele><time>2026-04-17T15:07:49.308Z</time></trkpt><trkpt lat="43.4401467" lon="11.233793"><ele>278.5</ele><time>2026-04-17T15:07:50.374Z</time></trkpt><trkpt lat="43.4402182" lon="11.2336618"><ele>277.33333333333337</ele><time>2026-04-17T15:07:52.314Z</time></trkpt><trkpt lat="43.4402816" lon="11.233508"><ele>276.1666666666667</ele><time>2026-04-17T15:07:54.313Z</time></trkpt><trkpt lat="43.440319" lon="11.2334337"><ele>275.0</ele><time>2026-04-17T15:07:55.31Z</time></trkpt><trkpt lat="43.4403578" lon="11.2333441"><ele>275.0</ele><time>2026-04-17T15:07:56.307Z</time></trkpt><trkpt lat="43.4403966" lon="11.2332559"><ele>275.0</ele><time>2026-04-17T15:07:57.313Z</time></trkpt><trkpt lat="43.4404576" lon="11.2331647"><ele>275.0</ele><time>2026-04-17T15:07:58.379Z</time></trkpt><trkpt lat="43.4405221" lon="11.2330739"><ele>275.0</ele><time>2026-04-17T15:07:59.311Z</time></trkpt><trkpt lat="43.4405929" lon="11.2329796"><ele>275.0</ele><time>2026-04-17T15:08:00.384Z</time></trkpt><trkpt lat="43.4406596" lon="11.2329003"><ele>275.0</ele><time>2026-04-17T15:08:01.31Z</time></trkpt><trkpt lat="43.4407275" lon="11.2328252"><ele>274.5</ele><time>2026-04-17T15:08:02.305Z</time></trkpt><trkpt lat="43.4407992" lon="11.2327447"><ele>274.0</ele><time>2026-04-17T15:08:03.316Z</time></trkpt><trkpt lat="43.4408673" lon="11.2326663"><ele>273.5</ele><time>2026-04-17T15:08:04.293Z</time></trkpt><trkpt lat="43.4409342" lon="11.2325881"><ele>273.0</ele><time>2026-04-17T15:08:05.296Z</time></trkpt><trkpt lat="43.441001" lon="11.2325174"><ele>272.5</ele><time>2026-04-17T15:08:06.307Z</time></trkpt><trkpt lat="43.4410658" lon="11.2324561"><ele>272.0</ele><time>2026-04-17T15:08:07.296Z</time></trkpt><trkpt lat="43.4411321" lon="11.2324018"><ele>272.0</ele><time>2026-04-17T15:08:08.375Z</time></trkpt><trkpt lat="43.44119" lon="11.2323512"><ele>272.0</ele><time>2026-04-17T15:08:09.369Z</time></trkpt><trkpt lat="43.4412892" lon="11.2322441"><ele>272.0</ele><time>2026-04-17T15:08:11.297Z</time></trkpt><trkpt lat="43.441351" lon="11.2321645"><ele>272.0</ele><time>2026-04-17T15:08:12.303Z</time></trkpt><trkpt lat="43.441404" lon="11.2321058"><ele>272.0</ele><time>2026-04-17T15:08:13.307Z</time></trkpt><trkpt lat="43.4414967" lon="11.2320221"><ele>272.2857142857143</ele><time>2026-04-17T15:08:15.383Z</time></trkpt><trkpt lat="43.4415558" lon="11.2319675"><ele>272.57142857142856</ele><time>2026-04-17T15:08:17.304Z</time></trkpt><trkpt lat="43.4416308" lon="11.2319352"><ele>272.8571428571429</ele><time>2026-04-17T15:08:19.363Z</time></trkpt><trkpt lat="43.4417071" lon="11.2319272"><ele>273.1428571428571</ele><time>2026-04-17T15:08:22.299Z</time></trkpt><trkpt lat="43.4417852" lon="11.2319611"><ele>273.42857142857144</ele><time>2026-04-17T15:08:27.319Z</time></trkpt><trkpt lat="43.441845" lon="11.2319033"><ele>273.7142857142857</ele><time>2026-04-17T15:09:22.287Z</time></trkpt><trkpt lat="43.4419084" lon="11.2318748"><ele>274.0</ele><time>2026-04-17T15:11:13.303Z</time></trkpt><trkpt lat="43.4419784" lon="11.2318434"><ele>274.00000000000006</ele><time>2026-04-17T15:11:16.306Z</time></trkpt><trkpt lat="43.442055" lon="11.2318249"><ele>274.0</ele><time>2026-04-17T15:11:19.296Z</time></trkpt><trkpt lat="43.4421254" lon="11.2317974"><ele>274.0</ele><time>2026-04-17T15:11:22.299Z</time></trkpt><trkpt lat="43.4421937" lon="11.2317654"><ele>274.0</ele><time>2026-04-17T15:11:25.297Z</time></trkpt><trkpt lat="43.4422344" lon="11.2316988"><ele>274.0</ele><time>2026-04-17T15:11:28.303Z</time></trkpt><trkpt lat="43.4422532" lon="11.2316151"><ele>274.00000000000006</ele><time>2026-04-17T15:11:31.305Z</time></trkpt><trkpt lat="43.4422592" lon="11.2315134"><ele>274.0</ele><time>2026-04-17T15:11:34.295Z</time></trkpt><trkpt lat="43.4422952" lon="11.2314344"><ele>271.14285714285717</ele><time>2026-04-17T15:11:38.31Z</time></trkpt><trkpt lat="43.4423076" lon="11.2313272"><ele>268.2857142857143</ele><time>2026-04-17T15:11:43.291Z</time></trkpt><trkpt lat="43.4423212" lon="11.2312218"><ele>265.42857142857144</ele><time>2026-04-17T15:11:46.297Z</time></trkpt><trkpt lat="43.4423264" lon="11.2311326"><ele>262.57142857142856</ele><time>2026-04-17T15:11:49.282Z</time></trkpt><trkpt lat="43.4423214" lon="11.2310407"><ele>259.7142857142857</ele><time>2026-04-17T15:11:52.31Z</time></trkpt><trkpt lat="43.442325" lon="11.2309503"><ele>256.8571428571429</ele><time>2026-04-17T15:11:55.365Z</time></trkpt><trkpt lat="43.4423271" lon="11.230825"><ele>254.0</ele><time>2026-04-17T15:11:58.29Z</time></trkpt><trkpt lat="43.4423317" lon="11.2307171"><ele>252.16666666666669</ele><time>2026-04-17T15:12:01.307Z</time></trkpt><trkpt lat="43.4423419" lon="11.2306076"><ele>250.33333333333334</ele><time>2026-04-17T15:12:04.293Z</time></trkpt><trkpt lat="43.4423383" lon="11.2305015"><ele>248.5</ele><time>2026-04-17T15:12:07.289Z</time></trkpt><trkpt lat="43.4423479" lon="11.2303839"><ele>246.66666666666669</ele><time>2026-04-17T15:12:09.291Z</time></trkpt><trkpt lat="43.4423531" lon="11.2302729"><ele>244.83333333333334</ele><time>2026-04-17T15:12:11.302Z</time></trkpt><trkpt lat="43.4423613" lon="11.2301402"><ele>243.0</ele><time>2026-04-17T15:12:13.307Z</time></trkpt><trkpt lat="43.442367" lon="11.2299636"><ele>243.0</ele><time>2026-04-17T15:12:15.373Z</time></trkpt><trkpt lat="43.4423737" lon="11.2298685"><ele>243.0</ele><time>2026-04-17T15:12:16.313Z</time></trkpt><trkpt lat="43.4423804" lon="11.2297711"><ele>243.0</ele><time>2026-04-17T15:12:17.302Z</time></trkpt><trkpt lat="43.4423797" lon="11.2296704"><ele>243.0</ele><time>2026-04-17T15:12:18.302Z</time></trkpt><trkpt lat="43.4423768" lon="11.2295613"><ele>243.0</ele><time>2026-04-17T15:12:19.293Z</time></trkpt><trkpt lat="43.4423754" lon="11.2294489"><ele>243.0</ele><time>2026-04-17T15:12:20.304Z</time></trkpt><trkpt lat="43.4423709" lon="11.2293327"><ele>241.66666666666666</ele><time>2026-04-17T15:12:21.3Z</time></trkpt><trkpt lat="43.4423706" lon="11.2292204"><ele>240.33333333333331</ele><time>2026-04-17T15:12:22.297Z</time></trkpt><trkpt lat="43.4423755" lon="11.2291044"><ele>239.0</ele><time>2026-04-17T15:12:23.291Z</time></trkpt><trkpt lat="43.4423776" lon="11.2289914"><ele>237.66666666666666</ele><time>2026-04-17T15:12:24.366Z</time></trkpt><trkpt lat="43.4423761" lon="11.228877"><ele>236.33333333333331</ele><time>2026-04-17T15:12:25.364Z</time></trkpt><trkpt lat="43.442365" lon="11.2287433"><ele>235.0</ele><time>2026-04-17T15:12:26.283Z</time></trkpt><trkpt lat="43.4423662" lon="11.2286221"><ele>234.49999999999997</ele><time>2026-04-17T15:12:27.304Z</time></trkpt><trkpt lat="43.44237" lon="11.2285118"><ele>234.0</ele><time>2026-04-17T15:12:28.296Z</time></trkpt><trkpt lat="43.4423853" lon="11.2283829"><ele>233.5</ele><time>2026-04-17T15:12:29.28Z</time></trkpt><trkpt lat="43.4423991" lon="11.228264"><ele>233.0</ele><time>2026-04-17T15:12:30.306Z</time></trkpt><trkpt lat="43.442403" lon="11.2281566"><ele>232.49999999999997</ele><time>2026-04-17T15:12:31.29Z</time></trkpt><trkpt lat="43.442407" lon="11.2280506"><ele>232.0</ele><time>2026-04-17T15:12:32.298Z</time></trkpt><trkpt lat="43.4424118" lon="11.2279371"><ele>231.66666666666666</ele><time>2026-04-17T15:12:33.374Z</time></trkpt><trkpt lat="43.4424163" lon="11.2278224"><ele>231.33333333333331</ele><time>2026-04-17T15:12:34.362Z</time></trkpt><trkpt lat="43.4424389" lon="11.2276886"><ele>231.0</ele><time>2026-04-17T15:12:35.295Z</time></trkpt><trkpt lat="43.4424498" lon="11.2275676"><ele>230.66666666666669</ele><time>2026-04-17T15:12:36.377Z</time></trkpt><trkpt lat="43.4424464" lon="11.227449"><ele>230.33333333333334</ele><time>2026-04-17T15:12:37.313Z</time></trkpt><trkpt lat="43.4424477" lon="11.2273345"><ele>230.0</ele><time>2026-04-17T15:12:38.31Z</time></trkpt><trkpt lat="43.4424615" lon="11.2272306"><ele>229.85714285714283</ele><time>2026-04-17T15:12:39.368Z</time></trkpt><trkpt lat="43.4424842" lon="11.2271435"><ele>229.71428571428572</ele><time>2026-04-17T15:12:40.375Z</time></trkpt><trkpt lat="43.4425043" lon="11.2270439"><ele>229.57142857142856</ele><time>2026-04-17T15:12:41.296Z</time></trkpt><trkpt lat="43.4425235" lon="11.2269383"><ele>229.42857142857142</ele><time>2026-04-17T15:12:42.278Z</time></trkpt><trkpt lat="43.4425468" lon="11.226839"><ele>229.28571428571428</ele><time>2026-04-17T15:12:43.291Z</time></trkpt><trkpt lat="43.4425618" lon="11.2267437"><ele>229.14285714285714</ele><time>2026-04-17T15:12:44.397Z</time></trkpt><trkpt lat="43.4425812" lon="11.2266513"><ele>229.0</ele><time>2026-04-17T15:12:45.374Z</time></trkpt><trkpt lat="43.4426041" lon="11.2265674"><ele>229.0</ele><time>2026-04-17T15:12:46.287Z</time></trkpt><trkpt lat="43.4426448" lon="11.2264074"><ele>228.99999999999997</ele><time>2026-04-17T15:12:48.308Z</time></trkpt><trkpt lat="43.442676" lon="11.226255"><ele>228.99999999999997</ele><time>2026-04-17T15:12:50.299Z</time></trkpt><trkpt lat="43.4426971" lon="11.2261136"><ele>229.0</ele><time>2026-04-17T15:12:52.299Z</time></trkpt><trkpt lat="43.4427215" lon="11.2259893"><ele>229.0</ele><time>2026-04-17T15:12:54.367Z</time></trkpt><trkpt lat="43.4427543" lon="11.2258826"><ele>228.99999999999997</ele><time>2026-04-17T15:12:56.297Z</time></trkpt><trkpt lat="43.4427761" lon="11.2257812"><ele>229.0</ele><time>2026-04-17T15:12:58.297Z</time></trkpt><trkpt lat="43.4428096" lon="11.225673"><ele>229.0</ele><time>2026-04-17T15:13:01.295Z</time></trkpt><trkpt lat="43.4428393" lon="11.2255752"><ele>229.0</ele><time>2026-04-17T15:13:04.305Z</time></trkpt><trkpt lat="43.4428573" lon="11.2254512"><ele>228.99999999999997</ele><time>2026-04-17T15:13:07.295Z</time></trkpt><trkpt lat="43.4428634" lon="11.2253643"><ele>229.0</ele><time>2026-04-17T15:13:09.3Z</time></trkpt><trkpt lat="43.442877" lon="11.2252599"><ele>228.83333333333331</ele><time>2026-04-17T15:13:11.286Z</time></trkpt><trkpt lat="43.442888" lon="11.2251402"><ele>228.66666666666666</ele><time>2026-04-17T15:13:13.295Z</time></trkpt><trkpt lat="43.442903" lon="11.2250435"><ele>228.5</ele><time>2026-04-17T15:13:15.288Z</time></trkpt><trkpt lat="43.4429147" lon="11.2249463"><ele>228.33333333333331</ele><time>2026-04-17T15:13:17.292Z</time></trkpt><trkpt lat="43.4429375" lon="11.2248281"><ele>228.16666666666666</ele><time>2026-04-17T15:13:19.286Z</time></trkpt><trkpt lat="43.442986" lon="11.2247401"><ele>228.0</ele><time>2026-04-17T15:13:21.296Z</time></trkpt><trkpt lat="43.4430251" lon="11.2246478"><ele>228.4</ele><time>2026-04-17T15:13:23.305Z</time></trkpt><trkpt lat="43.4430527" lon="11.2245392"><ele>228.8</ele><time>2026-04-17T15:13:25.299Z</time></trkpt><trkpt lat="43.4430711" lon="11.2244074"><ele>229.2</ele><time>2026-04-17T15:13:27.293Z</time></trkpt><trkpt lat="43.4430897" lon="11.2242653"><ele>229.6</ele><time>2026-04-17T15:13:29.371Z</time></trkpt><trkpt lat="43.443123" lon="11.2241255"><ele>230.0</ele><time>2026-04-17T15:13:31.289Z</time></trkpt><trkpt lat="43.4431354" lon="11.2240209"><ele>229.28571428571425</ele><time>2026-04-17T15:13:32.303Z</time></trkpt><trkpt lat="43.4431427" lon="11.2239111"><ele>228.57142857142856</ele><time>2026-04-17T15:13:33.299Z</time></trkpt><trkpt lat="43.4431456" lon="11.2238069"><ele>227.85714285714286</ele><time>2026-04-17T15:13:34.306Z</time></trkpt><trkpt lat="43.4431501" lon="11.2237092"><ele>227.14285714285714</ele><time>2026-04-17T15:13:35.306Z</time></trkpt><trkpt lat="43.4431586" lon="11.2236185"><ele>226.42857142857144</ele><time>2026-04-17T15:13:36.282Z</time></trkpt><trkpt lat="43.4431653" lon="11.2235261"><ele>225.71428571428575</ele><time>2026-04-17T15:13:37.3Z</time></trkpt><trkpt lat="43.4431735" lon="11.2234399"><ele>225.00000000000003</ele><time>2026-04-17T15:13:38.297Z</time></trkpt><trkpt lat="43.4431829" lon="11.2233522"><ele>225.0</ele><time>2026-04-17T15:13:39.31Z</time></trkpt><trkpt lat="43.4431887" lon="11.22326"><ele>225.0</ele><time>2026-04-17T15:13:40.365Z</time></trkpt><trkpt lat="43.4431991" lon="11.2231505"><ele>225.0</ele><time>2026-04-17T15:13:41.297Z</time></trkpt><trkpt lat="43.4432199" lon="11.2230265"><ele>225.0</ele><time>2026-04-17T15:13:42.285Z</time></trkpt><trkpt lat="43.4432116" lon="11.2228871"><ele>225.0</ele><time>2026-04-17T15:13:44.306Z</time></trkpt><trkpt lat="43.4432072" lon="11.2227344"><ele>225.0</ele><time>2026-04-17T15:13:46.306Z</time></trkpt><trkpt lat="43.4432069" lon="11.2225763"><ele>225.0</ele><time>2026-04-17T15:13:48.28Z</time></trkpt><trkpt lat="43.4432119" lon="11.2224891"><ele>225.0</ele><time>2026-04-17T15:13:49.37Z</time></trkpt><trkpt lat="43.4432284" lon="11.2223295"><ele>225.0</ele><time>2026-04-17T15:13:51.298Z</time></trkpt><trkpt lat="43.4432343" lon="11.2221691"><ele>225.0</ele><time>2026-04-17T15:13:53.301Z</time></trkpt><trkpt lat="43.4432362" lon="11.2220031"><ele>225.0</ele><time>2026-04-17T15:13:55.378Z</time></trkpt><trkpt lat="43.4432392" lon="11.2219115"><ele>225.0</ele><time>2026-04-17T15:13:56.292Z</time></trkpt><trkpt lat="43.4432494" lon="11.2217756"><ele>225.0</ele><time>2026-04-17T15:13:58.303Z</time></trkpt><trkpt lat="43.4432628" lon="11.2216568"><ele>225.0</ele><time>2026-04-17T15:14:00.368Z</time></trkpt><trkpt lat="43.4432794" lon="11.2215136"><ele>225.0</ele><time>2026-04-17T15:14:02.284Z</time></trkpt><trkpt lat="43.443277" lon="11.2213754"><ele>225.6</ele><time>2026-04-17T15:14:04.37Z</time></trkpt><trkpt lat="43.4432911" lon="11.2212535"><ele>226.2</ele><time>2026-04-17T15:14:06.366Z</time></trkpt><trkpt lat="43.4433298" lon="11.2211379"><ele>226.8</ele><time>2026-04-17T15:14:08.306Z</time></trkpt><trkpt lat="43.4433183" lon="11.221017"><ele>227.4</ele><time>2026-04-17T15:14:10.366Z</time></trkpt><trkpt lat="43.443305" lon="11.2208725"><ele>228.0</ele><time>2026-04-17T15:14:12.309Z</time></trkpt><trkpt lat="43.4433106" lon="11.2207567"><ele>228.0</ele><time>2026-04-17T15:14:14.302Z</time></trkpt><trkpt lat="43.4433256" lon="11.2206615"><ele>227.99999999999997</ele><time>2026-04-17T15:14:16.299Z</time></trkpt><trkpt lat="43.4433338" lon="11.2205542"><ele>228.0</ele><time>2026-04-17T15:14:18.3Z</time></trkpt><trkpt lat="43.44334" lon="11.2204468"><ele>228.0</ele><time>2026-04-17T15:14:20.303Z</time></trkpt><trkpt lat="43.4433482" lon="11.2203407"><ele>227.99999999999997</ele><time>2026-04-17T15:14:22.302Z</time></trkpt><trkpt lat="43.4433502" lon="11.2202456"><ele>228.0</ele><time>2026-04-17T15:14:24.373Z</time></trkpt><trkpt lat="43.4433531" lon="11.2201582"><ele>228.0</ele><time>2026-04-17T15:14:26.308Z</time></trkpt><trkpt lat="43.4433579" lon="11.220063"><ele>228.33333333333334</ele><time>2026-04-17T15:14:28.293Z</time></trkpt><trkpt lat="43.4433592" lon="11.2199678"><ele>228.66666666666669</ele><time>2026-04-17T15:14:30.311Z</time></trkpt><trkpt lat="43.4433711" lon="11.2198594"><ele>229.0</ele><time>2026-04-17T15:14:32.278Z</time></trkpt><trkpt lat="43.4433764" lon="11.2197535"><ele>229.33333333333334</ele><time>2026-04-17T15:14:34.294Z</time></trkpt><trkpt lat="43.4433892" lon="11.219659"><ele>229.66666666666669</ele><time>2026-04-17T15:14:36.366Z</time></trkpt><trkpt lat="43.4433928" lon="11.2195683"><ele>230.0</ele><time>2026-04-17T15:14:38.305Z</time></trkpt><trkpt lat="43.4433825" lon="11.2194416"><ele>230.66666666666669</ele><time>2026-04-17T15:14:41.293Z</time></trkpt><trkpt lat="43.4433702" lon="11.2193275"><ele>231.33333333333334</ele><time>2026-04-17T15:14:44.285Z</time></trkpt><trkpt lat="43.4433594" lon="11.2192254"><ele>232.0</ele><time>2026-04-17T15:14:47.299Z</time></trkpt><trkpt lat="43.4433347" lon="11.2191153"><ele>232.66666666666669</ele><time>2026-04-17T15:14:50.298Z</time></trkpt><trkpt lat="43.4433354" lon="11.2190199"><ele>233.33333333333334</ele><time>2026-04-17T15:14:52.295Z</time></trkpt><trkpt lat="43.4433238" lon="11.2189135"><ele>234.0</ele><time>2026-04-17T15:14:57.304Z</time></trkpt><trkpt lat="43.4432799" lon="11.2188511"><ele>234.83333333333334</ele><time>2026-04-17T15:15:01.375Z</time></trkpt><trkpt lat="43.443257" lon="11.2187479"><ele>235.66666666666669</ele><time>2026-04-17T15:15:05.298Z</time></trkpt><trkpt lat="43.4432422" lon="11.2186563"><ele>236.5</ele><time>2026-04-17T15:15:09.28Z</time></trkpt><trkpt lat="43.4432214" lon="11.2185564"><ele>237.33333333333334</ele><time>2026-04-17T15:15:13.304Z</time></trkpt><trkpt lat="43.4432339" lon="11.218464"><ele>238.16666666666669</ele><time>2026-04-17T15:15:17.304Z</time></trkpt><trkpt lat="43.4432098" lon="11.2183551"><ele>239.0</ele><time>2026-04-17T15:15:21.366Z</time></trkpt><trkpt lat="43.4431517" lon="11.2181618"><ele>239.66666666666669</ele><time>2026-04-17T15:15:26.379Z</time></trkpt><trkpt lat="43.4431355" lon="11.2180448"><ele>240.33333333333334</ele><time>2026-04-17T15:15:31.277Z</time></trkpt><trkpt lat="43.4431116" lon="11.2179394"><ele>241.0</ele><time>2026-04-17T15:15:34.296Z</time></trkpt><trkpt lat="43.4430915" lon="11.2178306"><ele>241.66666666666669</ele><time>2026-04-17T15:15:37.3Z</time></trkpt><trkpt lat="43.4430729" lon="11.2177229"><ele>242.33333333333334</ele><time>2026-04-17T15:15:40.288Z</time></trkpt><trkpt lat="43.4430602" lon="11.2176223"><ele>243.0</ele><time>2026-04-17T15:15:43.297Z</time></trkpt><trkpt lat="43.4430498" lon="11.2175307"><ele>243.0</ele><time>2026-04-17T15:15:46.296Z</time></trkpt><trkpt lat="43.443034" lon="11.2174199"><ele>243.0</ele><time>2026-04-17T15:15:51.3Z</time></trkpt><trkpt lat="43.4430025" lon="11.2173394"><ele>243.0</ele><time>2026-04-17T15:15:53.368Z</time></trkpt><trkpt lat="43.4430445" lon="11.2172616"><ele>243.0</ele><time>2026-04-17T15:15:59.281Z</time></trkpt><trkpt lat="43.4429894" lon="11.2171993"><ele>243.0</ele><time>2026-04-17T15:16:02.291Z</time></trkpt><trkpt lat="43.4430176" lon="11.2171177"><ele>243.0</ele><time>2026-04-17T15:16:09.369Z</time></trkpt><trkpt lat="43.4429936" lon="11.2170067"><ele>243.0</ele><time>2026-04-17T15:16:12.293Z</time></trkpt><trkpt lat="43.4429823" lon="11.2169199"><ele>243.0</ele><time>2026-04-17T15:16:15.291Z</time></trkpt><trkpt lat="43.4429762" lon="11.2168293"><ele>243.0</ele><time>2026-04-17T15:16:18.301Z</time></trkpt><trkpt lat="43.4429622" lon="11.2167421"><ele>243.0</ele><time>2026-04-17T15:16:21.28Z</time></trkpt><trkpt lat="43.4429534" lon="11.2166263"><ele>243.0</ele><time>2026-04-17T15:16:24.297Z</time></trkpt><trkpt lat="43.4429639" lon="11.2165242"><ele>243.0</ele><time>2026-04-17T15:16:27.294Z</time></trkpt><trkpt lat="43.4429597" lon="11.216407"><ele>243.0</ele><time>2026-04-17T15:16:30.302Z</time></trkpt><trkpt lat="43.4429712" lon="11.2163113"><ele>243.0</ele><time>2026-04-17T15:16:32.305Z</time></trkpt><trkpt lat="43.4429835" lon="11.2162147"><ele>242.5</ele><time>2026-04-17T15:16:34.293Z</time></trkpt><trkpt lat="43.4430021" lon="11.216101"><ele>242.0</ele><time>2026-04-17T15:16:36.289Z</time></trkpt><trkpt lat="43.4430293" lon="11.2159823"><ele>241.5</ele><time>2026-04-17T15:16:38.293Z</time></trkpt><trkpt lat="43.4430704" lon="11.2158929"><ele>241.0</ele><time>2026-04-17T15:16:40.364Z</time></trkpt><trkpt lat="43.4430927" lon="11.21577"><ele>240.5</ele><time>2026-04-17T15:16:42.284Z</time></trkpt><trkpt lat="43.4430982" lon="11.2156829"><ele>240.0</ele><time>2026-04-17T15:16:43.301Z</time></trkpt><trkpt lat="43.4431041" lon="11.2155943"><ele>239.16666666666666</ele><time>2026-04-17T15:16:44.296Z</time></trkpt><trkpt lat="43.443134" lon="11.2154512"><ele>238.33333333333331</ele><time>2026-04-17T15:16:46.285Z</time></trkpt><trkpt lat="43.4431712" lon="11.2152986"><ele>237.5</ele><time>2026-04-17T15:16:48.296Z</time></trkpt><trkpt lat="43.4431831" lon="11.2152126"><ele>236.66666666666666</ele><time>2026-04-17T15:16:49.371Z</time></trkpt><trkpt lat="43.4431971" lon="11.2151221"><ele>235.83333333333331</ele><time>2026-04-17T15:16:50.295Z</time></trkpt><trkpt lat="43.4431998" lon="11.2150265"><ele>235.0</ele><time>2026-04-17T15:16:51.368Z</time></trkpt><trkpt lat="43.4432073" lon="11.2149341"><ele>234.16666666666666</ele><time>2026-04-17T15:16:52.296Z</time></trkpt><trkpt lat="43.4432486" lon="11.2148114"><ele>233.33333333333331</ele><time>2026-04-17T15:16:53.295Z</time></trkpt><trkpt lat="43.4432959" lon="11.2146858"><ele>232.5</ele><time>2026-04-17T15:16:54.288Z</time></trkpt><trkpt lat="43.4433439" lon="11.2145773"><ele>231.66666666666669</ele><time>2026-04-17T15:16:55.375Z</time></trkpt><trkpt lat="43.4433796" lon="11.2144843"><ele>230.83333333333334</ele><time>2026-04-17T15:16:56.292Z</time></trkpt><trkpt lat="43.4434135" lon="11.2143977"><ele>230.0</ele><time>2026-04-17T15:16:57.283Z</time></trkpt><trkpt lat="43.4434538" lon="11.2143181"><ele>229.99999999999997</ele><time>2026-04-17T15:16:58.296Z</time></trkpt><trkpt lat="43.4434908" lon="11.2142374"><ele>230.0</ele><time>2026-04-17T15:16:59.304Z</time></trkpt><trkpt lat="43.4435309" lon="11.2141557"><ele>229.99999999999997</ele><time>2026-04-17T15:17:00.303Z</time></trkpt><trkpt lat="43.4435757" lon="11.2140705"><ele>229.99999999999997</ele><time>2026-04-17T15:17:01.296Z</time></trkpt><trkpt lat="43.4436259" lon="11.2139934"><ele>230.0</ele><time>2026-04-17T15:17:02.302Z</time></trkpt><trkpt lat="43.4436776" lon="11.2139177"><ele>229.99999999999997</ele><time>2026-04-17T15:17:03.3Z</time></trkpt><trkpt lat="43.4437354" lon="11.2138442"><ele>229.99999999999997</ele><time>2026-04-17T15:17:04.31Z</time></trkpt><trkpt lat="43.4437917" lon="11.2137839"><ele>229.66666666666669</ele><time>2026-04-17T15:17:05.283Z</time></trkpt><trkpt lat="43.4438498" lon="11.2137347"><ele>229.33333333333334</ele><time>2026-04-17T15:17:06.38Z</time></trkpt><trkpt lat="43.4439103" lon="11.2136869"><ele>229.0</ele><time>2026-04-17T15:17:07.297Z</time></trkpt><trkpt lat="43.4439775" lon="11.2136336"><ele>228.66666666666669</ele><time>2026-04-17T15:17:08.291Z</time></trkpt><trkpt lat="43.4440398" lon="11.2135856"><ele>228.33333333333334</ele><time>2026-04-17T15:17:09.297Z</time></trkpt><trkpt lat="43.4440947" lon="11.2135364"><ele>228.0</ele><time>2026-04-17T15:17:10.301Z</time></trkpt><trkpt lat="43.4441788" lon="11.2134098"><ele>228.0</ele><time>2026-04-17T15:17:12.299Z</time></trkpt><trkpt lat="43.4442583" lon="11.2132784"><ele>228.0</ele><time>2026-04-17T15:17:14.293Z</time></trkpt><trkpt lat="43.4443456" lon="11.2131728"><ele>228.0</ele><time>2026-04-17T15:17:16.301Z</time></trkpt><trkpt lat="43.4443883" lon="11.2130621"><ele>228.0</ele><time>2026-04-17T15:17:18.298Z</time></trkpt><trkpt lat="43.4443822" lon="11.2129264"><ele>228.0</ele><time>2026-04-17T15:17:20.306Z</time></trkpt><trkpt lat="43.4443642" lon="11.2127795"><ele>227.5</ele><time>2026-04-17T15:17:22.294Z</time></trkpt><trkpt lat="43.444335" lon="11.2126119"><ele>227.0</ele><time>2026-04-17T15:17:24.401Z</time></trkpt><trkpt lat="43.4443248" lon="11.2125223"><ele>226.5</ele><time>2026-04-17T15:17:25.371Z</time></trkpt><trkpt lat="43.4443174" lon="11.2124185"><ele>226.0</ele><time>2026-04-17T15:17:26.324Z</time></trkpt><trkpt lat="43.444312" lon="11.2123005"><ele>225.5</ele><time>2026-04-17T15:17:27.297Z</time></trkpt><trkpt lat="43.4443094" lon="11.21218"><ele>225.0</ele><time>2026-04-17T15:17:28.302Z</time></trkpt><trkpt lat="43.4443121" lon="11.2120603"><ele>223.83333333333334</ele><time>2026-04-17T15:17:29.371Z</time></trkpt><trkpt lat="43.4443274" lon="11.2119515"><ele>222.66666666666669</ele><time>2026-04-17T15:17:30.283Z</time></trkpt><trkpt lat="43.4443534" lon="11.2118373"><ele>221.5</ele><time>2026-04-17T15:17:31.299Z</time></trkpt><trkpt lat="43.444388" lon="11.2117272"><ele>220.33333333333334</ele><time>2026-04-17T15:17:32.287Z</time></trkpt><trkpt lat="43.4444259" lon="11.2116294"><ele>219.16666666666669</ele><time>2026-04-17T15:17:33.292Z</time></trkpt><trkpt lat="43.4444664" lon="11.2115327"><ele>218.0</ele><time>2026-04-17T15:17:34.345Z</time></trkpt><trkpt lat="43.444506" lon="11.2114314"><ele>217.83333333333334</ele><time>2026-04-17T15:17:35.367Z</time></trkpt><trkpt lat="43.4445429" lon="11.2113311"><ele>217.66666666666669</ele><time>2026-04-17T15:17:36.273Z</time></trkpt><trkpt lat="43.4445768" lon="11.2112223"><ele>217.5</ele><time>2026-04-17T15:17:37.291Z</time></trkpt><trkpt lat="43.4446082" lon="11.2111206"><ele>217.33333333333331</ele><time>2026-04-17T15:17:38.291Z</time></trkpt><trkpt lat="43.4446382" lon="11.2110147"><ele>217.16666666666666</ele><time>2026-04-17T15:17:39.373Z</time></trkpt><trkpt lat="43.444667" lon="11.2109075"><ele>217.0</ele><time>2026-04-17T15:17:40.362Z</time></trkpt><trkpt lat="43.444696" lon="11.210789"><ele>216.85714285714286</ele><time>2026-04-17T15:17:41.278Z</time></trkpt><trkpt lat="43.4447202" lon="11.2106687"><ele>216.71428571428572</ele><time>2026-04-17T15:17:42.288Z</time></trkpt><trkpt lat="43.4447417" lon="11.2105556"><ele>216.57142857142856</ele><time>2026-04-17T15:17:43.299Z</time></trkpt><trkpt lat="43.4447545" lon="11.2104662"><ele>216.42857142857144</ele><time>2026-04-17T15:17:44.288Z</time></trkpt><trkpt lat="43.4447744" lon="11.2103752"><ele>216.28571428571428</ele><time>2026-04-17T15:17:45.292Z</time></trkpt><trkpt lat="43.4447944" lon="11.2102868"><ele>216.14285714285714</ele><time>2026-04-17T15:17:46.295Z</time></trkpt><trkpt lat="43.4448122" lon="11.2102004"><ele>216.0</ele><time>2026-04-17T15:17:47.296Z</time></trkpt><trkpt lat="43.4448377" lon="11.2100529"><ele>216.60000000000002</ele><time>2026-04-17T15:17:49.297Z</time></trkpt><trkpt lat="43.4448696" lon="11.2099168"><ele>217.20000000000002</ele><time>2026-04-17T15:17:51.293Z</time></trkpt><trkpt lat="43.4449029" lon="11.2097848"><ele>217.79999999999998</ele><time>2026-04-17T15:17:53.288Z</time></trkpt><trkpt lat="43.4449354" lon="11.2096559"><ele>218.39999999999998</ele><time>2026-04-17T15:17:55.309Z</time></trkpt><trkpt lat="43.4449618" lon="11.2095231"><ele>219.0</ele><time>2026-04-17T15:17:57.306Z</time></trkpt><trkpt lat="43.4449841" lon="11.2093906"><ele>219.66666666666666</ele><time>2026-04-17T15:17:59.298Z</time></trkpt><trkpt lat="43.445009" lon="11.2092698"><ele>220.33333333333331</ele><time>2026-04-17T15:18:01.308Z</time></trkpt><trkpt lat="43.4450325" lon="11.2091657"><ele>221.0</ele><time>2026-04-17T15:18:03.297Z</time></trkpt><trkpt lat="43.4450477" lon="11.2090777"><ele>221.66666666666666</ele><time>2026-04-17T15:18:05.3Z</time></trkpt><trkpt lat="43.4450732" lon="11.2089702"><ele>222.33333333333331</ele><time>2026-04-17T15:18:08.29Z</time></trkpt><trkpt lat="43.4451363" lon="11.2089133"><ele>223.0</ele><time>2026-04-17T15:18:12.304Z</time></trkpt><trkpt lat="43.4451408" lon="11.2087992"><ele>223.28571428571428</ele><time>2026-04-17T15:18:16.278Z</time></trkpt><trkpt lat="43.4451479" lon="11.2087053"><ele>223.57142857142856</ele><time>2026-04-17T15:18:19.365Z</time></trkpt><trkpt lat="43.4451472" lon="11.2086126"><ele>223.8571428571429</ele><time>2026-04-17T15:18:22.28Z</time></trkpt><trkpt lat="43.4451711" lon="11.2085161"><ele>224.14285714285717</ele><time>2026-04-17T15:18:26.295Z</time></trkpt><trkpt lat="43.4451738" lon="11.2084192"><ele>224.42857142857144</ele><time>2026-04-17T15:18:29.294Z</time></trkpt><trkpt lat="43.4451858" lon="11.2083157"><ele>224.71428571428575</ele><time>2026-04-17T15:18:32.289Z</time></trkpt><trkpt lat="43.4451878" lon="11.2082086"><ele>225.00000000000003</ele><time>2026-04-17T15:18:36.297Z</time></trkpt><trkpt lat="43.445199" lon="11.2081013"><ele>225.5</ele><time>2026-04-17T15:18:40.308Z</time></trkpt><trkpt lat="43.4452043" lon="11.2080099"><ele>226.0</ele><time>2026-04-17T15:18:44.279Z</time></trkpt><trkpt lat="43.4452156" lon="11.2079084"><ele>226.5</ele><time>2026-04-17T15:18:48.295Z</time></trkpt><trkpt lat="43.4452004" lon="11.207814"><ele>227.0</ele><time>2026-04-17T15:18:53.299Z</time></trkpt><trkpt lat="43.4452084" lon="11.2077137"><ele>227.5</ele><time>2026-04-17T15:18:57.299Z</time></trkpt><trkpt lat="43.4452125" lon="11.2076077"><ele>228.0</ele><time>2026-04-17T15:19:00.36Z</time></trkpt><trkpt lat="43.4451801" lon="11.207482"><ele>228.0</ele><time>2026-04-17T15:19:03.288Z</time></trkpt><trkpt lat="43.4451557" lon="11.2074011"><ele>228.0</ele><time>2026-04-17T15:19:04.283Z</time></trkpt><trkpt lat="43.4451294" lon="11.2073127"><ele>228.0</ele><time>2026-04-17T15:19:05.269Z</time></trkpt><trkpt lat="43.4451134" lon="11.2072223"><ele>228.0</ele><time>2026-04-17T15:19:06.365Z</time></trkpt><trkpt lat="43.4450788" lon="11.2070623"><ele>228.0</ele><time>2026-04-17T15:19:08.301Z</time></trkpt><trkpt lat="43.4450462" lon="11.2069876"><ele>228.0</ele><time>2026-04-17T15:19:09.283Z</time></trkpt><trkpt lat="43.4449969" lon="11.2068582"><ele>228.16666666666666</ele><time>2026-04-17T15:19:11.295Z</time></trkpt><trkpt lat="43.4449542" lon="11.2067464"><ele>228.33333333333331</ele><time>2026-04-17T15:19:13.299Z</time></trkpt><trkpt lat="43.4449094" lon="11.2066607"><ele>228.5</ele><time>2026-04-17T15:19:15.391Z</time></trkpt><trkpt lat="43.4448631" lon="11.2065563"><ele>228.66666666666666</ele><time>2026-04-17T15:19:17.288Z</time></trkpt><trkpt lat="43.4448108" lon="11.2064583"><ele>228.83333333333331</ele><time>2026-04-17T15:19:19.301Z</time></trkpt><trkpt lat="43.4447799" lon="11.2063655"><ele>229.0</ele><time>2026-04-17T15:19:21.294Z</time></trkpt><trkpt lat="43.4447592" lon="11.2062772"><ele>228.49999999999997</ele><time>2026-04-17T15:19:23.279Z</time></trkpt><trkpt lat="43.4447175" lon="11.2061756"><ele>228.0</ele><time>2026-04-17T15:19:25.291Z</time></trkpt><trkpt lat="43.4446843" lon="11.2060765"><ele>227.5</ele><time>2026-04-17T15:19:27.3Z</time></trkpt><trkpt lat="43.4446592" lon="11.2059804"><ele>227.0</ele><time>2026-04-17T15:19:29.295Z</time></trkpt><trkpt lat="43.4446495" lon="11.2058759"><ele>226.49999999999997</ele><time>2026-04-17T15:19:31.37Z</time></trkpt><trkpt lat="43.4446349" lon="11.205783"><ele>226.0</ele><time>2026-04-17T15:19:33.296Z</time></trkpt><trkpt lat="43.4446361" lon="11.2056653"><ele>225.49999999999997</ele><time>2026-04-17T15:19:35.285Z</time></trkpt><trkpt lat="43.4446485" lon="11.2055502"><ele>225.0</ele><time>2026-04-17T15:19:37.296Z</time></trkpt><trkpt lat="43.4446502" lon="11.2054264"><ele>224.5</ele><time>2026-04-17T15:19:39.367Z</time></trkpt><trkpt lat="43.444643" lon="11.2052945"><ele>224.0</ele><time>2026-04-17T15:19:41.275Z</time></trkpt><trkpt lat="43.4446549" lon="11.2052056"><ele>223.49999999999997</ele><time>2026-04-17T15:19:42.309Z</time></trkpt><trkpt lat="43.4446817" lon="11.2050602"><ele>223.0</ele><time>2026-04-17T15:19:44.307Z</time></trkpt><trkpt lat="43.4446876" lon="11.2049198"><ele>222.8</ele><time>2026-04-17T15:19:46.365Z</time></trkpt><trkpt lat="43.4446976" lon="11.2047965"><ele>222.60000000000002</ele><time>2026-04-17T15:19:48.294Z</time></trkpt><trkpt lat="43.4447094" lon="11.2046466"><ele>222.39999999999998</ele><time>2026-04-17T15:19:50.374Z</time></trkpt><trkpt lat="43.4447272" lon="11.2045201"><ele>222.2</ele><time>2026-04-17T15:19:52.283Z</time></trkpt><trkpt lat="43.4447285" lon="11.2043701"><ele>222.0</ele><time>2026-04-17T15:19:54.289Z</time></trkpt><trkpt lat="43.4447048" lon="11.2042434"><ele>222.0</ele><time>2026-04-17T15:19:56.301Z</time></trkpt><trkpt lat="43.4446778" lon="11.2041487"><ele>222.0</ele><time>2026-04-17T15:19:58.297Z</time></trkpt><trkpt lat="43.444654" lon="11.2040496"><ele>222.0</ele><time>2026-04-17T15:20:00.364Z</time></trkpt><trkpt lat="43.4446291" lon="11.2039592"><ele>222.0</ele><time>2026-04-17T15:20:02.274Z</time></trkpt><trkpt lat="43.4445949" lon="11.2038433"><ele>222.0</ele><time>2026-04-17T15:20:05.296Z</time></trkpt><trkpt lat="43.4445727" lon="11.2037426"><ele>222.0</ele><time>2026-04-17T15:20:08.295Z</time></trkpt><trkpt lat="43.4445314" lon="11.2036437"><ele>222.0</ele><time>2026-04-17T15:20:11.299Z</time></trkpt><trkpt lat="43.4445034" lon="11.2035379"><ele>222.0</ele><time>2026-04-17T15:20:14.368Z</time></trkpt><trkpt lat="43.444487" lon="11.2034321"><ele>222.0</ele><time>2026-04-17T15:20:17.292Z</time></trkpt><trkpt lat="43.4444733" lon="11.2033343"><ele>222.0</ele><time>2026-04-17T15:20:20.372Z</time></trkpt><trkpt lat="43.4445017" lon="11.2032339"><ele>222.0</ele><time>2026-04-17T15:20:23.296Z</time></trkpt><trkpt lat="43.444512" lon="11.2031302"><ele>222.0</ele><time>2026-04-17T15:20:26.364Z</time></trkpt><trkpt lat="43.4445083" lon="11.20304"><ele>222.0</ele><time>2026-04-17T15:20:29.3Z</time></trkpt><trkpt lat="43.4445289" lon="11.2029167"><ele>222.0</ele><time>2026-04-17T15:20:32.297Z</time></trkpt><trkpt lat="43.4445735" lon="11.2028155"><ele>222.0</ele><time>2026-04-17T15:20:34.368Z</time></trkpt><trkpt lat="43.4446102" lon="11.2027102"><ele>222.0</ele><time>2026-04-17T15:20:36.362Z</time></trkpt><trkpt lat="43.4446532" lon="11.2026012"><ele>222.0</ele><time>2026-04-17T15:20:38.301Z</time></trkpt><trkpt lat="43.4447131" lon="11.2024858"><ele>222.6</ele><time>2026-04-17T15:20:40.297Z</time></trkpt><trkpt lat="43.4447669" lon="11.2023589"><ele>223.2</ele><time>2026-04-17T15:20:42.295Z</time></trkpt><trkpt lat="43.444801" lon="11.2022183"><ele>223.8</ele><time>2026-04-17T15:20:44.296Z</time></trkpt><trkpt lat="43.4448063" lon="11.2020676"><ele>224.4</ele><time>2026-04-17T15:20:46.292Z</time></trkpt><trkpt lat="43.4448069" lon="11.201921"><ele>225.0</ele><time>2026-04-17T15:20:48.295Z</time></trkpt><trkpt lat="43.4448019" lon="11.2017876"><ele>225.16666666666666</ele><time>2026-04-17T15:20:50.309Z</time></trkpt><trkpt lat="43.4447912" lon="11.2016576"><ele>225.33333333333331</ele><time>2026-04-17T15:20:52.297Z</time></trkpt><trkpt lat="43.4447823" lon="11.2015455"><ele>225.5</ele><time>2026-04-17T15:20:54.291Z</time></trkpt><trkpt lat="43.4447726" lon="11.2014405"><ele>225.66666666666666</ele><time>2026-04-17T15:20:56.303Z</time></trkpt><trkpt lat="43.4447534" lon="11.2013407"><ele>225.83333333333331</ele><time>2026-04-17T15:20:58.303Z</time></trkpt><trkpt lat="43.4447197" lon="11.201238"><ele>226.0</ele><time>2026-04-17T15:21:00.301Z</time></trkpt><trkpt lat="43.4446938" lon="11.2011339"><ele>226.20000000000002</ele><time>2026-04-17T15:21:02.297Z</time></trkpt><trkpt lat="43.4446716" lon="11.2010187"><ele>226.40000000000003</ele><time>2026-04-17T15:21:04.31Z</time></trkpt><trkpt lat="43.4446438" lon="11.2008943"><ele>226.6</ele><time>2026-04-17T15:21:06.311Z</time></trkpt><trkpt lat="43.4446174" lon="11.2007642"><ele>226.8</ele><time>2026-04-17T15:21:08.3Z</time></trkpt><trkpt lat="43.4445912" lon="11.2006239"><ele>227.0</ele><time>2026-04-17T15:21:10.351Z</time></trkpt><trkpt lat="43.4445725" lon="11.2004864"><ele>227.00000000000003</ele><time>2026-04-17T15:21:12.3Z</time></trkpt><trkpt lat="43.4445493" lon="11.2003543"><ele>227.0</ele><time>2026-04-17T15:21:14.277Z</time></trkpt><trkpt lat="43.444498" lon="11.200244"><ele>227.0</ele><time>2026-04-17T15:21:16.292Z</time></trkpt><trkpt lat="43.4444624" lon="11.2001014"><ele>227.0</ele><time>2026-04-17T15:21:18.289Z</time></trkpt><trkpt lat="43.444457" lon="11.2000106"><ele>227.00000000000003</ele><time>2026-04-17T15:21:19.31Z</time></trkpt><trkpt lat="43.4444444" lon="11.1999141"><ele>227.0</ele><time>2026-04-17T15:21:20.387Z</time></trkpt><trkpt lat="43.4444363" lon="11.1998248"><ele>226.6</ele><time>2026-04-17T15:21:21.3Z</time></trkpt><trkpt lat="43.4444271" lon="11.1996528"><ele>226.2</ele><time>2026-04-17T15:21:23.29Z</time></trkpt><trkpt lat="43.4444154" lon="11.1995072"><ele>225.8</ele><time>2026-04-17T15:21:25.286Z</time></trkpt><trkpt lat="43.4444025" lon="11.1993695"><ele>225.4</ele><time>2026-04-17T15:21:27.301Z</time></trkpt><trkpt lat="43.4444144" lon="11.1992334"><ele>225.0</ele><time>2026-04-17T15:21:29.277Z</time></trkpt><trkpt lat="43.4444387" lon="11.1990827"><ele>225.0</ele><time>2026-04-17T15:21:31.294Z</time></trkpt><trkpt lat="43.4444816" lon="11.1990104"><ele>225.0</ele><time>2026-04-17T15:21:32.277Z</time></trkpt><trkpt lat="43.4445443" lon="11.1988828"><ele>225.0</ele><time>2026-04-17T15:21:34.298Z</time></trkpt><trkpt lat="43.4446076" lon="11.1987999"><ele>225.0</ele><time>2026-04-17T15:21:36.303Z</time></trkpt><trkpt lat="43.4446764" lon="11.198728"><ele>225.0</ele><time>2026-04-17T15:21:38.288Z</time></trkpt><trkpt lat="43.4447408" lon="11.1986596"><ele>225.0</ele><time>2026-04-17T15:21:40.367Z</time></trkpt><trkpt lat="43.4448275" lon="11.198607"><ele>223.6</ele><time>2026-04-17T15:21:43.304Z</time></trkpt><trkpt lat="43.4449066" lon="11.1985558"><ele>222.2</ele><time>2026-04-17T15:21:45.365Z</time></trkpt><trkpt lat="43.4449437" lon="11.1984814"><ele>220.8</ele><time>2026-04-17T15:21:47.293Z</time></trkpt><trkpt lat="43.4450011" lon="11.1983419"><ele>219.4</ele><time>2026-04-17T15:21:49.301Z</time></trkpt><trkpt lat="43.4450624" lon="11.198225"><ele>218.0</ele><time>2026-04-17T15:21:51.36Z</time></trkpt><trkpt lat="43.4451034" lon="11.1980679"><ele>217.8</ele><time>2026-04-17T15:21:53.299Z</time></trkpt><trkpt lat="43.4451179" lon="11.197921"><ele>217.60000000000002</ele><time>2026-04-17T15:21:55.38Z</time></trkpt><trkpt lat="43.445133" lon="11.1977834"><ele>217.39999999999998</ele><time>2026-04-17T15:21:57.288Z</time></trkpt><trkpt lat="43.4451482" lon="11.1976636"><ele>217.2</ele><time>2026-04-17T15:21:59.38Z</time></trkpt><trkpt lat="43.4451217" lon="11.1975725"><ele>217.0</ele><time>2026-04-17T15:22:01.291Z</time></trkpt><trkpt lat="43.4451167" lon="11.1974378"><ele>215.8</ele><time>2026-04-17T15:22:03.302Z</time></trkpt><trkpt lat="43.4450952" lon="11.1972889"><ele>214.6</ele><time>2026-04-17T15:22:05.295Z</time></trkpt><trkpt lat="43.4450627" lon="11.1971644"><ele>213.4</ele><time>2026-04-17T15:22:07.281Z</time></trkpt><trkpt lat="43.4450187" lon="11.1970379"><ele>212.20000000000002</ele><time>2026-04-17T15:22:09.283Z</time></trkpt><trkpt lat="43.4449804" lon="11.1969095"><ele>211.0</ele><time>2026-04-17T15:22:11.302Z</time></trkpt><trkpt lat="43.4449257" lon="11.1967785"><ele>210.99999999999997</ele><time>2026-04-17T15:22:13.3Z</time></trkpt><trkpt lat="43.4448878" lon="11.196681"><ele>211.0</ele><time>2026-04-17T15:22:15.343Z</time></trkpt><trkpt lat="43.4448575" lon="11.1965903"><ele>211.0</ele><time>2026-04-17T15:22:17.274Z</time></trkpt><trkpt lat="43.4448297" lon="11.1964983"><ele>211.0</ele><time>2026-04-17T15:22:19.306Z</time></trkpt><trkpt lat="43.4447998" lon="11.1964101"><ele>210.99999999999997</ele><time>2026-04-17T15:22:21.292Z</time></trkpt><trkpt lat="43.4447751" lon="11.1962802"><ele>211.0</ele><time>2026-04-17T15:22:23.295Z</time></trkpt><trkpt lat="43.4447598" lon="11.1961257"><ele>209.20000000000002</ele><time>2026-04-17T15:22:25.288Z</time></trkpt><trkpt lat="43.4447635" lon="11.1959859"><ele>207.4</ele><time>2026-04-17T15:22:27.294Z</time></trkpt><trkpt lat="43.4447244" lon="11.19585"><ele>205.6</ele><time>2026-04-17T15:22:29.3Z</time></trkpt><trkpt lat="43.4446931" lon="11.1957097"><ele>203.8</ele><time>2026-04-17T15:22:31.311Z</time></trkpt><trkpt lat="43.444674" lon="11.1955584"><ele>202.0</ele><time>2026-04-17T15:22:33.289Z</time></trkpt><trkpt lat="43.4446478" lon="11.1953956"><ele>202.2</ele><time>2026-04-17T15:22:35.279Z</time></trkpt><trkpt lat="43.4446262" lon="11.1952508"><ele>202.39999999999998</ele><time>2026-04-17T15:22:37.277Z</time></trkpt><trkpt lat="43.4445893" lon="11.1950783"><ele>202.60000000000002</ele><time>2026-04-17T15:22:39.364Z</time></trkpt><trkpt lat="43.4445505" lon="11.1950032"><ele>202.8</ele><time>2026-04-17T15:22:40.362Z</time></trkpt><trkpt lat="43.4445045" lon="11.1948655"><ele>203.0</ele><time>2026-04-17T15:22:42.291Z</time></trkpt><trkpt lat="43.4444727" lon="11.1947214"><ele>201.8</ele><time>2026-04-17T15:22:44.294Z</time></trkpt><trkpt lat="43.4444603" lon="11.1945924"><ele>200.60000000000002</ele><time>2026-04-17T15:22:46.276Z</time></trkpt><trkpt lat="43.4444518" lon="11.1944591"><ele>199.39999999999998</ele><time>2026-04-17T15:22:48.308Z</time></trkpt><trkpt lat="43.4444531" lon="11.1943163"><ele>198.2</ele><time>2026-04-17T15:22:50.291Z</time></trkpt><trkpt lat="43.4444651" lon="11.1941583"><ele>197.0</ele><time>2026-04-17T15:22:52.302Z</time></trkpt><trkpt lat="43.4444775" lon="11.1940075"><ele>196.2</ele><time>2026-04-17T15:22:54.364Z</time></trkpt><trkpt lat="43.4444956" lon="11.1938606"><ele>195.39999999999998</ele><time>2026-04-17T15:22:56.295Z</time></trkpt><trkpt lat="43.4445235" lon="11.1937026"><ele>194.60000000000002</ele><time>2026-04-17T15:22:58.292Z</time></trkpt><trkpt lat="43.4445593" lon="11.1935508"><ele>193.8</ele><time>2026-04-17T15:23:00.295Z</time></trkpt><trkpt lat="43.4445823" lon="11.1934688"><ele>193.0</ele><time>2026-04-17T15:23:01.285Z</time></trkpt><trkpt lat="43.4446074" lon="11.193386"><ele>192.14285714285717</ele><time>2026-04-17T15:23:02.288Z</time></trkpt><trkpt lat="43.4446337" lon="11.1932897"><ele>191.28571428571428</ele><time>2026-04-17T15:23:03.289Z</time></trkpt><trkpt lat="43.4446609" lon="11.1931924"><ele>190.42857142857144</ele><time>2026-04-17T15:23:04.358Z</time></trkpt><trkpt lat="43.4446926" lon="11.1931055"><ele>189.57142857142858</ele><time>2026-04-17T15:23:05.369Z</time></trkpt><trkpt lat="43.4447249" lon="11.1930254"><ele>188.71428571428572</ele><time>2026-04-17T15:23:06.363Z</time></trkpt><trkpt lat="43.4447561" lon="11.1929486"><ele>187.85714285714286</ele><time>2026-04-17T15:23:07.293Z</time></trkpt><trkpt lat="43.444786" lon="11.1928673"><ele>187.0</ele><time>2026-04-17T15:23:08.293Z</time></trkpt><trkpt lat="43.4448108" lon="11.1927834"><ele>186.7142857142857</ele><time>2026-04-17T15:23:09.304Z</time></trkpt><trkpt lat="43.4448315" lon="11.1926962"><ele>186.42857142857144</ele><time>2026-04-17T15:23:10.375Z</time></trkpt><trkpt lat="43.4448415" lon="11.1926089"><ele>186.14285714285714</ele><time>2026-04-17T15:23:11.299Z</time></trkpt><trkpt lat="43.4448445" lon="11.1925131"><ele>185.85714285714283</ele><time>2026-04-17T15:23:12.299Z</time></trkpt><trkpt lat="43.4448465" lon="11.1924156"><ele>185.57142857142856</ele><time>2026-04-17T15:23:13.295Z</time></trkpt><trkpt lat="43.4448494" lon="11.1923101"><ele>185.28571428571428</ele><time>2026-04-17T15:23:14.297Z</time></trkpt><trkpt lat="43.4448526" lon="11.1922119"><ele>185.0</ele><time>2026-04-17T15:23:15.362Z</time></trkpt><trkpt lat="43.4448474" lon="11.1921212"><ele>184.83333333333331</ele><time>2026-04-17T15:23:16.37Z</time></trkpt><trkpt lat="43.4448352" lon="11.1919635"><ele>184.66666666666666</ele><time>2026-04-17T15:23:18.303Z</time></trkpt><trkpt lat="43.4448369" lon="11.1918552"><ele>184.5</ele><time>2026-04-17T15:23:19.301Z</time></trkpt><trkpt lat="43.4448445" lon="11.1917519"><ele>184.33333333333334</ele><time>2026-04-17T15:23:20.368Z</time></trkpt><trkpt lat="43.4448476" lon="11.1916625"><ele>184.16666666666669</ele><time>2026-04-17T15:23:21.371Z</time></trkpt><trkpt lat="43.4448568" lon="11.1915721"><ele>184.0</ele><time>2026-04-17T15:23:22.297Z</time></trkpt><trkpt lat="43.4448676" lon="11.1914635"><ele>184.0</ele><time>2026-04-17T15:23:23.298Z</time></trkpt><trkpt lat="43.4448996" lon="11.1913385"><ele>184.0</ele><time>2026-04-17T15:23:24.307Z</time></trkpt><trkpt lat="43.4449274" lon="11.1912243"><ele>184.0</ele><time>2026-04-17T15:23:25.288Z</time></trkpt><trkpt lat="43.4449524" lon="11.1911136"><ele>184.0</ele><time>2026-04-17T15:23:26.294Z</time></trkpt><trkpt lat="43.4449761" lon="11.1910052"><ele>184.0</ele><time>2026-04-17T15:23:27.305Z</time></trkpt><trkpt lat="43.445002" lon="11.1909014"><ele>184.0</ele><time>2026-04-17T15:23:28.309Z</time></trkpt><trkpt lat="43.4450253" lon="11.1907896"><ele>184.0</ele><time>2026-04-17T15:23:29.289Z</time></trkpt><trkpt lat="43.4450474" lon="11.1906852"><ele>184.0</ele><time>2026-04-17T15:23:30.365Z</time></trkpt><trkpt lat="43.4450314" lon="11.1905625"><ele>184.0</ele><time>2026-04-17T15:23:31.375Z</time></trkpt><trkpt lat="43.4450123" lon="11.1904224"><ele>184.0</ele><time>2026-04-17T15:23:32.291Z</time></trkpt><trkpt lat="43.4450184" lon="11.1902725"><ele>184.0</ele><time>2026-04-17T15:23:33.305Z</time></trkpt><trkpt lat="43.4450553" lon="11.190159"><ele>183.0</ele><time>2026-04-17T15:23:34.307Z</time></trkpt><trkpt lat="43.445103" lon="11.1900551"><ele>182.0</ele><time>2026-04-17T15:23:35.297Z</time></trkpt><trkpt lat="43.4451712" lon="11.1899509"><ele>181.0</ele><time>2026-04-17T15:23:36.295Z</time></trkpt><trkpt lat="43.4452294" lon="11.1898474"><ele>180.0</ele><time>2026-04-17T15:23:37.289Z</time></trkpt><trkpt lat="43.445281" lon="11.1897522"><ele>179.0</ele><time>2026-04-17T15:23:38.29Z</time></trkpt><trkpt lat="43.4453259" lon="11.1896639"><ele>178.14285714285717</ele><time>2026-04-17T15:23:39.292Z</time></trkpt><trkpt lat="43.4453651" lon="11.1895752"><ele>177.28571428571428</ele><time>2026-04-17T15:23:40.377Z</time></trkpt><trkpt lat="43.4453944" lon="11.1894874"><ele>176.42857142857144</ele><time>2026-04-17T15:23:41.305Z</time></trkpt><trkpt lat="43.4454201" lon="11.1893944"><ele>175.57142857142858</ele><time>2026-04-17T15:23:42.298Z</time></trkpt><trkpt lat="43.4454413" lon="11.1892982"><ele>174.71428571428572</ele><time>2026-04-17T15:23:43.293Z</time></trkpt><trkpt lat="43.4454588" lon="11.1892009"><ele>173.85714285714286</ele><time>2026-04-17T15:23:44.301Z</time></trkpt><trkpt lat="43.4454774" lon="11.1891001"><ele>173.0</ele><time>2026-04-17T15:23:45.3Z</time></trkpt><trkpt lat="43.4454956" lon="11.1889988"><ele>172.16666666666666</ele><time>2026-04-17T15:23:46.372Z</time></trkpt><trkpt lat="43.4455137" lon="11.188902"><ele>171.33333333333331</ele><time>2026-04-17T15:23:47.284Z</time></trkpt><trkpt lat="43.4455283" lon="11.1888035"><ele>170.5</ele><time>2026-04-17T15:23:48.295Z</time></trkpt><trkpt lat="43.4455443" lon="11.1887072"><ele>169.66666666666666</ele><time>2026-04-17T15:23:49.368Z</time></trkpt><trkpt lat="43.4455583" lon="11.1886143"><ele>168.83333333333334</ele><time>2026-04-17T15:23:50.284Z</time></trkpt><trkpt lat="43.4455838" lon="11.1884455"><ele>168.0</ele><time>2026-04-17T15:23:52.295Z</time></trkpt><trkpt lat="43.4456032" lon="11.1883605"><ele>168.0</ele><time>2026-04-17T15:23:53.294Z</time></trkpt><trkpt lat="43.4456183" lon="11.188274"><ele>168.0</ele><time>2026-04-17T15:23:54.299Z</time></trkpt><trkpt lat="43.4456323" lon="11.1881867"><ele>168.0</ele><time>2026-04-17T15:23:55.365Z</time></trkpt><trkpt lat="43.4456467" lon="11.1880998"><ele>168.0</ele><time>2026-04-17T15:23:56.295Z</time></trkpt><trkpt lat="43.4456574" lon="11.1879439"><ele>168.0</ele><time>2026-04-17T15:23:58.314Z</time></trkpt><trkpt lat="43.4456709" lon="11.1878525"><ele>168.0</ele><time>2026-04-17T15:23:59.373Z</time></trkpt><trkpt lat="43.4456906" lon="11.1876901"><ele>167.0</ele><time>2026-04-17T15:24:01.379Z</time></trkpt><trkpt lat="43.4456807" lon="11.1875124"><ele>166.0</ele><time>2026-04-17T15:24:03.292Z</time></trkpt><trkpt lat="43.4456601" lon="11.1873585"><ele>165.0</ele><time>2026-04-17T15:24:05.301Z</time></trkpt><trkpt lat="43.4456357" lon="11.187223"><ele>164.0</ele><time>2026-04-17T15:24:07.295Z</time></trkpt><trkpt lat="43.4456323" lon="11.1870626"><ele>163.66666666666666</ele><time>2026-04-17T15:24:09.292Z</time></trkpt><trkpt lat="43.4456478" lon="11.186961"><ele>163.33333333333331</ele><time>2026-04-17T15:24:10.314Z</time></trkpt><trkpt lat="43.4456656" lon="11.1868637"><ele>163.0</ele><time>2026-04-17T15:24:11.3Z</time></trkpt><trkpt lat="43.4456899" lon="11.186753"><ele>162.66666666666666</ele><time>2026-04-17T15:24:12.308Z</time></trkpt><trkpt lat="43.4457144" lon="11.186643"><ele>162.33333333333334</ele><time>2026-04-17T15:24:13.299Z</time></trkpt><trkpt lat="43.4457335" lon="11.186539"><ele>162.0</ele><time>2026-04-17T15:24:14.304Z</time></trkpt><trkpt lat="43.4457493" lon="11.1864333"><ele>160.6</ele><time>2026-04-17T15:24:15.295Z</time></trkpt><trkpt lat="43.4457597" lon="11.1863396"><ele>159.2</ele><time>2026-04-17T15:24:16.303Z</time></trkpt><trkpt lat="43.4457747" lon="11.1861861"><ele>157.8</ele><time>2026-04-17T15:24:18.303Z</time></trkpt><trkpt lat="43.4457977" lon="11.1860483"><ele>156.4</ele><time>2026-04-17T15:24:20.301Z</time></trkpt><trkpt lat="43.4458189" lon="11.1859124"><ele>155.0</ele><time>2026-04-17T15:24:22.297Z</time></trkpt><trkpt lat="43.4458278" lon="11.1857796"><ele>153.2</ele><time>2026-04-17T15:24:24.371Z</time></trkpt><trkpt lat="43.4458481" lon="11.1856578"><ele>151.4</ele><time>2026-04-17T15:24:26.294Z</time></trkpt><trkpt lat="43.4458653" lon="11.1855018"><ele>149.6</ele><time>2026-04-17T15:24:28.303Z</time></trkpt><trkpt lat="43.4458909" lon="11.1853564"><ele>147.8</ele><time>2026-04-17T15:24:30.295Z</time></trkpt><trkpt lat="43.445911" lon="11.1852263"><ele>146.0</ele><time>2026-04-17T15:24:32.298Z</time></trkpt><trkpt lat="43.4459366" lon="11.1850912"><ele>146.0</ele><time>2026-04-17T15:24:34.369Z</time></trkpt><trkpt lat="43.4459567" lon="11.1850029"><ele>146.0</ele><time>2026-04-17T15:24:35.374Z</time></trkpt><trkpt lat="43.4459844" lon="11.184916"><ele>146.0</ele><time>2026-04-17T15:24:36.351Z</time></trkpt><trkpt lat="43.4459953" lon="11.1847945"><ele>146.0</ele><time>2026-04-17T15:24:38.29Z</time></trkpt><trkpt lat="43.4460078" lon="11.1846887"><ele>146.0</ele><time>2026-04-17T15:24:40.363Z</time></trkpt><trkpt lat="43.4460102" lon="11.1845797"><ele>146.0</ele><time>2026-04-17T15:24:42.309Z</time></trkpt><trkpt lat="43.4460175" lon="11.1844485"><ele>144.4</ele><time>2026-04-17T15:24:44.296Z</time></trkpt><trkpt lat="43.4460116" lon="11.184353"><ele>142.8</ele><time>2026-04-17T15:24:45.363Z</time></trkpt><trkpt lat="43.4460518" lon="11.184172"><ele>141.20000000000002</ele><time>2026-04-17T15:24:47.296Z</time></trkpt><trkpt lat="43.4460741" lon="11.1840735"><ele>139.6</ele><time>2026-04-17T15:24:48.291Z</time></trkpt><trkpt lat="43.4460963" lon="11.1839138"><ele>138.0</ele><time>2026-04-17T15:24:50.374Z</time></trkpt><trkpt lat="43.446206" lon="11.1838739"><ele>137.16666666666666</ele><time>2026-04-17T15:24:52.296Z</time></trkpt><trkpt lat="43.4462336" lon="11.1837909"><ele>136.33333333333334</ele><time>2026-04-17T15:24:53.297Z</time></trkpt><trkpt lat="43.4462451" lon="11.1837048"><ele>135.5</ele><time>2026-04-17T15:24:54.297Z</time></trkpt><trkpt lat="43.4462461" lon="11.1835548"><ele>134.66666666666669</ele><time>2026-04-17T15:24:56.286Z</time></trkpt><trkpt lat="43.4462585" lon="11.183418"><ele>133.83333333333334</ele><time>2026-04-17T15:24:58.305Z</time></trkpt><trkpt lat="43.4462586" lon="11.183266"><ele>133.0</ele><time>2026-04-17T15:25:00.298Z</time></trkpt><trkpt lat="43.4462752" lon="11.1831056"><ele>133.20000000000002</ele><time>2026-04-17T15:25:02.274Z</time></trkpt><trkpt lat="43.4463065" lon="11.1829409"><ele>133.4</ele><time>2026-04-17T15:25:04.312Z</time></trkpt><trkpt lat="43.446336" lon="11.1827741"><ele>133.60000000000002</ele><time>2026-04-17T15:25:06.295Z</time></trkpt><trkpt lat="43.4463567" lon="11.1826845"><ele>133.8</ele><time>2026-04-17T15:25:07.301Z</time></trkpt><trkpt lat="43.4463816" lon="11.1825994"><ele>134.0</ele><time>2026-04-17T15:25:08.296Z</time></trkpt><trkpt lat="43.4464067" lon="11.1825096"><ele>134.0</ele><time>2026-04-17T15:25:09.296Z</time></trkpt><trkpt lat="43.4464361" lon="11.18243"><ele>134.0</ele><time>2026-04-17T15:25:10.363Z</time></trkpt><trkpt lat="43.4464706" lon="11.1823524"><ele>134.0</ele><time>2026-04-17T15:25:11.372Z</time></trkpt><trkpt lat="43.4465165" lon="11.1822787"><ele>134.0</ele><time>2026-04-17T15:25:12.299Z</time></trkpt><trkpt lat="43.4465772" lon="11.1822105"><ele>134.0</ele><time>2026-04-17T15:25:13.293Z</time></trkpt><trkpt lat="43.446633" lon="11.1821472"><ele>134.0</ele><time>2026-04-17T15:25:14.308Z</time></trkpt><trkpt lat="43.4466966" lon="11.1820755"><ele>134.0</ele><time>2026-04-17T15:25:15.311Z</time></trkpt><trkpt lat="43.4467604" lon="11.1820104"><ele>133.14285714285714</ele><time>2026-04-17T15:25:16.301Z</time></trkpt><trkpt lat="43.4468241" lon="11.18194"><ele>132.28571428571428</ele><time>2026-04-17T15:25:17.3Z</time></trkpt><trkpt lat="43.4468822" lon="11.1818736"><ele>131.42857142857142</ele><time>2026-04-17T15:25:18.301Z</time></trkpt><trkpt lat="43.446939" lon="11.1818055"><ele>130.57142857142856</ele><time>2026-04-17T15:25:19.285Z</time></trkpt><trkpt lat="43.4469902" lon="11.1817519"><ele>129.7142857142857</ele><time>2026-04-17T15:25:20.292Z</time></trkpt><trkpt lat="43.4470498" lon="11.1816877"><ele>128.85714285714286</ele><time>2026-04-17T15:25:21.39Z</time></trkpt><trkpt lat="43.4471061" lon="11.1816239"><ele>128.0</ele><time>2026-04-17T15:25:22.295Z</time></trkpt><trkpt lat="43.4471549" lon="11.1815603"><ele>127.66666666666666</ele><time>2026-04-17T15:25:23.286Z</time></trkpt><trkpt lat="43.4472127" lon="11.1814972"><ele>127.33333333333333</ele><time>2026-04-17T15:25:24.355Z</time></trkpt><trkpt lat="43.4472793" lon="11.181446"><ele>127.0</ele><time>2026-04-17T15:25:25.375Z</time></trkpt><trkpt lat="43.4473309" lon="11.1813893"><ele>126.66666666666666</ele><time>2026-04-17T15:25:26.292Z</time></trkpt><trkpt lat="43.447382" lon="11.1813277"><ele>126.33333333333333</ele><time>2026-04-17T15:25:27.292Z</time></trkpt><trkpt lat="43.4474828" lon="11.1812221"><ele>126.0</ele><time>2026-04-17T15:25:29.294Z</time></trkpt><trkpt lat="43.4475339" lon="11.1811541"><ele>126.0</ele><time>2026-04-17T15:25:30.368Z</time></trkpt><trkpt lat="43.4475826" lon="11.1810894"><ele>126.0</ele><time>2026-04-17T15:25:31.365Z</time></trkpt><trkpt lat="43.4476837" lon="11.1809741"><ele>126.0</ele><time>2026-04-17T15:25:33.289Z</time></trkpt><trkpt lat="43.4477835" lon="11.1808851"><ele>126.0</ele><time>2026-04-17T15:25:35.27Z</time></trkpt><trkpt lat="43.4479202" lon="11.1807284"><ele>126.19999999999999</ele><time>2026-04-17T15:25:38.292Z</time></trkpt><trkpt lat="43.4480102" lon="11.1806302"><ele>126.39999999999999</ele><time>2026-04-17T15:25:40.37Z</time></trkpt><trkpt lat="43.4480618" lon="11.1805652"><ele>126.6</ele><time>2026-04-17T15:25:41.295Z</time></trkpt><trkpt lat="43.4481097" lon="11.1804999"><ele>126.8</ele><time>2026-04-17T15:25:42.29Z</time></trkpt><trkpt lat="43.4481976" lon="11.1804118"><ele>127.0</ele><time>2026-04-17T15:25:44.309Z</time></trkpt><trkpt lat="43.4483024" lon="11.1803541"><ele>127.0</ele><time>2026-04-17T15:25:46.286Z</time></trkpt><trkpt lat="43.4484157" lon="11.1802927"><ele>126.99999999999999</ele><time>2026-04-17T15:25:48.303Z</time></trkpt><trkpt lat="43.4485043" lon="11.1802398"><ele>126.99999999999999</ele><time>2026-04-17T15:25:50.288Z</time></trkpt><trkpt lat="43.4486033" lon="11.1801654"><ele>127.0</ele><time>2026-04-17T15:25:52.299Z</time></trkpt><trkpt lat="43.4486976" lon="11.1800925"><ele>127.0</ele><time>2026-04-17T15:25:54.3Z</time></trkpt><trkpt lat="43.4487909" lon="11.1800321"><ele>126.6</ele><time>2026-04-17T15:25:56.292Z</time></trkpt><trkpt lat="43.4488795" lon="11.179975"><ele>126.19999999999999</ele><time>2026-04-17T15:25:58.305Z</time></trkpt><trkpt lat="43.4489608" lon="11.1799155"><ele>125.8</ele><time>2026-04-17T15:26:00.31Z</time></trkpt><trkpt lat="43.4490403" lon="11.1798456"><ele>125.4</ele><time>2026-04-17T15:26:02.304Z</time></trkpt><trkpt lat="43.4491315" lon="11.1797645"><ele>125.0</ele><time>2026-04-17T15:26:04.306Z</time></trkpt><trkpt lat="43.4492285" lon="11.1796756"><ele>125.0</ele><time>2026-04-17T15:26:06.372Z</time></trkpt><trkpt lat="43.4493294" lon="11.1795853"><ele>125.0</ele><time>2026-04-17T15:26:08.295Z</time></trkpt><trkpt lat="43.4494445" lon="11.1795265"><ele>125.0</ele><time>2026-04-17T15:26:10.366Z</time></trkpt><trkpt lat="43.4495067" lon="11.1795101"><ele>125.0</ele><time>2026-04-17T15:26:11.364Z</time></trkpt><trkpt lat="43.4496253" lon="11.1794961"><ele>125.0</ele><time>2026-04-17T15:26:13.297Z</time></trkpt><trkpt lat="43.4497324" lon="11.1794881"><ele>125.2</ele><time>2026-04-17T15:26:15.289Z</time></trkpt><trkpt lat="43.449842" lon="11.1794729"><ele>125.4</ele><time>2026-04-17T15:26:17.279Z</time></trkpt><trkpt lat="43.4499441" lon="11.1794379"><ele>125.6</ele><time>2026-04-17T15:26:19.306Z</time></trkpt><trkpt lat="43.4500412" lon="11.1793909"><ele>125.8</ele><time>2026-04-17T15:26:21.321Z</time></trkpt><trkpt lat="43.4501263" lon="11.1793263"><ele>126.0</ele><time>2026-04-17T15:26:23.285Z</time></trkpt><trkpt lat="43.4502082" lon="11.1792489"><ele>126.0</ele><time>2026-04-17T15:26:25.295Z</time></trkpt><trkpt lat="43.4502883" lon="11.1791827"><ele>126.0</ele><time>2026-04-17T15:26:27.295Z</time></trkpt><trkpt lat="43.4503393" lon="11.1791182"><ele>126.0</ele><time>2026-04-17T15:26:29.282Z</time></trkpt><trkpt lat="43.4503914" lon="11.1790564"><ele>126.0</ele><time>2026-04-17T15:26:31.298Z</time></trkpt><trkpt lat="43.4504518" lon="11.1790032"><ele>126.0</ele><time>2026-04-17T15:26:33.303Z</time></trkpt><trkpt lat="43.4505119" lon="11.1789408"><ele>126.0</ele><time>2026-04-17T15:26:35.298Z</time></trkpt><trkpt lat="43.4505916" lon="11.1788832"><ele>126.0</ele><time>2026-04-17T15:26:37.297Z</time></trkpt><trkpt lat="43.450665" lon="11.1788133"><ele>126.0</ele><time>2026-04-17T15:26:39.288Z</time></trkpt><trkpt lat="43.4507412" lon="11.1787593"><ele>126.0</ele><time>2026-04-17T15:26:41.294Z</time></trkpt><trkpt lat="43.4508225" lon="11.1787357"><ele>126.0</ele><time>2026-04-17T15:26:43.295Z</time></trkpt><trkpt lat="43.4508993" lon="11.1786869"><ele>126.0</ele><time>2026-04-17T15:26:45.303Z</time></trkpt><trkpt lat="43.4509827" lon="11.1785958"><ele>126.0</ele><time>2026-04-17T15:26:47.331Z</time></trkpt><trkpt lat="43.4510853" lon="11.1785233"><ele>126.0</ele><time>2026-04-17T15:26:49.372Z</time></trkpt><trkpt lat="43.4511814" lon="11.1784255"><ele>126.0</ele><time>2026-04-17T15:26:51.367Z</time></trkpt><trkpt lat="43.4512853" lon="11.1783878"><ele>126.0</ele><time>2026-04-17T15:26:53.31Z</time></trkpt><trkpt lat="43.4513587" lon="11.1783138"><ele>126.0</ele><time>2026-04-17T15:26:55.297Z</time></trkpt><trkpt lat="43.45143" lon="11.1782339"><ele>126.0</ele><time>2026-04-17T15:26:57.285Z</time></trkpt><trkpt lat="43.4515247" lon="11.1781997"><ele>126.19999999999999</ele><time>2026-04-17T15:26:59.377Z</time></trkpt><trkpt lat="43.4516292" lon="11.1782067"><ele>126.39999999999999</ele><time>2026-04-17T15:27:01.374Z</time></trkpt><trkpt lat="43.4517251" lon="11.1782446"><ele>126.6</ele><time>2026-04-17T15:27:03.293Z</time></trkpt><trkpt lat="43.4518244" lon="11.1783015"><ele>126.8</ele><time>2026-04-17T15:27:05.378Z</time></trkpt><trkpt lat="43.4519229" lon="11.1783802"><ele>127.0</ele><time>2026-04-17T15:27:07.273Z</time></trkpt><trkpt lat="43.4520197" lon="11.1784571"><ele>127.0</ele><time>2026-04-17T15:27:09.29Z</time></trkpt><trkpt lat="43.4521082" lon="11.1785465"><ele>126.99999999999999</ele><time>2026-04-17T15:27:11.276Z</time></trkpt><trkpt lat="43.4521912" lon="11.1786386"><ele>126.99999999999999</ele><time>2026-04-17T15:27:13.296Z</time></trkpt><trkpt lat="43.4522894" lon="11.1787289"><ele>127.0</ele><time>2026-04-17T15:27:15.273Z</time></trkpt><trkpt lat="43.4523884" lon="11.1787303"><ele>127.0</ele><time>2026-04-17T15:27:17.312Z</time></trkpt><trkpt lat="43.4524839" lon="11.178701"><ele>127.0</ele><time>2026-04-17T15:27:19.293Z</time></trkpt><trkpt lat="43.4525817" lon="11.1786508"><ele>126.99999999999999</ele><time>2026-04-17T15:27:21.372Z</time></trkpt><trkpt lat="43.4526781" lon="11.178559"><ele>126.99999999999999</ele><time>2026-04-17T15:27:23.294Z</time></trkpt><trkpt lat="43.4527313" lon="11.1785058"><ele>127.0</ele><time>2026-04-17T15:27:24.303Z</time></trkpt><trkpt lat="43.4528134" lon="11.1784316"><ele>127.0</ele><time>2026-04-17T15:27:26.373Z</time></trkpt><trkpt lat="43.452902" lon="11.1783523"><ele>127.0</ele><time>2026-04-17T15:27:28.295Z</time></trkpt><trkpt lat="43.4529421" lon="11.1782748"><ele>127.0</ele><time>2026-04-17T15:27:30.362Z</time></trkpt><trkpt lat="43.4529864" lon="11.1782115"><ele>127.0</ele><time>2026-04-17T15:27:32.292Z</time></trkpt><trkpt lat="43.4530521" lon="11.1781527"><ele>127.0</ele><time>2026-04-17T15:27:35.373Z</time></trkpt><trkpt lat="43.4531064" lon="11.178089"><ele>127.0</ele><time>2026-04-17T15:27:38.296Z</time></trkpt><trkpt lat="43.4531566" lon="11.1780342"><ele>127.0</ele><time>2026-04-17T15:27:41.298Z</time></trkpt><trkpt lat="43.4532049" lon="11.1779446"><ele>127.0</ele><time>2026-04-17T15:27:46.295Z</time></trkpt><trkpt lat="43.4532615" lon="11.1778779"><ele>127.71428571428572</ele><time>2026-04-17T15:27:50.293Z</time></trkpt><trkpt lat="43.4533179" lon="11.1778209"><ele>128.42857142857142</ele><time>2026-04-17T15:27:53.295Z</time></trkpt><trkpt lat="43.4533774" lon="11.1777723"><ele>129.14285714285714</ele><time>2026-04-17T15:27:56.3Z</time></trkpt><trkpt lat="43.4534363" lon="11.1777203"><ele>129.85714285714286</ele><time>2026-04-17T15:27:59.29Z</time></trkpt><trkpt lat="43.4534922" lon="11.1776654"><ele>130.57142857142858</ele><time>2026-04-17T15:28:02.303Z</time></trkpt><trkpt lat="43.4535639" lon="11.1775998"><ele>131.28571428571428</ele><time>2026-04-17T15:28:06.285Z</time></trkpt><trkpt lat="43.4536156" lon="11.1775465"><ele>132.0</ele><time>2026-04-17T15:28:09.303Z</time></trkpt><trkpt lat="43.4536657" lon="11.1774896"><ele>132.0</ele><time>2026-04-17T15:28:13.301Z</time></trkpt><trkpt lat="43.4537343" lon="11.1774238"><ele>132.0</ele><time>2026-04-17T15:28:17.294Z</time></trkpt><trkpt lat="43.4538075" lon="11.1773814"><ele>132.0</ele><time>2026-04-17T15:28:21.288Z</time></trkpt><trkpt lat="43.4538733" lon="11.1773495"><ele>132.0</ele><time>2026-04-17T15:28:24.302Z</time></trkpt><trkpt lat="43.4539411" lon="11.1772981"><ele>132.0</ele><time>2026-04-17T15:28:28.296Z</time></trkpt><trkpt lat="43.4540008" lon="11.1772509"><ele>132.0</ele><time>2026-04-17T15:28:32.292Z</time></trkpt><trkpt lat="43.4540713" lon="11.1772052"><ele>133.28571428571428</ele><time>2026-04-17T15:28:36.311Z</time></trkpt><trkpt lat="43.45414" lon="11.1771613"><ele>134.57142857142858</ele><time>2026-04-17T15:28:40.299Z</time></trkpt><trkpt lat="43.4542071" lon="11.1771256"><ele>135.85714285714286</ele><time>2026-04-17T15:28:44.302Z</time></trkpt><trkpt lat="43.4542743" lon="11.177081"><ele>137.14285714285714</ele><time>2026-04-17T15:28:48.298Z</time></trkpt><trkpt lat="43.4543444" lon="11.1770544"><ele>138.42857142857142</ele><time>2026-04-17T15:28:52.304Z</time></trkpt><trkpt lat="43.4544145" lon="11.1770163"><ele>139.71428571428572</ele><time>2026-04-17T15:28:56.295Z</time></trkpt><trkpt lat="43.4544796" lon="11.176981"><ele>141.0</ele><time>2026-04-17T15:29:00.302Z</time></trkpt><trkpt lat="43.4545484" lon="11.1769479"><ele>141.0</ele><time>2026-04-17T15:29:04.301Z</time></trkpt><trkpt lat="43.4546055" lon="11.1769035"><ele>141.0</ele><time>2026-04-17T15:29:08.299Z</time></trkpt><trkpt lat="43.4546796" lon="11.1768531"><ele>141.0</ele><time>2026-04-17T15:29:12.297Z</time></trkpt><trkpt lat="43.454722" lon="11.1767817"><ele>141.0</ele><time>2026-04-17T15:29:15.302Z</time></trkpt><trkpt lat="43.4547494" lon="11.1766832"><ele>141.0</ele><time>2026-04-17T15:29:19.293Z</time></trkpt><trkpt lat="43.4547438" lon="11.1765676"><ele>141.0</ele><time>2026-04-17T15:29:23.306Z</time></trkpt><trkpt lat="43.4547296" lon="11.1764532"><ele>140.8</ele><time>2026-04-17T15:29:26.295Z</time></trkpt><trkpt lat="43.454719" lon="11.1763643"><ele>140.6</ele><time>2026-04-17T15:29:28.3Z</time></trkpt><trkpt lat="43.454707" lon="11.1762548"><ele>140.4</ele><time>2026-04-17T15:29:30.292Z</time></trkpt><trkpt lat="43.4547172" lon="11.1761254"><ele>140.2</ele><time>2026-04-17T15:29:32.304Z</time></trkpt><trkpt lat="43.4547039" lon="11.1759861"><ele>140.0</ele><time>2026-04-17T15:29:34.296Z</time></trkpt><trkpt lat="43.4547027" lon="11.1758243"><ele>140.0</ele><time>2026-04-17T15:29:36.364Z</time></trkpt><trkpt lat="43.4547105" lon="11.1757271"><ele>140.0</ele><time>2026-04-17T15:29:37.295Z</time></trkpt><trkpt lat="43.4547135" lon="11.1756072"><ele>140.0</ele><time>2026-04-17T15:29:38.295Z</time></trkpt><trkpt lat="43.4547159" lon="11.1754793"><ele>140.0</ele><time>2026-04-17T15:29:39.288Z</time></trkpt><trkpt lat="43.4547208" lon="11.1753492"><ele>140.0</ele><time>2026-04-17T15:29:40.366Z</time></trkpt><trkpt lat="43.4547351" lon="11.1752108"><ele>140.0</ele><time>2026-04-17T15:29:41.366Z</time></trkpt><trkpt lat="43.4547555" lon="11.1750624"><ele>138.0</ele><time>2026-04-17T15:29:42.291Z</time></trkpt><trkpt lat="43.4547708" lon="11.1749182"><ele>136.0</ele><time>2026-04-17T15:29:43.305Z</time></trkpt><trkpt lat="43.4547627" lon="11.1747586"><ele>134.0</ele><time>2026-04-17T15:29:44.303Z</time></trkpt><trkpt lat="43.4547524" lon="11.1745975"><ele>132.0</ele><time>2026-04-17T15:29:45.309Z</time></trkpt><trkpt lat="43.4547599" lon="11.174436"><ele>131.0</ele><time>2026-04-17T15:29:46.3Z</time></trkpt><trkpt lat="43.4547658" lon="11.1742729"><ele>130.0</ele><time>2026-04-17T15:29:47.298Z</time></trkpt><trkpt lat="43.4547724" lon="11.174114"><ele>129.0</ele><time>2026-04-17T15:29:48.308Z</time></trkpt><trkpt lat="43.4547794" lon="11.1739584"><ele>128.0</ele><time>2026-04-17T15:29:49.289Z</time></trkpt><trkpt lat="43.4547952" lon="11.173807"><ele>127.60000000000001</ele><time>2026-04-17T15:29:50.296Z</time></trkpt><trkpt lat="43.4548123" lon="11.173657"><ele>127.20000000000002</ele><time>2026-04-17T15:29:51.293Z</time></trkpt><trkpt lat="43.4548234" lon="11.1735057"><ele>126.8</ele><time>2026-04-17T15:29:52.307Z</time></trkpt><trkpt lat="43.45484" lon="11.1733581"><ele>126.4</ele><time>2026-04-17T15:29:53.3Z</time></trkpt><trkpt lat="43.4548557" lon="11.1732147"><ele>126.0</ele><time>2026-04-17T15:29:54.292Z</time></trkpt><trkpt lat="43.4548806" lon="11.1730752"><ele>125.4</ele><time>2026-04-17T15:29:55.3Z</time></trkpt><trkpt lat="43.45491" lon="11.1729338"><ele>124.8</ele><time>2026-04-17T15:29:56.296Z</time></trkpt><trkpt lat="43.4549478" lon="11.1727907"><ele>124.20000000000002</ele><time>2026-04-17T15:29:57.291Z</time></trkpt><trkpt lat="43.4549941" lon="11.1726553"><ele>123.60000000000001</ele><time>2026-04-17T15:29:58.293Z</time></trkpt><trkpt lat="43.4550424" lon="11.172518"><ele>123.0</ele><time>2026-04-17T15:29:59.294Z</time></trkpt><trkpt lat="43.4550835" lon="11.1723706"><ele>122.0</ele><time>2026-04-17T15:30:00.371Z</time></trkpt><trkpt lat="43.4551169" lon="11.1722261"><ele>121.0</ele><time>2026-04-17T15:30:01.365Z</time></trkpt><trkpt lat="43.4551388" lon="11.1720685"><ele>120.0</ele><time>2026-04-17T15:30:02.304Z</time></trkpt><trkpt lat="43.4551513" lon="11.1718944"><ele>119.0</ele><time>2026-04-17T15:30:03.293Z</time></trkpt><trkpt lat="43.455161" lon="11.1717233"><ele>119.0</ele><time>2026-04-17T15:30:04.3Z</time></trkpt><trkpt lat="43.4551715" lon="11.1715595"><ele>119.0</ele><time>2026-04-17T15:30:05.276Z</time></trkpt><trkpt lat="43.4551885" lon="11.1713837"><ele>119.0</ele><time>2026-04-17T15:30:06.366Z</time></trkpt><trkpt lat="43.4552038" lon="11.1712149"><ele>119.0</ele><time>2026-04-17T15:30:07.287Z</time></trkpt><trkpt lat="43.4552223" lon="11.1710378"><ele>118.25</ele><time>2026-04-17T15:30:08.297Z</time></trkpt><trkpt lat="43.4552526" lon="11.170868"><ele>117.5</ele><time>2026-04-17T15:30:09.298Z</time></trkpt><trkpt lat="43.4553045" lon="11.1707093"><ele>116.75</ele><time>2026-04-17T15:30:10.379Z</time></trkpt><trkpt lat="43.4553778" lon="11.1705829"><ele>116.0</ele><time>2026-04-17T15:30:11.298Z</time></trkpt><trkpt lat="43.4554724" lon="11.1704768"><ele>116.0</ele><time>2026-04-17T15:30:12.3Z</time></trkpt><trkpt lat="43.4555711" lon="11.1703798"><ele>116.0</ele><time>2026-04-17T15:30:13.306Z</time></trkpt><trkpt lat="43.4556691" lon="11.1702841"><ele>116.0</ele><time>2026-04-17T15:30:14.376Z</time></trkpt><trkpt lat="43.4557587" lon="11.1702116"><ele>116.0</ele><time>2026-04-17T15:30:15.345Z</time></trkpt><trkpt lat="43.4558497" lon="11.1701477"><ele>116.0</ele><time>2026-04-17T15:30:16.366Z</time></trkpt><trkpt lat="43.4559216" lon="11.1700763"><ele>115.99999999999999</ele><time>2026-04-17T15:30:17.285Z</time></trkpt><trkpt lat="43.4559862" lon="11.169985"><ele>116.0</ele><time>2026-04-17T15:30:18.278Z</time></trkpt><trkpt lat="43.4560487" lon="11.1699067"><ele>116.0</ele><time>2026-04-17T15:30:19.276Z</time></trkpt><trkpt lat="43.4561032" lon="11.1698411"><ele>116.0</ele><time>2026-04-17T15:30:20.274Z</time></trkpt><trkpt lat="43.4561633" lon="11.169788"><ele>115.99999999999999</ele><time>2026-04-17T15:30:21.29Z</time></trkpt><trkpt lat="43.4562216" lon="11.1697188"><ele>116.0</ele><time>2026-04-17T15:30:22.29Z</time></trkpt><trkpt lat="43.4562699" lon="11.1696525"><ele>117.19999999999999</ele><time>2026-04-17T15:30:23.305Z</time></trkpt><trkpt lat="43.4563306" lon="11.1695069"><ele>118.39999999999999</ele><time>2026-04-17T15:30:25.284Z</time></trkpt><trkpt lat="43.4564181" lon="11.1693808"><ele>119.6</ele><time>2026-04-17T15:30:27.285Z</time></trkpt><trkpt lat="43.4564781" lon="11.1693205"><ele>120.8</ele><time>2026-04-17T15:30:28.273Z</time></trkpt><trkpt lat="43.4565273" lon="11.169252"><ele>122.0</ele><time>2026-04-17T15:30:29.306Z</time></trkpt><trkpt lat="43.4565686" lon="11.169183"><ele>121.99999999999999</ele><time>2026-04-17T15:30:30.37Z</time></trkpt><trkpt lat="43.4566328" lon="11.1690369"><ele>122.0</ele><time>2026-04-17T15:30:32.293Z</time></trkpt><trkpt lat="43.456647" lon="11.1689411"><ele>122.0</ele><time>2026-04-17T15:30:33.298Z</time></trkpt><trkpt lat="43.4566806" lon="11.1688588"><ele>122.0</ele><time>2026-04-17T15:30:34.276Z</time></trkpt><trkpt lat="43.4567155" lon="11.1687775"><ele>121.99999999999999</ele><time>2026-04-17T15:30:35.285Z</time></trkpt><trkpt lat="43.4567486" lon="11.1686937"><ele>122.0</ele><time>2026-04-17T15:30:36.371Z</time></trkpt><trkpt lat="43.4567813" lon="11.1686183"><ele>121.57142857142856</ele><time>2026-04-17T15:30:37.284Z</time></trkpt><trkpt lat="43.456817" lon="11.1685438"><ele>121.14285714285714</ele><time>2026-04-17T15:30:38.311Z</time></trkpt><trkpt lat="43.4568542" lon="11.16847"><ele>120.71428571428571</ele><time>2026-04-17T15:30:39.381Z</time></trkpt><trkpt lat="43.456929" lon="11.1683324"><ele>120.28571428571428</ele><time>2026-04-17T15:30:41.293Z</time></trkpt><trkpt lat="43.4569698" lon="11.1682662"><ele>119.85714285714286</ele><time>2026-04-17T15:30:42.299Z</time></trkpt><trkpt lat="43.4570108" lon="11.1681992"><ele>119.42857142857143</ele><time>2026-04-17T15:30:43.272Z</time></trkpt><trkpt lat="43.4570536" lon="11.1681289"><ele>119.0</ele><time>2026-04-17T15:30:44.28Z</time></trkpt><trkpt lat="43.4570948" lon="11.1680584"><ele>119.6</ele><time>2026-04-17T15:30:45.375Z</time></trkpt><trkpt lat="43.4571674" lon="11.1679189"><ele>120.2</ele><time>2026-04-17T15:30:47.337Z</time></trkpt><trkpt lat="43.4572429" lon="11.1677793"><ele>120.79999999999998</ele><time>2026-04-17T15:30:49.354Z</time></trkpt><trkpt lat="43.4572755" lon="11.1677014"><ele>121.39999999999999</ele><time>2026-04-17T15:30:50.373Z</time></trkpt><trkpt lat="43.4573115" lon="11.167551"><ele>122.0</ele><time>2026-04-17T15:30:52.275Z</time></trkpt><trkpt lat="43.4573795" lon="11.1674143"><ele>121.0</ele><time>2026-04-17T15:30:54.301Z</time></trkpt><trkpt lat="43.457462" lon="11.1672909"><ele>120.0</ele><time>2026-04-17T15:30:56.294Z</time></trkpt><trkpt lat="43.4575482" lon="11.1671748"><ele>119.0</ele><time>2026-04-17T15:30:58.295Z</time></trkpt><trkpt lat="43.4576138" lon="11.1670469"><ele>118.0</ele><time>2026-04-17T15:31:00.293Z</time></trkpt><trkpt lat="43.4576726" lon="11.1669197"><ele>118.0</ele><time>2026-04-17T15:31:02.3Z</time></trkpt><trkpt lat="43.4577487" lon="11.1668028"><ele>118.00000000000001</ele><time>2026-04-17T15:31:04.292Z</time></trkpt><trkpt lat="43.457812" lon="11.1666963"><ele>118.00000000000001</ele><time>2026-04-17T15:31:06.304Z</time></trkpt><trkpt lat="43.4578605" lon="11.1665921"><ele>118.0</ele><time>2026-04-17T15:31:08.303Z</time></trkpt><trkpt lat="43.4579227" lon="11.1664763"><ele>118.0</ele><time>2026-04-17T15:31:10.367Z</time></trkpt><trkpt lat="43.4579822" lon="11.1663416"><ele>118.00000000000001</ele><time>2026-04-17T15:31:12.305Z</time></trkpt><trkpt lat="43.4580418" lon="11.1661841"><ele>118.0</ele><time>2026-04-17T15:31:14.289Z</time></trkpt><trkpt lat="43.4580748" lon="11.1660974"><ele>118.0</ele><time>2026-04-17T15:31:15.287Z</time></trkpt><trkpt lat="43.4581069" lon="11.1660051"><ele>118.0</ele><time>2026-04-17T15:31:16.365Z</time></trkpt><trkpt lat="43.4581711" lon="11.1659222"><ele>118.00000000000001</ele><time>2026-04-17T15:31:17.275Z</time></trkpt><trkpt lat="43.4582199" lon="11.1658361"><ele>118.0</ele><time>2026-04-17T15:31:18.293Z</time></trkpt><trkpt lat="43.4582372" lon="11.1657429"><ele>117.16666666666667</ele><time>2026-04-17T15:31:19.3Z</time></trkpt><trkpt lat="43.458262" lon="11.1656395"><ele>116.33333333333334</ele><time>2026-04-17T15:31:20.377Z</time></trkpt><trkpt lat="43.4582704" lon="11.1655469"><ele>115.5</ele><time>2026-04-17T15:31:21.355Z</time></trkpt><trkpt lat="43.4582915" lon="11.165452"><ele>114.66666666666666</ele><time>2026-04-17T15:31:22.283Z</time></trkpt><trkpt lat="43.4583168" lon="11.1653468"><ele>113.83333333333333</ele><time>2026-04-17T15:31:23.294Z</time></trkpt><trkpt lat="43.4583536" lon="11.165226"><ele>113.0</ele><time>2026-04-17T15:31:24.283Z</time></trkpt><trkpt lat="43.4583877" lon="11.1650829"><ele>113.0</ele><time>2026-04-17T15:31:25.364Z</time></trkpt><trkpt lat="43.4584315" lon="11.1649581"><ele>113.00000000000001</ele><time>2026-04-17T15:31:26.362Z</time></trkpt><trkpt lat="43.4584736" lon="11.1648309"><ele>113.00000000000001</ele><time>2026-04-17T15:31:27.298Z</time></trkpt><trkpt lat="43.4585136" lon="11.164679"><ele>113.0</ele><time>2026-04-17T15:31:28.295Z</time></trkpt><trkpt lat="43.4585571" lon="11.1645307"><ele>113.0</ele><time>2026-04-17T15:31:29.291Z</time></trkpt><trkpt lat="43.458602" lon="11.1643953"><ele>112.2</ele><time>2026-04-17T15:31:30.364Z</time></trkpt><trkpt lat="43.4586484" lon="11.1642718"><ele>111.4</ele><time>2026-04-17T15:31:31.368Z</time></trkpt><trkpt lat="43.4586893" lon="11.1641494"><ele>110.60000000000001</ele><time>2026-04-17T15:31:32.286Z</time></trkpt><trkpt lat="43.4587278" lon="11.1640069"><ele>109.80000000000001</ele><time>2026-04-17T15:31:33.311Z</time></trkpt><trkpt lat="43.4587592" lon="11.1638864"><ele>109.0</ele><time>2026-04-17T15:31:34.289Z</time></trkpt><trkpt lat="43.4588036" lon="11.1637324"><ele>109.0</ele><time>2026-04-17T15:31:36.369Z</time></trkpt><trkpt lat="43.4588525" lon="11.1635763"><ele>109.0</ele><time>2026-04-17T15:31:38.307Z</time></trkpt><trkpt lat="43.4589004" lon="11.1634354"><ele>109.0</ele><time>2026-04-17T15:31:40.294Z</time></trkpt><trkpt lat="43.4589445" lon="11.1632811"><ele>109.0</ele><time>2026-04-17T15:31:42.296Z</time></trkpt><trkpt lat="43.4589626" lon="11.1631972"><ele>109.0</ele><time>2026-04-17T15:31:43.305Z</time></trkpt><trkpt lat="43.459003" lon="11.16305"><ele>108.80000000000001</ele><time>2026-04-17T15:31:45.367Z</time></trkpt><trkpt lat="43.459064" lon="11.1629164"><ele>108.60000000000001</ele><time>2026-04-17T15:31:47.294Z</time></trkpt><trkpt lat="43.4591045" lon="11.1628494"><ele>108.4</ele><time>2026-04-17T15:31:48.289Z</time></trkpt><trkpt lat="43.459154" lon="11.1627276"><ele>108.2</ele><time>2026-04-17T15:31:50.298Z</time></trkpt><trkpt lat="43.4591998" lon="11.1625772"><ele>108.0</ele><time>2026-04-17T15:31:52.301Z</time></trkpt><trkpt lat="43.4592464" lon="11.1624228"><ele>107.33333333333333</ele><time>2026-04-17T15:31:54.367Z</time></trkpt><trkpt lat="43.459289" lon="11.1622703"><ele>106.66666666666666</ele><time>2026-04-17T15:31:56.364Z</time></trkpt><trkpt lat="43.4593116" lon="11.1621889"><ele>106.0</ele><time>2026-04-17T15:31:57.291Z</time></trkpt><trkpt lat="43.4593362" lon="11.1620882"><ele>105.33333333333333</ele><time>2026-04-17T15:31:58.277Z</time></trkpt><trkpt lat="43.4593583" lon="11.1619756"><ele>104.66666666666666</ele><time>2026-04-17T15:31:59.289Z</time></trkpt><trkpt lat="43.4593687" lon="11.1618687"><ele>104.0</ele><time>2026-04-17T15:32:00.294Z</time></trkpt><trkpt lat="43.4593803" lon="11.1617523"><ele>104.0</ele><time>2026-04-17T15:32:01.302Z</time></trkpt><trkpt lat="43.4593987" lon="11.161621"><ele>104.0</ele><time>2026-04-17T15:32:02.283Z</time></trkpt><trkpt lat="43.4594373" lon="11.1615117"><ele>104.0</ele><time>2026-04-17T15:32:03.305Z</time></trkpt><trkpt lat="43.4594829" lon="11.1614026"><ele>104.0</ele><time>2026-04-17T15:32:04.363Z</time></trkpt><trkpt lat="43.4595447" lon="11.1613093"><ele>104.0</ele><time>2026-04-17T15:32:05.369Z</time></trkpt><trkpt lat="43.4596266" lon="11.1612335"><ele>104.4</ele><time>2026-04-17T15:32:06.366Z</time></trkpt><trkpt lat="43.4597358" lon="11.1611735"><ele>104.80000000000001</ele><time>2026-04-17T15:32:07.295Z</time></trkpt><trkpt lat="43.4598371" lon="11.1611287"><ele>105.19999999999999</ele><time>2026-04-17T15:32:08.298Z</time></trkpt><trkpt lat="43.4599327" lon="11.1610917"><ele>105.6</ele><time>2026-04-17T15:32:09.287Z</time></trkpt><trkpt lat="43.46003" lon="11.1610488"><ele>106.0</ele><time>2026-04-17T15:32:10.364Z</time></trkpt><trkpt lat="43.4601221" lon="11.1610165"><ele>106.00000000000001</ele><time>2026-04-17T15:32:11.293Z</time></trkpt><trkpt lat="43.4602104" lon="11.1609755"><ele>106.0</ele><time>2026-04-17T15:32:12.292Z</time></trkpt><trkpt lat="43.4602872" lon="11.1609419"><ele>106.0</ele><time>2026-04-17T15:32:13.285Z</time></trkpt><trkpt lat="43.4603521" lon="11.1609135"><ele>106.0</ele><time>2026-04-17T15:32:14.291Z</time></trkpt><trkpt lat="43.4604221" lon="11.1608779"><ele>106.00000000000001</ele><time>2026-04-17T15:32:15.367Z</time></trkpt><trkpt lat="43.4604934" lon="11.1608259"><ele>106.0</ele><time>2026-04-17T15:32:16.362Z</time></trkpt><trkpt lat="43.4605634" lon="11.1607634"><ele>106.0</ele><time>2026-04-17T15:32:17.293Z</time></trkpt><trkpt lat="43.4606771" lon="11.1607263"><ele>106.0</ele><time>2026-04-17T15:32:19.294Z</time></trkpt><trkpt lat="43.4607845" lon="11.1606928"><ele>106.0</ele><time>2026-04-17T15:32:21.367Z</time></trkpt><trkpt lat="43.4608794" lon="11.1606661"><ele>106.0</ele><time>2026-04-17T15:32:23.292Z</time></trkpt><trkpt lat="43.4609672" lon="11.1606425"><ele>106.0</ele><time>2026-04-17T15:32:25.378Z</time></trkpt><trkpt lat="43.4610579" lon="11.1606596"><ele>106.6</ele><time>2026-04-17T15:32:27.295Z</time></trkpt><trkpt lat="43.4611336" lon="11.1605992"><ele>107.19999999999999</ele><time>2026-04-17T15:32:29.296Z</time></trkpt><trkpt lat="43.4612088" lon="11.1605271"><ele>107.80000000000001</ele><time>2026-04-17T15:32:31.366Z</time></trkpt><trkpt lat="43.4612746" lon="11.1604311"><ele>108.4</ele><time>2026-04-17T15:32:33.279Z</time></trkpt><trkpt lat="43.4613314" lon="11.1603335"><ele>109.0</ele><time>2026-04-17T15:32:35.304Z</time></trkpt><trkpt lat="43.4613962" lon="11.1602539"><ele>109.0</ele><time>2026-04-17T15:32:37.291Z</time></trkpt><trkpt lat="43.4614449" lon="11.16017"><ele>109.0</ele><time>2026-04-17T15:32:39.298Z</time></trkpt><trkpt lat="43.4614204" lon="11.1600581"><ele>109.0</ele><time>2026-04-17T15:32:42.284Z</time></trkpt><trkpt lat="43.4613383" lon="11.1599536"><ele>109.0</ele><time>2026-04-17T15:32:44.292Z</time></trkpt><trkpt lat="43.4612361" lon="11.1598697"><ele>109.0</ele><time>2026-04-17T15:32:46.288Z</time></trkpt><trkpt lat="43.4611169" lon="11.1597789"><ele>110.0</ele><time>2026-04-17T15:32:48.292Z</time></trkpt><trkpt lat="43.4610515" lon="11.1597353"><ele>111.0</ele><time>2026-04-17T15:32:49.29Z</time></trkpt><trkpt lat="43.4609866" lon="11.1596959"><ele>112.0</ele><time>2026-04-17T15:32:50.292Z</time></trkpt><trkpt lat="43.4609225" lon="11.1596551"><ele>113.0</ele><time>2026-04-17T15:32:51.295Z</time></trkpt><trkpt lat="43.4608623" lon="11.1596171"><ele>114.0</ele><time>2026-04-17T15:32:52.296Z</time></trkpt><trkpt lat="43.460799" lon="11.1595848"><ele>115.00000000000001</ele><time>2026-04-17T15:32:53.301Z</time></trkpt><trkpt lat="43.4607364" lon="11.1595587"><ele>116.00000000000001</ele><time>2026-04-17T15:32:54.305Z</time></trkpt><trkpt lat="43.4606744" lon="11.1595388"><ele>116.0</ele><time>2026-04-17T15:32:55.344Z</time></trkpt><trkpt lat="43.4605582" lon="11.1595029"><ele>116.0</ele><time>2026-04-17T15:32:57.305Z</time></trkpt><trkpt lat="43.4604524" lon="11.1595026"><ele>116.0</ele><time>2026-04-17T15:32:59.306Z</time></trkpt><trkpt lat="43.4603428" lon="11.1594976"><ele>116.0</ele><time>2026-04-17T15:33:01.298Z</time></trkpt><trkpt lat="43.4602401" lon="11.1595025"><ele>116.0</ele><time>2026-04-17T15:33:03.297Z</time></trkpt><trkpt lat="43.4601372" lon="11.1595143"><ele>115.8</ele><time>2026-04-17T15:33:05.291Z</time></trkpt><trkpt lat="43.460037" lon="11.1595311"><ele>115.6</ele><time>2026-04-17T15:33:07.289Z</time></trkpt><trkpt lat="43.4599415" lon="11.1595553"><ele>115.4</ele><time>2026-04-17T15:33:09.294Z</time></trkpt><trkpt lat="43.4598475" lon="11.1595797"><ele>115.2</ele><time>2026-04-17T15:33:11.294Z</time></trkpt><trkpt lat="43.4597561" lon="11.1596166"><ele>115.0</ele><time>2026-04-17T15:33:13.293Z</time></trkpt><trkpt lat="43.4596629" lon="11.1596483"><ele>114.6</ele><time>2026-04-17T15:33:15.292Z</time></trkpt><trkpt lat="43.4595776" lon="11.1596609"><ele>114.2</ele><time>2026-04-17T15:33:17.301Z</time></trkpt><trkpt lat="43.4594838" lon="11.1596685"><ele>113.80000000000001</ele><time>2026-04-17T15:33:19.289Z</time></trkpt><trkpt lat="43.4593877" lon="11.1597015"><ele>113.4</ele><time>2026-04-17T15:33:21.302Z</time></trkpt><trkpt lat="43.459293" lon="11.1597613"><ele>113.0</ele><time>2026-04-17T15:33:23.281Z</time></trkpt><trkpt lat="43.4591974" lon="11.1598145"><ele>113.0</ele><time>2026-04-17T15:33:25.284Z</time></trkpt><trkpt lat="43.4591071" lon="11.1598556"><ele>113.00000000000001</ele><time>2026-04-17T15:33:27.274Z</time></trkpt><trkpt lat="43.4590148" lon="11.1598985"><ele>113.00000000000001</ele><time>2026-04-17T15:33:29.354Z</time></trkpt><trkpt lat="43.4589159" lon="11.1599249"><ele>113.0</ele><time>2026-04-17T15:33:31.296Z</time></trkpt><trkpt lat="43.4588242" lon="11.1599659"><ele>113.0</ele><time>2026-04-17T15:33:33.292Z</time></trkpt><trkpt lat="43.4587423" lon="11.1600228"><ele>112.0</ele><time>2026-04-17T15:33:35.276Z</time></trkpt><trkpt lat="43.4586499" lon="11.1600386"><ele>111.00000000000001</ele><time>2026-04-17T15:33:37.302Z</time></trkpt><trkpt lat="43.4585779" lon="11.1599859"><ele>110.00000000000001</ele><time>2026-04-17T15:33:39.303Z</time></trkpt><trkpt lat="43.4585308" lon="11.1598685"><ele>109.0</ele><time>2026-04-17T15:33:41.301Z</time></trkpt><trkpt lat="43.458478" lon="11.1597519"><ele>108.0</ele><time>2026-04-17T15:33:43.299Z</time></trkpt><trkpt lat="43.4584231" lon="11.1596344"><ele>108.0</ele><time>2026-04-17T15:33:45.296Z</time></trkpt><trkpt lat="43.45837" lon="11.1595263"><ele>108.00000000000001</ele><time>2026-04-17T15:33:47.3Z</time></trkpt><trkpt lat="43.4583255" lon="11.1594114"><ele>108.00000000000001</ele><time>2026-04-17T15:33:49.3Z</time></trkpt><trkpt lat="43.4582778" lon="11.1592943"><ele>108.0</ele><time>2026-04-17T15:33:51.32Z</time></trkpt><trkpt lat="43.4582315" lon="11.1591908"><ele>108.0</ele><time>2026-04-17T15:33:53.299Z</time></trkpt><trkpt lat="43.458181" lon="11.1590933"><ele>107.83333333333333</ele><time>2026-04-17T15:33:55.301Z</time></trkpt><trkpt lat="43.4581201" lon="11.1590102"><ele>107.66666666666666</ele><time>2026-04-17T15:33:57.3Z</time></trkpt><trkpt lat="43.4580559" lon="11.1589437"><ele>107.5</ele><time>2026-04-17T15:33:59.296Z</time></trkpt><trkpt lat="43.457983" lon="11.1589028"><ele>107.33333333333333</ele><time>2026-04-17T15:34:01.294Z</time></trkpt><trkpt lat="43.4579192" lon="11.1588628"><ele>107.16666666666666</ele><time>2026-04-17T15:34:03.299Z</time></trkpt><trkpt lat="43.4578534" lon="11.1587928"><ele>107.0</ele><time>2026-04-17T15:34:06.374Z</time></trkpt><trkpt lat="43.4578372" lon="11.1586953"><ele>106.99999999999999</ele><time>2026-04-17T15:34:09.383Z</time></trkpt><trkpt lat="43.4578146" lon="11.1585673"><ele>107.0</ele><time>2026-04-17T15:34:12.37Z</time></trkpt><trkpt lat="43.4577525" lon="11.1585411"><ele>107.0</ele><time>2026-04-17T15:34:14.292Z</time></trkpt><trkpt lat="43.4576871" lon="11.1585646"><ele>107.0</ele><time>2026-04-17T15:34:16.363Z</time></trkpt><trkpt lat="43.4576304" lon="11.1586281"><ele>106.99999999999999</ele><time>2026-04-17T15:34:18.296Z</time></trkpt><trkpt lat="43.4575859" lon="11.1586924"><ele>107.0</ele><time>2026-04-17T15:34:20.281Z</time></trkpt><trkpt lat="43.4575003" lon="11.1587403"><ele>106.99999999999999</ele><time>2026-04-17T15:34:23.288Z</time></trkpt><trkpt lat="43.4574327" lon="11.1587578"><ele>107.0</ele><time>2026-04-17T15:34:25.276Z</time></trkpt><trkpt lat="43.4573618" lon="11.1587635"><ele>107.0</ele><time>2026-04-17T15:34:27.309Z</time></trkpt><trkpt lat="43.4572866" lon="11.1587638"><ele>107.0</ele><time>2026-04-17T15:34:29.293Z</time></trkpt><trkpt lat="43.4571744" lon="11.1587707"><ele>106.99999999999999</ele><time>2026-04-17T15:34:31.296Z</time></trkpt><trkpt lat="43.4570805" lon="11.1587626"><ele>107.0</ele><time>2026-04-17T15:34:33.297Z</time></trkpt><trkpt lat="43.4569877" lon="11.1587412"><ele>106.83333333333333</ele><time>2026-04-17T15:34:35.287Z</time></trkpt><trkpt lat="43.456903" lon="11.1587066"><ele>106.66666666666666</ele><time>2026-04-17T15:34:37.292Z</time></trkpt><trkpt lat="43.4568239" lon="11.15867"><ele>106.5</ele><time>2026-04-17T15:34:39.298Z</time></trkpt><trkpt lat="43.4567468" lon="11.1586562"><ele>106.33333333333334</ele><time>2026-04-17T15:34:41.376Z</time></trkpt><trkpt lat="43.4566715" lon="11.158713"><ele>106.16666666666667</ele><time>2026-04-17T15:34:43.303Z</time></trkpt><trkpt lat="43.4566008" lon="11.1587113"><ele>106.0</ele><time>2026-04-17T15:34:47.304Z</time></trkpt><trkpt lat="43.456589" lon="11.1586206"><ele>106.00000000000001</ele><time>2026-04-17T15:34:50.3Z</time></trkpt><trkpt lat="43.4565599" lon="11.1585101"><ele>106.0</ele><time>2026-04-17T15:34:53.293Z</time></trkpt><trkpt lat="43.4565293" lon="11.1583939"><ele>106.0</ele><time>2026-04-17T15:34:55.37Z</time></trkpt><trkpt lat="43.456438" lon="11.1583246"><ele>106.0</ele><time>2026-04-17T15:34:57.277Z</time></trkpt><trkpt lat="43.4563813" lon="11.1582657"><ele>106.00000000000001</ele><time>2026-04-17T15:34:58.299Z</time></trkpt><trkpt lat="43.4563098" lon="11.1582137"><ele>106.0</ele><time>2026-04-17T15:34:59.295Z</time></trkpt><trkpt lat="43.4562407" lon="11.1581652"><ele>106.16666666666667</ele><time>2026-04-17T15:35:00.387Z</time></trkpt><trkpt lat="43.4561311" lon="11.1581112"><ele>106.33333333333334</ele><time>2026-04-17T15:35:02.297Z</time></trkpt><trkpt lat="43.4560599" lon="11.1580741"><ele>106.5</ele><time>2026-04-17T15:35:03.289Z</time></trkpt><trkpt lat="43.4559907" lon="11.1580566"><ele>106.66666666666666</ele><time>2026-04-17T15:35:04.294Z</time></trkpt><trkpt lat="43.4558893" lon="11.158031"><ele>106.83333333333333</ele><time>2026-04-17T15:35:06.376Z</time></trkpt><trkpt lat="43.4558237" lon="11.158008"><ele>107.0</ele><time>2026-04-17T15:35:08.301Z</time></trkpt><trkpt lat="43.4557578" lon="11.158003"><ele>106.99999999999999</ele><time>2026-04-17T15:35:10.292Z</time></trkpt><trkpt lat="43.4556356" lon="11.1580067"><ele>107.0</ele><time>2026-04-17T15:35:14.287Z</time></trkpt><trkpt lat="43.4555524" lon="11.1579892"><ele>107.0</ele><time>2026-04-17T15:35:17.309Z</time></trkpt><trkpt lat="43.4554706" lon="11.157977"><ele>107.0</ele><time>2026-04-17T15:35:20.302Z</time></trkpt><trkpt lat="43.4553939" lon="11.1579723"><ele>106.99999999999999</ele><time>2026-04-17T15:35:23.301Z</time></trkpt><trkpt lat="43.4553106" lon="11.1579841"><ele>107.0</ele><time>2026-04-17T15:35:26.293Z</time></trkpt><trkpt lat="43.4552249" lon="11.157957"><ele>107.16666666666666</ele><time>2026-04-17T15:35:29.278Z</time></trkpt><trkpt lat="43.4551467" lon="11.1578864"><ele>107.33333333333333</ele><time>2026-04-17T15:35:32.301Z</time></trkpt><trkpt lat="43.455086" lon="11.157824"><ele>107.5</ele><time>2026-04-17T15:35:34.285Z</time></trkpt><trkpt lat="43.4550325" lon="11.1577514"><ele>107.66666666666666</ele><time>2026-04-17T15:35:36.299Z</time></trkpt><trkpt lat="43.4549573" lon="11.1576768"><ele>107.83333333333333</ele><time>2026-04-17T15:35:38.284Z</time></trkpt><trkpt lat="43.454873" lon="11.1576069"><ele>108.0</ele><time>2026-04-17T15:35:40.291Z</time></trkpt><trkpt lat="43.4548006" lon="11.157507"><ele>108.0</ele><time>2026-04-17T15:35:42.293Z</time></trkpt><trkpt lat="43.4547318" lon="11.1573894"><ele>108.00000000000001</ele><time>2026-04-17T15:35:44.299Z</time></trkpt><trkpt lat="43.4546668" lon="11.1572584"><ele>108.00000000000001</ele><time>2026-04-17T15:35:46.303Z</time></trkpt><trkpt lat="43.454592" lon="11.1571588"><ele>108.0</ele><time>2026-04-17T15:35:48.293Z</time></trkpt><trkpt lat="43.4545251" lon="11.1570586"><ele>108.0</ele><time>2026-04-17T15:35:50.296Z</time></trkpt><trkpt lat="43.454462" lon="11.1569557"><ele>107.80000000000001</ele><time>2026-04-17T15:35:52.291Z</time></trkpt><trkpt lat="43.4543947" lon="11.1568606"><ele>107.60000000000001</ele><time>2026-04-17T15:35:54.285Z</time></trkpt><trkpt lat="43.4543253" lon="11.1567691"><ele>107.39999999999999</ele><time>2026-04-17T15:35:56.296Z</time></trkpt><trkpt lat="43.454262" lon="11.1566656"><ele>107.19999999999999</ele><time>2026-04-17T15:35:58.301Z</time></trkpt><trkpt lat="43.4541926" lon="11.1565765"><ele>107.0</ele><time>2026-04-17T15:36:00.29Z</time></trkpt><trkpt lat="43.4541195" lon="11.1564761"><ele>106.99999999999999</ele><time>2026-04-17T15:36:02.305Z</time></trkpt><trkpt lat="43.4540516" lon="11.1563619"><ele>107.0</ele><time>2026-04-17T15:36:04.295Z</time></trkpt><trkpt lat="43.4539891" lon="11.1562649"><ele>107.0</ele><time>2026-04-17T15:36:06.3Z</time></trkpt><trkpt lat="43.4539321" lon="11.1561823"><ele>107.0</ele><time>2026-04-17T15:36:08.281Z</time></trkpt><trkpt lat="43.4538794" lon="11.1561089"><ele>106.99999999999999</ele><time>2026-04-17T15:36:10.275Z</time></trkpt><trkpt lat="43.4538301" lon="11.1560448"><ele>107.0</ele><time>2026-04-17T15:36:12.293Z</time></trkpt><trkpt lat="43.4537822" lon="11.1559709"><ele>107.33333333333333</ele><time>2026-04-17T15:36:14.292Z</time></trkpt><trkpt lat="43.4537254" lon="11.155907"><ele>107.66666666666666</ele><time>2026-04-17T15:36:16.28Z</time></trkpt><trkpt lat="43.4536715" lon="11.1558436"><ele>108.0</ele><time>2026-04-17T15:36:18.293Z</time></trkpt><trkpt lat="43.4536395" lon="11.1557431"><ele>108.33333333333334</ele><time>2026-04-17T15:36:20.307Z</time></trkpt><trkpt lat="43.4536485" lon="11.1556297"><ele>108.66666666666667</ele><time>2026-04-17T15:36:22.317Z</time></trkpt><trkpt lat="43.4536749" lon="11.1554855"><ele>109.0</ele><time>2026-04-17T15:36:24.306Z</time></trkpt><trkpt lat="43.4536457" lon="11.1553661"><ele>109.0</ele><time>2026-04-17T15:36:26.292Z</time></trkpt><trkpt lat="43.4535558" lon="11.1553013"><ele>109.0</ele><time>2026-04-17T15:36:28.291Z</time></trkpt><trkpt lat="43.4534694" lon="11.155268"><ele>109.0</ele><time>2026-04-17T15:36:30.295Z</time></trkpt><trkpt lat="43.4533722" lon="11.1552153"><ele>109.0</ele><time>2026-04-17T15:36:32.289Z</time></trkpt><trkpt lat="43.4532937" lon="11.1551745"><ele>109.0</ele><time>2026-04-17T15:36:34.306Z</time></trkpt><trkpt lat="43.4532136" lon="11.1551317"><ele>109.00000000000001</ele><time>2026-04-17T15:36:36.289Z</time></trkpt><trkpt lat="43.4531388" lon="11.1550767"><ele>109.0</ele><time>2026-04-17T15:36:38.287Z</time></trkpt><trkpt lat="43.4530554" lon="11.1550172"><ele>109.0</ele><time>2026-04-17T15:36:40.297Z</time></trkpt><trkpt lat="43.4529848" lon="11.1549618"><ele>109.0</ele><time>2026-04-17T15:36:42.307Z</time></trkpt><trkpt lat="43.4529267" lon="11.1548828"><ele>109.00000000000001</ele><time>2026-04-17T15:36:44.309Z</time></trkpt><trkpt lat="43.4528627" lon="11.1548098"><ele>109.0</ele><time>2026-04-17T15:36:46.276Z</time></trkpt><trkpt lat="43.4528021" lon="11.1547479"><ele>108.83333333333334</ele><time>2026-04-17T15:36:48.29Z</time></trkpt><trkpt lat="43.4527254" lon="11.1546707"><ele>108.66666666666667</ele><time>2026-04-17T15:36:51.293Z</time></trkpt><trkpt lat="43.4526567" lon="11.1545955"><ele>108.5</ele><time>2026-04-17T15:36:53.295Z</time></trkpt><trkpt lat="43.4525992" lon="11.1545102"><ele>108.33333333333334</ele><time>2026-04-17T15:36:55.292Z</time></trkpt><trkpt lat="43.4525639" lon="11.1544269"><ele>108.16666666666667</ele><time>2026-04-17T15:36:57.284Z</time></trkpt><trkpt lat="43.4525454" lon="11.1543162"><ele>108.0</ele><time>2026-04-17T15:36:59.294Z</time></trkpt><trkpt lat="43.4525203" lon="11.1541868"><ele>108.0</ele><time>2026-04-17T15:37:01.289Z</time></trkpt><trkpt lat="43.4524965" lon="11.1540621"><ele>108.00000000000001</ele><time>2026-04-17T15:37:03.305Z</time></trkpt><trkpt lat="43.4524876" lon="11.1539417"><ele>108.00000000000001</ele><time>2026-04-17T15:37:05.29Z</time></trkpt><trkpt lat="43.4524536" lon="11.1538184"><ele>108.0</ele><time>2026-04-17T15:37:07.288Z</time></trkpt><trkpt lat="43.4524356" lon="11.1536949"><ele>108.0</ele><time>2026-04-17T15:37:09.293Z</time></trkpt><trkpt lat="43.4524257" lon="11.1535703"><ele>108.0</ele><time>2026-04-17T15:37:11.28Z</time></trkpt><trkpt lat="43.4524003" lon="11.1534534"><ele>108.0</ele><time>2026-04-17T15:37:13.285Z</time></trkpt><trkpt lat="43.4523776" lon="11.1533547"><ele>108.0</ele><time>2026-04-17T15:37:15.286Z</time></trkpt><trkpt lat="43.4523497" lon="11.1532635"><ele>108.0</ele><time>2026-04-17T15:37:17.29Z</time></trkpt><trkpt lat="43.4523057" lon="11.1531352"><ele>108.0</ele><time>2026-04-17T15:37:19.3Z</time></trkpt><trkpt lat="43.4522717" lon="11.1530175"><ele>108.0</ele><time>2026-04-17T15:37:21.294Z</time></trkpt><trkpt lat="43.4522778" lon="11.1529068"><ele>108.5</ele><time>2026-04-17T15:37:23.295Z</time></trkpt><trkpt lat="43.4522806" lon="11.1528021"><ele>109.0</ele><time>2026-04-17T15:37:25.288Z</time></trkpt><trkpt lat="43.4522275" lon="11.1527232"><ele>109.5</ele><time>2026-04-17T15:37:27.293Z</time></trkpt><trkpt lat="43.4521677" lon="11.152656"><ele>110.0</ele><time>2026-04-17T15:37:29.306Z</time></trkpt><trkpt lat="43.4520982" lon="11.1525676"><ele>110.5</ele><time>2026-04-17T15:37:32.312Z</time></trkpt><trkpt lat="43.4520501" lon="11.1524977"><ele>111.0</ele><time>2026-04-17T15:37:34.297Z</time></trkpt><trkpt lat="43.4519797" lon="11.1524526"><ele>111.5</ele><time>2026-04-17T15:37:36.283Z</time></trkpt><trkpt lat="43.4519126" lon="11.1523725"><ele>112.0</ele><time>2026-04-17T15:37:39.293Z</time></trkpt><trkpt lat="43.4518871" lon="11.1522722"><ele>112.5</ele><time>2026-04-17T15:37:42.294Z</time></trkpt><trkpt lat="43.4518761" lon="11.152158"><ele>113.0</ele><time>2026-04-17T15:37:45.285Z</time></trkpt><trkpt lat="43.4518662" lon="11.1520424"><ele>113.5</ele><time>2026-04-17T15:37:47.307Z</time></trkpt><trkpt lat="43.4518257" lon="11.1519302"><ele>114.0</ele><time>2026-04-17T15:37:49.302Z</time></trkpt><trkpt lat="43.4517835" lon="11.1518645"><ele>114.0</ele><time>2026-04-17T15:37:51.277Z</time></trkpt><trkpt lat="43.4517385" lon="11.1517968"><ele>113.99999999999999</ele><time>2026-04-17T15:37:53.306Z</time></trkpt><trkpt lat="43.4516642" lon="11.1517207"><ele>114.0</ele><time>2026-04-17T15:37:56.294Z</time></trkpt><trkpt lat="43.4516003" lon="11.1516567"><ele>114.0</ele><time>2026-04-17T15:37:58.295Z</time></trkpt><trkpt lat="43.4515371" lon="11.1515921"><ele>113.99999999999999</ele><time>2026-04-17T15:38:00.314Z</time></trkpt><trkpt lat="43.4514854" lon="11.1515351"><ele>114.0</ele><time>2026-04-17T15:38:02.285Z</time></trkpt><trkpt lat="43.4514355" lon="11.1514798"><ele>114.0</ele><time>2026-04-17T15:38:04.301Z</time></trkpt><trkpt lat="43.4513453" lon="11.1514275"><ele>113.33333333333333</ele><time>2026-04-17T15:38:07.305Z</time></trkpt><trkpt lat="43.4512809" lon="11.151405"><ele>112.66666666666666</ele><time>2026-04-17T15:38:09.291Z</time></trkpt><trkpt lat="43.4511946" lon="11.1513694"><ele>112.0</ele><time>2026-04-17T15:38:12.288Z</time></trkpt><trkpt lat="43.4511383" lon="11.1513263"><ele>111.33333333333333</ele><time>2026-04-17T15:38:14.295Z</time></trkpt><trkpt lat="43.4510677" lon="11.1512794"><ele>110.66666666666666</ele><time>2026-04-17T15:38:16.292Z</time></trkpt><trkpt lat="43.4509865" lon="11.151229"><ele>110.0</ele><time>2026-04-17T15:38:18.315Z</time></trkpt><trkpt lat="43.4509223" lon="11.1511655"><ele>110.0</ele><time>2026-04-17T15:38:20.296Z</time></trkpt><trkpt lat="43.4508452" lon="11.1510302"><ele>110.0</ele><time>2026-04-17T15:38:22.289Z</time></trkpt><trkpt lat="43.4507896" lon="11.1509575"><ele>110.0</ele><time>2026-04-17T15:38:23.293Z</time></trkpt><trkpt lat="43.4507279" lon="11.1508921"><ele>110.0</ele><time>2026-04-17T15:38:24.307Z</time></trkpt><trkpt lat="43.4506723" lon="11.1508451"><ele>110.0</ele><time>2026-04-17T15:38:25.29Z</time></trkpt><trkpt lat="43.4505625" lon="11.1507685"><ele>110.2</ele><time>2026-04-17T15:38:27.297Z</time></trkpt><trkpt lat="43.4504568" lon="11.1507109"><ele>110.4</ele><time>2026-04-17T15:38:29.291Z</time></trkpt><trkpt lat="43.4503599" lon="11.1506858"><ele>110.6</ele><time>2026-04-17T15:38:31.302Z</time></trkpt><trkpt lat="43.4502691" lon="11.1506765"><ele>110.8</ele><time>2026-04-17T15:38:33.297Z</time></trkpt><trkpt lat="43.4501858" lon="11.150709"><ele>111.0</ele><time>2026-04-17T15:38:35.283Z</time></trkpt><trkpt lat="43.4501178" lon="11.1507488"><ele>111.0</ele><time>2026-04-17T15:38:37.287Z</time></trkpt><trkpt lat="43.4500581" lon="11.1507764"><ele>111.0</ele><time>2026-04-17T15:38:39.298Z</time></trkpt><trkpt lat="43.4499867" lon="11.1508139"><ele>111.0</ele><time>2026-04-17T15:38:41.302Z</time></trkpt><trkpt lat="43.4499078" lon="11.1509021"><ele>111.0</ele><time>2026-04-17T15:38:43.291Z</time></trkpt><trkpt lat="43.4498325" lon="11.1509883"><ele>111.0</ele><time>2026-04-17T15:38:45.316Z</time></trkpt><trkpt lat="43.4497487" lon="11.1510727"><ele>111.0</ele><time>2026-04-17T15:38:47.3Z</time></trkpt><trkpt lat="43.4496581" lon="11.1511464"><ele>111.4</ele><time>2026-04-17T15:38:49.306Z</time></trkpt><trkpt lat="43.4495692" lon="11.1512022"><ele>111.8</ele><time>2026-04-17T15:38:51.298Z</time></trkpt><trkpt lat="43.4494815" lon="11.1512715"><ele>112.20000000000002</ele><time>2026-04-17T15:38:53.291Z</time></trkpt><trkpt lat="43.449403" lon="11.151356"><ele>112.60000000000001</ele><time>2026-04-17T15:38:55.302Z</time></trkpt><trkpt lat="43.4493296" lon="11.1514386"><ele>113.0</ele><time>2026-04-17T15:38:57.293Z</time></trkpt><trkpt lat="43.4492537" lon="11.1515342"><ele>113.0</ele><time>2026-04-17T15:38:59.29Z</time></trkpt><trkpt lat="43.4491783" lon="11.1516309"><ele>113.00000000000001</ele><time>2026-04-17T15:39:01.29Z</time></trkpt><trkpt lat="43.449108" lon="11.1517226"><ele>113.00000000000001</ele><time>2026-04-17T15:39:03.299Z</time></trkpt><trkpt lat="43.4490497" lon="11.151808"><ele>113.0</ele><time>2026-04-17T15:39:05.303Z</time></trkpt><trkpt lat="43.4489863" lon="11.1518798"><ele>113.0</ele><time>2026-04-17T15:39:07.293Z</time></trkpt><trkpt lat="43.4488933" lon="11.1519373"><ele>113.0</ele><time>2026-04-17T15:39:09.292Z</time></trkpt><trkpt lat="43.4488053" lon="11.1520067"><ele>113.00000000000001</ele><time>2026-04-17T15:39:11.302Z</time></trkpt><trkpt lat="43.4487285" lon="11.1520783"><ele>113.00000000000001</ele><time>2026-04-17T15:39:13.291Z</time></trkpt><trkpt lat="43.4486409" lon="11.1521456"><ele>113.0</ele><time>2026-04-17T15:39:15.287Z</time></trkpt><trkpt lat="43.448552" lon="11.1521941"><ele>113.0</ele><time>2026-04-17T15:39:17.289Z</time></trkpt><trkpt lat="43.4484534" lon="11.1522374"><ele>113.16666666666666</ele><time>2026-04-17T15:39:19.304Z</time></trkpt><trkpt lat="43.4483666" lon="11.1522578"><ele>113.33333333333333</ele><time>2026-04-17T15:39:21.303Z</time></trkpt><trkpt lat="43.448276" lon="11.1522621"><ele>113.5</ele><time>2026-04-17T15:39:23.296Z</time></trkpt><trkpt lat="43.4481946" lon="11.152267"><ele>113.66666666666666</ele><time>2026-04-17T15:39:25.292Z</time></trkpt><trkpt lat="43.448123" lon="11.1522774"><ele>113.83333333333333</ele><time>2026-04-17T15:39:27.28Z</time></trkpt><trkpt lat="43.4480283" lon="11.1522909"><ele>114.0</ele><time>2026-04-17T15:39:29.32Z</time></trkpt><trkpt lat="43.4479255" lon="11.1523071"><ele>114.0</ele><time>2026-04-17T15:39:31.307Z</time></trkpt><trkpt lat="43.4478057" lon="11.152354"><ele>114.0</ele><time>2026-04-17T15:39:33.284Z</time></trkpt><trkpt lat="43.447689" lon="11.1524001"><ele>114.0</ele><time>2026-04-17T15:39:35.277Z</time></trkpt><trkpt lat="43.4475692" lon="11.1524319"><ele>114.0</ele><time>2026-04-17T15:39:37.284Z</time></trkpt><trkpt lat="43.4474563" lon="11.152472"><ele>114.0</ele><time>2026-04-17T15:39:39.285Z</time></trkpt><trkpt lat="43.447348" lon="11.1525149"><ele>114.0</ele><time>2026-04-17T15:39:41.29Z</time></trkpt><trkpt lat="43.4472447" lon="11.1525416"><ele>114.0</ele><time>2026-04-17T15:39:43.294Z</time></trkpt><trkpt lat="43.4471479" lon="11.1525717"><ele>114.0</ele><time>2026-04-17T15:39:45.306Z</time></trkpt><trkpt lat="43.4470433" lon="11.1526036"><ele>114.0</ele><time>2026-04-17T15:39:47.293Z</time></trkpt><trkpt lat="43.4469504" lon="11.1526283"><ele>113.6</ele><time>2026-04-17T15:39:49.305Z</time></trkpt><trkpt lat="43.4468583" lon="11.1526372"><ele>113.2</ele><time>2026-04-17T15:39:51.295Z</time></trkpt><trkpt lat="43.446757" lon="11.1526408"><ele>112.79999999999998</ele><time>2026-04-17T15:39:53.299Z</time></trkpt><trkpt lat="43.4466574" lon="11.1526626"><ele>112.39999999999999</ele><time>2026-04-17T15:39:55.299Z</time></trkpt><trkpt lat="43.4465604" lon="11.1526928"><ele>112.0</ele><time>2026-04-17T15:39:57.292Z</time></trkpt><trkpt lat="43.4464575" lon="11.1527089"><ele>112.0</ele><time>2026-04-17T15:39:59.301Z</time></trkpt><trkpt lat="43.4463555" lon="11.1527333"><ele>111.99999999999999</ele><time>2026-04-17T15:40:01.295Z</time></trkpt><trkpt lat="43.4462537" lon="11.1527343"><ele>111.99999999999999</ele><time>2026-04-17T15:40:03.299Z</time></trkpt><trkpt lat="43.4461586" lon="11.1527045"><ele>112.0</ele><time>2026-04-17T15:40:05.305Z</time></trkpt><trkpt lat="43.4460736" lon="11.1526478"><ele>112.0</ele><time>2026-04-17T15:40:07.282Z</time></trkpt><trkpt lat="43.4459931" lon="11.1525866"><ele>112.0</ele><time>2026-04-17T15:40:09.279Z</time></trkpt><trkpt lat="43.4458993" lon="11.1525266"><ele>111.99999999999999</ele><time>2026-04-17T15:40:11.296Z</time></trkpt><trkpt lat="43.4458136" lon="11.1524312"><ele>111.99999999999999</ele><time>2026-04-17T15:40:13.292Z</time></trkpt><trkpt lat="43.4457554" lon="11.1523104"><ele>112.0</ele><time>2026-04-17T15:40:15.299Z</time></trkpt><trkpt lat="43.4456984" lon="11.1521926"><ele>112.0</ele><time>2026-04-17T15:40:17.289Z</time></trkpt><trkpt lat="43.4456231" lon="11.1521086"><ele>112.0</ele><time>2026-04-17T15:40:19.293Z</time></trkpt><trkpt lat="43.4455421" lon="11.1520683"><ele>111.99999999999999</ele><time>2026-04-17T15:40:21.295Z</time></trkpt><trkpt lat="43.4454557" lon="11.1520679"><ele>111.99999999999999</ele><time>2026-04-17T15:40:23.297Z</time></trkpt><trkpt lat="43.4453579" lon="11.1520654"><ele>112.0</ele><time>2026-04-17T15:40:25.34Z</time></trkpt><trkpt lat="43.445255" lon="11.152071"><ele>112.0</ele><time>2026-04-17T15:40:27.296Z</time></trkpt><trkpt lat="43.4451535" lon="11.1520863"><ele>112.0</ele><time>2026-04-17T15:40:29.312Z</time></trkpt><trkpt lat="43.445047" lon="11.1520984"><ele>111.99999999999999</ele><time>2026-04-17T15:40:31.299Z</time></trkpt><trkpt lat="43.4449455" lon="11.1521004"><ele>111.99999999999999</ele><time>2026-04-17T15:40:33.317Z</time></trkpt><trkpt lat="43.4448401" lon="11.152111"><ele>112.0</ele><time>2026-04-17T15:40:35.301Z</time></trkpt><trkpt lat="43.4447334" lon="11.152123"><ele>112.0</ele><time>2026-04-17T15:40:37.3Z</time></trkpt><trkpt lat="43.4446352" lon="11.1521264"><ele>112.39999999999999</ele><time>2026-04-17T15:40:39.291Z</time></trkpt><trkpt lat="43.444543" lon="11.1521209"><ele>112.79999999999998</ele><time>2026-04-17T15:40:41.296Z</time></trkpt><trkpt lat="43.4444468" lon="11.1521266"><ele>113.2</ele><time>2026-04-17T15:40:43.302Z</time></trkpt><trkpt lat="43.4443463" lon="11.1521357"><ele>113.6</ele><time>2026-04-17T15:40:45.275Z</time></trkpt><trkpt lat="43.4442466" lon="11.1521489"><ele>114.0</ele><time>2026-04-17T15:40:47.301Z</time></trkpt><trkpt lat="43.4441604" lon="11.1522008"><ele>114.0</ele><time>2026-04-17T15:40:49.301Z</time></trkpt><trkpt lat="43.4440823" lon="11.1522962"><ele>114.0</ele><time>2026-04-17T15:40:51.283Z</time></trkpt><trkpt lat="43.4440021" lon="11.1524093"><ele>114.0</ele><time>2026-04-17T15:40:53.286Z</time></trkpt><trkpt lat="43.4439202" lon="11.1524978"><ele>114.0</ele><time>2026-04-17T15:40:55.305Z</time></trkpt><trkpt lat="43.4438348" lon="11.1525462"><ele>114.0</ele><time>2026-04-17T15:40:57.283Z</time></trkpt><trkpt lat="43.4437347" lon="11.1525611"><ele>113.4</ele><time>2026-04-17T15:40:59.294Z</time></trkpt><trkpt lat="43.4436402" lon="11.1525586"><ele>112.80000000000001</ele><time>2026-04-17T15:41:01.318Z</time></trkpt><trkpt lat="43.4435363" lon="11.1525572"><ele>112.19999999999999</ele><time>2026-04-17T15:41:03.293Z</time></trkpt><trkpt lat="43.4434304" lon="11.1525451"><ele>111.6</ele><time>2026-04-17T15:41:05.289Z</time></trkpt><trkpt lat="43.4433221" lon="11.1525375"><ele>111.0</ele><time>2026-04-17T15:41:07.309Z</time></trkpt><trkpt lat="43.4432105" lon="11.1525587"><ele>111.0</ele><time>2026-04-17T15:41:09.302Z</time></trkpt><trkpt lat="43.4431115" lon="11.1526142"><ele>111.0</ele><time>2026-04-17T15:41:11.289Z</time></trkpt><trkpt lat="43.4430216" lon="11.152678"><ele>111.0</ele><time>2026-04-17T15:41:13.314Z</time></trkpt><trkpt lat="43.4429484" lon="11.1527551"><ele>111.0</ele><time>2026-04-17T15:41:15.287Z</time></trkpt><trkpt lat="43.4428757" lon="11.1528483"><ele>111.0</ele><time>2026-04-17T15:41:17.3Z</time></trkpt><trkpt lat="43.4428059" lon="11.1529515"><ele>111.4</ele><time>2026-04-17T15:41:19.287Z</time></trkpt><trkpt lat="43.4427391" lon="11.153056"><ele>111.8</ele><time>2026-04-17T15:41:21.294Z</time></trkpt><trkpt lat="43.4426801" lon="11.1531718"><ele>112.20000000000002</ele><time>2026-04-17T15:41:23.302Z</time></trkpt><trkpt lat="43.4426231" lon="11.1532841"><ele>112.60000000000001</ele><time>2026-04-17T15:41:25.274Z</time></trkpt><trkpt lat="43.4425594" lon="11.1533936"><ele>113.0</ele><time>2026-04-17T15:41:27.301Z</time></trkpt><trkpt lat="43.4424688" lon="11.1534738"><ele>113.16666666666666</ele><time>2026-04-17T15:41:29.28Z</time></trkpt><trkpt lat="43.442387" lon="11.1535415"><ele>113.33333333333333</ele><time>2026-04-17T15:41:31.296Z</time></trkpt><trkpt lat="43.4423145" lon="11.1536166"><ele>113.5</ele><time>2026-04-17T15:41:33.287Z</time></trkpt><trkpt lat="43.44225" lon="11.1536847"><ele>113.66666666666666</ele><time>2026-04-17T15:41:35.312Z</time></trkpt><trkpt lat="43.4421798" lon="11.1537561"><ele>113.83333333333333</ele><time>2026-04-17T15:41:37.279Z</time></trkpt><trkpt lat="43.4420997" lon="11.1538221"><ele>114.0</ele><time>2026-04-17T15:41:39.295Z</time></trkpt><trkpt lat="43.4420074" lon="11.1538836"><ele>114.0</ele><time>2026-04-17T15:41:41.295Z</time></trkpt><trkpt lat="43.4419172" lon="11.153932"><ele>114.0</ele><time>2026-04-17T15:41:43.289Z</time></trkpt><trkpt lat="43.4418108" lon="11.1539721"><ele>114.0</ele><time>2026-04-17T15:41:45.305Z</time></trkpt><trkpt lat="43.4417098" lon="11.1540131"><ele>114.0</ele><time>2026-04-17T15:41:47.297Z</time></trkpt><trkpt lat="43.4416206" lon="11.1540311"><ele>114.0</ele><time>2026-04-17T15:41:49.304Z</time></trkpt><trkpt lat="43.4415394" lon="11.1540213"><ele>114.0</ele><time>2026-04-17T15:41:51.3Z</time></trkpt><trkpt lat="43.44146" lon="11.1539676"><ele>114.0</ele><time>2026-04-17T15:41:53.304Z</time></trkpt><trkpt lat="43.44139" lon="11.1538944"><ele>114.0</ele><time>2026-04-17T15:41:55.297Z</time></trkpt><trkpt lat="43.4413242" lon="11.1538156"><ele>114.0</ele><time>2026-04-17T15:41:57.282Z</time></trkpt><trkpt lat="43.4412583" lon="11.1537276"><ele>114.0</ele><time>2026-04-17T15:41:59.288Z</time></trkpt><trkpt lat="43.4411889" lon="11.1536254"><ele>114.2</ele><time>2026-04-17T15:42:01.304Z</time></trkpt><trkpt lat="43.441122" lon="11.1535468"><ele>114.4</ele><time>2026-04-17T15:42:03.304Z</time></trkpt><trkpt lat="43.4410345" lon="11.1535084"><ele>114.6</ele><time>2026-04-17T15:42:05.285Z</time></trkpt><trkpt lat="43.4409322" lon="11.153495"><ele>114.8</ele><time>2026-04-17T15:42:07.299Z</time></trkpt><trkpt lat="43.4408391" lon="11.1534838"><ele>115.0</ele><time>2026-04-17T15:42:09.283Z</time></trkpt><trkpt lat="43.440742" lon="11.1534871"><ele>115.00000000000001</ele><time>2026-04-17T15:42:11.317Z</time></trkpt><trkpt lat="43.44065" lon="11.1535141"><ele>115.0</ele><time>2026-04-17T15:42:13.298Z</time></trkpt><trkpt lat="43.4405616" lon="11.1535287"><ele>115.0</ele><time>2026-04-17T15:42:15.298Z</time></trkpt><trkpt lat="43.4404783" lon="11.1535671"><ele>115.0</ele><time>2026-04-17T15:42:17.29Z</time></trkpt><trkpt lat="43.4403917" lon="11.1536069"><ele>115.00000000000001</ele><time>2026-04-17T15:42:19.298Z</time></trkpt><trkpt lat="43.4403192" lon="11.1536698"><ele>115.0</ele><time>2026-04-17T15:42:21.288Z</time></trkpt><trkpt lat="43.4402591" lon="11.1537298"><ele>115.16666666666667</ele><time>2026-04-17T15:42:23.332Z</time></trkpt><trkpt lat="43.4401821" lon="11.1537672"><ele>115.33333333333334</ele><time>2026-04-17T15:42:25.306Z</time></trkpt><trkpt lat="43.4401024" lon="11.1538226"><ele>115.5</ele><time>2026-04-17T15:42:27.304Z</time></trkpt><trkpt lat="43.4400197" lon="11.1538817"><ele>115.66666666666666</ele><time>2026-04-17T15:42:29.302Z</time></trkpt><trkpt lat="43.4399397" lon="11.1539362"><ele>115.83333333333333</ele><time>2026-04-17T15:42:31.295Z</time></trkpt><trkpt lat="43.4398598" lon="11.1539998"><ele>116.0</ele><time>2026-04-17T15:42:33.299Z</time></trkpt><trkpt lat="43.439783" lon="11.1540671"><ele>115.6</ele><time>2026-04-17T15:42:35.286Z</time></trkpt><trkpt lat="43.4397057" lon="11.1541363"><ele>115.19999999999999</ele><time>2026-04-17T15:42:37.3Z</time></trkpt><trkpt lat="43.4396202" lon="11.1542115"><ele>114.80000000000001</ele><time>2026-04-17T15:42:39.297Z</time></trkpt><trkpt lat="43.4395428" lon="11.1542868"><ele>114.4</ele><time>2026-04-17T15:42:41.298Z</time></trkpt><trkpt lat="43.4394669" lon="11.1543572"><ele>114.0</ele><time>2026-04-17T15:42:43.3Z</time></trkpt><trkpt lat="43.4393923" lon="11.1544176"><ele>114.33333333333333</ele><time>2026-04-17T15:42:45.32Z</time></trkpt><trkpt lat="43.4393119" lon="11.1544854"><ele>114.66666666666666</ele><time>2026-04-17T15:42:47.313Z</time></trkpt><trkpt lat="43.4392481" lon="11.1545585"><ele>115.0</ele><time>2026-04-17T15:42:49.291Z</time></trkpt><trkpt lat="43.439195" lon="11.1546311"><ele>115.33333333333333</ele><time>2026-04-17T15:42:51.304Z</time></trkpt><trkpt lat="43.4391458" lon="11.1547111"><ele>115.66666666666666</ele><time>2026-04-17T15:42:53.296Z</time></trkpt><trkpt lat="43.4390926" lon="11.1548112"><ele>116.0</ele><time>2026-04-17T15:42:55.299Z</time></trkpt><trkpt lat="43.4390414" lon="11.1548941"><ele>115.99999999999999</ele><time>2026-04-17T15:42:57.306Z</time></trkpt><trkpt lat="43.4389856" lon="11.1549798"><ele>116.0</ele><time>2026-04-17T15:42:59.3Z</time></trkpt><trkpt lat="43.4389294" lon="11.1550492"><ele>116.0</ele><time>2026-04-17T15:43:01.298Z</time></trkpt><trkpt lat="43.4388706" lon="11.1551376"><ele>116.0</ele><time>2026-04-17T15:43:03.306Z</time></trkpt><trkpt lat="43.4388141" lon="11.155235"><ele>115.99999999999999</ele><time>2026-04-17T15:43:05.301Z</time></trkpt><trkpt lat="43.4387459" lon="11.1553232"><ele>116.0</ele><time>2026-04-17T15:43:07.306Z</time></trkpt><trkpt lat="43.4386899" lon="11.155437"><ele>117.8</ele><time>2026-04-17T15:43:09.296Z</time></trkpt><trkpt lat="43.4386469" lon="11.1555751"><ele>119.6</ele><time>2026-04-17T15:43:11.3Z</time></trkpt><trkpt lat="43.438634" lon="11.1557228"><ele>121.4</ele><time>2026-04-17T15:43:13.293Z</time></trkpt><trkpt lat="43.4386485" lon="11.1558634"><ele>123.2</ele><time>2026-04-17T15:43:15.279Z</time></trkpt><trkpt lat="43.4386963" lon="11.1559836"><ele>125.0</ele><time>2026-04-17T15:43:17.297Z</time></trkpt><trkpt lat="43.4387511" lon="11.1561038"><ele>123.4</ele><time>2026-04-17T15:43:19.284Z</time></trkpt><trkpt lat="43.4388055" lon="11.1562242"><ele>121.8</ele><time>2026-04-17T15:43:21.302Z</time></trkpt><trkpt lat="43.4388655" lon="11.1563341"><ele>120.19999999999999</ele><time>2026-04-17T15:43:23.299Z</time></trkpt><trkpt lat="43.4389056" lon="11.1564393"><ele>118.6</ele><time>2026-04-17T15:43:25.306Z</time></trkpt><trkpt lat="43.4389474" lon="11.1565658"><ele>117.0</ele><time>2026-04-17T15:43:27.297Z</time></trkpt><trkpt lat="43.4389948" lon="11.1566777"><ele>117.0</ele><time>2026-04-17T15:43:29.283Z</time></trkpt><trkpt lat="43.4390157" lon="11.1568068"><ele>116.99999999999999</ele><time>2026-04-17T15:43:31.294Z</time></trkpt><trkpt lat="43.4390235" lon="11.1569273"><ele>116.99999999999999</ele><time>2026-04-17T15:43:33.285Z</time></trkpt><trkpt lat="43.4390311" lon="11.1570453"><ele>117.0</ele><time>2026-04-17T15:43:35.297Z</time></trkpt><trkpt lat="43.439025" lon="11.1571722"><ele>117.0</ele><time>2026-04-17T15:43:37.294Z</time></trkpt><trkpt lat="43.4390142" lon="11.1572967"><ele>118.0</ele><time>2026-04-17T15:43:39.295Z</time></trkpt><trkpt lat="43.4390043" lon="11.1574217"><ele>119.0</ele><time>2026-04-17T15:43:41.299Z</time></trkpt><trkpt lat="43.4389927" lon="11.1575315"><ele>120.0</ele><time>2026-04-17T15:43:43.301Z</time></trkpt><trkpt lat="43.4389808" lon="11.1576449"><ele>121.0</ele><time>2026-04-17T15:43:45.296Z</time></trkpt><trkpt lat="43.438958" lon="11.1577547"><ele>122.0</ele><time>2026-04-17T15:43:47.298Z</time></trkpt><trkpt lat="43.4389237" lon="11.1578607"><ele>123.0</ele><time>2026-04-17T15:43:49.298Z</time></trkpt><trkpt lat="43.4388695" lon="11.1579432"><ele>123.0</ele><time>2026-04-17T15:43:51.309Z</time></trkpt><trkpt lat="43.4388115" lon="11.1580238"><ele>123.0</ele><time>2026-04-17T15:43:53.288Z</time></trkpt><trkpt lat="43.4387557" lon="11.1581186"><ele>123.0</ele><time>2026-04-17T15:43:55.297Z</time></trkpt><trkpt lat="43.4387051" lon="11.1582008"><ele>123.0</ele><time>2026-04-17T15:43:57.279Z</time></trkpt><trkpt lat="43.4386467" lon="11.1582813"><ele>123.0</ele><time>2026-04-17T15:43:59.29Z</time></trkpt><trkpt lat="43.4385921" lon="11.1583797"><ele>123.0</ele><time>2026-04-17T15:44:01.304Z</time></trkpt><trkpt lat="43.4385252" lon="11.1584765"><ele>123.0</ele><time>2026-04-17T15:44:03.297Z</time></trkpt><trkpt lat="43.4384598" lon="11.1585714"><ele>123.00000000000001</ele><time>2026-04-17T15:44:05.289Z</time></trkpt><trkpt lat="43.4383893" lon="11.1586701"><ele>123.00000000000001</ele><time>2026-04-17T15:44:07.306Z</time></trkpt><trkpt lat="43.4383266" lon="11.1587859"><ele>123.0</ele><time>2026-04-17T15:44:09.296Z</time></trkpt><trkpt lat="43.4382649" lon="11.158911"><ele>123.0</ele><time>2026-04-17T15:44:11.292Z</time></trkpt><trkpt lat="43.4381986" lon="11.1590105"><ele>123.0</ele><time>2026-04-17T15:44:13.287Z</time></trkpt><trkpt lat="43.438139" lon="11.1591238"><ele>123.00000000000001</ele><time>2026-04-17T15:44:15.278Z</time></trkpt><trkpt lat="43.4380896" lon="11.1592514"><ele>123.00000000000001</ele><time>2026-04-17T15:44:17.291Z</time></trkpt><trkpt lat="43.4380416" lon="11.1593777"><ele>123.0</ele><time>2026-04-17T15:44:19.309Z</time></trkpt><trkpt lat="43.4379925" lon="11.1594848"><ele>123.0</ele><time>2026-04-17T15:44:21.295Z</time></trkpt><trkpt lat="43.4379418" lon="11.159611"><ele>123.4</ele><time>2026-04-17T15:44:23.295Z</time></trkpt><trkpt lat="43.4378981" lon="11.1597278"><ele>123.80000000000001</ele><time>2026-04-17T15:44:25.291Z</time></trkpt><trkpt lat="43.4378552" lon="11.1598445"><ele>124.2</ele><time>2026-04-17T15:44:27.296Z</time></trkpt><trkpt lat="43.4378097" lon="11.1599623"><ele>124.6</ele><time>2026-04-17T15:44:29.299Z</time></trkpt><trkpt lat="43.4377629" lon="11.1600685"><ele>125.0</ele><time>2026-04-17T15:44:31.296Z</time></trkpt><trkpt lat="43.4377216" lon="11.1601739"><ele>124.2</ele><time>2026-04-17T15:44:33.292Z</time></trkpt><trkpt lat="43.4376854" lon="11.160288"><ele>123.4</ele><time>2026-04-17T15:44:35.318Z</time></trkpt><trkpt lat="43.4376559" lon="11.1604032"><ele>122.6</ele><time>2026-04-17T15:44:37.284Z</time></trkpt><trkpt lat="43.4376264" lon="11.1605266"><ele>121.8</ele><time>2026-04-17T15:44:39.317Z</time></trkpt><trkpt lat="43.4375965" lon="11.1606537"><ele>121.0</ele><time>2026-04-17T15:44:41.298Z</time></trkpt><trkpt lat="43.4375671" lon="11.1607814"><ele>121.0</ele><time>2026-04-17T15:44:43.307Z</time></trkpt><trkpt lat="43.4375423" lon="11.1609102"><ele>121.0</ele><time>2026-04-17T15:44:45.292Z</time></trkpt><trkpt lat="43.4375204" lon="11.1610323"><ele>121.0</ele><time>2026-04-17T15:44:47.303Z</time></trkpt><trkpt lat="43.4375022" lon="11.1611545"><ele>121.0</ele><time>2026-04-17T15:44:49.297Z</time></trkpt><trkpt lat="43.4374836" lon="11.1612758"><ele>121.0</ele><time>2026-04-17T15:44:51.299Z</time></trkpt><trkpt lat="43.4374603" lon="11.1613973"><ele>121.0</ele><time>2026-04-17T15:44:53.295Z</time></trkpt><trkpt lat="43.4374402" lon="11.1615248"><ele>121.0</ele><time>2026-04-17T15:44:55.308Z</time></trkpt><trkpt lat="43.4374217" lon="11.1616581"><ele>121.0</ele><time>2026-04-17T15:44:57.308Z</time></trkpt><trkpt lat="43.437402" lon="11.1617838"><ele>121.0</ele><time>2026-04-17T15:44:59.309Z</time></trkpt><trkpt lat="43.4373797" lon="11.1619082"><ele>121.0</ele><time>2026-04-17T15:45:01.295Z</time></trkpt><trkpt lat="43.4373567" lon="11.1620334"><ele>120.8</ele><time>2026-04-17T15:45:03.294Z</time></trkpt><trkpt lat="43.4373352" lon="11.1621622"><ele>120.6</ele><time>2026-04-17T15:45:05.305Z</time></trkpt><trkpt lat="43.4373152" lon="11.1622962"><ele>120.4</ele><time>2026-04-17T15:45:07.315Z</time></trkpt><trkpt lat="43.437291" lon="11.1624185"><ele>120.2</ele><time>2026-04-17T15:45:09.31Z</time></trkpt><trkpt lat="43.437274" lon="11.1625452"><ele>120.0</ele><time>2026-04-17T15:45:11.3Z</time></trkpt><trkpt lat="43.4372601" lon="11.1626715"><ele>120.4</ele><time>2026-04-17T15:45:13.299Z</time></trkpt><trkpt lat="43.4372429" lon="11.1628021"><ele>120.8</ele><time>2026-04-17T15:45:15.309Z</time></trkpt><trkpt lat="43.4372338" lon="11.1629265"><ele>121.19999999999999</ele><time>2026-04-17T15:45:17.292Z</time></trkpt><trkpt lat="43.4372336" lon="11.163048"><ele>121.6</ele><time>2026-04-17T15:45:19.291Z</time></trkpt><trkpt lat="43.4372378" lon="11.1631765"><ele>122.0</ele><time>2026-04-17T15:45:21.307Z</time></trkpt><trkpt lat="43.4372432" lon="11.1633078"><ele>122.0</ele><time>2026-04-17T15:45:23.293Z</time></trkpt><trkpt lat="43.4372516" lon="11.163444"><ele>121.99999999999999</ele><time>2026-04-17T15:45:25.302Z</time></trkpt><trkpt lat="43.4372645" lon="11.1635753"><ele>121.99999999999999</ele><time>2026-04-17T15:45:27.296Z</time></trkpt><trkpt lat="43.4372694" lon="11.1637089"><ele>122.0</ele><time>2026-04-17T15:45:29.295Z</time></trkpt><trkpt lat="43.4372764" lon="11.1638376"><ele>122.0</ele><time>2026-04-17T15:45:31.283Z</time></trkpt><trkpt lat="43.4372878" lon="11.1639626"><ele>122.16666666666666</ele><time>2026-04-17T15:45:33.297Z</time></trkpt><trkpt lat="43.4373018" lon="11.1640821"><ele>122.33333333333333</ele><time>2026-04-17T15:45:35.281Z</time></trkpt><trkpt lat="43.4373266" lon="11.1642049"><ele>122.5</ele><time>2026-04-17T15:45:37.295Z</time></trkpt><trkpt lat="43.4373563" lon="11.1643101"><ele>122.66666666666666</ele><time>2026-04-17T15:45:39.289Z</time></trkpt><trkpt lat="43.4373856" lon="11.1644285"><ele>122.83333333333333</ele><time>2026-04-17T15:45:41.314Z</time></trkpt><trkpt lat="43.4374171" lon="11.1645521"><ele>123.0</ele><time>2026-04-17T15:45:43.3Z</time></trkpt><trkpt lat="43.4374483" lon="11.1646784"><ele>123.0</ele><time>2026-04-17T15:45:45.329Z</time></trkpt><trkpt lat="43.4374753" lon="11.1647959"><ele>123.0</ele><time>2026-04-17T15:45:47.303Z</time></trkpt><trkpt lat="43.4375124" lon="11.1649155"><ele>123.0</ele><time>2026-04-17T15:45:49.296Z</time></trkpt><trkpt lat="43.4375597" lon="11.1650288"><ele>123.0</ele><time>2026-04-17T15:45:51.287Z</time></trkpt><trkpt lat="43.437602" lon="11.1651307"><ele>123.0</ele><time>2026-04-17T15:45:53.313Z</time></trkpt><trkpt lat="43.4376409" lon="11.165216"><ele>123.0</ele><time>2026-04-17T15:45:55.303Z</time></trkpt><trkpt lat="43.4376892" lon="11.1653045"><ele>122.80000000000001</ele><time>2026-04-17T15:45:57.308Z</time></trkpt><trkpt lat="43.4377541" lon="11.1653969"><ele>122.60000000000001</ele><time>2026-04-17T15:45:59.307Z</time></trkpt><trkpt lat="43.4378214" lon="11.1655"><ele>122.39999999999999</ele><time>2026-04-17T15:46:01.308Z</time></trkpt><trkpt lat="43.4378774" lon="11.1656109"><ele>122.19999999999999</ele><time>2026-04-17T15:46:03.301Z</time></trkpt><trkpt lat="43.4379257" lon="11.1657243"><ele>122.0</ele><time>2026-04-17T15:46:05.299Z</time></trkpt><trkpt lat="43.4379603" lon="11.1658177"><ele>122.66666666666666</ele><time>2026-04-17T15:46:07.285Z</time></trkpt><trkpt lat="43.4379947" lon="11.1658985"><ele>123.33333333333333</ele><time>2026-04-17T15:46:09.293Z</time></trkpt><trkpt lat="43.4380412" lon="11.16601"><ele>124.0</ele><time>2026-04-17T15:46:12.303Z</time></trkpt><trkpt lat="43.4380983" lon="11.166091"><ele>124.66666666666666</ele><time>2026-04-17T15:46:14.303Z</time></trkpt><trkpt lat="43.4381851" lon="11.1661821"><ele>125.33333333333333</ele><time>2026-04-17T15:46:16.303Z</time></trkpt><trkpt lat="43.4382542" lon="11.1662493"><ele>126.0</ele><time>2026-04-17T15:46:18.307Z</time></trkpt><trkpt lat="43.4383223" lon="11.166321"><ele>126.0</ele><time>2026-04-17T15:46:21.301Z</time></trkpt><trkpt lat="43.4383818" lon="11.1663994"><ele>126.0</ele><time>2026-04-17T15:46:24.323Z</time></trkpt><trkpt lat="43.4384375" lon="11.1664628"><ele>126.0</ele><time>2026-04-17T15:46:27.295Z</time></trkpt><trkpt lat="43.4384985" lon="11.1665377"><ele>126.0</ele><time>2026-04-17T15:46:30.301Z</time></trkpt><trkpt lat="43.4385481" lon="11.1665922"><ele>126.0</ele><time>2026-04-17T15:46:32.303Z</time></trkpt><trkpt lat="43.4386177" lon="11.1666499"><ele>126.0</ele><time>2026-04-17T15:46:34.313Z</time></trkpt><trkpt lat="43.4387" lon="11.1666974"><ele>125.6</ele><time>2026-04-17T15:46:36.322Z</time></trkpt><trkpt lat="43.4387829" lon="11.1667675"><ele>125.19999999999999</ele><time>2026-04-17T15:46:38.285Z</time></trkpt><trkpt lat="43.4388701" lon="11.1668401"><ele>124.80000000000001</ele><time>2026-04-17T15:46:40.305Z</time></trkpt><trkpt lat="43.438953" lon="11.1669199"><ele>124.4</ele><time>2026-04-17T15:46:42.297Z</time></trkpt><trkpt lat="43.4390299" lon="11.1669983"><ele>124.0</ele><time>2026-04-17T15:46:44.297Z</time></trkpt><trkpt lat="43.4391141" lon="11.1670616"><ele>123.50000000000001</ele><time>2026-04-17T15:46:46.294Z</time></trkpt><trkpt lat="43.4391945" lon="11.1670989"><ele>123.0</ele><time>2026-04-17T15:46:48.298Z</time></trkpt><trkpt lat="43.4392629" lon="11.1671344"><ele>122.5</ele><time>2026-04-17T15:46:50.321Z</time></trkpt><trkpt lat="43.4393315" lon="11.1671851"><ele>122.0</ele><time>2026-04-17T15:46:53.308Z</time></trkpt><trkpt lat="43.4393897" lon="11.167267"><ele>121.50000000000001</ele><time>2026-04-17T15:46:57.297Z</time></trkpt><trkpt lat="43.4394453" lon="11.1673297"><ele>121.0</ele><time>2026-04-17T15:46:59.296Z</time></trkpt><trkpt lat="43.4395211" lon="11.1674256"><ele>121.00000000000001</ele><time>2026-04-17T15:47:01.306Z</time></trkpt><trkpt lat="43.4396098" lon="11.1675236"><ele>121.0</ele><time>2026-04-17T15:47:03.296Z</time></trkpt><trkpt lat="43.4396599" lon="11.1675806"><ele>121.0</ele><time>2026-04-17T15:47:04.303Z</time></trkpt><trkpt lat="43.4397082" lon="11.1676456"><ele>121.0</ele><time>2026-04-17T15:47:05.298Z</time></trkpt><trkpt lat="43.4397554" lon="11.1677267"><ele>121.00000000000001</ele><time>2026-04-17T15:47:06.298Z</time></trkpt><trkpt lat="43.4397954" lon="11.1678055"><ele>121.0</ele><time>2026-04-17T15:47:07.293Z</time></trkpt><trkpt lat="43.4398266" lon="11.1678896"><ele>121.4</ele><time>2026-04-17T15:47:08.303Z</time></trkpt><trkpt lat="43.4398621" lon="11.1680487"><ele>121.8</ele><time>2026-04-17T15:47:10.304Z</time></trkpt><trkpt lat="43.4399086" lon="11.1681818"><ele>122.20000000000002</ele><time>2026-04-17T15:47:12.297Z</time></trkpt><trkpt lat="43.4399693" lon="11.168302"><ele>122.60000000000001</ele><time>2026-04-17T15:47:14.286Z</time></trkpt><trkpt lat="43.4400267" lon="11.168414"><ele>123.0</ele><time>2026-04-17T15:47:16.302Z</time></trkpt><trkpt lat="43.4400765" lon="11.1685161"><ele>123.0</ele><time>2026-04-17T15:47:18.291Z</time></trkpt><trkpt lat="43.4401252" lon="11.1686373"><ele>123.00000000000001</ele><time>2026-04-17T15:47:20.298Z</time></trkpt><trkpt lat="43.4401677" lon="11.1687514"><ele>123.00000000000001</ele><time>2026-04-17T15:47:22.289Z</time></trkpt><trkpt lat="43.4402267" lon="11.1688698"><ele>123.0</ele><time>2026-04-17T15:47:24.292Z</time></trkpt><trkpt lat="43.4402757" lon="11.1689756"><ele>123.0</ele><time>2026-04-17T15:47:26.303Z</time></trkpt><trkpt lat="43.4403262" lon="11.1690837"><ele>122.80000000000001</ele><time>2026-04-17T15:47:28.281Z</time></trkpt><trkpt lat="43.4403696" lon="11.1692032"><ele>122.60000000000001</ele><time>2026-04-17T15:47:30.308Z</time></trkpt><trkpt lat="43.4404184" lon="11.1693359"><ele>122.39999999999999</ele><time>2026-04-17T15:47:32.29Z</time></trkpt><trkpt lat="43.4404665" lon="11.1694596"><ele>122.19999999999999</ele><time>2026-04-17T15:47:34.284Z</time></trkpt><trkpt lat="43.4405169" lon="11.1695802"><ele>122.0</ele><time>2026-04-17T15:47:36.293Z</time></trkpt><trkpt lat="43.4405644" lon="11.1697061"><ele>122.8</ele><time>2026-04-17T15:47:38.292Z</time></trkpt><trkpt lat="43.4406072" lon="11.1698404"><ele>123.6</ele><time>2026-04-17T15:47:40.306Z</time></trkpt><trkpt lat="43.4406413" lon="11.1699709"><ele>124.39999999999999</ele><time>2026-04-17T15:47:42.3Z</time></trkpt><trkpt lat="43.4406698" lon="11.170093"><ele>125.19999999999999</ele><time>2026-04-17T15:47:44.288Z</time></trkpt><trkpt lat="43.4407026" lon="11.170202"><ele>126.0</ele><time>2026-04-17T15:47:46.288Z</time></trkpt><trkpt lat="43.4407379" lon="11.1703218"><ele>126.0</ele><time>2026-04-17T15:47:48.279Z</time></trkpt><trkpt lat="43.4407698" lon="11.1704472"><ele>126.0</ele><time>2026-04-17T15:47:50.291Z</time></trkpt><trkpt lat="43.4407808" lon="11.1705843"><ele>126.0</ele><time>2026-04-17T15:47:52.303Z</time></trkpt><trkpt lat="43.4407599" lon="11.1706996"><ele>126.0</ele><time>2026-04-17T15:47:54.326Z</time></trkpt><trkpt lat="43.44075" lon="11.1708412"><ele>126.0</ele><time>2026-04-17T15:47:56.307Z</time></trkpt><trkpt lat="43.4407424" lon="11.1709859"><ele>125.6</ele><time>2026-04-17T15:47:58.309Z</time></trkpt><trkpt lat="43.4407371" lon="11.1711174"><ele>125.19999999999999</ele><time>2026-04-17T15:48:00.299Z</time></trkpt><trkpt lat="43.4407257" lon="11.171239"><ele>124.80000000000001</ele><time>2026-04-17T15:48:02.301Z</time></trkpt><trkpt lat="43.4407121" lon="11.1713799"><ele>124.4</ele><time>2026-04-17T15:48:04.298Z</time></trkpt><trkpt lat="43.4406817" lon="11.1715147"><ele>124.0</ele><time>2026-04-17T15:48:06.302Z</time></trkpt><trkpt lat="43.4406371" lon="11.1716536"><ele>124.0</ele><time>2026-04-17T15:48:08.292Z</time></trkpt><trkpt lat="43.4405865" lon="11.17178"><ele>124.0</ele><time>2026-04-17T15:48:10.291Z</time></trkpt><trkpt lat="43.4405342" lon="11.1718903"><ele>124.0</ele><time>2026-04-17T15:48:12.299Z</time></trkpt><trkpt lat="43.4404779" lon="11.1719857"><ele>124.0</ele><time>2026-04-17T15:48:14.294Z</time></trkpt><trkpt lat="43.4404123" lon="11.1720616"><ele>124.0</ele><time>2026-04-17T15:48:16.283Z</time></trkpt><trkpt lat="43.4403458" lon="11.1721481"><ele>124.0</ele><time>2026-04-17T15:48:18.306Z</time></trkpt><trkpt lat="43.4402745" lon="11.1722417"><ele>124.0</ele><time>2026-04-17T15:48:20.3Z</time></trkpt><trkpt lat="43.4402133" lon="11.1723314"><ele>124.0</ele><time>2026-04-17T15:48:22.287Z</time></trkpt><trkpt lat="43.4401512" lon="11.1724151"><ele>124.0</ele><time>2026-04-17T15:48:24.3Z</time></trkpt><trkpt lat="43.4400757" lon="11.1724836"><ele>124.0</ele><time>2026-04-17T15:48:26.323Z</time></trkpt><trkpt lat="43.4399977" lon="11.1725495"><ele>123.50000000000001</ele><time>2026-04-17T15:48:28.291Z</time></trkpt><trkpt lat="43.4399282" lon="11.1726239"><ele>123.0</ele><time>2026-04-17T15:48:30.301Z</time></trkpt><trkpt lat="43.4398632" lon="11.1726905"><ele>122.5</ele><time>2026-04-17T15:48:32.312Z</time></trkpt><trkpt lat="43.4398034" lon="11.1727598"><ele>122.0</ele><time>2026-04-17T15:48:34.299Z</time></trkpt><trkpt lat="43.4397295" lon="11.1728192"><ele>121.50000000000001</ele><time>2026-04-17T15:48:36.293Z</time></trkpt><trkpt lat="43.4396562" lon="11.1728799"><ele>121.0</ele><time>2026-04-17T15:48:38.301Z</time></trkpt><trkpt lat="43.4395842" lon="11.1729459"><ele>121.33333333333334</ele><time>2026-04-17T15:48:40.302Z</time></trkpt><trkpt lat="43.4395037" lon="11.1730089"><ele>121.66666666666667</ele><time>2026-04-17T15:48:42.311Z</time></trkpt><trkpt lat="43.4394338" lon="11.1730749"><ele>122.0</ele><time>2026-04-17T15:48:44.307Z</time></trkpt><trkpt lat="43.4393885" lon="11.1731692"><ele>122.33333333333334</ele><time>2026-04-17T15:48:46.301Z</time></trkpt><trkpt lat="43.439367" lon="11.1732764"><ele>122.66666666666667</ele><time>2026-04-17T15:48:48.311Z</time></trkpt><trkpt lat="43.4393505" lon="11.1734"><ele>123.0</ele><time>2026-04-17T15:48:50.327Z</time></trkpt><trkpt lat="43.4393632" lon="11.1735291"><ele>123.0</ele><time>2026-04-17T15:48:52.309Z</time></trkpt><trkpt lat="43.4393968" lon="11.1736543"><ele>123.00000000000001</ele><time>2026-04-17T15:48:54.294Z</time></trkpt><trkpt lat="43.4394353" lon="11.173784"><ele>123.00000000000001</ele><time>2026-04-17T15:48:56.294Z</time></trkpt><trkpt lat="43.4394739" lon="11.173922"><ele>123.0</ele><time>2026-04-17T15:48:58.301Z</time></trkpt><trkpt lat="43.4394879" lon="11.1740486"><ele>123.0</ele><time>2026-04-17T15:49:00.302Z</time></trkpt><trkpt lat="43.4394971" lon="11.1741577"><ele>123.0</ele><time>2026-04-17T15:49:02.284Z</time></trkpt><trkpt lat="43.4395158" lon="11.1742679"><ele>123.00000000000001</ele><time>2026-04-17T15:49:04.301Z</time></trkpt><trkpt lat="43.439528" lon="11.1743809"><ele>123.00000000000001</ele><time>2026-04-17T15:49:06.303Z</time></trkpt><trkpt lat="43.4395443" lon="11.1745132"><ele>123.0</ele><time>2026-04-17T15:49:08.298Z</time></trkpt><trkpt lat="43.4395472" lon="11.1746437"><ele>123.0</ele><time>2026-04-17T15:49:10.3Z</time></trkpt><trkpt lat="43.4395498" lon="11.1747761"><ele>123.2</ele><time>2026-04-17T15:49:12.305Z</time></trkpt><trkpt lat="43.4395271" lon="11.1749193"><ele>123.4</ele><time>2026-04-17T15:49:14.321Z</time></trkpt><trkpt lat="43.4394983" lon="11.1750587"><ele>123.60000000000001</ele><time>2026-04-17T15:49:16.29Z</time></trkpt><trkpt lat="43.4394633" lon="11.1751969"><ele>123.80000000000001</ele><time>2026-04-17T15:49:18.299Z</time></trkpt><trkpt lat="43.4394332" lon="11.1753313"><ele>124.0</ele><time>2026-04-17T15:49:20.318Z</time></trkpt><trkpt lat="43.4394078" lon="11.1754728"><ele>124.0</ele><time>2026-04-17T15:49:22.287Z</time></trkpt><trkpt lat="43.439364" lon="11.1755993"><ele>124.0</ele><time>2026-04-17T15:49:24.304Z</time></trkpt><trkpt lat="43.4393269" lon="11.1757297"><ele>124.0</ele><time>2026-04-17T15:49:26.287Z</time></trkpt><trkpt lat="43.4392978" lon="11.1758675"><ele>124.0</ele><time>2026-04-17T15:49:28.303Z</time></trkpt><trkpt lat="43.4392692" lon="11.1759922"><ele>124.0</ele><time>2026-04-17T15:49:30.306Z</time></trkpt><trkpt lat="43.4392382" lon="11.1761212"><ele>123.80000000000001</ele><time>2026-04-17T15:49:32.3Z</time></trkpt><trkpt lat="43.4392075" lon="11.1762545"><ele>123.60000000000001</ele><time>2026-04-17T15:49:34.305Z</time></trkpt><trkpt lat="43.4391851" lon="11.1763937"><ele>123.4</ele><time>2026-04-17T15:49:36.299Z</time></trkpt><trkpt lat="43.4391724" lon="11.1765251"><ele>123.2</ele><time>2026-04-17T15:49:38.287Z</time></trkpt><trkpt lat="43.4391593" lon="11.1766639"><ele>123.0</ele><time>2026-04-17T15:49:40.298Z</time></trkpt><trkpt lat="43.439144" lon="11.1768058"><ele>123.2</ele><time>2026-04-17T15:49:42.302Z</time></trkpt><trkpt lat="43.43914" lon="11.1769509"><ele>123.4</ele><time>2026-04-17T15:49:44.307Z</time></trkpt><trkpt lat="43.4391527" lon="11.177095"><ele>123.60000000000001</ele><time>2026-04-17T15:49:46.3Z</time></trkpt><trkpt lat="43.4391661" lon="11.1772414"><ele>123.80000000000001</ele><time>2026-04-17T15:49:48.293Z</time></trkpt><trkpt lat="43.4391829" lon="11.1773815"><ele>124.0</ele><time>2026-04-17T15:49:50.306Z</time></trkpt><trkpt lat="43.4392085" lon="11.1775228"><ele>124.00000000000001</ele><time>2026-04-17T15:49:52.303Z</time></trkpt><trkpt lat="43.439236" lon="11.1776598"><ele>124.0</ele><time>2026-04-17T15:49:54.292Z</time></trkpt><trkpt lat="43.4392517" lon="11.1777841"><ele>124.0</ele><time>2026-04-17T15:49:56.281Z</time></trkpt><trkpt lat="43.4392616" lon="11.1778977"><ele>124.0</ele><time>2026-04-17T15:49:58.31Z</time></trkpt><trkpt lat="43.4392595" lon="11.1780048"><ele>124.00000000000001</ele><time>2026-04-17T15:50:00.287Z</time></trkpt><trkpt lat="43.4392503" lon="11.1781053"><ele>124.0</ele><time>2026-04-17T15:50:02.306Z</time></trkpt><trkpt lat="43.4392306" lon="11.1782159"><ele>124.16666666666667</ele><time>2026-04-17T15:50:04.301Z</time></trkpt><trkpt lat="43.4391884" lon="11.1783212"><ele>124.33333333333334</ele><time>2026-04-17T15:50:06.311Z</time></trkpt><trkpt lat="43.439137" lon="11.1784169"><ele>124.5</ele><time>2026-04-17T15:50:08.298Z</time></trkpt><trkpt lat="43.4390821" lon="11.1785012"><ele>124.66666666666666</ele><time>2026-04-17T15:50:10.296Z</time></trkpt><trkpt lat="43.4390155" lon="11.1785995"><ele>124.83333333333333</ele><time>2026-04-17T15:50:12.299Z</time></trkpt><trkpt lat="43.4389524" lon="11.1786967"><ele>125.0</ele><time>2026-04-17T15:50:14.281Z</time></trkpt><trkpt lat="43.4388839" lon="11.1787996"><ele>124.99999999999999</ele><time>2026-04-17T15:50:16.304Z</time></trkpt><trkpt lat="43.4388219" lon="11.178898"><ele>125.0</ele><time>2026-04-17T15:50:18.317Z</time></trkpt><trkpt lat="43.4387506" lon="11.1789781"><ele>125.0</ele><time>2026-04-17T15:50:20.302Z</time></trkpt><trkpt lat="43.4386701" lon="11.1790444"><ele>125.0</ele><time>2026-04-17T15:50:22.293Z</time></trkpt><trkpt lat="43.4385995" lon="11.1790985"><ele>124.99999999999999</ele><time>2026-04-17T15:50:24.302Z</time></trkpt><trkpt lat="43.4385354" lon="11.1791452"><ele>125.0</ele><time>2026-04-17T15:50:26.302Z</time></trkpt><trkpt lat="43.4384545" lon="11.1791956"><ele>125.0</ele><time>2026-04-17T15:50:29.297Z</time></trkpt><trkpt lat="43.4383866" lon="11.179213"><ele>125.0</ele><time>2026-04-17T15:50:31.309Z</time></trkpt><trkpt lat="43.4383034" lon="11.1792347"><ele>125.0</ele><time>2026-04-17T15:50:33.287Z</time></trkpt><trkpt lat="43.4381916" lon="11.1792593"><ele>125.0</ele><time>2026-04-17T15:50:35.276Z</time></trkpt><trkpt lat="43.4380779" lon="11.1792632"><ele>125.0</ele><time>2026-04-17T15:50:37.285Z</time></trkpt><trkpt lat="43.4379798" lon="11.1792685"><ele>125.2</ele><time>2026-04-17T15:50:39.297Z</time></trkpt><trkpt lat="43.4378914" lon="11.1792399"><ele>125.4</ele><time>2026-04-17T15:50:41.286Z</time></trkpt><trkpt lat="43.4377995" lon="11.1792022"><ele>125.6</ele><time>2026-04-17T15:50:43.295Z</time></trkpt><trkpt lat="43.4377116" lon="11.1791698"><ele>125.8</ele><time>2026-04-17T15:50:45.286Z</time></trkpt><trkpt lat="43.4376248" lon="11.1791375"><ele>126.0</ele><time>2026-04-17T15:50:47.281Z</time></trkpt><trkpt lat="43.4375398" lon="11.1790982"><ele>126.0</ele><time>2026-04-17T15:50:49.31Z</time></trkpt><trkpt lat="43.4374526" lon="11.1790714"><ele>126.0</ele><time>2026-04-17T15:50:51.302Z</time></trkpt><trkpt lat="43.4373676" lon="11.1790366"><ele>126.0</ele><time>2026-04-17T15:50:53.283Z</time></trkpt><trkpt lat="43.437282" lon="11.1789887"><ele>126.0</ele><time>2026-04-17T15:50:55.308Z</time></trkpt><trkpt lat="43.4371983" lon="11.1789495"><ele>126.0</ele><time>2026-04-17T15:50:57.3Z</time></trkpt><trkpt lat="43.43712" lon="11.1789096"><ele>126.0</ele><time>2026-04-17T15:50:59.311Z</time></trkpt><trkpt lat="43.4370408" lon="11.178871"><ele>126.33333333333333</ele><time>2026-04-17T15:51:01.311Z</time></trkpt><trkpt lat="43.4369635" lon="11.1788241"><ele>126.66666666666666</ele><time>2026-04-17T15:51:03.285Z</time></trkpt><trkpt lat="43.4368792" lon="11.1787848"><ele>127.0</ele><time>2026-04-17T15:51:05.284Z</time></trkpt><trkpt lat="43.4367938" lon="11.1787447"><ele>127.33333333333333</ele><time>2026-04-17T15:51:07.311Z</time></trkpt><trkpt lat="43.4367131" lon="11.1787026"><ele>127.66666666666666</ele><time>2026-04-17T15:51:09.306Z</time></trkpt><trkpt lat="43.4366304" lon="11.1786652"><ele>128.0</ele><time>2026-04-17T15:51:11.291Z</time></trkpt><trkpt lat="43.4365465" lon="11.1786327"><ele>127.99999999999999</ele><time>2026-04-17T15:51:13.3Z</time></trkpt><trkpt lat="43.4364691" lon="11.1786061"><ele>128.0</ele><time>2026-04-17T15:51:15.301Z</time></trkpt><trkpt lat="43.4363925" lon="11.1785837"><ele>128.0</ele><time>2026-04-17T15:51:17.297Z</time></trkpt><trkpt lat="43.4363105" lon="11.1785579"><ele>128.0</ele><time>2026-04-17T15:51:19.292Z</time></trkpt><trkpt lat="43.4362256" lon="11.1785375"><ele>127.99999999999999</ele><time>2026-04-17T15:51:21.297Z</time></trkpt><trkpt lat="43.4361308" lon="11.1785217"><ele>128.0</ele><time>2026-04-17T15:51:23.303Z</time></trkpt><trkpt lat="43.4360349" lon="11.1785347"><ele>129.0</ele><time>2026-04-17T15:51:25.289Z</time></trkpt><trkpt lat="43.4359489" lon="11.1785524"><ele>130.0</ele><time>2026-04-17T15:51:27.301Z</time></trkpt><trkpt lat="43.4358685" lon="11.1785667"><ele>131.0</ele><time>2026-04-17T15:51:29.315Z</time></trkpt><trkpt lat="43.4357885" lon="11.178587"><ele>132.0</ele><time>2026-04-17T15:51:31.298Z</time></trkpt><trkpt lat="43.4357066" lon="11.1786004"><ele>133.0</ele><time>2026-04-17T15:51:33.289Z</time></trkpt><trkpt lat="43.4356129" lon="11.1786124"><ele>134.0</ele><time>2026-04-17T15:51:35.278Z</time></trkpt><trkpt lat="43.4355149" lon="11.1786334"><ele>133.33333333333331</ele><time>2026-04-17T15:51:37.31Z</time></trkpt><trkpt lat="43.4354247" lon="11.1786475"><ele>132.66666666666666</ele><time>2026-04-17T15:51:39.304Z</time></trkpt><trkpt lat="43.4353396" lon="11.1786569"><ele>132.0</ele><time>2026-04-17T15:51:41.299Z</time></trkpt><trkpt lat="43.4352523" lon="11.1786614"><ele>131.33333333333334</ele><time>2026-04-17T15:51:43.306Z</time></trkpt><trkpt lat="43.435181" lon="11.1786609"><ele>130.66666666666669</ele><time>2026-04-17T15:51:45.294Z</time></trkpt><trkpt lat="43.4351123" lon="11.1786586"><ele>130.0</ele><time>2026-04-17T15:51:47.304Z</time></trkpt><trkpt lat="43.4350222" lon="11.1786721"><ele>130.0</ele><time>2026-04-17T15:51:49.292Z</time></trkpt><trkpt lat="43.4349272" lon="11.1786921"><ele>130.0</ele><time>2026-04-17T15:51:51.299Z</time></trkpt><trkpt lat="43.4348363" lon="11.1787127"><ele>130.0</ele><time>2026-04-17T15:51:53.305Z</time></trkpt><trkpt lat="43.4347473" lon="11.178735"><ele>130.0</ele><time>2026-04-17T15:51:55.284Z</time></trkpt><trkpt lat="43.4346573" lon="11.178758"><ele>130.0</ele><time>2026-04-17T15:51:57.284Z</time></trkpt><trkpt lat="43.4345691" lon="11.1787786"><ele>129.83333333333334</ele><time>2026-04-17T15:51:59.294Z</time></trkpt><trkpt lat="43.4344757" lon="11.1787997"><ele>129.66666666666669</ele><time>2026-04-17T15:52:01.284Z</time></trkpt><trkpt lat="43.4343846" lon="11.1788144"><ele>129.5</ele><time>2026-04-17T15:52:03.306Z</time></trkpt><trkpt lat="43.4343031" lon="11.1788228"><ele>129.33333333333334</ele><time>2026-04-17T15:52:05.301Z</time></trkpt><trkpt lat="43.4342194" lon="11.1788313"><ele>129.16666666666666</ele><time>2026-04-17T15:52:07.293Z</time></trkpt><trkpt lat="43.4341268" lon="11.1788404"><ele>129.0</ele><time>2026-04-17T15:52:09.324Z</time></trkpt><trkpt lat="43.4340331" lon="11.1788523"><ele>129.0</ele><time>2026-04-17T15:52:11.301Z</time></trkpt><trkpt lat="43.4339422" lon="11.1788498"><ele>129.0</ele><time>2026-04-17T15:52:13.289Z</time></trkpt><trkpt lat="43.4338579" lon="11.1788492"><ele>129.0</ele><time>2026-04-17T15:52:15.312Z</time></trkpt><trkpt lat="43.4337766" lon="11.1788481"><ele>129.0</ele><time>2026-04-17T15:52:17.286Z</time></trkpt><trkpt lat="43.4336971" lon="11.1788318"><ele>129.0</ele><time>2026-04-17T15:52:19.314Z</time></trkpt><trkpt lat="43.4336168" lon="11.1787845"><ele>129.0</ele><time>2026-04-17T15:52:21.289Z</time></trkpt><trkpt lat="43.4335289" lon="11.1787124"><ele>129.2</ele><time>2026-04-17T15:52:23.293Z</time></trkpt><trkpt lat="43.4334419" lon="11.1786358"><ele>129.4</ele><time>2026-04-17T15:52:25.288Z</time></trkpt><trkpt lat="43.4333516" lon="11.1785847"><ele>129.6</ele><time>2026-04-17T15:52:27.293Z</time></trkpt><trkpt lat="43.4332537" lon="11.17858"><ele>129.8</ele><time>2026-04-17T15:52:29.317Z</time></trkpt><trkpt lat="43.4331616" lon="11.1786006"><ele>130.0</ele><time>2026-04-17T15:52:31.296Z</time></trkpt><trkpt lat="43.4330733" lon="11.1786406"><ele>130.0</ele><time>2026-04-17T15:52:33.304Z</time></trkpt><trkpt lat="43.4329883" lon="11.1786929"><ele>130.0</ele><time>2026-04-17T15:52:35.307Z</time></trkpt><trkpt lat="43.4329156" lon="11.1787475"><ele>130.0</ele><time>2026-04-17T15:52:37.307Z</time></trkpt><trkpt lat="43.4328396" lon="11.178804"><ele>130.0</ele><time>2026-04-17T15:52:39.306Z</time></trkpt><trkpt lat="43.4327668" lon="11.1788563"><ele>130.0</ele><time>2026-04-17T15:52:41.304Z</time></trkpt><trkpt lat="43.432692" lon="11.1789383"><ele>130.0</ele><time>2026-04-17T15:52:44.306Z</time></trkpt><trkpt lat="43.432639" lon="11.1789895"><ele>130.0</ele><time>2026-04-17T15:52:46.295Z</time></trkpt><trkpt lat="43.4325546" lon="11.1790298"><ele>130.0</ele><time>2026-04-17T15:52:49.283Z</time></trkpt><trkpt lat="43.4324613" lon="11.1790337"><ele>130.0</ele><time>2026-04-17T15:52:52.31Z</time></trkpt><trkpt lat="43.4323673" lon="11.1790194"><ele>130.0</ele><time>2026-04-17T15:52:55.3Z</time></trkpt><trkpt lat="43.4323004" lon="11.1790084"><ele>130.0</ele><time>2026-04-17T15:52:57.294Z</time></trkpt><trkpt lat="43.4322161" lon="11.1789829"><ele>130.0</ele><time>2026-04-17T15:53:00.313Z</time></trkpt><trkpt lat="43.4321262" lon="11.1789457"><ele>130.5</ele><time>2026-04-17T15:53:03.304Z</time></trkpt><trkpt lat="43.4320376" lon="11.178906"><ele>131.0</ele><time>2026-04-17T15:53:06.281Z</time></trkpt><trkpt lat="43.4319571" lon="11.1788475"><ele>131.5</ele><time>2026-04-17T15:53:09.296Z</time></trkpt><trkpt lat="43.431904" lon="11.1787906"><ele>132.0</ele><time>2026-04-17T15:53:11.285Z</time></trkpt><trkpt lat="43.4318602" lon="11.1787251"><ele>132.5</ele><time>2026-04-17T15:53:13.297Z</time></trkpt><trkpt lat="43.431782" lon="11.178648"><ele>133.0</ele><time>2026-04-17T15:53:15.29Z</time></trkpt><trkpt lat="43.4316808" lon="11.1785804"><ele>133.0</ele><time>2026-04-17T15:53:17.296Z</time></trkpt><trkpt lat="43.4315653" lon="11.178514"><ele>133.0</ele><time>2026-04-17T15:53:19.296Z</time></trkpt><trkpt lat="43.4314647" lon="11.1784507"><ele>133.0</ele><time>2026-04-17T15:53:21.29Z</time></trkpt><trkpt lat="43.4313677" lon="11.1783939"><ele>133.0</ele><time>2026-04-17T15:53:23.282Z</time></trkpt><trkpt lat="43.4312795" lon="11.1783369"><ele>133.0</ele><time>2026-04-17T15:53:25.295Z</time></trkpt><trkpt lat="43.4311941" lon="11.1782907"><ele>132.8</ele><time>2026-04-17T15:53:27.3Z</time></trkpt><trkpt lat="43.4311087" lon="11.17823"><ele>132.60000000000002</ele><time>2026-04-17T15:53:29.279Z</time></trkpt><trkpt lat="43.4310264" lon="11.1781857"><ele>132.39999999999998</ele><time>2026-04-17T15:53:31.3Z</time></trkpt><trkpt lat="43.4309427" lon="11.1781384"><ele>132.2</ele><time>2026-04-17T15:53:33.29Z</time></trkpt><trkpt lat="43.430861" lon="11.1780901"><ele>132.0</ele><time>2026-04-17T15:53:35.287Z</time></trkpt><trkpt lat="43.4307876" lon="11.1780275"><ele>131.79999999999998</ele><time>2026-04-17T15:53:37.295Z</time></trkpt><trkpt lat="43.4307041" lon="11.1779791"><ele>131.6</ele><time>2026-04-17T15:53:39.292Z</time></trkpt><trkpt lat="43.430624" lon="11.1779167"><ele>131.39999999999998</ele><time>2026-04-17T15:53:41.3Z</time></trkpt><trkpt lat="43.4305417" lon="11.1778643"><ele>131.2</ele><time>2026-04-17T15:53:43.282Z</time></trkpt><trkpt lat="43.4304585" lon="11.1778052"><ele>131.0</ele><time>2026-04-17T15:53:45.293Z</time></trkpt><trkpt lat="43.4303749" lon="11.177762"><ele>131.0</ele><time>2026-04-17T15:53:47.295Z</time></trkpt><trkpt lat="43.430304" lon="11.177711"><ele>131.0</ele><time>2026-04-17T15:53:49.296Z</time></trkpt><trkpt lat="43.4302286" lon="11.1776716"><ele>131.0</ele><time>2026-04-17T15:53:51.302Z</time></trkpt><trkpt lat="43.430157" lon="11.1776244"><ele>131.0</ele><time>2026-04-17T15:53:53.285Z</time></trkpt><trkpt lat="43.4300941" lon="11.1775811"><ele>131.0</ele><time>2026-04-17T15:53:55.289Z</time></trkpt><trkpt lat="43.4300316" lon="11.1775478"><ele>131.0</ele><time>2026-04-17T15:53:57.295Z</time></trkpt><trkpt lat="43.429967" lon="11.1775172"><ele>131.0</ele><time>2026-04-17T15:53:59.307Z</time></trkpt><trkpt lat="43.4298978" lon="11.177497"><ele>131.0</ele><time>2026-04-17T15:54:01.314Z</time></trkpt><trkpt lat="43.4298208" lon="11.1774939"><ele>131.0</ele><time>2026-04-17T15:54:03.302Z</time></trkpt><trkpt lat="43.4297331" lon="11.177502"><ele>131.0</ele><time>2026-04-17T15:54:06.303Z</time></trkpt><trkpt lat="43.4296566" lon="11.1775451"><ele>131.0</ele><time>2026-04-17T15:54:09.29Z</time></trkpt><trkpt lat="43.4295939" lon="11.1775897"><ele>131.0</ele><time>2026-04-17T15:54:12.301Z</time></trkpt><trkpt lat="43.4295398" lon="11.177663"><ele>131.0</ele><time>2026-04-17T15:54:15.291Z</time></trkpt><trkpt lat="43.4294902" lon="11.1777338"><ele>131.16666666666666</ele><time>2026-04-17T15:54:17.311Z</time></trkpt><trkpt lat="43.4294352" lon="11.1778161"><ele>131.33333333333331</ele><time>2026-04-17T15:54:19.303Z</time></trkpt><trkpt lat="43.4293949" lon="11.1779035"><ele>131.5</ele><time>2026-04-17T15:54:21.302Z</time></trkpt><trkpt lat="43.4293565" lon="11.1780016"><ele>131.66666666666666</ele><time>2026-04-17T15:54:23.325Z</time></trkpt><trkpt lat="43.4293022" lon="11.1781163"><ele>131.83333333333334</ele><time>2026-04-17T15:54:25.31Z</time></trkpt><trkpt lat="43.4292567" lon="11.1782146"><ele>132.0</ele><time>2026-04-17T15:54:27.28Z</time></trkpt><trkpt lat="43.4292199" lon="11.1783119"><ele>132.0</ele><time>2026-04-17T15:54:29.3Z</time></trkpt><trkpt lat="43.4291891" lon="11.1784176"><ele>132.0</ele><time>2026-04-17T15:54:31.312Z</time></trkpt><trkpt lat="43.4291592" lon="11.1785165"><ele>132.0</ele><time>2026-04-17T15:54:33.293Z</time></trkpt><trkpt lat="43.4291324" lon="11.1786565"><ele>132.0</ele><time>2026-04-17T15:54:36.309Z</time></trkpt><trkpt lat="43.4291035" lon="11.1787495"><ele>132.0</ele><time>2026-04-17T15:54:38.29Z</time></trkpt><trkpt lat="43.429072" lon="11.1788366"><ele>132.0</ele><time>2026-04-17T15:54:40.321Z</time></trkpt><trkpt lat="43.4290267" lon="11.1789203"><ele>132.0</ele><time>2026-04-17T15:54:42.305Z</time></trkpt><trkpt lat="43.4289831" lon="11.1789913"><ele>132.0</ele><time>2026-04-17T15:54:44.289Z</time></trkpt><trkpt lat="43.42895" lon="11.1790733"><ele>132.0</ele><time>2026-04-17T15:54:46.301Z</time></trkpt><trkpt lat="43.4289132" lon="11.1791617"><ele>132.0</ele><time>2026-04-17T15:54:48.295Z</time></trkpt><trkpt lat="43.4288732" lon="11.1792518"><ele>132.0</ele><time>2026-04-17T15:54:50.295Z</time></trkpt><trkpt lat="43.4288334" lon="11.1793394"><ele>132.0</ele><time>2026-04-17T15:54:52.295Z</time></trkpt><trkpt lat="43.4287968" lon="11.1794155"><ele>132.0</ele><time>2026-04-17T15:54:54.295Z</time></trkpt><trkpt lat="43.4287342" lon="11.1794958"><ele>132.66666666666666</ele><time>2026-04-17T15:54:57.3Z</time></trkpt><trkpt lat="43.4286619" lon="11.1795634"><ele>133.33333333333334</ele><time>2026-04-17T15:55:00.313Z</time></trkpt><trkpt lat="43.4286114" lon="11.1796162"><ele>134.0</ele><time>2026-04-17T15:55:02.296Z</time></trkpt><trkpt lat="43.4285627" lon="11.1796772"><ele>134.66666666666669</ele><time>2026-04-17T15:55:04.305Z</time></trkpt><trkpt lat="43.42849" lon="11.1797327"><ele>135.33333333333334</ele><time>2026-04-17T15:55:06.303Z</time></trkpt><trkpt lat="43.428396" lon="11.1797567"><ele>136.0</ele><time>2026-04-17T15:55:08.295Z</time></trkpt><trkpt lat="43.4282809" lon="11.1797961"><ele>136.0</ele><time>2026-04-17T15:55:10.297Z</time></trkpt><trkpt lat="43.4282168" lon="11.1798169"><ele>136.0</ele><time>2026-04-17T15:55:11.289Z</time></trkpt><trkpt lat="43.4281563" lon="11.17985"><ele>136.0</ele><time>2026-04-17T15:55:12.304Z</time></trkpt><trkpt lat="43.4281022" lon="11.1799006"><ele>136.0</ele><time>2026-04-17T15:55:13.293Z</time></trkpt><trkpt lat="43.4280203" lon="11.1800241"><ele>136.0</ele><time>2026-04-17T15:55:15.314Z</time></trkpt><trkpt lat="43.4279687" lon="11.180138"><ele>136.0</ele><time>2026-04-17T15:55:17.284Z</time></trkpt><trkpt lat="43.4279186" lon="11.1802298"><ele>135.99999999999997</ele><time>2026-04-17T15:55:19.289Z</time></trkpt><trkpt lat="43.4278732" lon="11.1802902"><ele>136.0</ele><time>2026-04-17T15:55:21.304Z</time></trkpt><trkpt lat="43.4278289" lon="11.1803922"><ele>136.0</ele><time>2026-04-17T15:55:24.287Z</time></trkpt><trkpt lat="43.42779" lon="11.1804783"><ele>136.0</ele><time>2026-04-17T15:55:27.292Z</time></trkpt><trkpt lat="43.4277718" lon="11.1805852"><ele>136.0</ele><time>2026-04-17T15:55:31.297Z</time></trkpt><trkpt lat="43.42776" lon="11.1806895"><ele>135.99999999999997</ele><time>2026-04-17T15:55:35.285Z</time></trkpt><trkpt lat="43.4277463" lon="11.1807802"><ele>136.0</ele><time>2026-04-17T15:55:38.296Z</time></trkpt><trkpt lat="43.4277012" lon="11.1808709"><ele>136.99999999999997</ele><time>2026-04-17T15:55:42.317Z</time></trkpt><trkpt lat="43.4276698" lon="11.1809591"><ele>138.0</ele><time>2026-04-17T15:55:46.283Z</time></trkpt><trkpt lat="43.4276321" lon="11.1810389"><ele>139.0</ele><time>2026-04-17T15:55:50.303Z</time></trkpt><trkpt lat="43.4275947" lon="11.1811313"><ele>140.0</ele><time>2026-04-17T15:55:54.302Z</time></trkpt><trkpt lat="43.4275638" lon="11.1812069"><ele>141.0</ele><time>2026-04-17T15:55:57.295Z</time></trkpt><trkpt lat="43.4275186" lon="11.1812968"><ele>141.99999999999997</ele><time>2026-04-17T15:56:01.302Z</time></trkpt><trkpt lat="43.4274927" lon="11.1813821"><ele>143.0</ele><time>2026-04-17T15:56:05.304Z</time></trkpt><trkpt lat="43.4274771" lon="11.1814673"><ele>142.99999999999997</ele><time>2026-04-17T15:56:09.312Z</time></trkpt><trkpt lat="43.4275123" lon="11.1815513"><ele>143.0</ele><time>2026-04-17T15:56:13.317Z</time></trkpt><trkpt lat="43.4274809" lon="11.1816313"><ele>143.0</ele><time>2026-04-17T15:56:22.298Z</time></trkpt><trkpt lat="43.4274119" lon="11.1816868"><ele>143.0</ele><time>2026-04-17T15:56:26.313Z</time></trkpt><trkpt lat="43.4273555" lon="11.1817499"><ele>143.0</ele><time>2026-04-17T15:56:29.29Z</time></trkpt><trkpt lat="43.4272805" lon="11.1817902"><ele>142.99999999999997</ele><time>2026-04-17T15:56:33.281Z</time></trkpt><trkpt lat="43.4272202" lon="11.1818291"><ele>143.0</ele><time>2026-04-17T15:56:36.296Z</time></trkpt><trkpt lat="43.4271248" lon="11.1818724"><ele>143.0</ele><time>2026-04-17T15:56:40.315Z</time></trkpt><trkpt lat="43.4270578" lon="11.1819105"><ele>143.0</ele><time>2026-04-17T15:56:42.3Z</time></trkpt><trkpt lat="43.4269781" lon="11.1819378"><ele>143.0</ele><time>2026-04-17T15:56:44.278Z</time></trkpt><trkpt lat="43.4268767" lon="11.1819668"><ele>143.0</ele><time>2026-04-17T15:56:46.282Z</time></trkpt><trkpt lat="43.4268119" lon="11.1819955"><ele>143.0</ele><time>2026-04-17T15:56:47.285Z</time></trkpt><trkpt lat="43.426748" lon="11.1820197"><ele>143.0</ele><time>2026-04-17T15:56:48.303Z</time></trkpt><trkpt lat="43.4266815" lon="11.1820402"><ele>143.0</ele><time>2026-04-17T15:56:49.275Z</time></trkpt><trkpt lat="43.4266058" lon="11.182063"><ele>143.0</ele><time>2026-04-17T15:56:50.291Z</time></trkpt><trkpt lat="43.4265262" lon="11.1820897"><ele>143.0</ele><time>2026-04-17T15:56:51.281Z</time></trkpt><trkpt lat="43.4264458" lon="11.1821162"><ele>143.0</ele><time>2026-04-17T15:56:52.286Z</time></trkpt><trkpt lat="43.4263639" lon="11.1821311"><ele>143.0</ele><time>2026-04-17T15:56:53.278Z</time></trkpt><trkpt lat="43.4262787" lon="11.1821334"><ele>143.0</ele><time>2026-04-17T15:56:54.292Z</time></trkpt><trkpt lat="43.4261969" lon="11.1821303"><ele>143.33333333333331</ele><time>2026-04-17T15:56:55.304Z</time></trkpt><trkpt lat="43.4261158" lon="11.1821061"><ele>143.66666666666666</ele><time>2026-04-17T15:56:56.3Z</time></trkpt><trkpt lat="43.4260398" lon="11.1820885"><ele>144.0</ele><time>2026-04-17T15:56:57.372Z</time></trkpt><trkpt lat="43.4259552" lon="11.1820775"><ele>144.33333333333334</ele><time>2026-04-17T15:56:58.302Z</time></trkpt><trkpt lat="43.4258708" lon="11.1820696"><ele>144.66666666666669</ele><time>2026-04-17T15:56:59.299Z</time></trkpt><trkpt lat="43.4258104" lon="11.182103"><ele>145.0</ele><time>2026-04-17T15:57:00.394Z</time></trkpt><trkpt lat="43.4257683" lon="11.182173"><ele>145.0</ele><time>2026-04-17T15:57:01.308Z</time></trkpt><trkpt lat="43.425735" lon="11.1822581"><ele>145.0</ele><time>2026-04-17T15:57:02.285Z</time></trkpt><trkpt lat="43.4256795" lon="11.1824181"><ele>145.0</ele><time>2026-04-17T15:57:04.304Z</time></trkpt><trkpt lat="43.4256342" lon="11.1825623"><ele>145.0</ele><time>2026-04-17T15:57:06.366Z</time></trkpt><trkpt lat="43.4256492" lon="11.1826703"><ele>145.0</ele><time>2026-04-17T15:57:07.3Z</time></trkpt><trkpt lat="43.4256463" lon="11.1827707"><ele>144.5</ele><time>2026-04-17T15:57:08.293Z</time></trkpt><trkpt lat="43.425581" lon="11.1828745"><ele>144.0</ele><time>2026-04-17T15:57:10.382Z</time></trkpt><trkpt lat="43.42556" lon="11.1829689"><ele>143.5</ele><time>2026-04-17T15:57:12.393Z</time></trkpt><trkpt lat="43.4254991" lon="11.1830243"><ele>143.0</ele><time>2026-04-17T15:57:14.271Z</time></trkpt><trkpt lat="43.4254366" lon="11.1831063"><ele>142.5</ele><time>2026-04-17T15:57:18.308Z</time></trkpt><trkpt lat="43.4253897" lon="11.1831867"><ele>142.0</ele><time>2026-04-17T15:57:22.29Z</time></trkpt><trkpt lat="43.42535" lon="11.183261"><ele>143.71428571428572</ele><time>2026-04-17T15:57:26.306Z</time></trkpt><trkpt lat="43.4252864" lon="11.1832971"><ele>145.42857142857142</ele><time>2026-04-17T15:57:30.296Z</time></trkpt><trkpt lat="43.425236" lon="11.1833614"><ele>147.14285714285714</ele><time>2026-04-17T15:57:35.287Z</time></trkpt><trkpt lat="43.4251673" lon="11.1833095"><ele>148.85714285714286</ele><time>2026-04-17T15:57:39.301Z</time></trkpt><trkpt lat="43.4251167" lon="11.1832516"><ele>150.57142857142856</ele><time>2026-04-17T15:57:43.313Z</time></trkpt><trkpt lat="43.4250621" lon="11.1831945"><ele>152.28571428571428</ele><time>2026-04-17T15:57:47.311Z</time></trkpt><trkpt lat="43.4250116" lon="11.1831423"><ele>154.0</ele><time>2026-04-17T15:57:51.3Z</time></trkpt><trkpt lat="43.4249539" lon="11.1830762"><ele>154.0</ele><time>2026-04-17T15:57:56.306Z</time></trkpt><trkpt lat="43.4249029" lon="11.1831307"><ele>154.0</ele><time>2026-04-17T15:58:04.301Z</time></trkpt><trkpt lat="43.4248475" lon="11.1831778"><ele>154.0</ele><time>2026-04-17T15:58:08.302Z</time></trkpt><trkpt lat="43.4247988" lon="11.1832479"><ele>154.0</ele><time>2026-04-17T15:58:13.293Z</time></trkpt><trkpt lat="43.42474" lon="11.1833016"><ele>154.0</ele><time>2026-04-17T15:58:20.293Z</time></trkpt><trkpt lat="43.4246818" lon="11.1833501"><ele>154.0</ele><time>2026-04-17T15:58:25.297Z</time></trkpt><trkpt lat="43.4246378" lon="11.1834235"><ele>154.0</ele><time>2026-04-17T15:58:33.296Z</time></trkpt><trkpt lat="43.4245903" lon="11.183488"><ele>155.71428571428572</ele><time>2026-04-17T15:58:38.307Z</time></trkpt><trkpt lat="43.4245236" lon="11.1835437"><ele>157.42857142857144</ele><time>2026-04-17T15:58:43.296Z</time></trkpt><trkpt lat="43.4244563" lon="11.1835748"><ele>159.14285714285714</ele><time>2026-04-17T15:58:49.294Z</time></trkpt><trkpt lat="43.4243928" lon="11.1835648"><ele>160.85714285714286</ele><time>2026-04-17T15:58:53.286Z</time></trkpt><trkpt lat="43.4243131" lon="11.1835345"><ele>162.57142857142858</ele><time>2026-04-17T15:58:56.281Z</time></trkpt><trkpt lat="43.4242523" lon="11.1834924"><ele>164.28571428571428</ele><time>2026-04-17T15:58:59.312Z</time></trkpt><trkpt lat="43.4241906" lon="11.1834703"><ele>166.0</ele><time>2026-04-17T15:59:03.302Z</time></trkpt><trkpt lat="43.4241314" lon="11.1834094"><ele>166.0</ele><time>2026-04-17T15:59:09.304Z</time></trkpt><trkpt lat="43.4240597" lon="11.1833818"><ele>166.0</ele><time>2026-04-17T15:59:14.274Z</time></trkpt><trkpt lat="43.4239834" lon="11.1834013"><ele>166.0</ele><time>2026-04-17T15:59:17.299Z</time></trkpt><trkpt lat="43.4239178" lon="11.1833933"><ele>166.0</ele><time>2026-04-17T15:59:20.292Z</time></trkpt><trkpt lat="43.4238371" lon="11.1833814"><ele>166.0</ele><time>2026-04-17T15:59:24.295Z</time></trkpt><trkpt lat="43.4237635" lon="11.1833455"><ele>166.0</ele><time>2026-04-17T15:59:28.28Z</time></trkpt><trkpt lat="43.4236745" lon="11.1833253"><ele>166.42857142857142</ele><time>2026-04-17T15:59:32.375Z</time></trkpt><trkpt lat="43.4236074" lon="11.1832695"><ele>166.85714285714286</ele><time>2026-04-17T15:59:34.291Z</time></trkpt><trkpt lat="43.4235466" lon="11.1832214"><ele>167.28571428571428</ele><time>2026-04-17T15:59:37.365Z</time></trkpt><trkpt lat="43.4234909" lon="11.1831556"><ele>167.71428571428572</ele><time>2026-04-17T15:59:41.271Z</time></trkpt><trkpt lat="43.4234247" lon="11.1831938"><ele>168.14285714285714</ele><time>2026-04-17T15:59:44.283Z</time></trkpt><trkpt lat="43.4233674" lon="11.1832658"><ele>168.57142857142858</ele><time>2026-04-17T15:59:47.286Z</time></trkpt><trkpt lat="43.4232919" lon="11.1832681"><ele>169.0</ele><time>2026-04-17T15:59:51.372Z</time></trkpt><trkpt lat="43.4232105" lon="11.1832613"><ele>169.0</ele><time>2026-04-17T15:59:55.278Z</time></trkpt><trkpt lat="43.4231247" lon="11.1832603"><ele>169.0</ele><time>2026-04-17T15:59:59.29Z</time></trkpt><trkpt lat="43.4230589" lon="11.1832533"><ele>169.0</ele><time>2026-04-17T16:00:03.29Z</time></trkpt><trkpt lat="43.4229745" lon="11.1832736"><ele>169.0</ele><time>2026-04-17T16:00:07.268Z</time></trkpt><trkpt lat="43.4228968" lon="11.183259"><ele>169.0</ele><time>2026-04-17T16:00:11.291Z</time></trkpt><trkpt lat="43.4228255" lon="11.183254"><ele>169.0</ele><time>2026-04-17T16:00:14.315Z</time></trkpt><trkpt lat="43.4227476" lon="11.1832772"><ele>169.28571428571428</ele><time>2026-04-17T16:00:18.285Z</time></trkpt><trkpt lat="43.4226811" lon="11.1833235"><ele>169.57142857142856</ele><time>2026-04-17T16:00:21.279Z</time></trkpt><trkpt lat="43.4226243" lon="11.183365"><ele>169.85714285714283</ele><time>2026-04-17T16:00:24.284Z</time></trkpt><trkpt lat="43.4225711" lon="11.1834181"><ele>170.14285714285714</ele><time>2026-04-17T16:00:27.295Z</time></trkpt><trkpt lat="43.4225172" lon="11.1834701"><ele>170.42857142857142</ele><time>2026-04-17T16:00:30.294Z</time></trkpt><trkpt lat="43.4224514" lon="11.1835345"><ele>170.7142857142857</ele><time>2026-04-17T16:00:34.311Z</time></trkpt><trkpt lat="43.4223971" lon="11.1835807"><ele>171.0</ele><time>2026-04-17T16:00:37.279Z</time></trkpt><trkpt lat="43.4223433" lon="11.1836382"><ele>171.0</ele><time>2026-04-17T16:00:40.284Z</time></trkpt><trkpt lat="43.4222644" lon="11.1836965"><ele>171.0</ele><time>2026-04-17T16:00:43.289Z</time></trkpt><trkpt lat="43.422205" lon="11.1837657"><ele>171.0</ele><time>2026-04-17T16:00:46.305Z</time></trkpt><trkpt lat="43.4221375" lon="11.1838293"><ele>171.0</ele><time>2026-04-17T16:00:49.3Z</time></trkpt><trkpt lat="43.4220789" lon="11.1838815"><ele>171.0</ele><time>2026-04-17T16:00:52.295Z</time></trkpt><trkpt lat="43.4220421" lon="11.1839741"><ele>171.0</ele><time>2026-04-17T16:00:57.296Z</time></trkpt><trkpt lat="43.4220537" lon="11.184068"><ele>171.16666666666666</ele><time>2026-04-17T16:01:00.296Z</time></trkpt><trkpt lat="43.4220844" lon="11.1841819"><ele>171.33333333333334</ele><time>2026-04-17T16:01:03.309Z</time></trkpt><trkpt lat="43.4221062" lon="11.1843011"><ele>171.5</ele><time>2026-04-17T16:01:06.303Z</time></trkpt><trkpt lat="43.4221307" lon="11.1844209"><ele>171.66666666666669</ele><time>2026-04-17T16:01:09.289Z</time></trkpt><trkpt lat="43.422154" lon="11.1845387"><ele>171.83333333333334</ele><time>2026-04-17T16:01:12.298Z</time></trkpt><trkpt lat="43.4221992" lon="11.1846431"><ele>172.0</ele><time>2026-04-17T16:01:15.314Z</time></trkpt><trkpt lat="43.4222442" lon="11.184745"><ele>172.33333333333334</ele><time>2026-04-17T16:01:18.284Z</time></trkpt><trkpt lat="43.4222792" lon="11.1848551"><ele>172.66666666666669</ele><time>2026-04-17T16:01:21.319Z</time></trkpt><trkpt lat="43.4222872" lon="11.1849745"><ele>173.0</ele><time>2026-04-17T16:01:24.283Z</time></trkpt><trkpt lat="43.4222558" lon="11.1850794"><ele>173.33333333333334</ele><time>2026-04-17T16:01:27.297Z</time></trkpt><trkpt lat="43.4221914" lon="11.1851585"><ele>173.66666666666666</ele><time>2026-04-17T16:01:30.303Z</time></trkpt><trkpt lat="43.4221208" lon="11.1852283"><ele>174.0</ele><time>2026-04-17T16:01:33.287Z</time></trkpt><trkpt lat="43.422053" lon="11.1852921"><ele>174.0</ele><time>2026-04-17T16:01:36.306Z</time></trkpt><trkpt lat="43.42199" lon="11.1853667"><ele>174.0</ele><time>2026-04-17T16:01:55.305Z</time></trkpt><trkpt lat="43.4219309" lon="11.1854253"><ele>174.0</ele><time>2026-04-17T16:01:58.283Z</time></trkpt><trkpt lat="43.421874" lon="11.185508"><ele>174.0</ele><time>2026-04-17T16:02:01.28Z</time></trkpt><trkpt lat="43.42181" lon="11.1855776"><ele>174.0</ele><time>2026-04-17T16:02:04.285Z</time></trkpt><trkpt lat="43.4217707" lon="11.1856463"><ele>174.0</ele><time>2026-04-17T16:02:08.287Z</time></trkpt><trkpt lat="43.4217158" lon="11.185741"><ele>174.0</ele><time>2026-04-17T16:02:22.304Z</time></trkpt><trkpt lat="43.4216665" lon="11.1858414"><ele>174.0</ele><time>2026-04-17T16:02:25.276Z</time></trkpt><trkpt lat="43.4216094" lon="11.1859369"><ele>174.0</ele><time>2026-04-17T16:02:28.279Z</time></trkpt><trkpt lat="43.4215658" lon="11.1860041"><ele>174.0</ele><time>2026-04-17T16:02:30.292Z</time></trkpt><trkpt lat="43.4215261" lon="11.1860768"><ele>174.0</ele><time>2026-04-17T16:02:32.274Z</time></trkpt><trkpt lat="43.4214878" lon="11.1861488"><ele>174.0</ele><time>2026-04-17T16:02:34.293Z</time></trkpt><trkpt lat="43.4214542" lon="11.1862306"><ele>174.0</ele><time>2026-04-17T16:02:36.283Z</time></trkpt><trkpt lat="43.4214214" lon="11.1863098"><ele>174.0</ele><time>2026-04-17T16:02:38.288Z</time></trkpt><trkpt lat="43.4213519" lon="11.1863973"><ele>174.0</ele><time>2026-04-17T16:02:41.303Z</time></trkpt><trkpt lat="43.4212888" lon="11.1864248"><ele>174.0</ele><time>2026-04-17T16:02:43.29Z</time></trkpt><trkpt lat="43.4212271" lon="11.1864052"><ele>174.0</ele><time>2026-04-17T16:02:45.278Z</time></trkpt><trkpt lat="43.4211623" lon="11.1863831"><ele>174.0</ele><time>2026-04-17T16:02:47.293Z</time></trkpt><trkpt lat="43.4210957" lon="11.1864105"><ele>174.0</ele><time>2026-04-17T16:02:49.284Z</time></trkpt><trkpt lat="43.4210406" lon="11.1864584"><ele>174.0</ele><time>2026-04-17T16:02:51.297Z</time></trkpt><trkpt lat="43.4209816" lon="11.1865223"><ele>174.16666666666666</ele><time>2026-04-17T16:02:54.298Z</time></trkpt><trkpt lat="43.4209206" lon="11.1865984"><ele>174.33333333333334</ele><time>2026-04-17T16:03:13.286Z</time></trkpt><trkpt lat="43.4208813" lon="11.1866862"><ele>174.5</ele><time>2026-04-17T16:03:16.286Z</time></trkpt><trkpt lat="43.4208396" lon="11.1867735"><ele>174.66666666666669</ele><time>2026-04-17T16:03:19.291Z</time></trkpt><trkpt lat="43.4207762" lon="11.186835"><ele>174.83333333333334</ele><time>2026-04-17T16:03:22.292Z</time></trkpt><trkpt lat="43.420716" lon="11.1868936"><ele>175.0</ele><time>2026-04-17T16:03:25.322Z</time></trkpt><trkpt lat="43.4206671" lon="11.186977"><ele>175.0</ele><time>2026-04-17T16:03:28.291Z</time></trkpt><trkpt lat="43.4206264" lon="11.187046"><ele>175.0</ele><time>2026-04-17T16:03:31.287Z</time></trkpt><trkpt lat="43.4205898" lon="11.1871221"><ele>175.0</ele><time>2026-04-17T16:03:47.292Z</time></trkpt><trkpt lat="43.4205516" lon="11.1872074"><ele>175.0</ele><time>2026-04-17T16:03:50.295Z</time></trkpt><trkpt lat="43.420516" lon="11.1872988"><ele>175.0</ele><time>2026-04-17T16:03:53.3Z</time></trkpt><trkpt lat="43.4204689" lon="11.1873874"><ele>175.0</ele><time>2026-04-17T16:03:55.31Z</time></trkpt><trkpt lat="43.4204184" lon="11.1875008"><ele>175.0</ele><time>2026-04-17T16:03:57.299Z</time></trkpt><trkpt lat="43.4203539" lon="11.1875948"><ele>175.0</ele><time>2026-04-17T16:03:59.314Z</time></trkpt><trkpt lat="43.4202968" lon="11.1876588"><ele>175.0</ele><time>2026-04-17T16:04:01.279Z</time></trkpt><trkpt lat="43.4202501" lon="11.1877517"><ele>175.0</ele><time>2026-04-17T16:04:04.295Z</time></trkpt><trkpt lat="43.4203131" lon="11.1878076"><ele>175.0</ele><time>2026-04-17T16:04:18.308Z</time></trkpt><trkpt lat="43.4203929" lon="11.1878235"><ele>175.0</ele><time>2026-04-17T16:04:24.292Z</time></trkpt><trkpt lat="43.4204602" lon="11.1878982"><ele>175.0</ele><time>2026-04-17T16:04:27.292Z</time></trkpt><trkpt lat="43.4204378" lon="11.1879794"><ele>175.0</ele><time>2026-04-17T16:04:29.293Z</time></trkpt><trkpt lat="43.4203718" lon="11.1880281"><ele>175.0</ele><time>2026-04-17T16:04:31.283Z</time></trkpt><trkpt lat="43.4203069" lon="11.1881155"><ele>175.0</ele><time>2026-04-17T16:04:33.279Z</time></trkpt><trkpt lat="43.4202519" lon="11.188222"><ele>175.0</ele><time>2026-04-17T16:04:35.309Z</time></trkpt><trkpt lat="43.4201835" lon="11.1883418"><ele>175.0</ele><time>2026-04-17T16:04:37.274Z</time></trkpt><trkpt lat="43.4201125" lon="11.1884661"><ele>173.5</ele><time>2026-04-17T16:04:39.288Z</time></trkpt><trkpt lat="43.4200429" lon="11.1885973"><ele>172.0</ele><time>2026-04-17T16:04:41.296Z</time></trkpt><trkpt lat="43.419983" lon="11.1887326"><ele>170.5</ele><time>2026-04-17T16:04:43.301Z</time></trkpt><trkpt lat="43.4199277" lon="11.1888725"><ele>169.0</ele><time>2026-04-17T16:04:45.292Z</time></trkpt><trkpt lat="43.4198647" lon="11.1890058"><ele>169.0</ele><time>2026-04-17T16:04:47.292Z</time></trkpt><trkpt lat="43.4198025" lon="11.1891094"><ele>169.0</ele><time>2026-04-17T16:04:49.287Z</time></trkpt><trkpt lat="43.4197493" lon="11.1891993"><ele>169.0</ele><time>2026-04-17T16:04:51.292Z</time></trkpt><trkpt lat="43.4196855" lon="11.1892686"><ele>169.0</ele><time>2026-04-17T16:04:53.284Z</time></trkpt><trkpt lat="43.4196173" lon="11.189225"><ele>169.0</ele><time>2026-04-17T16:04:55.335Z</time></trkpt><trkpt lat="43.4195539" lon="11.1891531"><ele>169.0</ele><time>2026-04-17T16:04:57.305Z</time></trkpt><trkpt lat="43.419479" lon="11.1890814"><ele>169.16666666666669</ele><time>2026-04-17T16:04:59.312Z</time></trkpt><trkpt lat="43.4194249" lon="11.1890009"><ele>169.33333333333334</ele><time>2026-04-17T16:05:01.286Z</time></trkpt><trkpt lat="43.4193563" lon="11.1889427"><ele>169.5</ele><time>2026-04-17T16:05:03.291Z</time></trkpt><trkpt lat="43.4192832" lon="11.1888825"><ele>169.66666666666666</ele><time>2026-04-17T16:05:05.285Z</time></trkpt><trkpt lat="43.4192198" lon="11.1888255"><ele>169.83333333333331</ele><time>2026-04-17T16:05:07.29Z</time></trkpt><trkpt lat="43.4191575" lon="11.1887436"><ele>170.0</ele><time>2026-04-17T16:05:09.307Z</time></trkpt><trkpt lat="43.4191397" lon="11.1886413"><ele>170.0</ele><time>2026-04-17T16:05:11.288Z</time></trkpt><trkpt lat="43.4191731" lon="11.1885213"><ele>170.0</ele><time>2026-04-17T16:05:14.283Z</time></trkpt><trkpt lat="43.4192252" lon="11.1884089"><ele>170.0</ele><time>2026-04-17T16:05:17.295Z</time></trkpt><trkpt lat="43.4192866" lon="11.1883335"><ele>170.0</ele><time>2026-04-17T16:05:20.301Z</time></trkpt><trkpt lat="43.4193477" lon="11.1882666"><ele>170.0</ele><time>2026-04-17T16:05:36.302Z</time></trkpt><trkpt lat="43.419368" lon="11.1881665"><ele>170.0</ele><time>2026-04-17T16:05:39.281Z</time></trkpt><trkpt lat="43.4193948" lon="11.1880617"><ele>170.2857142857143</ele><time>2026-04-17T16:05:42.3Z</time></trkpt><trkpt lat="43.4194615" lon="11.1880116"><ele>170.57142857142856</ele><time>2026-04-17T16:05:45.294Z</time></trkpt><trkpt lat="43.41952" lon="11.1879409"><ele>170.85714285714286</ele><time>2026-04-17T16:05:48.305Z</time></trkpt><trkpt lat="43.4195614" lon="11.1878476"><ele>171.14285714285717</ele><time>2026-04-17T16:05:51.298Z</time></trkpt><trkpt lat="43.4195986" lon="11.187777"><ele>171.42857142857144</ele><time>2026-04-17T16:05:54.296Z</time></trkpt><trkpt lat="43.4196556" lon="11.187702"><ele>171.71428571428572</ele><time>2026-04-17T16:05:58.309Z</time></trkpt><trkpt lat="43.419708" lon="11.1876385"><ele>172.0</ele><time>2026-04-17T16:06:01.308Z</time></trkpt><trkpt lat="43.4197519" lon="11.1875553"><ele>172.42857142857144</ele><time>2026-04-17T16:06:04.305Z</time></trkpt><trkpt lat="43.4198118" lon="11.1875221"><ele>172.85714285714286</ele><time>2026-04-17T16:06:07.302Z</time></trkpt><trkpt lat="43.4198705" lon="11.1875617"><ele>173.28571428571428</ele><time>2026-04-17T16:06:10.278Z</time></trkpt><trkpt lat="43.4199391" lon="11.1875903"><ele>173.71428571428572</ele><time>2026-04-17T16:06:24.284Z</time></trkpt><trkpt lat="43.4200052" lon="11.1876087"><ele>174.14285714285714</ele><time>2026-04-17T16:06:28.291Z</time></trkpt><trkpt lat="43.4200663" lon="11.1876509"><ele>174.57142857142858</ele><time>2026-04-17T16:06:31.287Z</time></trkpt><trkpt lat="43.4201389" lon="11.1876875"><ele>175.0</ele><time>2026-04-17T16:06:34.296Z</time></trkpt><trkpt lat="43.4202072" lon="11.187753"><ele>175.0</ele><time>2026-04-17T16:06:37.309Z</time></trkpt><trkpt lat="43.4202835" lon="11.1877883"><ele>175.0</ele><time>2026-04-17T16:06:40.29Z</time></trkpt><trkpt lat="43.4203522" lon="11.1877694"><ele>175.0</ele><time>2026-04-17T16:06:43.277Z</time></trkpt><trkpt lat="43.4204015" lon="11.1876876"><ele>175.0</ele><time>2026-04-17T16:06:46.299Z</time></trkpt><trkpt lat="43.4204421" lon="11.1875871"><ele>175.0</ele><time>2026-04-17T16:06:49.282Z</time></trkpt><trkpt lat="43.4204871" lon="11.1874929"><ele>175.0</ele><time>2026-04-17T16:06:52.295Z</time></trkpt><trkpt lat="43.4205322" lon="11.1874079"><ele>175.0</ele><time>2026-04-17T16:06:55.305Z</time></trkpt><trkpt lat="43.4205751" lon="11.1873336"><ele>175.0</ele><time>2026-04-17T16:06:58.295Z</time></trkpt><trkpt lat="43.4206278" lon="11.1872425"><ele>175.0</ele><time>2026-04-17T16:07:01.288Z</time></trkpt><trkpt lat="43.4206716" lon="11.1871582"><ele>175.0</ele><time>2026-04-17T16:07:03.284Z</time></trkpt><trkpt lat="43.4207157" lon="11.1870805"><ele>175.0</ele><time>2026-04-17T16:07:05.28Z</time></trkpt><trkpt lat="43.4207581" lon="11.1869984"><ele>175.0</ele><time>2026-04-17T16:07:07.298Z</time></trkpt><trkpt lat="43.420798" lon="11.1869234"><ele>175.0</ele><time>2026-04-17T16:07:09.291Z</time></trkpt><trkpt lat="43.4208381" lon="11.1868465"><ele>175.0</ele><time>2026-04-17T16:07:11.283Z</time></trkpt><trkpt lat="43.4208784" lon="11.1867624"><ele>175.0</ele><time>2026-04-17T16:07:13.286Z</time></trkpt><trkpt lat="43.4209167" lon="11.1866888"><ele>175.0</ele><time>2026-04-17T16:07:15.315Z</time></trkpt><trkpt lat="43.4209499" lon="11.1866135"><ele>175.0</ele><time>2026-04-17T16:07:17.309Z</time></trkpt><trkpt lat="43.4209845" lon="11.1865392"><ele>175.0</ele><time>2026-04-17T16:07:19.302Z</time></trkpt><trkpt lat="43.421017" lon="11.1864641"><ele>175.0</ele><time>2026-04-17T16:07:21.285Z</time></trkpt><trkpt lat="43.4210493" lon="11.1863776"><ele>175.0</ele><time>2026-04-17T16:07:23.296Z</time></trkpt><trkpt lat="43.4210404" lon="11.1862806"><ele>174.85714285714286</ele><time>2026-04-17T16:07:25.296Z</time></trkpt><trkpt lat="43.4209977" lon="11.1862059"><ele>174.71428571428572</ele><time>2026-04-17T16:07:27.292Z</time></trkpt><trkpt lat="43.4209271" lon="11.1861339"><ele>174.57142857142856</ele><time>2026-04-17T16:07:30.286Z</time></trkpt><trkpt lat="43.42088" lon="11.1860749"><ele>174.42857142857144</ele><time>2026-04-17T16:07:32.285Z</time></trkpt><trkpt lat="43.4208341" lon="11.18601"><ele>174.28571428571428</ele><time>2026-04-17T16:07:34.296Z</time></trkpt><trkpt lat="43.4207807" lon="11.1859623"><ele>174.14285714285714</ele><time>2026-04-17T16:07:36.284Z</time></trkpt><trkpt lat="43.4207255" lon="11.1859048"><ele>174.0</ele><time>2026-04-17T16:07:38.284Z</time></trkpt><trkpt lat="43.4206697" lon="11.1858359"><ele>174.0</ele><time>2026-04-17T16:07:40.282Z</time></trkpt><trkpt lat="43.4206052" lon="11.1857728"><ele>174.0</ele><time>2026-04-17T16:07:42.286Z</time></trkpt><trkpt lat="43.4205465" lon="11.1857068"><ele>174.0</ele><time>2026-04-17T16:07:44.286Z</time></trkpt><trkpt lat="43.4204927" lon="11.1856406"><ele>174.0</ele><time>2026-04-17T16:07:46.31Z</time></trkpt><trkpt lat="43.4204285" lon="11.1855887"><ele>174.0</ele><time>2026-04-17T16:07:48.275Z</time></trkpt><trkpt lat="43.4203665" lon="11.1855311"><ele>174.0</ele><time>2026-04-17T16:07:50.288Z</time></trkpt><trkpt lat="43.4203139" lon="11.185469"><ele>174.0</ele><time>2026-04-17T16:07:52.287Z</time></trkpt><trkpt lat="43.4202939" lon="11.1853567"><ele>174.33333333333334</ele><time>2026-04-17T16:07:55.284Z</time></trkpt><trkpt lat="43.420328" lon="11.1852617"><ele>174.66666666666666</ele><time>2026-04-17T16:07:57.28Z</time></trkpt><trkpt lat="43.4203696" lon="11.1851714"><ele>175.0</ele><time>2026-04-17T16:07:59.301Z</time></trkpt><trkpt lat="43.4204201" lon="11.1850637"><ele>175.33333333333331</ele><time>2026-04-17T16:08:01.29Z</time></trkpt><trkpt lat="43.4204689" lon="11.184948"><ele>175.66666666666666</ele><time>2026-04-17T16:08:03.291Z</time></trkpt><trkpt lat="43.4205264" lon="11.1848434"><ele>176.0</ele><time>2026-04-17T16:08:05.293Z</time></trkpt><trkpt lat="43.4205904" lon="11.1847544"><ele>176.16666666666666</ele><time>2026-04-17T16:08:07.288Z</time></trkpt><trkpt lat="43.4206411" lon="11.1846542"><ele>176.33333333333331</ele><time>2026-04-17T16:08:09.289Z</time></trkpt><trkpt lat="43.4206875" lon="11.1845502"><ele>176.5</ele><time>2026-04-17T16:08:11.283Z</time></trkpt><trkpt lat="43.4207375" lon="11.1844473"><ele>176.66666666666666</ele><time>2026-04-17T16:08:13.286Z</time></trkpt><trkpt lat="43.4207869" lon="11.1843488"><ele>176.83333333333334</ele><time>2026-04-17T16:08:15.288Z</time></trkpt><trkpt lat="43.4208426" lon="11.1842631"><ele>177.0</ele><time>2026-04-17T16:08:17.282Z</time></trkpt><trkpt lat="43.4208977" lon="11.18418"><ele>177.0</ele><time>2026-04-17T16:08:19.29Z</time></trkpt><trkpt lat="43.4209573" lon="11.1840963"><ele>177.0</ele><time>2026-04-17T16:08:21.287Z</time></trkpt><trkpt lat="43.4210098" lon="11.1840005"><ele>177.0</ele><time>2026-04-17T16:08:23.277Z</time></trkpt><trkpt lat="43.4210635" lon="11.1839143"><ele>177.0</ele><time>2026-04-17T16:08:25.295Z</time></trkpt><trkpt lat="43.4211126" lon="11.1838355"><ele>177.0</ele><time>2026-04-17T16:08:27.296Z</time></trkpt><trkpt lat="43.4211811" lon="11.1837483"><ele>177.0</ele><time>2026-04-17T16:08:30.282Z</time></trkpt><trkpt lat="43.4212314" lon="11.1836929"><ele>176.8</ele><time>2026-04-17T16:08:32.28Z</time></trkpt><trkpt lat="43.4212977" lon="11.1836149"><ele>176.6</ele><time>2026-04-17T16:08:34.306Z</time></trkpt><trkpt lat="43.4213693" lon="11.1835286"><ele>176.4</ele><time>2026-04-17T16:08:36.311Z</time></trkpt><trkpt lat="43.4214425" lon="11.1834489"><ele>176.20000000000002</ele><time>2026-04-17T16:08:38.291Z</time></trkpt><trkpt lat="43.4215179" lon="11.1833687"><ele>176.0</ele><time>2026-04-17T16:08:40.31Z</time></trkpt><trkpt lat="43.4215965" lon="11.1832884"><ele>175.75</ele><time>2026-04-17T16:08:42.295Z</time></trkpt><trkpt lat="43.4216765" lon="11.1831947"><ele>175.5</ele><time>2026-04-17T16:08:44.293Z</time></trkpt><trkpt lat="43.421762" lon="11.1831117"><ele>175.25</ele><time>2026-04-17T16:08:46.278Z</time></trkpt><trkpt lat="43.421858" lon="11.1830194"><ele>175.0</ele><time>2026-04-17T16:08:48.291Z</time></trkpt><trkpt lat="43.4219595" lon="11.1829238"><ele>175.0</ele><time>2026-04-17T16:08:50.277Z</time></trkpt><trkpt lat="43.4220578" lon="11.1828331"><ele>175.0</ele><time>2026-04-17T16:08:52.294Z</time></trkpt><trkpt lat="43.4221619" lon="11.1827459"><ele>175.0</ele><time>2026-04-17T16:08:54.293Z</time></trkpt><trkpt lat="43.422244" lon="11.1826371"><ele>175.0</ele><time>2026-04-17T16:08:56.3Z</time></trkpt><trkpt lat="43.422279" lon="11.1824906"><ele>175.0</ele><time>2026-04-17T16:08:58.299Z</time></trkpt><trkpt lat="43.4222693" lon="11.1823496"><ele>175.0</ele><time>2026-04-17T16:09:00.294Z</time></trkpt><trkpt lat="43.4222166" lon="11.1822444"><ele>175.0</ele><time>2026-04-17T16:09:02.271Z</time></trkpt><trkpt lat="43.4221633" lon="11.1821401"><ele>175.0</ele><time>2026-04-17T16:09:04.295Z</time></trkpt><trkpt lat="43.4221066" lon="11.182038"><ele>175.0</ele><time>2026-04-17T16:09:06.303Z</time></trkpt><trkpt lat="43.4220568" lon="11.1819457"><ele>175.0</ele><time>2026-04-17T16:09:08.28Z</time></trkpt><trkpt lat="43.4219971" lon="11.1818417"><ele>175.0</ele><time>2026-04-17T16:09:10.285Z</time></trkpt><trkpt lat="43.4219375" lon="11.1817383"><ele>175.0</ele><time>2026-04-17T16:09:12.29Z</time></trkpt><trkpt lat="43.4218931" lon="11.1816293"><ele>175.0</ele><time>2026-04-17T16:09:14.282Z</time></trkpt><trkpt lat="43.4218545" lon="11.1815204"><ele>175.0</ele><time>2026-04-17T16:09:16.29Z</time></trkpt><trkpt lat="43.4218112" lon="11.1813991"><ele>174.8</ele><time>2026-04-17T16:09:18.309Z</time></trkpt><trkpt lat="43.4217688" lon="11.1812803"><ele>174.6</ele><time>2026-04-17T16:09:20.273Z</time></trkpt><trkpt lat="43.4217203" lon="11.1811582"><ele>174.39999999999998</ele><time>2026-04-17T16:09:22.281Z</time></trkpt><trkpt lat="43.4216651" lon="11.1810248"><ele>174.2</ele><time>2026-04-17T16:09:24.315Z</time></trkpt><trkpt lat="43.4216297" lon="11.180893"><ele>174.0</ele><time>2026-04-17T16:09:26.297Z</time></trkpt><trkpt lat="43.4216096" lon="11.1807969"><ele>174.0</ele><time>2026-04-17T16:09:28.281Z</time></trkpt><trkpt lat="43.4216472" lon="11.1807221"><ele>174.0</ele><time>2026-04-17T16:09:31.293Z</time></trkpt><trkpt lat="43.4217146" lon="11.1806745"><ele>174.0</ele><time>2026-04-17T16:09:34.293Z</time></trkpt><trkpt lat="43.4217807" lon="11.1806346"><ele>174.0</ele><time>2026-04-17T16:09:37.276Z</time></trkpt><trkpt lat="43.4218452" lon="11.1806022"><ele>174.0</ele><time>2026-04-17T16:09:40.3Z</time></trkpt><trkpt lat="43.4219091" lon="11.1805529"><ele>174.0</ele><time>2026-04-17T16:09:43.292Z</time></trkpt><trkpt lat="43.4219651" lon="11.1804938"><ele>174.0</ele><time>2026-04-17T16:09:46.283Z</time></trkpt><trkpt lat="43.4220378" lon="11.1804372"><ele>173.83333333333334</ele><time>2026-04-17T16:09:50.285Z</time></trkpt><trkpt lat="43.4221016" lon="11.1804395"><ele>173.66666666666666</ele><time>2026-04-17T16:09:56.284Z</time></trkpt><trkpt lat="43.4221403" lon="11.1805294"><ele>173.5</ele><time>2026-04-17T16:10:00.286Z</time></trkpt><trkpt lat="43.422165" lon="11.1806225"><ele>173.33333333333331</ele><time>2026-04-17T16:10:03.3Z</time></trkpt><trkpt lat="43.4221785" lon="11.1807381"><ele>173.16666666666666</ele><time>2026-04-17T16:10:06.287Z</time></trkpt><trkpt lat="43.4221822" lon="11.1808587"><ele>173.0</ele><time>2026-04-17T16:10:09.316Z</time></trkpt><trkpt lat="43.422193" lon="11.1809638"><ele>172.5</ele><time>2026-04-17T16:10:12.296Z</time></trkpt><trkpt lat="43.4222117" lon="11.1810609"><ele>172.0</ele><time>2026-04-17T16:10:15.284Z</time></trkpt><trkpt lat="43.422211" lon="11.1811767"><ele>171.5</ele><time>2026-04-17T16:10:18.287Z</time></trkpt><trkpt lat="43.4222198" lon="11.1812821"><ele>171.0</ele><time>2026-04-17T16:10:21.289Z</time></trkpt><trkpt lat="43.4222503" lon="11.1813769"><ele>170.5</ele><time>2026-04-17T16:10:24.279Z</time></trkpt><trkpt lat="43.4222662" lon="11.1812605"><ele>170.0</ele><time>2026-04-17T16:10:30.293Z</time></trkpt><trkpt lat="43.4222393" lon="11.1811718"><ele>170.0</ele><time>2026-04-17T16:10:33.303Z</time></trkpt><trkpt lat="43.4221772" lon="11.1811474"><ele>170.0</ele><time>2026-04-17T16:10:42.272Z</time></trkpt><trkpt lat="43.4220838" lon="11.1812261"><ele>170.0</ele><time>2026-04-17T16:11:01.298Z</time></trkpt><trkpt lat="43.4221541" lon="11.1812121"><ele>170.0</ele><time>2026-04-17T16:11:37.3Z</time></trkpt><trkpt lat="43.4222426" lon="11.1811758"><ele>170.0</ele><time>2026-04-17T16:11:55.299Z</time></trkpt><trkpt lat="43.4222639" lon="11.1810733"><ele>170.0</ele><time>2026-04-17T16:12:02.287Z</time></trkpt><trkpt lat="43.4222803" lon="11.1811795"><ele>170.0</ele><time>2026-04-17T16:12:15.29Z</time></trkpt><trkpt lat="43.4222995" lon="11.1812764"><ele>170.0</ele><time>2026-04-17T16:12:23.299Z</time></trkpt><trkpt lat="43.4222549" lon="11.1811984"><ele>170.0</ele><time>2026-04-17T16:12:29.3Z</time></trkpt><trkpt lat="43.422248" lon="11.1811064"><ele>170.0</ele><time>2026-04-17T16:12:33.294Z</time></trkpt><trkpt lat="43.4222375" lon="11.1810183"><ele>170.0</ele><time>2026-04-17T16:12:37.299Z</time></trkpt><trkpt lat="43.4222397" lon="11.1809282"><ele>170.0</ele><time>2026-04-17T16:12:41.294Z</time></trkpt><trkpt lat="43.4222135" lon="11.1808372"><ele>170.0</ele><time>2026-04-17T16:12:45.296Z</time></trkpt><trkpt lat="43.4222102" lon="11.1807304"><ele>170.33333333333331</ele><time>2026-04-17T16:12:48.306Z</time></trkpt><trkpt lat="43.4222136" lon="11.1806314"><ele>170.66666666666666</ele><time>2026-04-17T16:12:51.297Z</time></trkpt><trkpt lat="43.4222216" lon="11.1805259"><ele>171.0</ele><time>2026-04-17T16:12:55.292Z</time></trkpt><trkpt lat="43.4222848" lon="11.1804673"><ele>171.33333333333334</ele><time>2026-04-17T16:13:17.287Z</time></trkpt><trkpt lat="43.4223567" lon="11.1804185"><ele>171.66666666666669</ele><time>2026-04-17T16:13:21.294Z</time></trkpt><trkpt lat="43.4224353" lon="11.1803992"><ele>172.0</ele><time>2026-04-17T16:13:25.279Z</time></trkpt><trkpt lat="43.4225139" lon="11.1803637"><ele>172.00000000000003</ele><time>2026-04-17T16:13:28.283Z</time></trkpt><trkpt lat="43.4226062" lon="11.1803396"><ele>172.0</ele><time>2026-04-17T16:13:31.279Z</time></trkpt><trkpt lat="43.4226728" lon="11.1803341"><ele>172.0</ele><time>2026-04-17T16:13:33.285Z</time></trkpt><trkpt lat="43.4227505" lon="11.1803447"><ele>172.0</ele><time>2026-04-17T16:13:36.285Z</time></trkpt><trkpt lat="43.4226903" lon="11.1803113"><ele>172.0</ele><time>2026-04-17T16:13:41.284Z</time></trkpt><trkpt lat="43.4226252" lon="11.1803447"><ele>172.00000000000003</ele><time>2026-04-17T16:13:44.284Z</time></trkpt><trkpt lat="43.4225588" lon="11.1803666"><ele>172.0</ele><time>2026-04-17T16:13:47.285Z</time></trkpt><trkpt lat="43.4224915" lon="11.1803996"><ele>172.0</ele><time>2026-04-17T16:13:50.285Z</time></trkpt><trkpt lat="43.4224291" lon="11.1804175"><ele>172.0</ele><time>2026-04-17T16:13:53.282Z</time></trkpt><trkpt lat="43.4223496" lon="11.1804456"><ele>172.0</ele><time>2026-04-17T16:13:57.294Z</time></trkpt><trkpt lat="43.4222796" lon="11.1804621"><ele>172.0</ele><time>2026-04-17T16:14:00.287Z</time></trkpt><trkpt lat="43.422212" lon="11.1804964"><ele>172.0</ele><time>2026-04-17T16:14:03.273Z</time></trkpt><trkpt lat="43.4221327" lon="11.1804217"><ele>172.0</ele><time>2026-04-17T16:14:19.293Z</time></trkpt><trkpt lat="43.422126" lon="11.1805274"><ele>172.14285714285717</ele><time>2026-04-17T16:15:08.284Z</time></trkpt><trkpt lat="43.4220714" lon="11.1804662"><ele>172.28571428571428</ele><time>2026-04-17T16:15:12.364Z</time></trkpt><trkpt lat="43.422135" lon="11.1804756"><ele>172.42857142857144</ele><time>2026-04-17T16:15:35.296Z</time></trkpt><trkpt lat="43.4221439" lon="11.1805714"><ele>172.57142857142858</ele><time>2026-04-17T16:15:45.287Z</time></trkpt><trkpt lat="43.4221634" lon="11.1807047"><ele>172.71428571428572</ele><time>2026-04-17T16:15:48.294Z</time></trkpt><trkpt lat="43.422177" lon="11.18081"><ele>172.85714285714286</ele><time>2026-04-17T16:15:50.291Z</time></trkpt><trkpt lat="43.422202" lon="11.1808962"><ele>173.0</ele><time>2026-04-17T16:15:52.296Z</time></trkpt><trkpt lat="43.4222251" lon="11.1810242"><ele>172.5</ele><time>2026-04-17T16:15:55.29Z</time></trkpt><trkpt lat="43.422233" lon="11.181144"><ele>172.0</ele><time>2026-04-17T16:15:58.302Z</time></trkpt><trkpt lat="43.4222611" lon="11.1812312"><ele>171.5</ele><time>2026-04-17T16:16:00.317Z</time></trkpt><trkpt lat="43.4222521" lon="11.1813608"><ele>171.0</ele><time>2026-04-17T16:16:03.291Z</time></trkpt><trkpt lat="43.4222812" lon="11.1814383"><ele>170.5</ele><time>2026-04-17T16:16:06.301Z</time></trkpt><trkpt lat="43.4223278" lon="11.1813645"><ele>170.0</ele><time>2026-04-17T16:16:10.315Z</time></trkpt><trkpt lat="43.4223111" lon="11.1812502"><ele>170.0</ele><time>2026-04-17T16:16:13.29Z</time></trkpt><trkpt lat="43.4223022" lon="11.1811444"><ele>170.0</ele><time>2026-04-17T16:16:16.295Z</time></trkpt><trkpt lat="43.4222895" lon="11.1810328"><ele>170.0</ele><time>2026-04-17T16:16:19.298Z</time></trkpt><trkpt lat="43.4222602" lon="11.1809356"><ele>170.0</ele><time>2026-04-17T16:16:22.291Z</time></trkpt><trkpt lat="43.422229" lon="11.1808465"><ele>170.0</ele><time>2026-04-17T16:16:25.302Z</time></trkpt><trkpt lat="43.4221894" lon="11.1807617"><ele>170.0</ele><time>2026-04-17T16:16:28.275Z</time></trkpt><trkpt lat="43.4222056" lon="11.1806724"><ele>170.0</ele><time>2026-04-17T16:16:31.371Z</time></trkpt><trkpt lat="43.4221969" lon="11.1805841"><ele>170.4</ele><time>2026-04-17T16:16:35.287Z</time></trkpt><trkpt lat="43.4222446" lon="11.1804771"><ele>170.8</ele><time>2026-04-17T16:16:38.291Z</time></trkpt><trkpt lat="43.422323" lon="11.1804288"><ele>171.2</ele><time>2026-04-17T16:16:41.375Z</time></trkpt><trkpt lat="43.4224152" lon="11.1803146"><ele>171.6</ele><time>2026-04-17T16:16:43.277Z</time></trkpt><trkpt lat="43.4224971" lon="11.1802869"><ele>172.0</ele><time>2026-04-17T16:16:45.272Z</time></trkpt><trkpt lat="43.4225798" lon="11.1803112"><ele>172.00000000000003</ele><time>2026-04-17T16:16:48.3Z</time></trkpt><trkpt lat="43.4226662" lon="11.1803118"><ele>172.0</ele><time>2026-04-17T16:16:51.368Z</time></trkpt><trkpt lat="43.4227279" lon="11.1802925"><ele>172.0</ele><time>2026-04-17T16:16:53.297Z</time></trkpt><trkpt lat="43.4228235" lon="11.1802643"><ele>172.0</ele><time>2026-04-17T16:16:56.291Z</time></trkpt><trkpt lat="43.4228802" lon="11.1802202"><ele>172.0</ele><time>2026-04-17T16:16:58.287Z</time></trkpt><trkpt lat="43.4229271" lon="11.180162"><ele>172.00000000000003</ele><time>2026-04-17T16:17:00.289Z</time></trkpt><trkpt lat="43.4229894" lon="11.1801425"><ele>172.0</ele><time>2026-04-17T16:17:02.294Z</time></trkpt><trkpt lat="43.4230627" lon="11.1801559"><ele>171.6</ele><time>2026-04-17T16:17:04.294Z</time></trkpt><trkpt lat="43.4231381" lon="11.1801612"><ele>171.2</ele><time>2026-04-17T16:17:06.37Z</time></trkpt><trkpt lat="43.4232431" lon="11.1801792"><ele>170.8</ele><time>2026-04-17T16:17:08.278Z</time></trkpt><trkpt lat="43.4233449" lon="11.1801794"><ele>170.4</ele><time>2026-04-17T16:17:10.303Z</time></trkpt><trkpt lat="43.4234482" lon="11.1801648"><ele>170.0</ele><time>2026-04-17T16:17:12.369Z</time></trkpt><trkpt lat="43.4235539" lon="11.1801599"><ele>170.0</ele><time>2026-04-17T16:17:14.301Z</time></trkpt><trkpt lat="43.4236494" lon="11.1801585"><ele>170.0</ele><time>2026-04-17T16:17:16.304Z</time></trkpt><trkpt lat="43.4238105" lon="11.180131"><ele>170.0</ele><time>2026-04-17T16:17:19.296Z</time></trkpt><trkpt lat="43.4238865" lon="11.1801124"><ele>170.0</ele><time>2026-04-17T16:17:22.365Z</time></trkpt><trkpt lat="43.42395" lon="11.1801357"><ele>170.0</ele><time>2026-04-17T16:17:24.294Z</time></trkpt><trkpt lat="43.4239274" lon="11.1800209"><ele>170.0</ele><time>2026-04-17T16:17:29.299Z</time></trkpt><trkpt lat="43.4238488" lon="11.1800508"><ele>170.0</ele><time>2026-04-17T16:17:32.298Z</time></trkpt><trkpt lat="43.4237819" lon="11.1800817"><ele>170.0</ele><time>2026-04-17T16:17:34.299Z</time></trkpt><trkpt lat="43.4237173" lon="11.180084"><ele>170.0</ele><time>2026-04-17T16:17:36.364Z</time></trkpt><trkpt lat="43.4236302" lon="11.1801049"><ele>170.0</ele><time>2026-04-17T16:17:39.29Z</time></trkpt><trkpt lat="43.4235617" lon="11.1801552"><ele>170.0</ele><time>2026-04-17T16:17:42.291Z</time></trkpt><trkpt lat="43.4234878" lon="11.1801744"><ele>170.0</ele><time>2026-04-17T16:17:45.355Z</time></trkpt><trkpt lat="43.4234372" lon="11.1800953"><ele>170.0</ele><time>2026-04-17T16:17:47.295Z</time></trkpt><trkpt lat="43.4233493" lon="11.1801429"><ele>170.0</ele><time>2026-04-17T16:17:50.288Z</time></trkpt><trkpt lat="43.4232698" lon="11.1801205"><ele>170.0</ele><time>2026-04-17T16:17:55.296Z</time></trkpt><trkpt lat="43.4231986" lon="11.1801161"><ele>170.0</ele><time>2026-04-17T16:17:58.309Z</time></trkpt><trkpt lat="43.4231424" lon="11.1801564"><ele>170.0</ele><time>2026-04-17T16:18:00.291Z</time></trkpt><trkpt lat="43.4230616" lon="11.1801363"><ele>170.0</ele><time>2026-04-17T16:18:03.293Z</time></trkpt><trkpt lat="43.4229951" lon="11.1802256"><ele>170.0</ele><time>2026-04-17T16:18:05.373Z</time></trkpt><trkpt lat="43.4228992" lon="11.1802517"><ele>170.0</ele><time>2026-04-17T16:18:08.298Z</time></trkpt><trkpt lat="43.4228392" lon="11.1802914"><ele>170.0</ele><time>2026-04-17T16:18:10.367Z</time></trkpt><trkpt lat="43.4227715" lon="11.1802339"><ele>170.0</ele><time>2026-04-17T16:18:13.276Z</time></trkpt><trkpt lat="43.4226992" lon="11.1802401"><ele>170.0</ele><time>2026-04-17T16:18:16.291Z</time></trkpt><trkpt lat="43.4226319" lon="11.1802945"><ele>170.33333333333331</ele><time>2026-04-17T16:18:18.299Z</time></trkpt><trkpt lat="43.4225497" lon="11.1803411"><ele>170.66666666666666</ele><time>2026-04-17T16:18:21.308Z</time></trkpt><trkpt lat="43.4224858" lon="11.1803419"><ele>171.0</ele><time>2026-04-17T16:18:24.291Z</time></trkpt><trkpt lat="43.4224194" lon="11.1803736"><ele>171.33333333333334</ele><time>2026-04-17T16:18:27.295Z</time></trkpt><trkpt lat="43.4223464" lon="11.1804015"><ele>171.66666666666669</ele><time>2026-04-17T16:18:30.301Z</time></trkpt><trkpt lat="43.4222625" lon="11.1804293"><ele>172.0</ele><time>2026-04-17T16:18:33.296Z</time></trkpt><trkpt lat="43.4221851" lon="11.1804558"><ele>172.0</ele><time>2026-04-17T16:18:36.299Z</time></trkpt><trkpt lat="43.4221237" lon="11.180486"><ele>172.0</ele><time>2026-04-17T16:18:41.368Z</time></trkpt><trkpt lat="43.4221531" lon="11.1805687"><ele>172.0</ele><time>2026-04-17T16:18:43.301Z</time></trkpt><trkpt lat="43.4221948" lon="11.1807211"><ele>172.0</ele><time>2026-04-17T16:18:45.302Z</time></trkpt><trkpt lat="43.4222418" lon="11.1808927"><ele>172.0</ele><time>2026-04-17T16:18:47.289Z</time></trkpt><trkpt lat="43.422272" lon="11.1810077"><ele>171.66666666666669</ele><time>2026-04-17T16:18:48.299Z</time></trkpt><trkpt lat="43.4222815" lon="11.1811002"><ele>171.33333333333334</ele><time>2026-04-17T16:18:49.301Z</time></trkpt><trkpt lat="43.4222733" lon="11.1812247"><ele>171.0</ele><time>2026-04-17T16:18:52.374Z</time></trkpt><trkpt lat="43.4222788" lon="11.1813315"><ele>170.66666666666666</ele><time>2026-04-17T16:18:54.297Z</time></trkpt><trkpt lat="43.4222985" lon="11.1814163"><ele>170.33333333333331</ele><time>2026-04-17T16:18:58.285Z</time></trkpt><trkpt lat="43.4222968" lon="11.1815292"><ele>170.0</ele><time>2026-04-17T16:19:01.299Z</time></trkpt><trkpt lat="43.4222499" lon="11.1814214"><ele>170.0</ele><time>2026-04-17T16:19:09.3Z</time></trkpt><trkpt lat="43.4222689" lon="11.1813368"><ele>170.0</ele><time>2026-04-17T16:19:12.308Z</time></trkpt><trkpt lat="43.4222578" lon="11.1812439"><ele>170.0</ele><time>2026-04-17T16:19:15.297Z</time></trkpt><trkpt lat="43.4222417" lon="11.1811512"><ele>170.0</ele><time>2026-04-17T16:19:18.298Z</time></trkpt><trkpt lat="43.4222323" lon="11.1810635"><ele>170.0</ele><time>2026-04-17T16:19:21.299Z</time></trkpt><trkpt lat="43.4222309" lon="11.1809623"><ele>170.0</ele><time>2026-04-17T16:19:24.295Z</time></trkpt><trkpt lat="43.4222174" lon="11.1808589"><ele>170.0</ele><time>2026-04-17T16:19:27.364Z</time></trkpt><trkpt lat="43.4222093" lon="11.1807508"><ele>170.4</ele><time>2026-04-17T16:19:30.293Z</time></trkpt><trkpt lat="43.4221575" lon="11.1806021"><ele>170.8</ele><time>2026-04-17T16:19:33.29Z</time></trkpt><trkpt lat="43.4221071" lon="11.1804513"><ele>171.2</ele><time>2026-04-17T16:19:35.286Z</time></trkpt><trkpt lat="43.4221274" lon="11.1803168"><ele>171.6</ele><time>2026-04-17T16:19:37.359Z</time></trkpt><trkpt lat="43.4221829" lon="11.1802509"><ele>172.0</ele><time>2026-04-17T16:19:38.311Z</time></trkpt><trkpt lat="43.4222646" lon="11.1802539"><ele>172.00000000000003</ele><time>2026-04-17T16:19:40.292Z</time></trkpt><trkpt lat="43.4223375" lon="11.1802733"><ele>172.0</ele><time>2026-04-17T16:19:42.367Z</time></trkpt><trkpt lat="43.4224014" lon="11.1802636"><ele>172.0</ele><time>2026-04-17T16:19:44.299Z</time></trkpt><trkpt lat="43.4224702" lon="11.1802774"><ele>172.0</ele><time>2026-04-17T16:19:46.308Z</time></trkpt><trkpt lat="43.4225363" lon="11.1802754"><ele>172.0</ele><time>2026-04-17T16:19:48.287Z</time></trkpt><trkpt lat="43.4226285" lon="11.1802815"><ele>172.00000000000003</ele><time>2026-04-17T16:19:51.272Z</time></trkpt><trkpt lat="43.4226941" lon="11.1802704"><ele>172.0</ele><time>2026-04-17T16:19:53.296Z</time></trkpt><trkpt lat="43.4227787" lon="11.1802394"><ele>172.0</ele><time>2026-04-17T16:19:55.281Z</time></trkpt><trkpt lat="43.4228596" lon="11.1802006"><ele>172.0</ele><time>2026-04-17T16:19:57.296Z</time></trkpt><trkpt lat="43.4229346" lon="11.1801787"><ele>172.0</ele><time>2026-04-17T16:19:59.312Z</time></trkpt><trkpt lat="43.4230154" lon="11.1801802"><ele>172.0</ele><time>2026-04-17T16:20:01.365Z</time></trkpt><trkpt lat="43.4230828" lon="11.1801707"><ele>172.0</ele><time>2026-04-17T16:20:03.303Z</time></trkpt><trkpt lat="43.4231582" lon="11.1801479"><ele>172.0</ele><time>2026-04-17T16:20:05.299Z</time></trkpt><trkpt lat="43.4232356" lon="11.1801446"><ele>171.66666666666669</ele><time>2026-04-17T16:20:07.285Z</time></trkpt><trkpt lat="43.4233136" lon="11.1801525"><ele>171.33333333333334</ele><time>2026-04-17T16:20:09.283Z</time></trkpt><trkpt lat="43.4233875" lon="11.1801221"><ele>171.0</ele><time>2026-04-17T16:20:11.37Z</time></trkpt><trkpt lat="43.4234781" lon="11.1800986"><ele>170.66666666666666</ele><time>2026-04-17T16:20:13.286Z</time></trkpt><trkpt lat="43.423566" lon="11.1800963"><ele>170.33333333333331</ele><time>2026-04-17T16:20:15.295Z</time></trkpt><trkpt lat="43.4236489" lon="11.180097"><ele>170.0</ele><time>2026-04-17T16:20:17.366Z</time></trkpt><trkpt lat="43.4237257" lon="11.1800963"><ele>170.0</ele><time>2026-04-17T16:20:19.306Z</time></trkpt><trkpt lat="43.4237934" lon="11.1800955"><ele>170.0</ele><time>2026-04-17T16:20:21.376Z</time></trkpt><trkpt lat="43.4238781" lon="11.1801108"><ele>170.0</ele><time>2026-04-17T16:20:24.29Z</time></trkpt><trkpt lat="43.423955" lon="11.1801116"><ele>170.0</ele><time>2026-04-17T16:20:27.372Z</time></trkpt><trkpt lat="43.4238675" lon="11.1801288"><ele>170.0</ele><time>2026-04-17T16:20:35.299Z</time></trkpt><trkpt lat="43.4238035" lon="11.1801474"><ele>170.0</ele><time>2026-04-17T16:20:37.294Z</time></trkpt><trkpt lat="43.423738" lon="11.1801431"><ele>170.0</ele><time>2026-04-17T16:20:39.294Z</time></trkpt><trkpt lat="43.4236734" lon="11.1801486"><ele>170.0</ele><time>2026-04-17T16:20:43.315Z</time></trkpt><trkpt lat="43.4236103" lon="11.1801773"><ele>170.0</ele><time>2026-04-17T16:20:46.373Z</time></trkpt><trkpt lat="43.4235341" lon="11.1802097"><ele>170.0</ele><time>2026-04-17T16:20:50.292Z</time></trkpt><trkpt lat="43.4234715" lon="11.1802189"><ele>170.0</ele><time>2026-04-17T16:20:58.276Z</time></trkpt><trkpt lat="43.423548" lon="11.1802274"><ele>170.0</ele><time>2026-04-17T16:21:07.365Z</time></trkpt><trkpt lat="43.4236099" lon="11.1801804"><ele>170.0</ele><time>2026-04-17T16:21:08.287Z</time></trkpt><trkpt lat="43.4235591" lon="11.1802331"><ele>170.0</ele><time>2026-04-17T16:21:15.368Z</time></trkpt><trkpt lat="43.4235024" lon="11.1801937"><ele>170.0</ele><time>2026-04-17T16:21:21.295Z</time></trkpt><trkpt lat="43.4234314" lon="11.1801782"><ele>170.0</ele><time>2026-04-17T16:21:31.298Z</time></trkpt><trkpt lat="43.4233692" lon="11.1802015"><ele>170.0</ele><time>2026-04-17T16:21:34.31Z</time></trkpt><trkpt lat="43.4232938" lon="11.1802171"><ele>170.0</ele><time>2026-04-17T16:21:37.296Z</time></trkpt><trkpt lat="43.4232106" lon="11.1802443"><ele>170.0</ele><time>2026-04-17T16:21:40.286Z</time></trkpt><trkpt lat="43.4231407" lon="11.1802546"><ele>170.0</ele><time>2026-04-17T16:21:43.295Z</time></trkpt><trkpt lat="43.423053" lon="11.180261"><ele>170.33333333333331</ele><time>2026-04-17T16:21:47.303Z</time></trkpt><trkpt lat="43.4229753" lon="11.1802922"><ele>170.66666666666666</ele><time>2026-04-17T16:21:50.368Z</time></trkpt><trkpt lat="43.4228932" lon="11.1803165"><ele>171.0</ele><time>2026-04-17T16:21:53.277Z</time></trkpt><trkpt lat="43.4228129" lon="11.1803366"><ele>171.33333333333334</ele><time>2026-04-17T16:21:56.366Z</time></trkpt><trkpt lat="43.42273" lon="11.180336"><ele>171.66666666666669</ele><time>2026-04-17T16:21:59.299Z</time></trkpt><trkpt lat="43.4226604" lon="11.1803436"><ele>172.0</ele><time>2026-04-17T16:22:02.364Z</time></trkpt><trkpt lat="43.4225895" lon="11.1803518"><ele>172.00000000000003</ele><time>2026-04-17T16:22:05.301Z</time></trkpt><trkpt lat="43.4225241" lon="11.1803636"><ele>172.0</ele><time>2026-04-17T16:22:08.307Z</time></trkpt><trkpt lat="43.4224407" lon="11.1803728"><ele>172.0</ele><time>2026-04-17T16:22:12.294Z</time></trkpt><trkpt lat="43.4223775" lon="11.1803994"><ele>172.0</ele><time>2026-04-17T16:22:15.287Z</time></trkpt><trkpt lat="43.4223146" lon="11.1804236"><ele>172.0</ele><time>2026-04-17T16:22:18.297Z</time></trkpt><trkpt lat="43.4222397" lon="11.1804445"><ele>172.00000000000003</ele><time>2026-04-17T16:22:21.309Z</time></trkpt><trkpt lat="43.4221571" lon="11.1804708"><ele>172.0</ele><time>2026-04-17T16:22:24.29Z</time></trkpt><trkpt lat="43.4221396" lon="11.1805685"><ele>172.0</ele><time>2026-04-17T16:22:29.295Z</time></trkpt><trkpt lat="43.4221532" lon="11.1806752"><ele>172.0</ele><time>2026-04-17T16:22:31.367Z</time></trkpt><trkpt lat="43.4221925" lon="11.1807906"><ele>172.0</ele><time>2026-04-17T16:22:33.291Z</time></trkpt><trkpt lat="43.4222221" lon="11.1808874"><ele>172.0</ele><time>2026-04-17T16:22:35.368Z</time></trkpt><trkpt lat="43.4221957" lon="11.1809666"><ele>172.0</ele><time>2026-04-17T16:22:38.293Z</time></trkpt><trkpt lat="43.422162" lon="11.1808875"><ele>172.0</ele><time>2026-04-17T16:22:44.297Z</time></trkpt><trkpt lat="43.4221696" lon="11.1807712"><ele>172.0</ele><time>2026-04-17T16:22:47.367Z</time></trkpt><trkpt lat="43.4221805" lon="11.1808709"><ele>172.0</ele><time>2026-04-17T16:22:57.29Z</time></trkpt><trkpt lat="43.422206" lon="11.1809792"><ele>172.0</ele><time>2026-04-17T16:23:00.297Z</time></trkpt><trkpt lat="43.4221737" lon="11.1808903"><ele>172.0</ele><time>2026-04-17T16:23:07.299Z</time></trkpt><trkpt lat="43.4221671" lon="11.1807866"><ele>172.0</ele><time>2026-04-17T16:23:11.301Z</time></trkpt><trkpt lat="43.4221951" lon="11.180691"><ele>172.0</ele><time>2026-04-17T16:23:15.294Z</time></trkpt><trkpt lat="43.4222061" lon="11.1805923"><ele>172.16666666666669</ele><time>2026-04-17T16:23:20.365Z</time></trkpt><trkpt lat="43.4220901" lon="11.1805054"><ele>172.33333333333334</ele><time>2026-04-17T16:23:23.278Z</time></trkpt><trkpt lat="43.4220243" lon="11.1805081"><ele>172.5</ele><time>2026-04-17T16:23:25.372Z</time></trkpt><trkpt lat="43.4220247" lon="11.1806212"><ele>172.66666666666666</ele><time>2026-04-17T16:23:28.296Z</time></trkpt><trkpt lat="43.4220609" lon="11.1807036"><ele>172.83333333333331</ele><time>2026-04-17T16:23:30.369Z</time></trkpt><trkpt lat="43.4220973" lon="11.1807853"><ele>173.0</ele><time>2026-04-17T16:23:37.295Z</time></trkpt><trkpt lat="43.4222083" lon="11.1808574"><ele>172.5</ele><time>2026-04-17T16:23:46.294Z</time></trkpt><trkpt lat="43.4222356" lon="11.1809714"><ele>172.0</ele><time>2026-04-17T16:23:51.38Z</time></trkpt><trkpt lat="43.4222419" lon="11.1811026"><ele>171.5</ele><time>2026-04-17T16:23:54.297Z</time></trkpt><trkpt lat="43.4222579" lon="11.1812009"><ele>171.0</ele><time>2026-04-17T16:23:56.301Z</time></trkpt><trkpt lat="43.4222629" lon="11.1811086"><ele>170.5</ele><time>2026-04-17T16:24:03.285Z</time></trkpt><trkpt lat="43.4222361" lon="11.1810262"><ele>170.0</ele><time>2026-04-17T16:24:05.3Z</time></trkpt><trkpt lat="43.4222282" lon="11.1811184"><ele>170.0</ele><time>2026-04-17T16:24:14.294Z</time></trkpt><trkpt lat="43.422281" lon="11.1810288"><ele>170.0</ele><time>2026-04-17T16:24:29.29Z</time></trkpt><trkpt lat="43.4222554" lon="11.1809181"><ele>170.0</ele><time>2026-04-17T16:24:38.277Z</time></trkpt><trkpt lat="43.4222526" lon="11.1810277"><ele>170.0</ele><time>2026-04-17T16:24:45.362Z</time></trkpt><trkpt lat="43.4222897" lon="11.1811401"><ele>170.0</ele><time>2026-04-17T16:24:49.301Z</time></trkpt><trkpt lat="43.4222809" lon="11.1812261"><ele>170.0</ele><time>2026-04-17T16:24:51.368Z</time></trkpt><trkpt lat="43.422295" lon="11.18134"><ele>170.0</ele><time>2026-04-17T16:24:55.3Z</time></trkpt><trkpt lat="43.422344" lon="11.1812706"><ele>170.0</ele><time>2026-04-17T16:25:00.287Z</time></trkpt><trkpt lat="43.4223424" lon="11.1811652"><ele>170.0</ele><time>2026-04-17T16:25:03.294Z</time></trkpt><trkpt lat="43.4223352" lon="11.1810728"><ele>170.0</ele><time>2026-04-17T16:25:07.291Z</time></trkpt><trkpt lat="43.4222957" lon="11.1810011"><ele>170.0</ele><time>2026-04-17T16:25:14.288Z</time></trkpt><trkpt lat="43.4222704" lon="11.1811032"><ele>170.0</ele><time>2026-04-17T16:25:24.301Z</time></trkpt><trkpt lat="43.4222491" lon="11.1810205"><ele>170.0</ele><time>2026-04-17T16:26:01.362Z</time></trkpt><trkpt lat="43.4222642" lon="11.1811081"><ele>170.0</ele><time>2026-04-17T16:26:07.273Z</time></trkpt><trkpt lat="43.4222076" lon="11.1811964"><ele>170.0</ele><time>2026-04-17T16:26:17.366Z</time></trkpt><trkpt lat="43.4221697" lon="11.1812841"><ele>170.0</ele><time>2026-04-17T16:26:22.365Z</time></trkpt><trkpt lat="43.4221014" lon="11.1812956"><ele>174.0</ele><time>2026-04-17T16:26:24.298Z</time></trkpt><trkpt lat="43.4220342" lon="11.1812655"><ele>174.0</ele><time>2026-04-17T16:27:13.274Z</time></trkpt><trkpt lat="43.4219823" lon="11.1812082"><ele>174.0</ele><time>2026-04-17T16:27:23.269Z</time></trkpt></trkseg></trk></gpx>